<?xml version="1.0"?>
<gpx creator="GPS Visualizer http://www.gpsvisualizer.com/" version="1.1" xmlns="http://www.topografix.com/GPX/1/1" xmlns:xsi="http://www.w3.org/2001/XMLSchema-instance" xsi:schemaLocation="http://www.topografix.com/GPX/1/1 http://www.topografix.com/GPX/1/1/gpx.xsd">
<trk>
  <name>2014-09-14-01</name>
  <trkseg>
    <trkpt lat="48.496774" lon="2.634913">
      <ele>93.5</ele>
      <time>2014-09-14T07:38:37Z</time>
    </trkpt>
    <trkpt lat="48.496768" lon="2.634917">
      <ele>93.5</ele>
      <time>2014-09-14T07:38:38Z</time>
    </trkpt>
    <trkpt lat="48.496694" lon="2.634803">
      <ele>92.9</ele>
      <time>2014-09-14T07:39:22Z</time>
    </trkpt>
    <trkpt lat="48.496602" lon="2.63489">
      <ele>92.7</ele>
      <time>2014-09-14T07:39:31Z</time>
    </trkpt>
    <trkpt lat="48.496514" lon="2.634973">
      <ele>92.6</ele>
      <time>2014-09-14T07:39:34Z</time>
    </trkpt>
    <trkpt lat="48.496432" lon="2.63505">
      <ele>92.5</ele>
      <time>2014-09-14T07:39:37Z</time>
    </trkpt>
    <trkpt lat="48.49634" lon="2.635141">
      <ele>92.4</ele>
      <time>2014-09-14T07:39:40Z</time>
    </trkpt>
    <trkpt lat="48.49626" lon="2.63521">
      <ele>92.3</ele>
      <time>2014-09-14T07:39:42Z</time>
    </trkpt>
    <trkpt lat="48.496187" lon="2.635297">
      <ele>92.2</ele>
      <time>2014-09-14T07:39:44Z</time>
    </trkpt>
    <trkpt lat="48.496108" lon="2.635397">
      <ele>92.0</ele>
      <time>2014-09-14T07:39:46Z</time>
    </trkpt>
    <trkpt lat="48.496011" lon="2.635522">
      <ele>91.7</ele>
      <time>2014-09-14T07:39:49Z</time>
    </trkpt>
    <trkpt lat="48.495935" lon="2.635635">
      <ele>91.4</ele>
      <time>2014-09-14T07:39:51Z</time>
    </trkpt>
    <trkpt lat="48.495854" lon="2.635733">
      <ele>91.1</ele>
      <time>2014-09-14T07:39:53Z</time>
    </trkpt>
    <trkpt lat="48.495758" lon="2.635852">
      <ele>91.1</ele>
      <time>2014-09-14T07:39:55Z</time>
    </trkpt>
    <trkpt lat="48.495679" lon="2.635976">
      <ele>91.5</ele>
      <time>2014-09-14T07:39:57Z</time>
    </trkpt>
    <trkpt lat="48.495599" lon="2.63606">
      <ele>91.8</ele>
      <time>2014-09-14T07:39:59Z</time>
    </trkpt>
    <trkpt lat="48.495523" lon="2.636163">
      <ele>92.2</ele>
      <time>2014-09-14T07:40:01Z</time>
    </trkpt>
    <trkpt lat="48.495453" lon="2.636264">
      <ele>92.5</ele>
      <time>2014-09-14T07:40:03Z</time>
    </trkpt>
    <trkpt lat="48.495381" lon="2.636355">
      <ele>92.8</ele>
      <time>2014-09-14T07:40:05Z</time>
    </trkpt>
    <trkpt lat="48.495307" lon="2.636438">
      <ele>93.1</ele>
      <time>2014-09-14T07:40:07Z</time>
    </trkpt>
    <trkpt lat="48.495232" lon="2.63655">
      <ele>93.4</ele>
      <time>2014-09-14T07:40:09Z</time>
    </trkpt>
    <trkpt lat="48.49515" lon="2.636647">
      <ele>93.8</ele>
      <time>2014-09-14T07:40:11Z</time>
    </trkpt>
    <trkpt lat="48.495075" lon="2.636756">
      <ele>93.8</ele>
      <time>2014-09-14T07:40:13Z</time>
    </trkpt>
    <trkpt lat="48.495004" lon="2.636844">
      <ele>93.8</ele>
      <time>2014-09-14T07:40:15Z</time>
    </trkpt>
    <trkpt lat="48.494934" lon="2.636931">
      <ele>93.7</ele>
      <time>2014-09-14T07:40:17Z</time>
    </trkpt>
    <trkpt lat="48.494858" lon="2.637035">
      <ele>93.6</ele>
      <time>2014-09-14T07:40:19Z</time>
    </trkpt>
    <trkpt lat="48.494773" lon="2.637111">
      <ele>93.6</ele>
      <time>2014-09-14T07:40:21Z</time>
    </trkpt>
    <trkpt lat="48.494695" lon="2.637208">
      <ele>93.6</ele>
      <time>2014-09-14T07:40:23Z</time>
    </trkpt>
    <trkpt lat="48.494617" lon="2.637304">
      <ele>93.6</ele>
      <time>2014-09-14T07:40:25Z</time>
    </trkpt>
    <trkpt lat="48.494505" lon="2.637427">
      <ele>93.6</ele>
      <time>2014-09-14T07:40:28Z</time>
    </trkpt>
    <trkpt lat="48.494408" lon="2.637549">
      <ele>93.8</ele>
      <time>2014-09-14T07:40:31Z</time>
    </trkpt>
    <trkpt lat="48.49432" lon="2.637643">
      <ele>94.1</ele>
      <time>2014-09-14T07:40:33Z</time>
    </trkpt>
    <trkpt lat="48.49423" lon="2.637765">
      <ele>94.5</ele>
      <time>2014-09-14T07:40:36Z</time>
    </trkpt>
    <trkpt lat="48.494163" lon="2.637862">
      <ele>94.9</ele>
      <time>2014-09-14T07:40:38Z</time>
    </trkpt>
    <trkpt lat="48.494062" lon="2.637977">
      <ele>95.3</ele>
      <time>2014-09-14T07:40:41Z</time>
    </trkpt>
    <trkpt lat="48.493921" lon="2.638173">
      <ele>96.1</ele>
      <time>2014-09-14T07:40:45Z</time>
    </trkpt>
    <trkpt lat="48.493834" lon="2.63827">
      <ele>96.6</ele>
      <time>2014-09-14T07:40:47Z</time>
    </trkpt>
    <trkpt lat="48.493764" lon="2.638372">
      <ele>96.9</ele>
      <time>2014-09-14T07:40:49Z</time>
    </trkpt>
    <trkpt lat="48.493657" lon="2.638501">
      <ele>97.1</ele>
      <time>2014-09-14T07:40:52Z</time>
    </trkpt>
    <trkpt lat="48.493571" lon="2.638619">
      <ele>97.3</ele>
      <time>2014-09-14T07:40:54Z</time>
    </trkpt>
    <trkpt lat="48.493508" lon="2.638721">
      <ele>97.5</ele>
      <time>2014-09-14T07:40:56Z</time>
    </trkpt>
    <trkpt lat="48.493408" lon="2.63887">
      <ele>97.8</ele>
      <time>2014-09-14T07:40:59Z</time>
    </trkpt>
    <trkpt lat="48.493326" lon="2.63896">
      <ele>98.0</ele>
      <time>2014-09-14T07:41:01Z</time>
    </trkpt>
    <trkpt lat="48.493259" lon="2.639103">
      <ele>98.3</ele>
      <time>2014-09-14T07:41:04Z</time>
    </trkpt>
    <trkpt lat="48.493178" lon="2.639253">
      <ele>98.5</ele>
      <time>2014-09-14T07:41:07Z</time>
    </trkpt>
    <trkpt lat="48.493059" lon="2.639369">
      <ele>98.7</ele>
      <time>2014-09-14T07:41:10Z</time>
    </trkpt>
    <trkpt lat="48.492968" lon="2.639445">
      <ele>99.0</ele>
      <time>2014-09-14T07:41:12Z</time>
    </trkpt>
    <trkpt lat="48.492854" lon="2.639543">
      <ele>99.3</ele>
      <time>2014-09-14T07:41:14Z</time>
    </trkpt>
    <trkpt lat="48.492746" lon="2.639648">
      <ele>99.5</ele>
      <time>2014-09-14T07:41:17Z</time>
    </trkpt>
    <trkpt lat="48.492648" lon="2.639749">
      <ele>99.8</ele>
      <time>2014-09-14T07:41:20Z</time>
    </trkpt>
    <trkpt lat="48.492558" lon="2.639857">
      <ele>100.0</ele>
      <time>2014-09-14T07:41:23Z</time>
    </trkpt>
    <trkpt lat="48.492481" lon="2.639938">
      <ele>100.1</ele>
      <time>2014-09-14T07:41:25Z</time>
    </trkpt>
    <trkpt lat="48.49236" lon="2.640052">
      <ele>100.4</ele>
      <time>2014-09-14T07:41:28Z</time>
    </trkpt>
    <trkpt lat="48.492265" lon="2.640193">
      <ele>100.7</ele>
      <time>2014-09-14T07:41:31Z</time>
    </trkpt>
    <trkpt lat="48.492206" lon="2.640302">
      <ele>100.9</ele>
      <time>2014-09-14T07:41:33Z</time>
    </trkpt>
    <trkpt lat="48.49212" lon="2.640437">
      <ele>101.2</ele>
      <time>2014-09-14T07:41:35Z</time>
    </trkpt>
    <trkpt lat="48.492042" lon="2.64053">
      <ele>101.4</ele>
      <time>2014-09-14T07:41:37Z</time>
    </trkpt>
    <trkpt lat="48.491959" lon="2.64064">
      <ele>101.6</ele>
      <time>2014-09-14T07:41:40Z</time>
    </trkpt>
    <trkpt lat="48.491842" lon="2.640749">
      <ele>101.8</ele>
      <time>2014-09-14T07:41:43Z</time>
    </trkpt>
    <trkpt lat="48.491697" lon="2.640939">
      <ele>101.8</ele>
      <time>2014-09-14T07:41:47Z</time>
    </trkpt>
    <trkpt lat="48.491623" lon="2.641041">
      <ele>101.7</ele>
      <time>2014-09-14T07:41:49Z</time>
    </trkpt>
    <trkpt lat="48.491549" lon="2.641124">
      <ele>101.6</ele>
      <time>2014-09-14T07:41:51Z</time>
    </trkpt>
    <trkpt lat="48.491475" lon="2.641229">
      <ele>101.4</ele>
      <time>2014-09-14T07:41:53Z</time>
    </trkpt>
    <trkpt lat="48.491389" lon="2.641304">
      <ele>101.3</ele>
      <time>2014-09-14T07:41:55Z</time>
    </trkpt>
    <trkpt lat="48.491293" lon="2.641448">
      <ele>101.1</ele>
      <time>2014-09-14T07:41:58Z</time>
    </trkpt>
    <trkpt lat="48.491206" lon="2.641554">
      <ele>101.1</ele>
      <time>2014-09-14T07:42:01Z</time>
    </trkpt>
    <trkpt lat="48.491135" lon="2.64164">
      <ele>101.0</ele>
      <time>2014-09-14T07:42:03Z</time>
    </trkpt>
    <trkpt lat="48.491054" lon="2.641707">
      <ele>101.0</ele>
      <time>2014-09-14T07:42:05Z</time>
    </trkpt>
    <trkpt lat="48.49095" lon="2.641853">
      <ele>101.2</ele>
      <time>2014-09-14T07:42:08Z</time>
    </trkpt>
    <trkpt lat="48.490835" lon="2.642014">
      <ele>101.4</ele>
      <time>2014-09-14T07:42:10Z</time>
    </trkpt>
    <trkpt lat="48.490741" lon="2.642131">
      <ele>101.4</ele>
      <time>2014-09-14T07:42:12Z</time>
    </trkpt>
    <trkpt lat="48.490646" lon="2.64225">
      <ele>101.4</ele>
      <time>2014-09-14T07:42:15Z</time>
    </trkpt>
    <trkpt lat="48.490559" lon="2.642369">
      <ele>101.5</ele>
      <time>2014-09-14T07:42:18Z</time>
    </trkpt>
    <trkpt lat="48.490493" lon="2.642473">
      <ele>101.5</ele>
      <time>2014-09-14T07:42:21Z</time>
    </trkpt>
    <trkpt lat="48.490415" lon="2.642556">
      <ele>101.5</ele>
      <time>2014-09-14T07:42:23Z</time>
    </trkpt>
    <trkpt lat="48.490314" lon="2.642645">
      <ele>101.5</ele>
      <time>2014-09-14T07:42:26Z</time>
    </trkpt>
    <trkpt lat="48.490214" lon="2.642789">
      <ele>101.5</ele>
      <time>2014-09-14T07:42:29Z</time>
    </trkpt>
    <trkpt lat="48.490116" lon="2.642915">
      <ele>101.6</ele>
      <time>2014-09-14T07:42:32Z</time>
    </trkpt>
    <trkpt lat="48.490001" lon="2.643063">
      <ele>101.7</ele>
      <time>2014-09-14T07:42:35Z</time>
    </trkpt>
    <trkpt lat="48.489926" lon="2.64317">
      <ele>101.5</ele>
      <time>2014-09-14T07:42:37Z</time>
    </trkpt>
    <trkpt lat="48.489803" lon="2.643325">
      <ele>101.0</ele>
      <time>2014-09-14T07:42:40Z</time>
    </trkpt>
    <trkpt lat="48.489719" lon="2.643427">
      <ele>100.5</ele>
      <time>2014-09-14T07:42:42Z</time>
    </trkpt>
    <trkpt lat="48.489656" lon="2.643571">
      <ele>100.1</ele>
      <time>2014-09-14T07:42:44Z</time>
    </trkpt>
    <trkpt lat="48.489564" lon="2.643847">
      <ele>99.3</ele>
      <time>2014-09-14T07:42:48Z</time>
    </trkpt>
    <trkpt lat="48.489522" lon="2.644026">
      <ele>98.9</ele>
      <time>2014-09-14T07:42:51Z</time>
    </trkpt>
    <trkpt lat="48.489494" lon="2.64422">
      <ele>98.5</ele>
      <time>2014-09-14T07:42:54Z</time>
    </trkpt>
    <trkpt lat="48.489449" lon="2.644358">
      <ele>98.1</ele>
      <time>2014-09-14T07:42:56Z</time>
    </trkpt>
    <trkpt lat="48.489402" lon="2.644537">
      <ele>97.7</ele>
      <time>2014-09-14T07:42:58Z</time>
    </trkpt>
    <trkpt lat="48.489371" lon="2.644672">
      <ele>97.4</ele>
      <time>2014-09-14T07:43:00Z</time>
    </trkpt>
    <trkpt lat="48.489346" lon="2.64483">
      <ele>97.1</ele>
      <time>2014-09-14T07:43:02Z</time>
    </trkpt>
    <trkpt lat="48.489317" lon="2.644972">
      <ele>96.8</ele>
      <time>2014-09-14T07:43:04Z</time>
    </trkpt>
    <trkpt lat="48.489275" lon="2.645143">
      <ele>97.0</ele>
      <time>2014-09-14T07:43:06Z</time>
    </trkpt>
    <trkpt lat="48.489237" lon="2.645305">
      <ele>97.3</ele>
      <time>2014-09-14T07:43:08Z</time>
    </trkpt>
    <trkpt lat="48.489194" lon="2.645456">
      <ele>97.7</ele>
      <time>2014-09-14T07:43:10Z</time>
    </trkpt>
    <trkpt lat="48.489131" lon="2.645634">
      <ele>98.2</ele>
      <time>2014-09-14T07:43:12Z</time>
    </trkpt>
    <trkpt lat="48.489091" lon="2.645794">
      <ele>98.6</ele>
      <time>2014-09-14T07:43:14Z</time>
    </trkpt>
    <trkpt lat="48.489063" lon="2.645956">
      <ele>98.8</ele>
      <time>2014-09-14T07:43:16Z</time>
    </trkpt>
    <trkpt lat="48.489017" lon="2.646114">
      <ele>98.7</ele>
      <time>2014-09-14T07:43:18Z</time>
    </trkpt>
    <trkpt lat="48.488978" lon="2.646266">
      <ele>98.7</ele>
      <time>2014-09-14T07:43:20Z</time>
    </trkpt>
    <trkpt lat="48.488911" lon="2.64646">
      <ele>98.6</ele>
      <time>2014-09-14T07:43:22Z</time>
    </trkpt>
    <trkpt lat="48.488845" lon="2.646611">
      <ele>98.4</ele>
      <time>2014-09-14T07:43:24Z</time>
    </trkpt>
    <trkpt lat="48.488784" lon="2.646725">
      <ele>98.3</ele>
      <time>2014-09-14T07:43:26Z</time>
    </trkpt>
    <trkpt lat="48.488709" lon="2.646871">
      <ele>98.3</ele>
      <time>2014-09-14T07:43:28Z</time>
    </trkpt>
    <trkpt lat="48.488648" lon="2.647002">
      <ele>98.3</ele>
      <time>2014-09-14T07:43:30Z</time>
    </trkpt>
    <trkpt lat="48.488593" lon="2.64712">
      <ele>98.3</ele>
      <time>2014-09-14T07:43:32Z</time>
    </trkpt>
    <trkpt lat="48.488515" lon="2.647277">
      <ele>98.3</ele>
      <time>2014-09-14T07:43:34Z</time>
    </trkpt>
    <trkpt lat="48.48844" lon="2.647419">
      <ele>98.3</ele>
      <time>2014-09-14T07:43:36Z</time>
    </trkpt>
    <trkpt lat="48.488381" lon="2.647553">
      <ele>98.3</ele>
      <time>2014-09-14T07:43:38Z</time>
    </trkpt>
    <trkpt lat="48.488319" lon="2.647696">
      <ele>98.4</ele>
      <time>2014-09-14T07:43:40Z</time>
    </trkpt>
    <trkpt lat="48.48825" lon="2.647831">
      <ele>98.3</ele>
      <time>2014-09-14T07:43:42Z</time>
    </trkpt>
    <trkpt lat="48.488183" lon="2.647967">
      <ele>98.2</ele>
      <time>2014-09-14T07:43:44Z</time>
    </trkpt>
    <trkpt lat="48.488103" lon="2.648131">
      <ele>98.0</ele>
      <time>2014-09-14T07:43:47Z</time>
    </trkpt>
    <trkpt lat="48.487957" lon="2.648427">
      <ele>97.4</ele>
      <time>2014-09-14T07:43:51Z</time>
    </trkpt>
    <trkpt lat="48.487898" lon="2.648542">
      <ele>97.3</ele>
      <time>2014-09-14T07:43:53Z</time>
    </trkpt>
    <trkpt lat="48.487831" lon="2.648697">
      <ele>97.2</ele>
      <time>2014-09-14T07:43:56Z</time>
    </trkpt>
    <trkpt lat="48.487774" lon="2.648807">
      <ele>97.1</ele>
      <time>2014-09-14T07:43:58Z</time>
    </trkpt>
    <trkpt lat="48.487708" lon="2.648974">
      <ele>97.2</ele>
      <time>2014-09-14T07:44:01Z</time>
    </trkpt>
    <trkpt lat="48.487618" lon="2.64914">
      <ele>97.3</ele>
      <time>2014-09-14T07:44:03Z</time>
    </trkpt>
    <trkpt lat="48.487561" lon="2.649252">
      <ele>97.4</ele>
      <time>2014-09-14T07:44:04Z</time>
    </trkpt>
    <trkpt lat="48.487494" lon="2.649398">
      <ele>97.5</ele>
      <time>2014-09-14T07:44:06Z</time>
    </trkpt>
    <trkpt lat="48.487417" lon="2.649573">
      <ele>97.8</ele>
      <time>2014-09-14T07:44:09Z</time>
    </trkpt>
    <trkpt lat="48.48736" lon="2.649689">
      <ele>97.9</ele>
      <time>2014-09-14T07:44:11Z</time>
    </trkpt>
    <trkpt lat="48.487291" lon="2.649822">
      <ele>97.9</ele>
      <time>2014-09-14T07:44:13Z</time>
    </trkpt>
    <trkpt lat="48.487228" lon="2.649934">
      <ele>97.9</ele>
      <time>2014-09-14T07:44:15Z</time>
    </trkpt>
    <trkpt lat="48.487159" lon="2.65008">
      <ele>98.0</ele>
      <time>2014-09-14T07:44:18Z</time>
    </trkpt>
    <trkpt lat="48.487095" lon="2.650188">
      <ele>98.0</ele>
      <time>2014-09-14T07:44:20Z</time>
    </trkpt>
    <trkpt lat="48.487023" lon="2.650295">
      <ele>98.0</ele>
      <time>2014-09-14T07:44:22Z</time>
    </trkpt>
    <trkpt lat="48.486966" lon="2.650433">
      <ele>98.1</ele>
      <time>2014-09-14T07:44:24Z</time>
    </trkpt>
    <trkpt lat="48.486885" lon="2.650581">
      <ele>98.2</ele>
      <time>2014-09-14T07:44:27Z</time>
    </trkpt>
    <trkpt lat="48.486807" lon="2.650727">
      <ele>98.2</ele>
      <time>2014-09-14T07:44:30Z</time>
    </trkpt>
    <trkpt lat="48.486737" lon="2.650888">
      <ele>98.4</ele>
      <time>2014-09-14T07:44:33Z</time>
    </trkpt>
    <trkpt lat="48.486683" lon="2.651035">
      <ele>98.5</ele>
      <time>2014-09-14T07:44:36Z</time>
    </trkpt>
    <trkpt lat="48.486621" lon="2.651187">
      <ele>98.8</ele>
      <time>2014-09-14T07:44:39Z</time>
    </trkpt>
    <trkpt lat="48.486539" lon="2.651336">
      <ele>99.1</ele>
      <time>2014-09-14T07:44:41Z</time>
    </trkpt>
    <trkpt lat="48.48648" lon="2.651442">
      <ele>99.3</ele>
      <time>2014-09-14T07:44:43Z</time>
    </trkpt>
    <trkpt lat="48.486413" lon="2.651597">
      <ele>99.6</ele>
      <time>2014-09-14T07:44:46Z</time>
    </trkpt>
    <trkpt lat="48.486365" lon="2.651716">
      <ele>99.8</ele>
      <time>2014-09-14T07:44:48Z</time>
    </trkpt>
    <trkpt lat="48.486249" lon="2.65196">
      <ele>100.2</ele>
      <time>2014-09-14T07:44:52Z</time>
    </trkpt>
    <trkpt lat="48.48617" lon="2.652113">
      <ele>100.4</ele>
      <time>2014-09-14T07:44:55Z</time>
    </trkpt>
    <trkpt lat="48.486097" lon="2.652262">
      <ele>100.5</ele>
      <time>2014-09-14T07:44:58Z</time>
    </trkpt>
    <trkpt lat="48.48603" lon="2.652407">
      <ele>100.5</ele>
      <time>2014-09-14T07:45:01Z</time>
    </trkpt>
    <trkpt lat="48.485964" lon="2.652575">
      <ele>100.7</ele>
      <time>2014-09-14T07:45:04Z</time>
    </trkpt>
    <trkpt lat="48.48589" lon="2.652744">
      <ele>101.1</ele>
      <time>2014-09-14T07:45:07Z</time>
    </trkpt>
    <trkpt lat="48.4858" lon="2.652897">
      <ele>101.4</ele>
      <time>2014-09-14T07:45:10Z</time>
    </trkpt>
    <trkpt lat="48.485734" lon="2.653033">
      <ele>101.7</ele>
      <time>2014-09-14T07:45:12Z</time>
    </trkpt>
    <trkpt lat="48.485656" lon="2.653186">
      <ele>101.9</ele>
      <time>2014-09-14T07:45:14Z</time>
    </trkpt>
    <trkpt lat="48.485571" lon="2.653358">
      <ele>102.0</ele>
      <time>2014-09-14T07:45:16Z</time>
    </trkpt>
    <trkpt lat="48.485518" lon="2.653519">
      <ele>101.8</ele>
      <time>2014-09-14T07:45:18Z</time>
    </trkpt>
    <trkpt lat="48.48548" lon="2.653667">
      <ele>101.7</ele>
      <time>2014-09-14T07:45:20Z</time>
    </trkpt>
    <trkpt lat="48.485466" lon="2.653832">
      <ele>101.6</ele>
      <time>2014-09-14T07:45:22Z</time>
    </trkpt>
    <trkpt lat="48.485433" lon="2.653996">
      <ele>101.5</ele>
      <time>2014-09-14T07:45:24Z</time>
    </trkpt>
    <trkpt lat="48.485398" lon="2.654161">
      <ele>101.5</ele>
      <time>2014-09-14T07:45:26Z</time>
    </trkpt>
    <trkpt lat="48.485368" lon="2.654315">
      <ele>101.4</ele>
      <time>2014-09-14T07:45:28Z</time>
    </trkpt>
    <trkpt lat="48.485346" lon="2.654471">
      <ele>101.4</ele>
      <time>2014-09-14T07:45:30Z</time>
    </trkpt>
    <trkpt lat="48.485322" lon="2.654628">
      <ele>101.4</ele>
      <time>2014-09-14T07:45:32Z</time>
    </trkpt>
    <trkpt lat="48.485316" lon="2.654773">
      <ele>101.4</ele>
      <time>2014-09-14T07:45:34Z</time>
    </trkpt>
    <trkpt lat="48.485285" lon="2.654942">
      <ele>101.3</ele>
      <time>2014-09-14T07:45:36Z</time>
    </trkpt>
    <trkpt lat="48.485255" lon="2.655103">
      <ele>101.4</ele>
      <time>2014-09-14T07:45:38Z</time>
    </trkpt>
    <trkpt lat="48.485246" lon="2.65525">
      <ele>101.4</ele>
      <time>2014-09-14T07:45:40Z</time>
    </trkpt>
    <trkpt lat="48.485214" lon="2.655444">
      <ele>101.5</ele>
      <time>2014-09-14T07:45:42Z</time>
    </trkpt>
    <trkpt lat="48.485208" lon="2.655581">
      <ele>101.6</ele>
      <time>2014-09-14T07:45:44Z</time>
    </trkpt>
    <trkpt lat="48.485185" lon="2.655732">
      <ele>101.7</ele>
      <time>2014-09-14T07:45:46Z</time>
    </trkpt>
    <trkpt lat="48.485167" lon="2.655872">
      <ele>101.8</ele>
      <time>2014-09-14T07:45:48Z</time>
    </trkpt>
    <trkpt lat="48.485123" lon="2.656196">
      <ele>102.0</ele>
      <time>2014-09-14T07:45:52Z</time>
    </trkpt>
    <trkpt lat="48.485104" lon="2.656346">
      <ele>102.0</ele>
      <time>2014-09-14T07:45:54Z</time>
    </trkpt>
    <trkpt lat="48.485071" lon="2.656503">
      <ele>102.1</ele>
      <time>2014-09-14T07:45:56Z</time>
    </trkpt>
    <trkpt lat="48.48505" lon="2.656656">
      <ele>102.1</ele>
      <time>2014-09-14T07:45:58Z</time>
    </trkpt>
    <trkpt lat="48.485028" lon="2.65682">
      <ele>101.9</ele>
      <time>2014-09-14T07:46:00Z</time>
    </trkpt>
    <trkpt lat="48.485005" lon="2.656975">
      <ele>101.6</ele>
      <time>2014-09-14T07:46:02Z</time>
    </trkpt>
    <trkpt lat="48.48497" lon="2.657139">
      <ele>101.4</ele>
      <time>2014-09-14T07:46:04Z</time>
    </trkpt>
    <trkpt lat="48.48495" lon="2.657299">
      <ele>101.2</ele>
      <time>2014-09-14T07:46:06Z</time>
    </trkpt>
    <trkpt lat="48.484929" lon="2.657451">
      <ele>101.0</ele>
      <time>2014-09-14T07:46:08Z</time>
    </trkpt>
    <trkpt lat="48.484913" lon="2.657601">
      <ele>100.9</ele>
      <time>2014-09-14T07:46:10Z</time>
    </trkpt>
    <trkpt lat="48.484895" lon="2.657762">
      <ele>100.7</ele>
      <time>2014-09-14T07:46:12Z</time>
    </trkpt>
    <trkpt lat="48.484868" lon="2.657914">
      <ele>100.5</ele>
      <time>2014-09-14T07:46:14Z</time>
    </trkpt>
    <trkpt lat="48.484847" lon="2.658057">
      <ele>100.3</ele>
      <time>2014-09-14T07:46:16Z</time>
    </trkpt>
    <trkpt lat="48.484826" lon="2.658214">
      <ele>100.1</ele>
      <time>2014-09-14T07:46:18Z</time>
    </trkpt>
    <trkpt lat="48.484809" lon="2.658365">
      <ele>100.0</ele>
      <time>2014-09-14T07:46:20Z</time>
    </trkpt>
    <trkpt lat="48.484787" lon="2.658531">
      <ele>99.9</ele>
      <time>2014-09-14T07:46:22Z</time>
    </trkpt>
    <trkpt lat="48.484766" lon="2.658686">
      <ele>99.8</ele>
      <time>2014-09-14T07:46:24Z</time>
    </trkpt>
    <trkpt lat="48.48474" lon="2.658843">
      <ele>99.6</ele>
      <time>2014-09-14T07:46:26Z</time>
    </trkpt>
    <trkpt lat="48.484721" lon="2.659001">
      <ele>99.5</ele>
      <time>2014-09-14T07:46:28Z</time>
    </trkpt>
    <trkpt lat="48.484701" lon="2.659142">
      <ele>99.3</ele>
      <time>2014-09-14T07:46:30Z</time>
    </trkpt>
    <trkpt lat="48.484676" lon="2.659301">
      <ele>99.6</ele>
      <time>2014-09-14T07:46:32Z</time>
    </trkpt>
    <trkpt lat="48.484653" lon="2.659463">
      <ele>100.0</ele>
      <time>2014-09-14T07:46:34Z</time>
    </trkpt>
    <trkpt lat="48.484636" lon="2.659612">
      <ele>100.4</ele>
      <time>2014-09-14T07:46:36Z</time>
    </trkpt>
    <trkpt lat="48.484614" lon="2.659755">
      <ele>100.8</ele>
      <time>2014-09-14T07:46:38Z</time>
    </trkpt>
    <trkpt lat="48.484585" lon="2.659884">
      <ele>101.2</ele>
      <time>2014-09-14T07:46:40Z</time>
    </trkpt>
    <trkpt lat="48.484559" lon="2.660033">
      <ele>101.6</ele>
      <time>2014-09-14T07:46:42Z</time>
    </trkpt>
    <trkpt lat="48.484528" lon="2.660168">
      <ele>102.1</ele>
      <time>2014-09-14T07:46:44Z</time>
    </trkpt>
    <trkpt lat="48.484495" lon="2.66033">
      <ele>102.6</ele>
      <time>2014-09-14T07:46:46Z</time>
    </trkpt>
    <trkpt lat="48.484452" lon="2.660541">
      <ele>103.4</ele>
      <time>2014-09-14T07:46:49Z</time>
    </trkpt>
    <trkpt lat="48.48437" lon="2.660883">
      <ele>104.6</ele>
      <time>2014-09-14T07:46:54Z</time>
    </trkpt>
    <trkpt lat="48.484351" lon="2.66103">
      <ele>105.0</ele>
      <time>2014-09-14T07:46:57Z</time>
    </trkpt>
    <trkpt lat="48.48433" lon="2.661204">
      <ele>105.5</ele>
      <time>2014-09-14T07:47:01Z</time>
    </trkpt>
    <trkpt lat="48.484283" lon="2.661355">
      <ele>106.0</ele>
      <time>2014-09-14T07:47:04Z</time>
    </trkpt>
    <trkpt lat="48.484245" lon="2.661515">
      <ele>106.4</ele>
      <time>2014-09-14T07:47:07Z</time>
    </trkpt>
    <trkpt lat="48.484185" lon="2.661662">
      <ele>106.9</ele>
      <time>2014-09-14T07:47:10Z</time>
    </trkpt>
    <trkpt lat="48.484178" lon="2.661831">
      <ele>107.8</ele>
      <time>2014-09-14T07:47:15Z</time>
    </trkpt>
    <trkpt lat="48.484142" lon="2.661982">
      <ele>108.5</ele>
      <time>2014-09-14T07:47:19Z</time>
    </trkpt>
    <trkpt lat="48.484088" lon="2.662107">
      <ele>109.0</ele>
      <time>2014-09-14T07:47:23Z</time>
    </trkpt>
    <trkpt lat="48.48406" lon="2.662257">
      <ele>109.7</ele>
      <time>2014-09-14T07:47:28Z</time>
    </trkpt>
    <trkpt lat="48.48402" lon="2.662402">
      <ele>110.3</ele>
      <time>2014-09-14T07:47:34Z</time>
    </trkpt>
    <trkpt lat="48.483988" lon="2.662534">
      <ele>110.9</ele>
      <time>2014-09-14T07:47:40Z</time>
    </trkpt>
    <trkpt lat="48.483953" lon="2.662669">
      <ele>111.5</ele>
      <time>2014-09-14T07:47:45Z</time>
    </trkpt>
    <trkpt lat="48.483945" lon="2.662819">
      <ele>112.2</ele>
      <time>2014-09-14T07:47:54Z</time>
    </trkpt>
    <trkpt lat="48.483865" lon="2.663125">
      <ele>113.7</ele>
      <time>2014-09-14T07:48:02Z</time>
    </trkpt>
    <trkpt lat="48.483837" lon="2.663257">
      <ele>114.4</ele>
      <time>2014-09-14T07:48:04Z</time>
    </trkpt>
    <trkpt lat="48.483799" lon="2.663421">
      <ele>114.7</ele>
      <time>2014-09-14T07:48:07Z</time>
    </trkpt>
    <trkpt lat="48.483766" lon="2.663552">
      <ele>114.6</ele>
      <time>2014-09-14T07:48:10Z</time>
    </trkpt>
    <trkpt lat="48.483725" lon="2.66368">
      <ele>114.4</ele>
      <time>2014-09-14T07:48:12Z</time>
    </trkpt>
    <trkpt lat="48.483684" lon="2.663861">
      <ele>114.2</ele>
      <time>2014-09-14T07:48:15Z</time>
    </trkpt>
    <trkpt lat="48.483653" lon="2.66399">
      <ele>114.0</ele>
      <time>2014-09-14T07:48:17Z</time>
    </trkpt>
    <trkpt lat="48.483611" lon="2.664139">
      <ele>113.7</ele>
      <time>2014-09-14T07:48:20Z</time>
    </trkpt>
    <trkpt lat="48.483573" lon="2.664307">
      <ele>113.2</ele>
      <time>2014-09-14T07:48:23Z</time>
    </trkpt>
    <trkpt lat="48.483529" lon="2.66444">
      <ele>112.7</ele>
      <time>2014-09-14T07:48:25Z</time>
    </trkpt>
    <trkpt lat="48.483499" lon="2.66457">
      <ele>112.3</ele>
      <time>2014-09-14T07:48:27Z</time>
    </trkpt>
    <trkpt lat="48.483459" lon="2.664749">
      <ele>111.6</ele>
      <time>2014-09-14T07:48:30Z</time>
    </trkpt>
    <trkpt lat="48.483426" lon="2.664893">
      <ele>111.2</ele>
      <time>2014-09-14T07:48:32Z</time>
    </trkpt>
    <trkpt lat="48.483366" lon="2.665057">
      <ele>110.9</ele>
      <time>2014-09-14T07:48:35Z</time>
    </trkpt>
    <trkpt lat="48.483259" lon="2.665075">
      <ele>110.9</ele>
      <time>2014-09-14T07:48:38Z</time>
    </trkpt>
    <trkpt lat="48.483145" lon="2.665111">
      <ele>110.9</ele>
      <time>2014-09-14T07:48:41Z</time>
    </trkpt>
    <trkpt lat="48.48305" lon="2.665087">
      <ele>110.9</ele>
      <time>2014-09-14T07:48:44Z</time>
    </trkpt>
    <trkpt lat="48.482947" lon="2.665051">
      <ele>111.0</ele>
      <time>2014-09-14T07:48:47Z</time>
    </trkpt>
    <trkpt lat="48.482839" lon="2.66501">
      <ele>111.0</ele>
      <time>2014-09-14T07:48:50Z</time>
    </trkpt>
    <trkpt lat="48.482821" lon="2.664873">
      <ele>111.1</ele>
      <time>2014-09-14T07:48:53Z</time>
    </trkpt>
    <trkpt lat="48.482773" lon="2.664751">
      <ele>111.1</ele>
      <time>2014-09-14T07:48:56Z</time>
    </trkpt>
    <trkpt lat="48.482687" lon="2.664477">
      <ele>110.9</ele>
      <time>2014-09-14T07:49:02Z</time>
    </trkpt>
    <trkpt lat="48.482629" lon="2.664301">
      <ele>110.7</ele>
      <time>2014-09-14T07:49:05Z</time>
    </trkpt>
    <trkpt lat="48.482591" lon="2.664141">
      <ele>110.4</ele>
      <time>2014-09-14T07:49:07Z</time>
    </trkpt>
    <trkpt lat="48.482553" lon="2.664004">
      <ele>109.9</ele>
      <time>2014-09-14T07:49:09Z</time>
    </trkpt>
    <trkpt lat="48.482517" lon="2.66381">
      <ele>109.3</ele>
      <time>2014-09-14T07:49:11Z</time>
    </trkpt>
    <trkpt lat="48.48246" lon="2.663617">
      <ele>108.3</ele>
      <time>2014-09-14T07:49:13Z</time>
    </trkpt>
    <trkpt lat="48.482408" lon="2.663452">
      <ele>107.4</ele>
      <time>2014-09-14T07:49:15Z</time>
    </trkpt>
    <trkpt lat="48.482361" lon="2.663243">
      <ele>106.4</ele>
      <time>2014-09-14T07:49:17Z</time>
    </trkpt>
    <trkpt lat="48.482309" lon="2.66302">
      <ele>105.2</ele>
      <time>2014-09-14T07:49:19Z</time>
    </trkpt>
    <trkpt lat="48.482255" lon="2.662788">
      <ele>104.1</ele>
      <time>2014-09-14T07:49:21Z</time>
    </trkpt>
    <trkpt lat="48.482198" lon="2.662606">
      <ele>103.1</ele>
      <time>2014-09-14T07:49:23Z</time>
    </trkpt>
    <trkpt lat="48.482163" lon="2.662391">
      <ele>102.4</ele>
      <time>2014-09-14T07:49:25Z</time>
    </trkpt>
    <trkpt lat="48.482125" lon="2.662193">
      <ele>101.9</ele>
      <time>2014-09-14T07:49:27Z</time>
    </trkpt>
    <trkpt lat="48.482069" lon="2.66202">
      <ele>101.3</ele>
      <time>2014-09-14T07:49:29Z</time>
    </trkpt>
    <trkpt lat="48.482028" lon="2.661895">
      <ele>100.9</ele>
      <time>2014-09-14T07:49:30Z</time>
    </trkpt>
    <trkpt lat="48.481956" lon="2.661692">
      <ele>100.1</ele>
      <time>2014-09-14T07:49:32Z</time>
    </trkpt>
    <trkpt lat="48.481889" lon="2.661489">
      <ele>99.1</ele>
      <time>2014-09-14T07:49:34Z</time>
    </trkpt>
    <trkpt lat="48.481818" lon="2.661291">
      <ele>98.1</ele>
      <time>2014-09-14T07:49:36Z</time>
    </trkpt>
    <trkpt lat="48.481741" lon="2.661074">
      <ele>97.0</ele>
      <time>2014-09-14T07:49:38Z</time>
    </trkpt>
    <trkpt lat="48.481683" lon="2.660883">
      <ele>96.2</ele>
      <time>2014-09-14T07:49:40Z</time>
    </trkpt>
    <trkpt lat="48.481624" lon="2.66069">
      <ele>95.8</ele>
      <time>2014-09-14T07:49:42Z</time>
    </trkpt>
    <trkpt lat="48.48154" lon="2.660523">
      <ele>95.6</ele>
      <time>2014-09-14T07:49:44Z</time>
    </trkpt>
    <trkpt lat="48.481465" lon="2.660306">
      <ele>95.2</ele>
      <time>2014-09-14T07:49:46Z</time>
    </trkpt>
    <trkpt lat="48.481392" lon="2.660109">
      <ele>94.8</ele>
      <time>2014-09-14T07:49:48Z</time>
    </trkpt>
    <trkpt lat="48.481344" lon="2.659869">
      <ele>94.6</ele>
      <time>2014-09-14T07:49:50Z</time>
    </trkpt>
    <trkpt lat="48.481285" lon="2.659707">
      <ele>94.4</ele>
      <time>2014-09-14T07:49:52Z</time>
    </trkpt>
    <trkpt lat="48.481241" lon="2.659531">
      <ele>94.2</ele>
      <time>2014-09-14T07:49:54Z</time>
    </trkpt>
    <trkpt lat="48.481201" lon="2.65938">
      <ele>94.0</ele>
      <time>2014-09-14T07:49:56Z</time>
    </trkpt>
    <trkpt lat="48.481081" lon="2.659083">
      <ele>93.7</ele>
      <time>2014-09-14T07:50:00Z</time>
    </trkpt>
    <trkpt lat="48.481034" lon="2.658963">
      <ele>93.6</ele>
      <time>2014-09-14T07:50:02Z</time>
    </trkpt>
    <trkpt lat="48.480974" lon="2.658803">
      <ele>93.5</ele>
      <time>2014-09-14T07:50:04Z</time>
    </trkpt>
    <trkpt lat="48.480905" lon="2.658678">
      <ele>93.3</ele>
      <time>2014-09-14T07:50:06Z</time>
    </trkpt>
    <trkpt lat="48.480847" lon="2.658552">
      <ele>93.1</ele>
      <time>2014-09-14T07:50:08Z</time>
    </trkpt>
    <trkpt lat="48.480779" lon="2.658353">
      <ele>93.0</ele>
      <time>2014-09-14T07:50:10Z</time>
    </trkpt>
    <trkpt lat="48.480721" lon="2.658197">
      <ele>93.2</ele>
      <time>2014-09-14T07:50:12Z</time>
    </trkpt>
    <trkpt lat="48.480671" lon="2.658046">
      <ele>93.3</ele>
      <time>2014-09-14T07:50:14Z</time>
    </trkpt>
    <trkpt lat="48.48063" lon="2.657897">
      <ele>93.5</ele>
      <time>2014-09-14T07:50:16Z</time>
    </trkpt>
    <trkpt lat="48.480565" lon="2.657744">
      <ele>93.7</ele>
      <time>2014-09-14T07:50:18Z</time>
    </trkpt>
    <trkpt lat="48.480523" lon="2.657562">
      <ele>93.9</ele>
      <time>2014-09-14T07:50:20Z</time>
    </trkpt>
    <trkpt lat="48.480474" lon="2.65738">
      <ele>93.7</ele>
      <time>2014-09-14T07:50:22Z</time>
    </trkpt>
    <trkpt lat="48.48043" lon="2.657234">
      <ele>93.4</ele>
      <time>2014-09-14T07:50:24Z</time>
    </trkpt>
    <trkpt lat="48.480375" lon="2.657074">
      <ele>93.0</ele>
      <time>2014-09-14T07:50:26Z</time>
    </trkpt>
    <trkpt lat="48.480326" lon="2.656937">
      <ele>92.6</ele>
      <time>2014-09-14T07:50:28Z</time>
    </trkpt>
    <trkpt lat="48.480286" lon="2.656724">
      <ele>92.1</ele>
      <time>2014-09-14T07:50:30Z</time>
    </trkpt>
    <trkpt lat="48.480211" lon="2.656572">
      <ele>91.8</ele>
      <time>2014-09-14T07:50:32Z</time>
    </trkpt>
    <trkpt lat="48.480163" lon="2.656435">
      <ele>91.5</ele>
      <time>2014-09-14T07:50:34Z</time>
    </trkpt>
    <trkpt lat="48.480124" lon="2.656295">
      <ele>91.2</ele>
      <time>2014-09-14T07:50:36Z</time>
    </trkpt>
    <trkpt lat="48.480069" lon="2.656142">
      <ele>90.8</ele>
      <time>2014-09-14T07:50:38Z</time>
    </trkpt>
    <trkpt lat="48.480016" lon="2.656026">
      <ele>90.5</ele>
      <time>2014-09-14T07:50:40Z</time>
    </trkpt>
    <trkpt lat="48.479963" lon="2.655882">
      <ele>90.1</ele>
      <time>2014-09-14T07:50:42Z</time>
    </trkpt>
    <trkpt lat="48.479901" lon="2.655764">
      <ele>90.1</ele>
      <time>2014-09-14T07:50:44Z</time>
    </trkpt>
    <trkpt lat="48.479856" lon="2.655569">
      <ele>90.3</ele>
      <time>2014-09-14T07:50:47Z</time>
    </trkpt>
    <trkpt lat="48.479794" lon="2.655444">
      <ele>90.5</ele>
      <time>2014-09-14T07:50:51Z</time>
    </trkpt>
    <trkpt lat="48.479781" lon="2.6553">
      <ele>90.6</ele>
      <time>2014-09-14T07:50:56Z</time>
    </trkpt>
    <trkpt lat="48.47974" lon="2.655163">
      <ele>90.8</ele>
      <time>2014-09-14T07:51:00Z</time>
    </trkpt>
    <trkpt lat="48.479609" lon="2.654949">
      <ele>91.0</ele>
      <time>2014-09-14T07:51:05Z</time>
    </trkpt>
    <trkpt lat="48.479515" lon="2.654881">
      <ele>91.0</ele>
      <time>2014-09-14T07:51:08Z</time>
    </trkpt>
    <trkpt lat="48.479436" lon="2.654732">
      <ele>91.1</ele>
      <time>2014-09-14T07:51:11Z</time>
    </trkpt>
    <trkpt lat="48.479404" lon="2.654569">
      <ele>91.2</ele>
      <time>2014-09-14T07:51:14Z</time>
    </trkpt>
    <trkpt lat="48.479395" lon="2.654422">
      <ele>91.3</ele>
      <time>2014-09-14T07:51:16Z</time>
    </trkpt>
    <trkpt lat="48.479329" lon="2.654255">
      <ele>91.5</ele>
      <time>2014-09-14T07:51:19Z</time>
    </trkpt>
    <trkpt lat="48.479274" lon="2.654148">
      <ele>91.7</ele>
      <time>2014-09-14T07:51:21Z</time>
    </trkpt>
    <trkpt lat="48.479226" lon="2.653974">
      <ele>91.6</ele>
      <time>2014-09-14T07:51:24Z</time>
    </trkpt>
    <trkpt lat="48.479163" lon="2.65382">
      <ele>91.6</ele>
      <time>2014-09-14T07:51:27Z</time>
    </trkpt>
    <trkpt lat="48.47911" lon="2.653646">
      <ele>91.5</ele>
      <time>2014-09-14T07:51:30Z</time>
    </trkpt>
    <trkpt lat="48.479078" lon="2.653495">
      <ele>91.5</ele>
      <time>2014-09-14T07:51:32Z</time>
    </trkpt>
    <trkpt lat="48.479066" lon="2.653348">
      <ele>91.4</ele>
      <time>2014-09-14T07:51:34Z</time>
    </trkpt>
    <trkpt lat="48.47902" lon="2.653197">
      <ele>91.3</ele>
      <time>2014-09-14T07:51:37Z</time>
    </trkpt>
    <trkpt lat="48.47892" lon="2.65317">
      <ele>91.6</ele>
      <time>2014-09-14T07:51:39Z</time>
    </trkpt>
    <trkpt lat="48.478887" lon="2.653022">
      <ele>91.4</ele>
      <time>2014-09-14T07:51:42Z</time>
    </trkpt>
    <trkpt lat="48.47885" lon="2.652897">
      <ele>91.2</ele>
      <time>2014-09-14T07:51:45Z</time>
    </trkpt>
    <trkpt lat="48.47878" lon="2.652805">
      <ele>91.2</ele>
      <time>2014-09-14T07:51:47Z</time>
    </trkpt>
    <trkpt lat="48.478687" lon="2.652697">
      <ele>91.1</ele>
      <time>2014-09-14T07:51:50Z</time>
    </trkpt>
    <trkpt lat="48.478578" lon="2.652742">
      <ele>91.4</ele>
      <time>2014-09-14T07:51:57Z</time>
    </trkpt>
    <trkpt lat="48.478469" lon="2.652785">
      <ele>91.8</ele>
      <time>2014-09-14T07:52:00Z</time>
    </trkpt>
    <trkpt lat="48.478279" lon="2.652859">
      <ele>92.3</ele>
      <time>2014-09-14T07:52:04Z</time>
    </trkpt>
    <trkpt lat="48.478183" lon="2.65291">
      <ele>92.5</ele>
      <time>2014-09-14T07:52:07Z</time>
    </trkpt>
    <trkpt lat="48.478091" lon="2.652988">
      <ele>92.7</ele>
      <time>2014-09-14T07:52:09Z</time>
    </trkpt>
    <trkpt lat="48.477979" lon="2.653071">
      <ele>92.9</ele>
      <time>2014-09-14T07:52:11Z</time>
    </trkpt>
    <trkpt lat="48.477885" lon="2.653147">
      <ele>93.0</ele>
      <time>2014-09-14T07:52:13Z</time>
    </trkpt>
    <trkpt lat="48.477785" lon="2.653209">
      <ele>93.1</ele>
      <time>2014-09-14T07:52:15Z</time>
    </trkpt>
    <trkpt lat="48.477703" lon="2.653275">
      <ele>93.1</ele>
      <time>2014-09-14T07:52:17Z</time>
    </trkpt>
    <trkpt lat="48.477584" lon="2.653387">
      <ele>93.0</ele>
      <time>2014-09-14T07:52:20Z</time>
    </trkpt>
    <trkpt lat="48.477469" lon="2.653487">
      <ele>92.7</ele>
      <time>2014-09-14T07:52:23Z</time>
    </trkpt>
    <trkpt lat="48.477361" lon="2.653578">
      <ele>92.2</ele>
      <time>2014-09-14T07:52:25Z</time>
    </trkpt>
    <trkpt lat="48.477272" lon="2.653653">
      <ele>91.8</ele>
      <time>2014-09-14T07:52:27Z</time>
    </trkpt>
    <trkpt lat="48.477167" lon="2.653722">
      <ele>91.5</ele>
      <time>2014-09-14T07:52:29Z</time>
    </trkpt>
    <trkpt lat="48.477086" lon="2.653809">
      <ele>91.3</ele>
      <time>2014-09-14T07:52:31Z</time>
    </trkpt>
    <trkpt lat="48.476996" lon="2.653874">
      <ele>91.1</ele>
      <time>2014-09-14T07:52:33Z</time>
    </trkpt>
    <trkpt lat="48.476901" lon="2.653943">
      <ele>91.0</ele>
      <time>2014-09-14T07:52:35Z</time>
    </trkpt>
    <trkpt lat="48.476809" lon="2.654027">
      <ele>90.9</ele>
      <time>2014-09-14T07:52:37Z</time>
    </trkpt>
    <trkpt lat="48.476712" lon="2.654083">
      <ele>90.9</ele>
      <time>2014-09-14T07:52:38Z</time>
    </trkpt>
    <trkpt lat="48.476602" lon="2.654169">
      <ele>90.8</ele>
      <time>2014-09-14T07:52:40Z</time>
    </trkpt>
    <trkpt lat="48.476482" lon="2.654286">
      <ele>90.7</ele>
      <time>2014-09-14T07:52:43Z</time>
    </trkpt>
    <trkpt lat="48.476381" lon="2.654374">
      <ele>90.6</ele>
      <time>2014-09-14T07:52:45Z</time>
    </trkpt>
    <trkpt lat="48.476301" lon="2.654457">
      <ele>90.6</ele>
      <time>2014-09-14T07:52:47Z</time>
    </trkpt>
    <trkpt lat="48.47618" lon="2.654576">
      <ele>90.6</ele>
      <time>2014-09-14T07:52:50Z</time>
    </trkpt>
    <trkpt lat="48.476055" lon="2.654665">
      <ele>90.6</ele>
      <time>2014-09-14T07:52:53Z</time>
    </trkpt>
    <trkpt lat="48.475935" lon="2.654758">
      <ele>90.6</ele>
      <time>2014-09-14T07:52:56Z</time>
    </trkpt>
    <trkpt lat="48.475854" lon="2.654832">
      <ele>90.6</ele>
      <time>2014-09-14T07:52:58Z</time>
    </trkpt>
    <trkpt lat="48.475771" lon="2.6549">
      <ele>90.6</ele>
      <time>2014-09-14T07:53:00Z</time>
    </trkpt>
    <trkpt lat="48.47568" lon="2.654975">
      <ele>90.6</ele>
      <time>2014-09-14T07:53:02Z</time>
    </trkpt>
    <trkpt lat="48.475499" lon="2.655161">
      <ele>90.5</ele>
      <time>2014-09-14T07:53:06Z</time>
    </trkpt>
    <trkpt lat="48.475392" lon="2.655248">
      <ele>90.4</ele>
      <time>2014-09-14T07:53:08Z</time>
    </trkpt>
    <trkpt lat="48.475295" lon="2.655345">
      <ele>90.4</ele>
      <time>2014-09-14T07:53:10Z</time>
    </trkpt>
    <trkpt lat="48.475217" lon="2.655422">
      <ele>90.4</ele>
      <time>2014-09-14T07:53:12Z</time>
    </trkpt>
    <trkpt lat="48.47512" lon="2.655499">
      <ele>90.4</ele>
      <time>2014-09-14T07:53:14Z</time>
    </trkpt>
    <trkpt lat="48.475028" lon="2.655558">
      <ele>90.4</ele>
      <time>2014-09-14T07:53:16Z</time>
    </trkpt>
    <trkpt lat="48.474925" lon="2.655643">
      <ele>90.4</ele>
      <time>2014-09-14T07:53:18Z</time>
    </trkpt>
    <trkpt lat="48.47483" lon="2.655726">
      <ele>90.5</ele>
      <time>2014-09-14T07:53:20Z</time>
    </trkpt>
    <trkpt lat="48.47474" lon="2.655817">
      <ele>90.6</ele>
      <time>2014-09-14T07:53:22Z</time>
    </trkpt>
    <trkpt lat="48.474645" lon="2.655896">
      <ele>90.5</ele>
      <time>2014-09-14T07:53:24Z</time>
    </trkpt>
    <trkpt lat="48.474505" lon="2.656001">
      <ele>90.3</ele>
      <time>2014-09-14T07:53:26Z</time>
    </trkpt>
    <trkpt lat="48.474398" lon="2.656097">
      <ele>90.0</ele>
      <time>2014-09-14T07:53:28Z</time>
    </trkpt>
    <trkpt lat="48.474321" lon="2.656179">
      <ele>89.8</ele>
      <time>2014-09-14T07:53:30Z</time>
    </trkpt>
    <trkpt lat="48.474229" lon="2.656296">
      <ele>89.6</ele>
      <time>2014-09-14T07:53:33Z</time>
    </trkpt>
    <trkpt lat="48.474124" lon="2.656394">
      <ele>89.0</ele>
      <time>2014-09-14T07:53:36Z</time>
    </trkpt>
    <trkpt lat="48.474023" lon="2.656453">
      <ele>88.3</ele>
      <time>2014-09-14T07:53:38Z</time>
    </trkpt>
    <trkpt lat="48.473917" lon="2.656566">
      <ele>87.6</ele>
      <time>2014-09-14T07:53:40Z</time>
    </trkpt>
    <trkpt lat="48.473814" lon="2.656641">
      <ele>86.9</ele>
      <time>2014-09-14T07:53:42Z</time>
    </trkpt>
    <trkpt lat="48.473683" lon="2.656732">
      <ele>86.1</ele>
      <time>2014-09-14T07:53:44Z</time>
    </trkpt>
    <trkpt lat="48.473547" lon="2.656825">
      <ele>85.3</ele>
      <time>2014-09-14T07:53:46Z</time>
    </trkpt>
    <trkpt lat="48.473456" lon="2.656885">
      <ele>84.9</ele>
      <time>2014-09-14T07:53:48Z</time>
    </trkpt>
    <trkpt lat="48.473356" lon="2.65697">
      <ele>84.5</ele>
      <time>2014-09-14T07:53:50Z</time>
    </trkpt>
    <trkpt lat="48.473267" lon="2.657042">
      <ele>84.3</ele>
      <time>2014-09-14T07:53:52Z</time>
    </trkpt>
    <trkpt lat="48.473141" lon="2.657128">
      <ele>84.1</ele>
      <time>2014-09-14T07:53:54Z</time>
    </trkpt>
    <trkpt lat="48.473049" lon="2.657211">
      <ele>84.0</ele>
      <time>2014-09-14T07:53:56Z</time>
    </trkpt>
    <trkpt lat="48.472965" lon="2.657278">
      <ele>83.8</ele>
      <time>2014-09-14T07:53:58Z</time>
    </trkpt>
    <trkpt lat="48.472861" lon="2.657382">
      <ele>83.7</ele>
      <time>2014-09-14T07:54:00Z</time>
    </trkpt>
    <trkpt lat="48.472766" lon="2.65746">
      <ele>83.6</ele>
      <time>2014-09-14T07:54:02Z</time>
    </trkpt>
    <trkpt lat="48.47266" lon="2.657542">
      <ele>83.5</ele>
      <time>2014-09-14T07:54:05Z</time>
    </trkpt>
    <trkpt lat="48.472435" lon="2.657767">
      <ele>83.2</ele>
      <time>2014-09-14T07:54:11Z</time>
    </trkpt>
    <trkpt lat="48.472333" lon="2.657829">
      <ele>83.1</ele>
      <time>2014-09-14T07:54:13Z</time>
    </trkpt>
    <trkpt lat="48.472232" lon="2.657911">
      <ele>83.0</ele>
      <time>2014-09-14T07:54:15Z</time>
    </trkpt>
    <trkpt lat="48.47214" lon="2.657972">
      <ele>82.9</ele>
      <time>2014-09-14T07:54:17Z</time>
    </trkpt>
    <trkpt lat="48.47202" lon="2.658111">
      <ele>82.7</ele>
      <time>2014-09-14T07:54:19Z</time>
    </trkpt>
    <trkpt lat="48.471911" lon="2.65819">
      <ele>82.5</ele>
      <time>2014-09-14T07:54:21Z</time>
    </trkpt>
    <trkpt lat="48.471812" lon="2.658272">
      <ele>82.3</ele>
      <time>2014-09-14T07:54:23Z</time>
    </trkpt>
    <trkpt lat="48.471708" lon="2.658341">
      <ele>82.1</ele>
      <time>2014-09-14T07:54:25Z</time>
    </trkpt>
    <trkpt lat="48.471612" lon="2.658428">
      <ele>82.3</ele>
      <time>2014-09-14T07:54:27Z</time>
    </trkpt>
    <trkpt lat="48.471517" lon="2.658521">
      <ele>82.8</ele>
      <time>2014-09-14T07:54:30Z</time>
    </trkpt>
    <trkpt lat="48.471428" lon="2.658579">
      <ele>83.4</ele>
      <time>2014-09-14T07:54:33Z</time>
    </trkpt>
    <trkpt lat="48.471333" lon="2.658641">
      <ele>84.1</ele>
      <time>2014-09-14T07:54:35Z</time>
    </trkpt>
    <trkpt lat="48.47124" lon="2.658713">
      <ele>84.9</ele>
      <time>2014-09-14T07:54:37Z</time>
    </trkpt>
    <trkpt lat="48.471094" lon="2.658762">
      <ele>86.0</ele>
      <time>2014-09-14T07:54:39Z</time>
    </trkpt>
    <trkpt lat="48.470936" lon="2.658796">
      <ele>87.2</ele>
      <time>2014-09-14T07:54:41Z</time>
    </trkpt>
    <trkpt lat="48.470814" lon="2.658787">
      <ele>87.9</ele>
      <time>2014-09-14T07:54:43Z</time>
    </trkpt>
    <trkpt lat="48.47069" lon="2.658791">
      <ele>88.3</ele>
      <time>2014-09-14T07:54:45Z</time>
    </trkpt>
    <trkpt lat="48.470582" lon="2.658798">
      <ele>88.7</ele>
      <time>2014-09-14T07:54:47Z</time>
    </trkpt>
    <trkpt lat="48.470452" lon="2.658792">
      <ele>89.1</ele>
      <time>2014-09-14T07:54:49Z</time>
    </trkpt>
    <trkpt lat="48.47034" lon="2.658795">
      <ele>89.5</ele>
      <time>2014-09-14T07:54:51Z</time>
    </trkpt>
    <trkpt lat="48.470229" lon="2.658804">
      <ele>89.9</ele>
      <time>2014-09-14T07:54:53Z</time>
    </trkpt>
    <trkpt lat="48.470129" lon="2.658811">
      <ele>90.3</ele>
      <time>2014-09-14T07:54:55Z</time>
    </trkpt>
    <trkpt lat="48.470019" lon="2.658788">
      <ele>90.6</ele>
      <time>2014-09-14T07:54:57Z</time>
    </trkpt>
    <trkpt lat="48.469918" lon="2.658764">
      <ele>90.8</ele>
      <time>2014-09-14T07:54:59Z</time>
    </trkpt>
    <trkpt lat="48.46979" lon="2.658746">
      <ele>91.2</ele>
      <time>2014-09-14T07:55:01Z</time>
    </trkpt>
    <trkpt lat="48.469674" lon="2.658739">
      <ele>91.6</ele>
      <time>2014-09-14T07:55:03Z</time>
    </trkpt>
    <trkpt lat="48.46956" lon="2.658724">
      <ele>92.0</ele>
      <time>2014-09-14T07:55:05Z</time>
    </trkpt>
    <trkpt lat="48.469437" lon="2.6587">
      <ele>92.4</ele>
      <time>2014-09-14T07:55:07Z</time>
    </trkpt>
    <trkpt lat="48.469222" lon="2.658681">
      <ele>93.2</ele>
      <time>2014-09-14T07:55:11Z</time>
    </trkpt>
    <trkpt lat="48.469115" lon="2.658685">
      <ele>93.5</ele>
      <time>2014-09-14T07:55:13Z</time>
    </trkpt>
    <trkpt lat="48.469023" lon="2.658665">
      <ele>93.6</ele>
      <time>2014-09-14T07:55:15Z</time>
    </trkpt>
    <trkpt lat="48.468914" lon="2.658656">
      <ele>93.7</ele>
      <time>2014-09-14T07:55:17Z</time>
    </trkpt>
    <trkpt lat="48.468821" lon="2.658643">
      <ele>93.8</ele>
      <time>2014-09-14T07:55:19Z</time>
    </trkpt>
    <trkpt lat="48.468686" lon="2.658597">
      <ele>93.9</ele>
      <time>2014-09-14T07:55:22Z</time>
    </trkpt>
    <trkpt lat="48.468594" lon="2.658598">
      <ele>94.0</ele>
      <time>2014-09-14T07:55:24Z</time>
    </trkpt>
    <trkpt lat="48.468498" lon="2.658607">
      <ele>94.1</ele>
      <time>2014-09-14T07:55:26Z</time>
    </trkpt>
    <trkpt lat="48.468383" lon="2.65858">
      <ele>94.2</ele>
      <time>2014-09-14T07:55:28Z</time>
    </trkpt>
    <trkpt lat="48.468286" lon="2.658551">
      <ele>94.4</ele>
      <time>2014-09-14T07:55:30Z</time>
    </trkpt>
    <trkpt lat="48.468175" lon="2.65853">
      <ele>94.6</ele>
      <time>2014-09-14T07:55:32Z</time>
    </trkpt>
    <trkpt lat="48.46806" lon="2.658516">
      <ele>94.8</ele>
      <time>2014-09-14T07:55:34Z</time>
    </trkpt>
    <trkpt lat="48.467953" lon="2.658503">
      <ele>95.0</ele>
      <time>2014-09-14T07:55:36Z</time>
    </trkpt>
    <trkpt lat="48.467852" lon="2.658508">
      <ele>95.2</ele>
      <time>2014-09-14T07:55:38Z</time>
    </trkpt>
    <trkpt lat="48.467732" lon="2.65851">
      <ele>95.5</ele>
      <time>2014-09-14T07:55:40Z</time>
    </trkpt>
    <trkpt lat="48.467617" lon="2.658536">
      <ele>95.8</ele>
      <time>2014-09-14T07:55:42Z</time>
    </trkpt>
    <trkpt lat="48.467496" lon="2.658494">
      <ele>96.0</ele>
      <time>2014-09-14T07:55:45Z</time>
    </trkpt>
    <trkpt lat="48.467399" lon="2.658476">
      <ele>96.2</ele>
      <time>2014-09-14T07:55:47Z</time>
    </trkpt>
    <trkpt lat="48.467268" lon="2.658466">
      <ele>96.5</ele>
      <time>2014-09-14T07:55:50Z</time>
    </trkpt>
    <trkpt lat="48.467161" lon="2.658451">
      <ele>96.8</ele>
      <time>2014-09-14T07:55:52Z</time>
    </trkpt>
    <trkpt lat="48.467071" lon="2.658435">
      <ele>97.0</ele>
      <time>2014-09-14T07:55:54Z</time>
    </trkpt>
    <trkpt lat="48.466949" lon="2.658428">
      <ele>97.2</ele>
      <time>2014-09-14T07:55:56Z</time>
    </trkpt>
    <trkpt lat="48.466809" lon="2.658371">
      <ele>97.6</ele>
      <time>2014-09-14T07:55:59Z</time>
    </trkpt>
    <trkpt lat="48.466675" lon="2.658378">
      <ele>97.9</ele>
      <time>2014-09-14T07:56:01Z</time>
    </trkpt>
    <trkpt lat="48.466557" lon="2.658378">
      <ele>98.0</ele>
      <time>2014-09-14T07:56:03Z</time>
    </trkpt>
    <trkpt lat="48.466422" lon="2.658358">
      <ele>98.0</ele>
      <time>2014-09-14T07:56:06Z</time>
    </trkpt>
    <trkpt lat="48.466298" lon="2.658374">
      <ele>98.0</ele>
      <time>2014-09-14T07:56:08Z</time>
    </trkpt>
    <trkpt lat="48.466059" lon="2.658371">
      <ele>98.0</ele>
      <time>2014-09-14T07:56:14Z</time>
    </trkpt>
    <trkpt lat="48.465975" lon="2.658418">
      <ele>98.0</ele>
      <time>2014-09-14T07:56:16Z</time>
    </trkpt>
    <trkpt lat="48.465833" lon="2.658473">
      <ele>98.0</ele>
      <time>2014-09-14T07:56:19Z</time>
    </trkpt>
    <trkpt lat="48.465688" lon="2.658499">
      <ele>98.3</ele>
      <time>2014-09-14T07:56:22Z</time>
    </trkpt>
    <trkpt lat="48.465581" lon="2.658468">
      <ele>98.6</ele>
      <time>2014-09-14T07:56:24Z</time>
    </trkpt>
    <trkpt lat="48.465483" lon="2.658399">
      <ele>98.8</ele>
      <time>2014-09-14T07:56:27Z</time>
    </trkpt>
    <trkpt lat="48.465387" lon="2.658425">
      <ele>99.0</ele>
      <time>2014-09-14T07:56:29Z</time>
    </trkpt>
    <trkpt lat="48.465254" lon="2.658472">
      <ele>99.3</ele>
      <time>2014-09-14T07:56:32Z</time>
    </trkpt>
    <trkpt lat="48.465121" lon="2.658481">
      <ele>99.6</ele>
      <time>2014-09-14T07:56:35Z</time>
    </trkpt>
    <trkpt lat="48.465024" lon="2.658498">
      <ele>99.8</ele>
      <time>2014-09-14T07:56:37Z</time>
    </trkpt>
    <trkpt lat="48.464923" lon="2.658514">
      <ele>99.9</ele>
      <time>2014-09-14T07:56:39Z</time>
    </trkpt>
    <trkpt lat="48.464819" lon="2.658498">
      <ele>100.1</ele>
      <time>2014-09-14T07:56:41Z</time>
    </trkpt>
    <trkpt lat="48.464694" lon="2.65845">
      <ele>100.3</ele>
      <time>2014-09-14T07:56:44Z</time>
    </trkpt>
    <trkpt lat="48.464591" lon="2.658458">
      <ele>100.4</ele>
      <time>2014-09-14T07:56:46Z</time>
    </trkpt>
    <trkpt lat="48.464484" lon="2.658522">
      <ele>100.5</ele>
      <time>2014-09-14T07:56:49Z</time>
    </trkpt>
    <trkpt lat="48.464363" lon="2.658633">
      <ele>100.7</ele>
      <time>2014-09-14T07:56:52Z</time>
    </trkpt>
    <trkpt lat="48.464262" lon="2.658746">
      <ele>100.8</ele>
      <time>2014-09-14T07:56:55Z</time>
    </trkpt>
    <trkpt lat="48.464172" lon="2.658811">
      <ele>101.0</ele>
      <time>2014-09-14T07:56:57Z</time>
    </trkpt>
    <trkpt lat="48.46407" lon="2.658876">
      <ele>101.1</ele>
      <time>2014-09-14T07:56:59Z</time>
    </trkpt>
    <trkpt lat="48.463943" lon="2.658999">
      <ele>101.2</ele>
      <time>2014-09-14T07:57:01Z</time>
    </trkpt>
    <trkpt lat="48.463841" lon="2.659072">
      <ele>101.3</ele>
      <time>2014-09-14T07:57:03Z</time>
    </trkpt>
    <trkpt lat="48.463749" lon="2.659128">
      <ele>101.5</ele>
      <time>2014-09-14T07:57:05Z</time>
    </trkpt>
    <trkpt lat="48.463646" lon="2.65918">
      <ele>101.6</ele>
      <time>2014-09-14T07:57:07Z</time>
    </trkpt>
    <trkpt lat="48.463543" lon="2.659243">
      <ele>101.7</ele>
      <time>2014-09-14T07:57:10Z</time>
    </trkpt>
    <trkpt lat="48.463305" lon="2.659432">
      <ele>101.9</ele>
      <time>2014-09-14T07:57:16Z</time>
    </trkpt>
    <trkpt lat="48.463226" lon="2.659502">
      <ele>101.7</ele>
      <time>2014-09-14T07:57:18Z</time>
    </trkpt>
    <trkpt lat="48.46311" lon="2.659612">
      <ele>101.3</ele>
      <time>2014-09-14T07:57:21Z</time>
    </trkpt>
    <trkpt lat="48.463029" lon="2.659679">
      <ele>101.1</ele>
      <time>2014-09-14T07:57:23Z</time>
    </trkpt>
    <trkpt lat="48.462935" lon="2.659743">
      <ele>100.9</ele>
      <time>2014-09-14T07:57:25Z</time>
    </trkpt>
    <trkpt lat="48.462854" lon="2.659809">
      <ele>100.7</ele>
      <time>2014-09-14T07:57:27Z</time>
    </trkpt>
    <trkpt lat="48.462771" lon="2.659891">
      <ele>100.6</ele>
      <time>2014-09-14T07:57:29Z</time>
    </trkpt>
    <trkpt lat="48.46269" lon="2.659976">
      <ele>100.4</ele>
      <time>2014-09-14T07:57:32Z</time>
    </trkpt>
    <trkpt lat="48.462594" lon="2.660025">
      <ele>100.2</ele>
      <time>2014-09-14T07:57:35Z</time>
    </trkpt>
    <trkpt lat="48.462484" lon="2.66011">
      <ele>99.9</ele>
      <time>2014-09-14T07:57:38Z</time>
    </trkpt>
    <trkpt lat="48.462404" lon="2.660179">
      <ele>99.9</ele>
      <time>2014-09-14T07:57:40Z</time>
    </trkpt>
    <trkpt lat="48.462319" lon="2.660268">
      <ele>100.0</ele>
      <time>2014-09-14T07:57:42Z</time>
    </trkpt>
    <trkpt lat="48.462225" lon="2.660337">
      <ele>100.1</ele>
      <time>2014-09-14T07:57:48Z</time>
    </trkpt>
    <trkpt lat="48.462123" lon="2.660348">
      <ele>100.2</ele>
      <time>2014-09-14T07:57:52Z</time>
    </trkpt>
    <trkpt lat="48.462016" lon="2.66037">
      <ele>100.4</ele>
      <time>2014-09-14T07:57:56Z</time>
    </trkpt>
    <trkpt lat="48.461924" lon="2.660414">
      <ele>100.5</ele>
      <time>2014-09-14T07:58:00Z</time>
    </trkpt>
    <trkpt lat="48.461831" lon="2.66046">
      <ele>100.7</ele>
      <time>2014-09-14T07:58:05Z</time>
    </trkpt>
    <trkpt lat="48.461734" lon="2.66047">
      <ele>100.9</ele>
      <time>2014-09-14T07:58:11Z</time>
    </trkpt>
    <trkpt lat="48.461532" lon="2.660476">
      <ele>101.9</ele>
      <time>2014-09-14T07:58:23Z</time>
    </trkpt>
    <trkpt lat="48.461428" lon="2.660454">
      <ele>102.6</ele>
      <time>2014-09-14T07:58:29Z</time>
    </trkpt>
    <trkpt lat="48.46134" lon="2.660397">
      <ele>103.2</ele>
      <time>2014-09-14T07:58:35Z</time>
    </trkpt>
    <trkpt lat="48.46125" lon="2.660374">
      <ele>103.8</ele>
      <time>2014-09-14T07:58:41Z</time>
    </trkpt>
    <trkpt lat="48.461154" lon="2.660407">
      <ele>104.4</ele>
      <time>2014-09-14T07:58:52Z</time>
    </trkpt>
    <trkpt lat="48.461003" lon="2.660463">
      <ele>105.3</ele>
      <time>2014-09-14T07:59:01Z</time>
    </trkpt>
    <trkpt lat="48.460912" lon="2.660515">
      <ele>105.9</ele>
      <time>2014-09-14T07:59:04Z</time>
    </trkpt>
    <trkpt lat="48.460837" lon="2.660593">
      <ele>106.3</ele>
      <time>2014-09-14T07:59:07Z</time>
    </trkpt>
    <trkpt lat="48.460763" lon="2.660691">
      <ele>105.9</ele>
      <time>2014-09-14T07:59:11Z</time>
    </trkpt>
    <trkpt lat="48.460641" lon="2.660966">
      <ele>105.5</ele>
      <time>2014-09-14T07:59:17Z</time>
    </trkpt>
    <trkpt lat="48.460555" lon="2.661047">
      <ele>105.3</ele>
      <time>2014-09-14T07:59:19Z</time>
    </trkpt>
    <trkpt lat="48.460424" lon="2.661119">
      <ele>104.7</ele>
      <time>2014-09-14T07:59:21Z</time>
    </trkpt>
    <trkpt lat="48.460315" lon="2.661205">
      <ele>104.2</ele>
      <time>2014-09-14T07:59:23Z</time>
    </trkpt>
    <trkpt lat="48.460229" lon="2.661248">
      <ele>103.7</ele>
      <time>2014-09-14T07:59:25Z</time>
    </trkpt>
    <trkpt lat="48.460143" lon="2.661342">
      <ele>103.2</ele>
      <time>2014-09-14T07:59:28Z</time>
    </trkpt>
    <trkpt lat="48.460032" lon="2.661398">
      <ele>102.5</ele>
      <time>2014-09-14T07:59:30Z</time>
    </trkpt>
    <trkpt lat="48.459907" lon="2.661419">
      <ele>102.1</ele>
      <time>2014-09-14T07:59:33Z</time>
    </trkpt>
    <trkpt lat="48.459809" lon="2.661407">
      <ele>101.9</ele>
      <time>2014-09-14T07:59:35Z</time>
    </trkpt>
    <trkpt lat="48.459691" lon="2.661362">
      <ele>101.6</ele>
      <time>2014-09-14T07:59:37Z</time>
    </trkpt>
    <trkpt lat="48.459563" lon="2.661325">
      <ele>101.2</ele>
      <time>2014-09-14T07:59:40Z</time>
    </trkpt>
    <trkpt lat="48.459476" lon="2.661292">
      <ele>101.0</ele>
      <time>2014-09-14T07:59:42Z</time>
    </trkpt>
    <trkpt lat="48.459388" lon="2.661204">
      <ele>100.6</ele>
      <time>2014-09-14T07:59:45Z</time>
    </trkpt>
    <trkpt lat="48.459297" lon="2.661149">
      <ele>100.2</ele>
      <time>2014-09-14T07:59:48Z</time>
    </trkpt>
    <trkpt lat="48.459201" lon="2.66108">
      <ele>99.7</ele>
      <time>2014-09-14T07:59:51Z</time>
    </trkpt>
    <trkpt lat="48.459112" lon="2.66101">
      <ele>99.7</ele>
      <time>2014-09-14T07:59:54Z</time>
    </trkpt>
    <trkpt lat="48.45902" lon="2.660927">
      <ele>99.9</ele>
      <time>2014-09-14T07:59:58Z</time>
    </trkpt>
    <trkpt lat="48.458937" lon="2.660853">
      <ele>100.1</ele>
      <time>2014-09-14T08:00:04Z</time>
    </trkpt>
    <trkpt lat="48.458827" lon="2.660791">
      <ele>100.7</ele>
      <time>2014-09-14T08:00:08Z</time>
    </trkpt>
    <trkpt lat="48.45873" lon="2.660734">
      <ele>101.3</ele>
      <time>2014-09-14T08:00:12Z</time>
    </trkpt>
    <trkpt lat="48.458578" lon="2.660592">
      <ele>102.3</ele>
      <time>2014-09-14T08:00:21Z</time>
    </trkpt>
    <trkpt lat="48.458516" lon="2.66047">
      <ele>102.9</ele>
      <time>2014-09-14T08:00:28Z</time>
    </trkpt>
    <trkpt lat="48.458483" lon="2.66034">
      <ele>103.4</ele>
      <time>2014-09-14T08:00:34Z</time>
    </trkpt>
    <trkpt lat="48.458449" lon="2.660209">
      <ele>103.8</ele>
      <time>2014-09-14T08:00:40Z</time>
    </trkpt>
    <trkpt lat="48.458463" lon="2.660064">
      <ele>104.1</ele>
      <time>2014-09-14T08:00:45Z</time>
    </trkpt>
    <trkpt lat="48.458426" lon="2.659921">
      <ele>105.1</ele>
      <time>2014-09-14T08:00:54Z</time>
    </trkpt>
    <trkpt lat="48.458415" lon="2.659765">
      <ele>106.3</ele>
      <time>2014-09-14T08:01:02Z</time>
    </trkpt>
    <trkpt lat="48.458414" lon="2.659627">
      <ele>107.4</ele>
      <time>2014-09-14T08:01:09Z</time>
    </trkpt>
    <trkpt lat="48.458386" lon="2.659487">
      <ele>108.8</ele>
      <time>2014-09-14T08:01:18Z</time>
    </trkpt>
    <trkpt lat="48.458305" lon="2.65923">
      <ele>111.7</ele>
      <time>2014-09-14T08:01:30Z</time>
    </trkpt>
    <trkpt lat="48.458254" lon="2.659104">
      <ele>113.4</ele>
      <time>2014-09-14T08:01:36Z</time>
    </trkpt>
    <trkpt lat="48.458212" lon="2.658977">
      <ele>115.2</ele>
      <time>2014-09-14T08:01:42Z</time>
    </trkpt>
    <trkpt lat="48.458164" lon="2.65884">
      <ele>117.1</ele>
      <time>2014-09-14T08:01:50Z</time>
    </trkpt>
    <trkpt lat="48.4581" lon="2.65871">
      <ele>119.0</ele>
      <time>2014-09-14T08:01:56Z</time>
    </trkpt>
    <trkpt lat="48.45803" lon="2.658609">
      <ele>120.5</ele>
      <time>2014-09-14T08:02:02Z</time>
    </trkpt>
    <trkpt lat="48.45796" lon="2.658495">
      <ele>122.1</ele>
      <time>2014-09-14T08:02:09Z</time>
    </trkpt>
    <trkpt lat="48.4579" lon="2.658388">
      <ele>123.5</ele>
      <time>2014-09-14T08:02:15Z</time>
    </trkpt>
    <trkpt lat="48.457846" lon="2.658265">
      <ele>124.7</ele>
      <time>2014-09-14T08:02:22Z</time>
    </trkpt>
    <trkpt lat="48.457686" lon="2.658122">
      <ele>126.1</ele>
      <time>2014-09-14T08:02:45Z</time>
    </trkpt>
    <trkpt lat="48.457597" lon="2.658063">
      <ele>126.7</ele>
      <time>2014-09-14T08:02:56Z</time>
    </trkpt>
    <trkpt lat="48.457534" lon="2.657958">
      <ele>127.3</ele>
      <time>2014-09-14T08:03:04Z</time>
    </trkpt>
    <trkpt lat="48.457481" lon="2.657841">
      <ele>127.8</ele>
      <time>2014-09-14T08:03:11Z</time>
    </trkpt>
    <trkpt lat="48.457439" lon="2.65771">
      <ele>128.4</ele>
      <time>2014-09-14T08:03:19Z</time>
    </trkpt>
    <trkpt lat="48.45752" lon="2.657597">
      <ele>128.6</ele>
      <time>2014-09-14T08:03:26Z</time>
    </trkpt>
    <trkpt lat="48.457712" lon="2.657512">
      <ele>128.9</ele>
      <time>2014-09-14T08:03:34Z</time>
    </trkpt>
    <trkpt lat="48.45782" lon="2.657482">
      <ele>129.1</ele>
      <time>2014-09-14T08:03:38Z</time>
    </trkpt>
    <trkpt lat="48.457925" lon="2.657459">
      <ele>129.1</ele>
      <time>2014-09-14T08:03:42Z</time>
    </trkpt>
    <trkpt lat="48.458034" lon="2.657437">
      <ele>129.2</ele>
      <time>2014-09-14T08:03:46Z</time>
    </trkpt>
    <trkpt lat="48.458137" lon="2.657412">
      <ele>129.3</ele>
      <time>2014-09-14T08:03:50Z</time>
    </trkpt>
    <trkpt lat="48.458247" lon="2.657393">
      <ele>129.4</ele>
      <time>2014-09-14T08:03:55Z</time>
    </trkpt>
    <trkpt lat="48.458332" lon="2.657337">
      <ele>129.6</ele>
      <time>2014-09-14T08:03:58Z</time>
    </trkpt>
    <trkpt lat="48.458424" lon="2.657251">
      <ele>128.9</ele>
      <time>2014-09-14T08:04:02Z</time>
    </trkpt>
    <trkpt lat="48.458501" lon="2.657131">
      <ele>128.6</ele>
      <time>2014-09-14T08:04:06Z</time>
    </trkpt>
    <trkpt lat="48.458565" lon="2.656988">
      <ele>128.6</ele>
      <time>2014-09-14T08:04:10Z</time>
    </trkpt>
    <trkpt lat="48.45862" lon="2.656873">
      <ele>128.8</ele>
      <time>2014-09-14T08:04:13Z</time>
    </trkpt>
    <trkpt lat="48.458696" lon="2.656741">
      <ele>128.9</ele>
      <time>2014-09-14T08:04:17Z</time>
    </trkpt>
    <trkpt lat="48.458755" lon="2.656612">
      <ele>129.1</ele>
      <time>2014-09-14T08:04:20Z</time>
    </trkpt>
    <trkpt lat="48.458822" lon="2.65648">
      <ele>129.1</ele>
      <time>2014-09-14T08:04:23Z</time>
    </trkpt>
    <trkpt lat="48.458885" lon="2.656379">
      <ele>129.1</ele>
      <time>2014-09-14T08:04:25Z</time>
    </trkpt>
    <trkpt lat="48.458955" lon="2.656242">
      <ele>129.2</ele>
      <time>2014-09-14T08:04:28Z</time>
    </trkpt>
    <trkpt lat="48.459128" lon="2.655948">
      <ele>129.6</ele>
      <time>2014-09-14T08:04:34Z</time>
    </trkpt>
    <trkpt lat="48.459169" lon="2.655814">
      <ele>130.0</ele>
      <time>2014-09-14T08:04:37Z</time>
    </trkpt>
    <trkpt lat="48.459238" lon="2.6557">
      <ele>129.2</ele>
      <time>2014-09-14T08:04:39Z</time>
    </trkpt>
    <trkpt lat="48.459297" lon="2.655584">
      <ele>128.6</ele>
      <time>2014-09-14T08:04:41Z</time>
    </trkpt>
    <trkpt lat="48.459343" lon="2.655421">
      <ele>128.4</ele>
      <time>2014-09-14T08:04:44Z</time>
    </trkpt>
    <trkpt lat="48.459397" lon="2.655244">
      <ele>128.3</ele>
      <time>2014-09-14T08:04:47Z</time>
    </trkpt>
    <trkpt lat="48.459449" lon="2.655058">
      <ele>128.4</ele>
      <time>2014-09-14T08:04:50Z</time>
    </trkpt>
    <trkpt lat="48.45949" lon="2.654889">
      <ele>128.1</ele>
      <time>2014-09-14T08:04:53Z</time>
    </trkpt>
    <trkpt lat="48.459551" lon="2.654758">
      <ele>127.5</ele>
      <time>2014-09-14T08:04:55Z</time>
    </trkpt>
    <trkpt lat="48.459606" lon="2.654566">
      <ele>127.0</ele>
      <time>2014-09-14T08:04:58Z</time>
    </trkpt>
    <trkpt lat="48.459612" lon="2.654354">
      <ele>127.1</ele>
      <time>2014-09-14T08:05:01Z</time>
    </trkpt>
    <trkpt lat="48.459638" lon="2.654183">
      <ele>127.0</ele>
      <time>2014-09-14T08:05:04Z</time>
    </trkpt>
    <trkpt lat="48.459669" lon="2.65403">
      <ele>126.3</ele>
      <time>2014-09-14T08:05:07Z</time>
    </trkpt>
    <trkpt lat="48.459585" lon="2.653928">
      <ele>126.6</ele>
      <time>2014-09-14T08:05:09Z</time>
    </trkpt>
    <trkpt lat="48.45952" lon="2.653772">
      <ele>126.7</ele>
      <time>2014-09-14T08:05:12Z</time>
    </trkpt>
    <trkpt lat="48.459453" lon="2.653669">
      <ele>127.0</ele>
      <time>2014-09-14T08:05:14Z</time>
    </trkpt>
    <trkpt lat="48.459372" lon="2.653583">
      <ele>127.5</ele>
      <time>2014-09-14T08:05:16Z</time>
    </trkpt>
    <trkpt lat="48.459268" lon="2.653499">
      <ele>128.4</ele>
      <time>2014-09-14T08:05:18Z</time>
    </trkpt>
    <trkpt lat="48.459136" lon="2.653432">
      <ele>129.3</ele>
      <time>2014-09-14T08:05:20Z</time>
    </trkpt>
    <trkpt lat="48.459025" lon="2.653403">
      <ele>129.5</ele>
      <time>2014-09-14T08:05:22Z</time>
    </trkpt>
    <trkpt lat="48.458918" lon="2.653403">
      <ele>129.7</ele>
      <time>2014-09-14T08:05:24Z</time>
    </trkpt>
    <trkpt lat="48.458799" lon="2.653399">
      <ele>130.0</ele>
      <time>2014-09-14T08:05:26Z</time>
    </trkpt>
    <trkpt lat="48.458681" lon="2.653417">
      <ele>130.2</ele>
      <time>2014-09-14T08:05:28Z</time>
    </trkpt>
    <trkpt lat="48.458568" lon="2.653433">
      <ele>130.5</ele>
      <time>2014-09-14T08:05:30Z</time>
    </trkpt>
    <trkpt lat="48.458375" lon="2.653446">
      <ele>130.9</ele>
      <time>2014-09-14T08:05:34Z</time>
    </trkpt>
    <trkpt lat="48.45827" lon="2.653435">
      <ele>131.0</ele>
      <time>2014-09-14T08:05:36Z</time>
    </trkpt>
    <trkpt lat="48.458166" lon="2.653417">
      <ele>131.0</ele>
      <time>2014-09-14T08:05:38Z</time>
    </trkpt>
    <trkpt lat="48.458049" lon="2.653356">
      <ele>131.0</ele>
      <time>2014-09-14T08:05:40Z</time>
    </trkpt>
    <trkpt lat="48.45793" lon="2.653299">
      <ele>131.0</ele>
      <time>2014-09-14T08:05:42Z</time>
    </trkpt>
    <trkpt lat="48.457811" lon="2.653194">
      <ele>130.9</ele>
      <time>2014-09-14T08:05:45Z</time>
    </trkpt>
    <trkpt lat="48.45772" lon="2.653079">
      <ele>131.0</ele>
      <time>2014-09-14T08:05:48Z</time>
    </trkpt>
    <trkpt lat="48.457658" lon="2.652926">
      <ele>131.1</ele>
      <time>2014-09-14T08:05:51Z</time>
    </trkpt>
    <trkpt lat="48.457599" lon="2.652799">
      <ele>131.3</ele>
      <time>2014-09-14T08:05:53Z</time>
    </trkpt>
    <trkpt lat="48.457574" lon="2.652664">
      <ele>131.5</ele>
      <time>2014-09-14T08:05:55Z</time>
    </trkpt>
    <trkpt lat="48.457633" lon="2.652542">
      <ele>131.3</ele>
      <time>2014-09-14T08:05:56Z</time>
    </trkpt>
    <trkpt lat="48.457644" lon="2.652403">
      <ele>131.3</ele>
      <time>2014-09-14T08:05:58Z</time>
    </trkpt>
    <trkpt lat="48.457685" lon="2.652266">
      <ele>131.2</ele>
      <time>2014-09-14T08:06:00Z</time>
    </trkpt>
    <trkpt lat="48.457746" lon="2.652074">
      <ele>131.1</ele>
      <time>2014-09-14T08:06:02Z</time>
    </trkpt>
    <trkpt lat="48.457816" lon="2.651917">
      <ele>131.0</ele>
      <time>2014-09-14T08:06:04Z</time>
    </trkpt>
    <trkpt lat="48.457894" lon="2.651776">
      <ele>130.9</ele>
      <time>2014-09-14T08:06:06Z</time>
    </trkpt>
    <trkpt lat="48.457984" lon="2.651642">
      <ele>130.9</ele>
      <time>2014-09-14T08:06:08Z</time>
    </trkpt>
    <trkpt lat="48.458084" lon="2.651556">
      <ele>130.7</ele>
      <time>2014-09-14T08:06:10Z</time>
    </trkpt>
    <trkpt lat="48.45819" lon="2.651486">
      <ele>130.5</ele>
      <time>2014-09-14T08:06:12Z</time>
    </trkpt>
    <trkpt lat="48.458297" lon="2.651422">
      <ele>130.4</ele>
      <time>2014-09-14T08:06:14Z</time>
    </trkpt>
    <trkpt lat="48.458396" lon="2.651358">
      <ele>129.7</ele>
      <time>2014-09-14T08:06:16Z</time>
    </trkpt>
    <trkpt lat="48.458486" lon="2.651285">
      <ele>128.8</ele>
      <time>2014-09-14T08:06:18Z</time>
    </trkpt>
    <trkpt lat="48.458568" lon="2.651168">
      <ele>128.1</ele>
      <time>2014-09-14T08:06:20Z</time>
    </trkpt>
    <trkpt lat="48.458618" lon="2.651026">
      <ele>127.9</ele>
      <time>2014-09-14T08:06:22Z</time>
    </trkpt>
    <trkpt lat="48.45864" lon="2.650892">
      <ele>127.9</ele>
      <time>2014-09-14T08:06:24Z</time>
    </trkpt>
    <trkpt lat="48.458634" lon="2.650733">
      <ele>128.0</ele>
      <time>2014-09-14T08:06:27Z</time>
    </trkpt>
    <trkpt lat="48.458599" lon="2.650606">
      <ele>128.3</ele>
      <time>2014-09-14T08:06:29Z</time>
    </trkpt>
    <trkpt lat="48.458558" lon="2.650456">
      <ele>128.6</ele>
      <time>2014-09-14T08:06:31Z</time>
    </trkpt>
    <trkpt lat="48.45843" lon="2.650193">
      <ele>129.9</ele>
      <time>2014-09-14T08:06:36Z</time>
    </trkpt>
    <trkpt lat="48.45837" lon="2.650074">
      <ele>130.6</ele>
      <time>2014-09-14T08:06:38Z</time>
    </trkpt>
    <trkpt lat="48.458294" lon="2.649945">
      <ele>131.1</ele>
      <time>2014-09-14T08:06:40Z</time>
    </trkpt>
    <trkpt lat="48.458224" lon="2.64984">
      <ele>131.3</ele>
      <time>2014-09-14T08:06:42Z</time>
    </trkpt>
    <trkpt lat="48.458161" lon="2.649712">
      <ele>131.4</ele>
      <time>2014-09-14T08:06:44Z</time>
    </trkpt>
    <trkpt lat="48.458102" lon="2.649577">
      <ele>131.6</ele>
      <time>2014-09-14T08:06:46Z</time>
    </trkpt>
    <trkpt lat="48.458056" lon="2.649451">
      <ele>131.7</ele>
      <time>2014-09-14T08:06:48Z</time>
    </trkpt>
    <trkpt lat="48.458052" lon="2.649229">
      <ele>131.7</ele>
      <time>2014-09-14T08:06:51Z</time>
    </trkpt>
    <trkpt lat="48.458057" lon="2.649075">
      <ele>131.7</ele>
      <time>2014-09-14T08:06:53Z</time>
    </trkpt>
    <trkpt lat="48.458093" lon="2.648912">
      <ele>131.6</ele>
      <time>2014-09-14T08:06:55Z</time>
    </trkpt>
    <trkpt lat="48.458151" lon="2.648741">
      <ele>131.4</ele>
      <time>2014-09-14T08:06:57Z</time>
    </trkpt>
    <trkpt lat="48.458231" lon="2.648605">
      <ele>131.2</ele>
      <time>2014-09-14T08:06:59Z</time>
    </trkpt>
    <trkpt lat="48.458342" lon="2.648473">
      <ele>130.9</ele>
      <time>2014-09-14T08:07:01Z</time>
    </trkpt>
    <trkpt lat="48.458455" lon="2.648407">
      <ele>130.2</ele>
      <time>2014-09-14T08:07:03Z</time>
    </trkpt>
    <trkpt lat="48.458546" lon="2.648332">
      <ele>129.7</ele>
      <time>2014-09-14T08:07:05Z</time>
    </trkpt>
    <trkpt lat="48.458642" lon="2.648275">
      <ele>129.3</ele>
      <time>2014-09-14T08:07:07Z</time>
    </trkpt>
    <trkpt lat="48.458734" lon="2.648218">
      <ele>129.0</ele>
      <time>2014-09-14T08:07:09Z</time>
    </trkpt>
    <trkpt lat="48.458829" lon="2.648169">
      <ele>128.7</ele>
      <time>2014-09-14T08:07:11Z</time>
    </trkpt>
    <trkpt lat="48.458922" lon="2.648117">
      <ele>128.5</ele>
      <time>2014-09-14T08:07:13Z</time>
    </trkpt>
    <trkpt lat="48.459013" lon="2.648076">
      <ele>128.2</ele>
      <time>2014-09-14T08:07:15Z</time>
    </trkpt>
    <trkpt lat="48.459135" lon="2.648061">
      <ele>127.8</ele>
      <time>2014-09-14T08:07:17Z</time>
    </trkpt>
    <trkpt lat="48.45924" lon="2.648002">
      <ele>126.7</ele>
      <time>2014-09-14T08:07:19Z</time>
    </trkpt>
    <trkpt lat="48.459333" lon="2.647903">
      <ele>125.7</ele>
      <time>2014-09-14T08:07:21Z</time>
    </trkpt>
    <trkpt lat="48.459407" lon="2.647777">
      <ele>125.0</ele>
      <time>2014-09-14T08:07:23Z</time>
    </trkpt>
    <trkpt lat="48.459442" lon="2.64764">
      <ele>125.0</ele>
      <time>2014-09-14T08:07:26Z</time>
    </trkpt>
    <trkpt lat="48.459476" lon="2.647493">
      <ele>125.1</ele>
      <time>2014-09-14T08:07:28Z</time>
    </trkpt>
    <trkpt lat="48.459491" lon="2.647294">
      <ele>125.1</ele>
      <time>2014-09-14T08:07:31Z</time>
    </trkpt>
    <trkpt lat="48.459512" lon="2.647006">
      <ele>125.1</ele>
      <time>2014-09-14T08:07:35Z</time>
    </trkpt>
    <trkpt lat="48.459471" lon="2.64684">
      <ele>126.0</ele>
      <time>2014-09-14T08:07:37Z</time>
    </trkpt>
    <trkpt lat="48.45948" lon="2.646682">
      <ele>126.1</ele>
      <time>2014-09-14T08:07:39Z</time>
    </trkpt>
    <trkpt lat="48.459472" lon="2.646501">
      <ele>126.3</ele>
      <time>2014-09-14T08:07:42Z</time>
    </trkpt>
    <trkpt lat="48.459455" lon="2.646347">
      <ele>126.5</ele>
      <time>2014-09-14T08:07:44Z</time>
    </trkpt>
    <trkpt lat="48.459397" lon="2.646226">
      <ele>127.3</ele>
      <time>2014-09-14T08:07:46Z</time>
    </trkpt>
    <trkpt lat="48.459376" lon="2.646071">
      <ele>127.6</ele>
      <time>2014-09-14T08:07:48Z</time>
    </trkpt>
    <trkpt lat="48.459338" lon="2.645924">
      <ele>128.0</ele>
      <time>2014-09-14T08:07:50Z</time>
    </trkpt>
    <trkpt lat="48.45927" lon="2.645759">
      <ele>128.7</ele>
      <time>2014-09-14T08:07:52Z</time>
    </trkpt>
    <trkpt lat="48.459207" lon="2.645626">
      <ele>129.5</ele>
      <time>2014-09-14T08:07:54Z</time>
    </trkpt>
    <trkpt lat="48.459172" lon="2.64549">
      <ele>129.9</ele>
      <time>2014-09-14T08:07:56Z</time>
    </trkpt>
    <trkpt lat="48.459083" lon="2.645344">
      <ele>130.3</ele>
      <time>2014-09-14T08:07:59Z</time>
    </trkpt>
    <trkpt lat="48.459078" lon="2.645137">
      <ele>130.3</ele>
      <time>2014-09-14T08:08:01Z</time>
    </trkpt>
    <trkpt lat="48.459058" lon="2.644961">
      <ele>130.3</ele>
      <time>2014-09-14T08:08:03Z</time>
    </trkpt>
    <trkpt lat="48.459029" lon="2.644782">
      <ele>130.2</ele>
      <time>2014-09-14T08:08:05Z</time>
    </trkpt>
    <trkpt lat="48.458996" lon="2.644625">
      <ele>130.2</ele>
      <time>2014-09-14T08:08:07Z</time>
    </trkpt>
    <trkpt lat="48.459003" lon="2.644459">
      <ele>129.9</ele>
      <time>2014-09-14T08:08:09Z</time>
    </trkpt>
    <trkpt lat="48.459018" lon="2.644319">
      <ele>129.7</ele>
      <time>2014-09-14T08:08:11Z</time>
    </trkpt>
    <trkpt lat="48.459029" lon="2.644175">
      <ele>129.5</ele>
      <time>2014-09-14T08:08:13Z</time>
    </trkpt>
    <trkpt lat="48.459056" lon="2.644017">
      <ele>129.6</ele>
      <time>2014-09-14T08:08:15Z</time>
    </trkpt>
    <trkpt lat="48.459096" lon="2.643806">
      <ele>129.7</ele>
      <time>2014-09-14T08:08:17Z</time>
    </trkpt>
    <trkpt lat="48.459145" lon="2.643595">
      <ele>129.8</ele>
      <time>2014-09-14T08:08:19Z</time>
    </trkpt>
    <trkpt lat="48.459193" lon="2.643434">
      <ele>129.5</ele>
      <time>2014-09-14T08:08:21Z</time>
    </trkpt>
    <trkpt lat="48.459242" lon="2.643279">
      <ele>128.8</ele>
      <time>2014-09-14T08:08:23Z</time>
    </trkpt>
    <trkpt lat="48.459282" lon="2.643105">
      <ele>128.1</ele>
      <time>2014-09-14T08:08:26Z</time>
    </trkpt>
    <trkpt lat="48.459328" lon="2.642948">
      <ele>127.2</ele>
      <time>2014-09-14T08:08:28Z</time>
    </trkpt>
    <trkpt lat="48.459366" lon="2.642781">
      <ele>126.5</ele>
      <time>2014-09-14T08:08:30Z</time>
    </trkpt>
    <trkpt lat="48.459392" lon="2.642635">
      <ele>125.9</ele>
      <time>2014-09-14T08:08:32Z</time>
    </trkpt>
    <trkpt lat="48.459392" lon="2.642321">
      <ele>125.8</ele>
      <time>2014-09-14T08:08:36Z</time>
    </trkpt>
    <trkpt lat="48.459414" lon="2.642148">
      <ele>125.6</ele>
      <time>2014-09-14T08:08:38Z</time>
    </trkpt>
    <trkpt lat="48.459452" lon="2.641976">
      <ele>125.1</ele>
      <time>2014-09-14T08:08:40Z</time>
    </trkpt>
    <trkpt lat="48.459492" lon="2.641752">
      <ele>124.7</ele>
      <time>2014-09-14T08:08:42Z</time>
    </trkpt>
    <trkpt lat="48.459515" lon="2.641594">
      <ele>124.2</ele>
      <time>2014-09-14T08:08:44Z</time>
    </trkpt>
    <trkpt lat="48.45947" lon="2.641461">
      <ele>124.4</ele>
      <time>2014-09-14T08:08:46Z</time>
    </trkpt>
    <trkpt lat="48.459389" lon="2.641306">
      <ele>125.0</ele>
      <time>2014-09-14T08:08:49Z</time>
    </trkpt>
    <trkpt lat="48.459255" lon="2.641274">
      <ele>126.5</ele>
      <time>2014-09-14T08:08:52Z</time>
    </trkpt>
    <trkpt lat="48.459148" lon="2.641235">
      <ele>127.6</ele>
      <time>2014-09-14T08:08:55Z</time>
    </trkpt>
    <trkpt lat="48.459052" lon="2.641211">
      <ele>128.1</ele>
      <time>2014-09-14T08:08:58Z</time>
    </trkpt>
    <trkpt lat="48.458953" lon="2.641184">
      <ele>128.7</ele>
      <time>2014-09-14T08:09:01Z</time>
    </trkpt>
    <trkpt lat="48.458856" lon="2.641158">
      <ele>129.2</ele>
      <time>2014-09-14T08:09:04Z</time>
    </trkpt>
    <trkpt lat="48.458736" lon="2.641146">
      <ele>129.9</ele>
      <time>2014-09-14T08:09:08Z</time>
    </trkpt>
    <trkpt lat="48.458624" lon="2.641135">
      <ele>130.6</ele>
      <time>2014-09-14T08:09:11Z</time>
    </trkpt>
    <trkpt lat="48.458509" lon="2.641138">
      <ele>131.3</ele>
      <time>2014-09-14T08:09:14Z</time>
    </trkpt>
    <trkpt lat="48.458392" lon="2.641154">
      <ele>132.2</ele>
      <time>2014-09-14T08:09:17Z</time>
    </trkpt>
    <trkpt lat="48.458278" lon="2.641151">
      <ele>132.8</ele>
      <time>2014-09-14T08:09:20Z</time>
    </trkpt>
    <trkpt lat="48.458158" lon="2.641145">
      <ele>133.4</ele>
      <time>2014-09-14T08:09:23Z</time>
    </trkpt>
    <trkpt lat="48.458072" lon="2.641105">
      <ele>133.8</ele>
      <time>2014-09-14T08:09:25Z</time>
    </trkpt>
    <trkpt lat="48.45796" lon="2.641009">
      <ele>134.2</ele>
      <time>2014-09-14T08:09:28Z</time>
    </trkpt>
    <trkpt lat="48.457879" lon="2.640889">
      <ele>134.4</ele>
      <time>2014-09-14T08:09:31Z</time>
    </trkpt>
    <trkpt lat="48.457829" lon="2.640737">
      <ele>134.2</ele>
      <time>2014-09-14T08:09:34Z</time>
    </trkpt>
    <trkpt lat="48.457708" lon="2.640445">
      <ele>134.2</ele>
      <time>2014-09-14T08:09:40Z</time>
    </trkpt>
    <trkpt lat="48.45765" lon="2.64031">
      <ele>134.5</ele>
      <time>2014-09-14T08:09:43Z</time>
    </trkpt>
    <trkpt lat="48.457592" lon="2.640161">
      <ele>134.9</ele>
      <time>2014-09-14T08:09:46Z</time>
    </trkpt>
    <trkpt lat="48.457545" lon="2.640039">
      <ele>135.4</ele>
      <time>2014-09-14T08:09:48Z</time>
    </trkpt>
    <trkpt lat="48.457506" lon="2.639881">
      <ele>135.6</ele>
      <time>2014-09-14T08:09:51Z</time>
    </trkpt>
    <trkpt lat="48.457503" lon="2.639696">
      <ele>135.2</ele>
      <time>2014-09-14T08:09:54Z</time>
    </trkpt>
    <trkpt lat="48.457565" lon="2.639571">
      <ele>133.9</ele>
      <time>2014-09-14T08:09:56Z</time>
    </trkpt>
    <trkpt lat="48.457588" lon="2.639428">
      <ele>133.1</ele>
      <time>2014-09-14T08:09:58Z</time>
    </trkpt>
    <trkpt lat="48.457603" lon="2.639287">
      <ele>132.5</ele>
      <time>2014-09-14T08:10:00Z</time>
    </trkpt>
    <trkpt lat="48.457597" lon="2.639149">
      <ele>132.1</ele>
      <time>2014-09-14T08:10:02Z</time>
    </trkpt>
    <trkpt lat="48.457621" lon="2.639003">
      <ele>130.7</ele>
      <time>2014-09-14T08:10:04Z</time>
    </trkpt>
    <trkpt lat="48.457672" lon="2.638817">
      <ele>128.6</ele>
      <time>2014-09-14T08:10:06Z</time>
    </trkpt>
    <trkpt lat="48.457683" lon="2.63866">
      <ele>127.5</ele>
      <time>2014-09-14T08:10:08Z</time>
    </trkpt>
    <trkpt lat="48.457619" lon="2.638482">
      <ele>127.3</ele>
      <time>2014-09-14T08:10:11Z</time>
    </trkpt>
    <trkpt lat="48.457552" lon="2.638364">
      <ele>127.5</ele>
      <time>2014-09-14T08:10:13Z</time>
    </trkpt>
    <trkpt lat="48.4574" lon="2.638413">
      <ele>128.7</ele>
      <time>2014-09-14T08:10:15Z</time>
    </trkpt>
    <trkpt lat="48.457315" lon="2.638519">
      <ele>129.6</ele>
      <time>2014-09-14T08:10:17Z</time>
    </trkpt>
    <trkpt lat="48.457258" lon="2.638649">
      <ele>130.7</ele>
      <time>2014-09-14T08:10:19Z</time>
    </trkpt>
    <trkpt lat="48.457208" lon="2.638788">
      <ele>131.8</ele>
      <time>2014-09-14T08:10:21Z</time>
    </trkpt>
    <trkpt lat="48.457165" lon="2.63891">
      <ele>132.8</ele>
      <time>2014-09-14T08:10:23Z</time>
    </trkpt>
    <trkpt lat="48.457086" lon="2.639066">
      <ele>134.2</ele>
      <time>2014-09-14T08:10:26Z</time>
    </trkpt>
    <trkpt lat="48.457007" lon="2.639151">
      <ele>135.1</ele>
      <time>2014-09-14T08:10:28Z</time>
    </trkpt>
    <trkpt lat="48.456881" lon="2.63922">
      <ele>135.7</ele>
      <time>2014-09-14T08:10:31Z</time>
    </trkpt>
    <trkpt lat="48.456774" lon="2.639271">
      <ele>136.1</ele>
      <time>2014-09-14T08:10:33Z</time>
    </trkpt>
    <trkpt lat="48.45668" lon="2.6393">
      <ele>136.4</ele>
      <time>2014-09-14T08:10:35Z</time>
    </trkpt>
    <trkpt lat="48.456481" lon="2.639287">
      <ele>136.2</ele>
      <time>2014-09-14T08:10:39Z</time>
    </trkpt>
    <trkpt lat="48.456384" lon="2.639241">
      <ele>135.9</ele>
      <time>2014-09-14T08:10:41Z</time>
    </trkpt>
    <trkpt lat="48.456296" lon="2.639183">
      <ele>135.6</ele>
      <time>2014-09-14T08:10:43Z</time>
    </trkpt>
    <trkpt lat="48.456242" lon="2.639051">
      <ele>134.7</ele>
      <time>2014-09-14T08:10:45Z</time>
    </trkpt>
    <trkpt lat="48.456191" lon="2.638909">
      <ele>133.6</ele>
      <time>2014-09-14T08:10:47Z</time>
    </trkpt>
    <trkpt lat="48.456137" lon="2.638767">
      <ele>132.6</ele>
      <time>2014-09-14T08:10:49Z</time>
    </trkpt>
    <trkpt lat="48.45606" lon="2.638684">
      <ele>132.1</ele>
      <time>2014-09-14T08:10:51Z</time>
    </trkpt>
    <trkpt lat="48.45595" lon="2.638696">
      <ele>132.2</ele>
      <time>2014-09-14T08:10:53Z</time>
    </trkpt>
    <trkpt lat="48.455841" lon="2.638754">
      <ele>132.5</ele>
      <time>2014-09-14T08:10:55Z</time>
    </trkpt>
    <trkpt lat="48.455734" lon="2.638762">
      <ele>133.0</ele>
      <time>2014-09-14T08:10:57Z</time>
    </trkpt>
    <trkpt lat="48.455637" lon="2.638757">
      <ele>133.4</ele>
      <time>2014-09-14T08:10:59Z</time>
    </trkpt>
    <trkpt lat="48.455532" lon="2.638625">
      <ele>133.2</ele>
      <time>2014-09-14T08:11:02Z</time>
    </trkpt>
    <trkpt lat="48.455452" lon="2.638553">
      <ele>133.2</ele>
      <time>2014-09-14T08:11:04Z</time>
    </trkpt>
    <trkpt lat="48.455359" lon="2.63851">
      <ele>133.5</ele>
      <time>2014-09-14T08:11:06Z</time>
    </trkpt>
    <trkpt lat="48.455264" lon="2.638487">
      <ele>134.0</ele>
      <time>2014-09-14T08:11:08Z</time>
    </trkpt>
    <trkpt lat="48.455171" lon="2.638474">
      <ele>134.4</ele>
      <time>2014-09-14T08:11:10Z</time>
    </trkpt>
    <trkpt lat="48.455075" lon="2.638485">
      <ele>135.0</ele>
      <time>2014-09-14T08:11:12Z</time>
    </trkpt>
    <trkpt lat="48.454967" lon="2.63848">
      <ele>135.5</ele>
      <time>2014-09-14T08:11:14Z</time>
    </trkpt>
    <trkpt lat="48.454879" lon="2.638425">
      <ele>135.8</ele>
      <time>2014-09-14T08:11:16Z</time>
    </trkpt>
    <trkpt lat="48.454809" lon="2.638325">
      <ele>135.9</ele>
      <time>2014-09-14T08:11:18Z</time>
    </trkpt>
    <trkpt lat="48.454742" lon="2.638229">
      <ele>135.7</ele>
      <time>2014-09-14T08:11:20Z</time>
    </trkpt>
    <trkpt lat="48.454671" lon="2.638103">
      <ele>135.5</ele>
      <time>2014-09-14T08:11:22Z</time>
    </trkpt>
    <trkpt lat="48.454604" lon="2.63799">
      <ele>135.4</ele>
      <time>2014-09-14T08:11:24Z</time>
    </trkpt>
    <trkpt lat="48.454541" lon="2.63788">
      <ele>135.4</ele>
      <time>2014-09-14T08:11:26Z</time>
    </trkpt>
    <trkpt lat="48.454451" lon="2.637759">
      <ele>135.6</ele>
      <time>2014-09-14T08:11:28Z</time>
    </trkpt>
    <trkpt lat="48.45439" lon="2.637632">
      <ele>135.6</ele>
      <time>2014-09-14T08:11:30Z</time>
    </trkpt>
    <trkpt lat="48.454346" lon="2.637481">
      <ele>135.4</ele>
      <time>2014-09-14T08:11:33Z</time>
    </trkpt>
    <trkpt lat="48.454324" lon="2.637295">
      <ele>134.7</ele>
      <time>2014-09-14T08:11:35Z</time>
    </trkpt>
    <trkpt lat="48.454299" lon="2.637152">
      <ele>134.3</ele>
      <time>2014-09-14T08:11:37Z</time>
    </trkpt>
    <trkpt lat="48.454208" lon="2.636777">
      <ele>133.8</ele>
      <time>2014-09-14T08:11:42Z</time>
    </trkpt>
    <trkpt lat="48.454153" lon="2.636642">
      <ele>133.8</ele>
      <time>2014-09-14T08:11:44Z</time>
    </trkpt>
    <trkpt lat="48.454071" lon="2.636515">
      <ele>132.8</ele>
      <time>2014-09-14T08:11:46Z</time>
    </trkpt>
    <trkpt lat="48.454001" lon="2.636405">
      <ele>131.8</ele>
      <time>2014-09-14T08:11:48Z</time>
    </trkpt>
    <trkpt lat="48.453852" lon="2.636339">
      <ele>131.5</ele>
      <time>2014-09-14T08:11:51Z</time>
    </trkpt>
    <trkpt lat="48.453755" lon="2.636334">
      <ele>131.6</ele>
      <time>2014-09-14T08:11:53Z</time>
    </trkpt>
    <trkpt lat="48.453646" lon="2.63635">
      <ele>132.0</ele>
      <time>2014-09-14T08:11:55Z</time>
    </trkpt>
    <trkpt lat="48.453547" lon="2.636394">
      <ele>132.6</ele>
      <time>2014-09-14T08:11:57Z</time>
    </trkpt>
    <trkpt lat="48.453452" lon="2.636436">
      <ele>133.3</ele>
      <time>2014-09-14T08:11:59Z</time>
    </trkpt>
    <trkpt lat="48.453349" lon="2.636497">
      <ele>134.1</ele>
      <time>2014-09-14T08:12:01Z</time>
    </trkpt>
    <trkpt lat="48.453249" lon="2.636557">
      <ele>134.9</ele>
      <time>2014-09-14T08:12:03Z</time>
    </trkpt>
    <trkpt lat="48.453149" lon="2.636601">
      <ele>135.4</ele>
      <time>2014-09-14T08:12:05Z</time>
    </trkpt>
    <trkpt lat="48.453039" lon="2.636593">
      <ele>135.4</ele>
      <time>2014-09-14T08:12:08Z</time>
    </trkpt>
    <trkpt lat="48.452927" lon="2.636551">
      <ele>135.1</ele>
      <time>2014-09-14T08:12:10Z</time>
    </trkpt>
    <trkpt lat="48.452845" lon="2.636438">
      <ele>134.3</ele>
      <time>2014-09-14T08:12:12Z</time>
    </trkpt>
    <trkpt lat="48.45276" lon="2.636328">
      <ele>133.7</ele>
      <time>2014-09-14T08:12:14Z</time>
    </trkpt>
    <trkpt lat="48.452693" lon="2.636198">
      <ele>133.1</ele>
      <time>2014-09-14T08:12:16Z</time>
    </trkpt>
    <trkpt lat="48.452624" lon="2.636085">
      <ele>132.7</ele>
      <time>2014-09-14T08:12:18Z</time>
    </trkpt>
    <trkpt lat="48.452531" lon="2.636002">
      <ele>132.7</ele>
      <time>2014-09-14T08:12:20Z</time>
    </trkpt>
    <trkpt lat="48.452436" lon="2.636013">
      <ele>133.2</ele>
      <time>2014-09-14T08:12:22Z</time>
    </trkpt>
    <trkpt lat="48.452322" lon="2.636034">
      <ele>133.8</ele>
      <time>2014-09-14T08:12:24Z</time>
    </trkpt>
    <trkpt lat="48.452219" lon="2.636062">
      <ele>134.4</ele>
      <time>2014-09-14T08:12:26Z</time>
    </trkpt>
    <trkpt lat="48.452105" lon="2.636053">
      <ele>135.0</ele>
      <time>2014-09-14T08:12:28Z</time>
    </trkpt>
    <trkpt lat="48.452026" lon="2.635948">
      <ele>134.8</ele>
      <time>2014-09-14T08:12:30Z</time>
    </trkpt>
    <trkpt lat="48.451967" lon="2.63579">
      <ele>134.2</ele>
      <time>2014-09-14T08:12:33Z</time>
    </trkpt>
    <trkpt lat="48.451944" lon="2.635645">
      <ele>133.0</ele>
      <time>2014-09-14T08:12:36Z</time>
    </trkpt>
    <trkpt lat="48.451973" lon="2.63546">
      <ele>131.3</ele>
      <time>2014-09-14T08:12:39Z</time>
    </trkpt>
    <trkpt lat="48.451987" lon="2.635163">
      <ele>128.6</ele>
      <time>2014-09-14T08:12:43Z</time>
    </trkpt>
    <trkpt lat="48.452011" lon="2.635029">
      <ele>127.4</ele>
      <time>2014-09-14T08:12:45Z</time>
    </trkpt>
    <trkpt lat="48.45205" lon="2.634897">
      <ele>126.6</ele>
      <time>2014-09-14T08:12:47Z</time>
    </trkpt>
    <trkpt lat="48.452078" lon="2.634729">
      <ele>125.7</ele>
      <time>2014-09-14T08:12:49Z</time>
    </trkpt>
    <trkpt lat="48.452079" lon="2.634565">
      <ele>124.9</ele>
      <time>2014-09-14T08:12:51Z</time>
    </trkpt>
    <trkpt lat="48.452073" lon="2.634415">
      <ele>124.2</ele>
      <time>2014-09-14T08:12:53Z</time>
    </trkpt>
    <trkpt lat="48.452064" lon="2.634226">
      <ele>123.3</ele>
      <time>2014-09-14T08:12:56Z</time>
    </trkpt>
    <trkpt lat="48.452046" lon="2.634032">
      <ele>121.9</ele>
      <time>2014-09-14T08:12:59Z</time>
    </trkpt>
    <trkpt lat="48.452067" lon="2.633892">
      <ele>120.7</ele>
      <time>2014-09-14T08:13:02Z</time>
    </trkpt>
    <trkpt lat="48.452094" lon="2.633735">
      <ele>119.4</ele>
      <time>2014-09-14T08:13:05Z</time>
    </trkpt>
    <trkpt lat="48.452035" lon="2.633882">
      <ele>120.6</ele>
      <time>2014-09-14T08:14:09Z</time>
    </trkpt>
    <trkpt lat="48.45203" lon="2.634213">
      <ele>123.2</ele>
      <time>2014-09-14T08:14:15Z</time>
    </trkpt>
    <trkpt lat="48.452027" lon="2.634369">
      <ele>124.0</ele>
      <time>2014-09-14T08:14:18Z</time>
    </trkpt>
    <trkpt lat="48.452015" lon="2.63451">
      <ele>124.7</ele>
      <time>2014-09-14T08:14:20Z</time>
    </trkpt>
    <trkpt lat="48.451995" lon="2.634701">
      <ele>125.7</ele>
      <time>2014-09-14T08:14:23Z</time>
    </trkpt>
    <trkpt lat="48.451971" lon="2.634873">
      <ele>126.6</ele>
      <time>2014-09-14T08:14:26Z</time>
    </trkpt>
    <trkpt lat="48.451955" lon="2.635021">
      <ele>127.5</ele>
      <time>2014-09-14T08:14:28Z</time>
    </trkpt>
    <trkpt lat="48.451901" lon="2.635195">
      <ele>129.2</ele>
      <time>2014-09-14T08:14:31Z</time>
    </trkpt>
    <trkpt lat="48.451848" lon="2.635315">
      <ele>130.4</ele>
      <time>2014-09-14T08:14:34Z</time>
    </trkpt>
    <trkpt lat="48.451778" lon="2.635462">
      <ele>132.0</ele>
      <time>2014-09-14T08:14:37Z</time>
    </trkpt>
    <trkpt lat="48.451772" lon="2.635632">
      <ele>133.6</ele>
      <time>2014-09-14T08:14:40Z</time>
    </trkpt>
    <trkpt lat="48.451788" lon="2.635784">
      <ele>135.0</ele>
      <time>2014-09-14T08:14:43Z</time>
    </trkpt>
    <trkpt lat="48.451822" lon="2.635928">
      <ele>135.7</ele>
      <time>2014-09-14T08:14:46Z</time>
    </trkpt>
    <trkpt lat="48.451855" lon="2.636066">
      <ele>136.2</ele>
      <time>2014-09-14T08:14:49Z</time>
    </trkpt>
    <trkpt lat="48.451786" lon="2.636162">
      <ele>137.0</ele>
      <time>2014-09-14T08:14:53Z</time>
    </trkpt>
    <trkpt lat="48.451701" lon="2.636226">
      <ele>137.7</ele>
      <time>2014-09-14T08:14:57Z</time>
    </trkpt>
    <trkpt lat="48.451614" lon="2.636299">
      <ele>137.6</ele>
      <time>2014-09-14T08:14:59Z</time>
    </trkpt>
    <trkpt lat="48.451512" lon="2.636383">
      <ele>136.7</ele>
      <time>2014-09-14T08:15:02Z</time>
    </trkpt>
    <trkpt lat="48.451433" lon="2.636463">
      <ele>136.2</ele>
      <time>2014-09-14T08:15:04Z</time>
    </trkpt>
    <trkpt lat="48.451348" lon="2.636618">
      <ele>136.2</ele>
      <time>2014-09-14T08:15:07Z</time>
    </trkpt>
    <trkpt lat="48.451329" lon="2.636764">
      <ele>136.5</ele>
      <time>2014-09-14T08:15:11Z</time>
    </trkpt>
    <trkpt lat="48.451186" lon="2.637013">
      <ele>135.8</ele>
      <time>2014-09-14T08:15:20Z</time>
    </trkpt>
    <trkpt lat="48.451121" lon="2.637154">
      <ele>135.6</ele>
      <time>2014-09-14T08:15:23Z</time>
    </trkpt>
    <trkpt lat="48.451091" lon="2.637311">
      <ele>135.9</ele>
      <time>2014-09-14T08:15:25Z</time>
    </trkpt>
    <trkpt lat="48.451057" lon="2.637453">
      <ele>136.2</ele>
      <time>2014-09-14T08:15:27Z</time>
    </trkpt>
    <trkpt lat="48.451009" lon="2.637624">
      <ele>136.2</ele>
      <time>2014-09-14T08:15:29Z</time>
    </trkpt>
    <trkpt lat="48.450967" lon="2.637798">
      <ele>136.2</ele>
      <time>2014-09-14T08:15:31Z</time>
    </trkpt>
    <trkpt lat="48.450943" lon="2.637979">
      <ele>136.2</ele>
      <time>2014-09-14T08:15:33Z</time>
    </trkpt>
    <trkpt lat="48.450922" lon="2.638148">
      <ele>136.3</ele>
      <time>2014-09-14T08:15:35Z</time>
    </trkpt>
    <trkpt lat="48.450903" lon="2.638301">
      <ele>136.4</ele>
      <time>2014-09-14T08:15:37Z</time>
    </trkpt>
    <trkpt lat="48.450886" lon="2.638442">
      <ele>136.1</ele>
      <time>2014-09-14T08:15:39Z</time>
    </trkpt>
    <trkpt lat="48.450865" lon="2.638609">
      <ele>135.6</ele>
      <time>2014-09-14T08:15:41Z</time>
    </trkpt>
    <trkpt lat="48.45088" lon="2.638787">
      <ele>135.3</ele>
      <time>2014-09-14T08:15:43Z</time>
    </trkpt>
    <trkpt lat="48.450887" lon="2.638948">
      <ele>135.0</ele>
      <time>2014-09-14T08:15:45Z</time>
    </trkpt>
    <trkpt lat="48.450915" lon="2.639112">
      <ele>134.9</ele>
      <time>2014-09-14T08:15:47Z</time>
    </trkpt>
    <trkpt lat="48.450922" lon="2.639271">
      <ele>135.1</ele>
      <time>2014-09-14T08:15:49Z</time>
    </trkpt>
    <trkpt lat="48.450939" lon="2.639438">
      <ele>135.6</ele>
      <time>2014-09-14T08:15:51Z</time>
    </trkpt>
    <trkpt lat="48.45096" lon="2.639587">
      <ele>136.1</ele>
      <time>2014-09-14T08:15:53Z</time>
    </trkpt>
    <trkpt lat="48.450983" lon="2.639803">
      <ele>136.7</ele>
      <time>2014-09-14T08:15:56Z</time>
    </trkpt>
    <trkpt lat="48.451052" lon="2.639984">
      <ele>137.5</ele>
      <time>2014-09-14T08:15:58Z</time>
    </trkpt>
    <trkpt lat="48.451046" lon="2.640189">
      <ele>138.0</ele>
      <time>2014-09-14T08:16:00Z</time>
    </trkpt>
    <trkpt lat="48.451002" lon="2.640382">
      <ele>138.3</ele>
      <time>2014-09-14T08:16:02Z</time>
    </trkpt>
    <trkpt lat="48.450926" lon="2.640589">
      <ele>138.6</ele>
      <time>2014-09-14T08:16:04Z</time>
    </trkpt>
    <trkpt lat="48.450853" lon="2.640786">
      <ele>138.9</ele>
      <time>2014-09-14T08:16:06Z</time>
    </trkpt>
    <trkpt lat="48.45079" lon="2.640936">
      <ele>139.5</ele>
      <time>2014-09-14T08:16:08Z</time>
    </trkpt>
    <trkpt lat="48.450724" lon="2.64103">
      <ele>139.8</ele>
      <time>2014-09-14T08:16:10Z</time>
    </trkpt>
    <trkpt lat="48.450645" lon="2.641167">
      <ele>140.3</ele>
      <time>2014-09-14T08:16:12Z</time>
    </trkpt>
    <trkpt lat="48.450495" lon="2.641346">
      <ele>140.9</ele>
      <time>2014-09-14T08:16:16Z</time>
    </trkpt>
    <trkpt lat="48.45039" lon="2.641447">
      <ele>141.1</ele>
      <time>2014-09-14T08:16:19Z</time>
    </trkpt>
    <trkpt lat="48.450313" lon="2.641533">
      <ele>141.3</ele>
      <time>2014-09-14T08:16:21Z</time>
    </trkpt>
    <trkpt lat="48.450192" lon="2.641717">
      <ele>141.8</ele>
      <time>2014-09-14T08:16:23Z</time>
    </trkpt>
    <trkpt lat="48.450102" lon="2.641845">
      <ele>141.8</ele>
      <time>2014-09-14T08:16:25Z</time>
    </trkpt>
    <trkpt lat="48.450033" lon="2.641953">
      <ele>141.8</ele>
      <time>2014-09-14T08:16:28Z</time>
    </trkpt>
    <trkpt lat="48.449961" lon="2.642086">
      <ele>141.8</ele>
      <time>2014-09-14T08:16:32Z</time>
    </trkpt>
    <trkpt lat="48.449892" lon="2.642228">
      <ele>141.9</ele>
      <time>2014-09-14T08:16:35Z</time>
    </trkpt>
    <trkpt lat="48.449821" lon="2.642331">
      <ele>141.9</ele>
      <time>2014-09-14T08:16:38Z</time>
    </trkpt>
    <trkpt lat="48.44974" lon="2.642444">
      <ele>141.9</ele>
      <time>2014-09-14T08:16:40Z</time>
    </trkpt>
    <trkpt lat="48.449659" lon="2.642566">
      <ele>141.8</ele>
      <time>2014-09-14T08:16:42Z</time>
    </trkpt>
    <trkpt lat="48.449581" lon="2.642689">
      <ele>141.6</ele>
      <time>2014-09-14T08:16:44Z</time>
    </trkpt>
    <trkpt lat="48.449507" lon="2.642847">
      <ele>141.3</ele>
      <time>2014-09-14T08:16:47Z</time>
    </trkpt>
    <trkpt lat="48.449425" lon="2.643018">
      <ele>140.9</ele>
      <time>2014-09-14T08:16:49Z</time>
    </trkpt>
    <trkpt lat="48.449374" lon="2.643139">
      <ele>140.6</ele>
      <time>2014-09-14T08:16:50Z</time>
    </trkpt>
    <trkpt lat="48.449319" lon="2.643327">
      <ele>140.1</ele>
      <time>2014-09-14T08:16:52Z</time>
    </trkpt>
    <trkpt lat="48.449388" lon="2.643484">
      <ele>140.6</ele>
      <time>2014-09-14T08:16:54Z</time>
    </trkpt>
    <trkpt lat="48.44942" lon="2.643613">
      <ele>140.9</ele>
      <time>2014-09-14T08:16:56Z</time>
    </trkpt>
    <trkpt lat="48.449464" lon="2.643757">
      <ele>141.4</ele>
      <time>2014-09-14T08:16:59Z</time>
    </trkpt>
    <trkpt lat="48.449522" lon="2.643874">
      <ele>142.0</ele>
      <time>2014-09-14T08:17:01Z</time>
    </trkpt>
    <trkpt lat="48.449589" lon="2.64403">
      <ele>142.9</ele>
      <time>2014-09-14T08:17:03Z</time>
    </trkpt>
    <trkpt lat="48.449574" lon="2.644214">
      <ele>142.8</ele>
      <time>2014-09-14T08:17:05Z</time>
    </trkpt>
    <trkpt lat="48.449568" lon="2.644368">
      <ele>142.3</ele>
      <time>2014-09-14T08:17:07Z</time>
    </trkpt>
    <trkpt lat="48.449548" lon="2.644526">
      <ele>141.7</ele>
      <time>2014-09-14T08:17:09Z</time>
    </trkpt>
    <trkpt lat="48.449548" lon="2.644718">
      <ele>141.3</ele>
      <time>2014-09-14T08:17:11Z</time>
    </trkpt>
    <trkpt lat="48.449548" lon="2.644855">
      <ele>140.9</ele>
      <time>2014-09-14T08:17:13Z</time>
    </trkpt>
    <trkpt lat="48.449618" lon="2.64519">
      <ele>141.1</ele>
      <time>2014-09-14T08:17:17Z</time>
    </trkpt>
    <trkpt lat="48.449625" lon="2.645392">
      <ele>140.8</ele>
      <time>2014-09-14T08:17:20Z</time>
    </trkpt>
    <trkpt lat="48.449611" lon="2.645544">
      <ele>140.4</ele>
      <time>2014-09-14T08:17:22Z</time>
    </trkpt>
    <trkpt lat="48.44962" lon="2.645724">
      <ele>140.2</ele>
      <time>2014-09-14T08:17:24Z</time>
    </trkpt>
    <trkpt lat="48.449611" lon="2.6459">
      <ele>140.1</ele>
      <time>2014-09-14T08:17:26Z</time>
    </trkpt>
    <trkpt lat="48.449563" lon="2.64607">
      <ele>140.3</ele>
      <time>2014-09-14T08:17:28Z</time>
    </trkpt>
    <trkpt lat="48.449558" lon="2.646242">
      <ele>141.0</ele>
      <time>2014-09-14T08:17:30Z</time>
    </trkpt>
    <trkpt lat="48.449584" lon="2.646411">
      <ele>141.9</ele>
      <time>2014-09-14T08:17:32Z</time>
    </trkpt>
    <trkpt lat="48.449588" lon="2.64655">
      <ele>142.5</ele>
      <time>2014-09-14T08:17:34Z</time>
    </trkpt>
    <trkpt lat="48.449609" lon="2.64669">
      <ele>143.3</ele>
      <time>2014-09-14T08:17:36Z</time>
    </trkpt>
    <trkpt lat="48.449586" lon="2.646822">
      <ele>143.5</ele>
      <time>2014-09-14T08:17:38Z</time>
    </trkpt>
    <trkpt lat="48.449542" lon="2.647008">
      <ele>143.7</ele>
      <time>2014-09-14T08:17:41Z</time>
    </trkpt>
    <trkpt lat="48.449458" lon="2.647096">
      <ele>143.5</ele>
      <time>2014-09-14T08:17:44Z</time>
    </trkpt>
    <trkpt lat="48.449329" lon="2.647094">
      <ele>142.6</ele>
      <time>2014-09-14T08:17:46Z</time>
    </trkpt>
    <trkpt lat="48.449222" lon="2.647118">
      <ele>142.0</ele>
      <time>2014-09-14T08:17:48Z</time>
    </trkpt>
    <trkpt lat="48.449114" lon="2.647214">
      <ele>141.8</ele>
      <time>2014-09-14T08:17:51Z</time>
    </trkpt>
    <trkpt lat="48.449019" lon="2.647389">
      <ele>142.2</ele>
      <time>2014-09-14T08:17:54Z</time>
    </trkpt>
    <trkpt lat="48.448965" lon="2.64752">
      <ele>142.6</ele>
      <time>2014-09-14T08:17:56Z</time>
    </trkpt>
    <trkpt lat="48.448916" lon="2.647664">
      <ele>142.9</ele>
      <time>2014-09-14T08:17:58Z</time>
    </trkpt>
    <trkpt lat="48.448867" lon="2.647805">
      <ele>143.2</ele>
      <time>2014-09-14T08:18:00Z</time>
    </trkpt>
    <trkpt lat="48.44883" lon="2.64794">
      <ele>143.6</ele>
      <time>2014-09-14T08:18:02Z</time>
    </trkpt>
    <trkpt lat="48.448786" lon="2.648081">
      <ele>143.9</ele>
      <time>2014-09-14T08:18:04Z</time>
    </trkpt>
    <trkpt lat="48.448743" lon="2.648206">
      <ele>144.1</ele>
      <time>2014-09-14T08:18:06Z</time>
    </trkpt>
    <trkpt lat="48.448692" lon="2.64834">
      <ele>144.3</ele>
      <time>2014-09-14T08:18:08Z</time>
    </trkpt>
    <trkpt lat="48.448633" lon="2.648452">
      <ele>144.2</ele>
      <time>2014-09-14T08:18:09Z</time>
    </trkpt>
    <trkpt lat="48.448569" lon="2.648593">
      <ele>144.0</ele>
      <time>2014-09-14T08:18:11Z</time>
    </trkpt>
    <trkpt lat="48.448529" lon="2.648732">
      <ele>143.9</ele>
      <time>2014-09-14T08:18:13Z</time>
    </trkpt>
    <trkpt lat="48.448466" lon="2.648898">
      <ele>143.7</ele>
      <time>2014-09-14T08:18:15Z</time>
    </trkpt>
    <trkpt lat="48.448329" lon="2.649194">
      <ele>143.0</ele>
      <time>2014-09-14T08:18:19Z</time>
    </trkpt>
    <trkpt lat="48.448283" lon="2.649354">
      <ele>142.6</ele>
      <time>2014-09-14T08:18:21Z</time>
    </trkpt>
    <trkpt lat="48.448239" lon="2.649504">
      <ele>142.3</ele>
      <time>2014-09-14T08:18:23Z</time>
    </trkpt>
    <trkpt lat="48.448192" lon="2.64965">
      <ele>142.0</ele>
      <time>2014-09-14T08:18:25Z</time>
    </trkpt>
    <trkpt lat="48.448145" lon="2.649777">
      <ele>141.8</ele>
      <time>2014-09-14T08:18:28Z</time>
    </trkpt>
    <trkpt lat="48.448092" lon="2.649959">
      <ele>141.5</ele>
      <time>2014-09-14T08:18:32Z</time>
    </trkpt>
    <trkpt lat="48.448034" lon="2.650133">
      <ele>141.3</ele>
      <time>2014-09-14T08:18:35Z</time>
    </trkpt>
    <trkpt lat="48.447998" lon="2.650331">
      <ele>141.2</ele>
      <time>2014-09-14T08:18:38Z</time>
    </trkpt>
    <trkpt lat="48.447954" lon="2.650508">
      <ele>141.1</ele>
      <time>2014-09-14T08:18:41Z</time>
    </trkpt>
    <trkpt lat="48.447906" lon="2.650671">
      <ele>141.0</ele>
      <time>2014-09-14T08:18:43Z</time>
    </trkpt>
    <trkpt lat="48.447926" lon="2.650844">
      <ele>141.0</ele>
      <time>2014-09-14T08:18:45Z</time>
    </trkpt>
    <trkpt lat="48.447924" lon="2.651011">
      <ele>140.9</ele>
      <time>2014-09-14T08:18:47Z</time>
    </trkpt>
    <trkpt lat="48.44791" lon="2.651175">
      <ele>140.8</ele>
      <time>2014-09-14T08:18:49Z</time>
    </trkpt>
    <trkpt lat="48.447925" lon="2.651361">
      <ele>140.7</ele>
      <time>2014-09-14T08:18:51Z</time>
    </trkpt>
    <trkpt lat="48.447975" lon="2.651516">
      <ele>140.7</ele>
      <time>2014-09-14T08:18:53Z</time>
    </trkpt>
    <trkpt lat="48.448075" lon="2.651704">
      <ele>140.6</ele>
      <time>2014-09-14T08:18:55Z</time>
    </trkpt>
    <trkpt lat="48.448151" lon="2.651875">
      <ele>140.4</ele>
      <time>2014-09-14T08:18:57Z</time>
    </trkpt>
    <trkpt lat="48.448191" lon="2.652019">
      <ele>140.3</ele>
      <time>2014-09-14T08:18:59Z</time>
    </trkpt>
    <trkpt lat="48.44826" lon="2.652194">
      <ele>140.2</ele>
      <time>2014-09-14T08:19:01Z</time>
    </trkpt>
    <trkpt lat="48.448302" lon="2.652352">
      <ele>140.1</ele>
      <time>2014-09-14T08:19:03Z</time>
    </trkpt>
    <trkpt lat="48.44836" lon="2.652504">
      <ele>140.2</ele>
      <time>2014-09-14T08:19:05Z</time>
    </trkpt>
    <trkpt lat="48.448406" lon="2.652674">
      <ele>140.1</ele>
      <time>2014-09-14T08:19:08Z</time>
    </trkpt>
    <trkpt lat="48.448478" lon="2.652769">
      <ele>140.3</ele>
      <time>2014-09-14T08:19:10Z</time>
    </trkpt>
    <trkpt lat="48.448558" lon="2.652892">
      <ele>140.4</ele>
      <time>2014-09-14T08:19:12Z</time>
    </trkpt>
    <trkpt lat="48.448629" lon="2.653016">
      <ele>140.5</ele>
      <time>2014-09-14T08:19:14Z</time>
    </trkpt>
    <trkpt lat="48.448732" lon="2.653132">
      <ele>140.6</ele>
      <time>2014-09-14T08:19:16Z</time>
    </trkpt>
    <trkpt lat="48.448871" lon="2.653456">
      <ele>140.2</ele>
      <time>2014-09-14T08:19:20Z</time>
    </trkpt>
    <trkpt lat="48.448958" lon="2.653636">
      <ele>140.0</ele>
      <time>2014-09-14T08:19:22Z</time>
    </trkpt>
    <trkpt lat="48.449008" lon="2.65377">
      <ele>139.8</ele>
      <time>2014-09-14T08:19:24Z</time>
    </trkpt>
    <trkpt lat="48.449014" lon="2.65391">
      <ele>139.3</ele>
      <time>2014-09-14T08:19:26Z</time>
    </trkpt>
    <trkpt lat="48.448995" lon="2.654089">
      <ele>138.6</ele>
      <time>2014-09-14T08:19:28Z</time>
    </trkpt>
    <trkpt lat="48.448961" lon="2.654276">
      <ele>138.4</ele>
      <time>2014-09-14T08:19:30Z</time>
    </trkpt>
    <trkpt lat="48.448933" lon="2.654465">
      <ele>138.6</ele>
      <time>2014-09-14T08:19:32Z</time>
    </trkpt>
    <trkpt lat="48.448912" lon="2.654644">
      <ele>138.7</ele>
      <time>2014-09-14T08:19:34Z</time>
    </trkpt>
    <trkpt lat="48.44888" lon="2.654796">
      <ele>138.7</ele>
      <time>2014-09-14T08:19:36Z</time>
    </trkpt>
    <trkpt lat="48.448847" lon="2.654958">
      <ele>138.7</ele>
      <time>2014-09-14T08:19:38Z</time>
    </trkpt>
    <trkpt lat="48.448806" lon="2.655151">
      <ele>138.9</ele>
      <time>2014-09-14T08:19:40Z</time>
    </trkpt>
    <trkpt lat="48.448757" lon="2.6553">
      <ele>139.1</ele>
      <time>2014-09-14T08:19:42Z</time>
    </trkpt>
    <trkpt lat="48.448704" lon="2.655475">
      <ele>139.4</ele>
      <time>2014-09-14T08:19:44Z</time>
    </trkpt>
    <trkpt lat="48.44868" lon="2.655613">
      <ele>139.7</ele>
      <time>2014-09-14T08:19:46Z</time>
    </trkpt>
    <trkpt lat="48.448622" lon="2.655771">
      <ele>139.9</ele>
      <time>2014-09-14T08:19:48Z</time>
    </trkpt>
    <trkpt lat="48.448566" lon="2.655963">
      <ele>139.6</ele>
      <time>2014-09-14T08:19:50Z</time>
    </trkpt>
    <trkpt lat="48.448523" lon="2.656123">
      <ele>139.3</ele>
      <time>2014-09-14T08:19:52Z</time>
    </trkpt>
    <trkpt lat="48.448464" lon="2.656269">
      <ele>138.9</ele>
      <time>2014-09-14T08:19:54Z</time>
    </trkpt>
    <trkpt lat="48.448417" lon="2.656432">
      <ele>138.5</ele>
      <time>2014-09-14T08:19:56Z</time>
    </trkpt>
    <trkpt lat="48.448392" lon="2.656587">
      <ele>138.4</ele>
      <time>2014-09-14T08:19:58Z</time>
    </trkpt>
    <trkpt lat="48.448357" lon="2.656743">
      <ele>138.4</ele>
      <time>2014-09-14T08:20:00Z</time>
    </trkpt>
    <trkpt lat="48.448317" lon="2.656904">
      <ele>138.7</ele>
      <time>2014-09-14T08:20:02Z</time>
    </trkpt>
    <trkpt lat="48.448251" lon="2.65707">
      <ele>138.6</ele>
      <time>2014-09-14T08:20:04Z</time>
    </trkpt>
    <trkpt lat="48.448191" lon="2.657234">
      <ele>138.6</ele>
      <time>2014-09-14T08:20:06Z</time>
    </trkpt>
    <trkpt lat="48.448155" lon="2.657376">
      <ele>138.8</ele>
      <time>2014-09-14T08:20:08Z</time>
    </trkpt>
    <trkpt lat="48.448108" lon="2.65752">
      <ele>138.9</ele>
      <time>2014-09-14T08:20:10Z</time>
    </trkpt>
    <trkpt lat="48.448075" lon="2.657678">
      <ele>139.1</ele>
      <time>2014-09-14T08:20:12Z</time>
    </trkpt>
    <trkpt lat="48.448018" lon="2.657837">
      <ele>139.1</ele>
      <time>2014-09-14T08:20:14Z</time>
    </trkpt>
    <trkpt lat="48.447978" lon="2.658008">
      <ele>139.3</ele>
      <time>2014-09-14T08:20:16Z</time>
    </trkpt>
    <trkpt lat="48.447909" lon="2.658319">
      <ele>139.9</ele>
      <time>2014-09-14T08:20:20Z</time>
    </trkpt>
    <trkpt lat="48.447872" lon="2.65848">
      <ele>139.6</ele>
      <time>2014-09-14T08:20:22Z</time>
    </trkpt>
    <trkpt lat="48.447815" lon="2.658651">
      <ele>139.2</ele>
      <time>2014-09-14T08:20:24Z</time>
    </trkpt>
    <trkpt lat="48.447764" lon="2.658831">
      <ele>138.9</ele>
      <time>2014-09-14T08:20:26Z</time>
    </trkpt>
    <trkpt lat="48.447719" lon="2.65899">
      <ele>138.7</ele>
      <time>2014-09-14T08:20:28Z</time>
    </trkpt>
    <trkpt lat="48.447686" lon="2.659194">
      <ele>138.7</ele>
      <time>2014-09-14T08:20:31Z</time>
    </trkpt>
    <trkpt lat="48.447658" lon="2.659334">
      <ele>138.7</ele>
      <time>2014-09-14T08:20:33Z</time>
    </trkpt>
    <trkpt lat="48.447604" lon="2.659512">
      <ele>138.7</ele>
      <time>2014-09-14T08:20:35Z</time>
    </trkpt>
    <trkpt lat="48.447551" lon="2.659669">
      <ele>138.7</ele>
      <time>2014-09-14T08:20:37Z</time>
    </trkpt>
    <trkpt lat="48.447499" lon="2.659821">
      <ele>138.8</ele>
      <time>2014-09-14T08:20:39Z</time>
    </trkpt>
    <trkpt lat="48.447479" lon="2.659958">
      <ele>139.0</ele>
      <time>2014-09-14T08:20:41Z</time>
    </trkpt>
    <trkpt lat="48.447422" lon="2.660079">
      <ele>139.5</ele>
      <time>2014-09-14T08:20:43Z</time>
    </trkpt>
    <trkpt lat="48.447369" lon="2.660232">
      <ele>140.1</ele>
      <time>2014-09-14T08:20:45Z</time>
    </trkpt>
    <trkpt lat="48.447332" lon="2.660367">
      <ele>140.6</ele>
      <time>2014-09-14T08:20:47Z</time>
    </trkpt>
    <trkpt lat="48.447214" lon="2.660469">
      <ele>141.2</ele>
      <time>2014-09-14T08:20:50Z</time>
    </trkpt>
    <trkpt lat="48.447056" lon="2.660573">
      <ele>141.8</ele>
      <time>2014-09-14T08:20:53Z</time>
    </trkpt>
    <trkpt lat="48.446932" lon="2.660646">
      <ele>142.2</ele>
      <time>2014-09-14T08:20:56Z</time>
    </trkpt>
    <trkpt lat="48.446843" lon="2.660717">
      <ele>142.5</ele>
      <time>2014-09-14T08:20:58Z</time>
    </trkpt>
    <trkpt lat="48.446741" lon="2.660786">
      <ele>142.8</ele>
      <time>2014-09-14T08:21:00Z</time>
    </trkpt>
    <trkpt lat="48.446634" lon="2.660864">
      <ele>143.0</ele>
      <time>2014-09-14T08:21:02Z</time>
    </trkpt>
    <trkpt lat="48.446525" lon="2.66092">
      <ele>142.8</ele>
      <time>2014-09-14T08:21:04Z</time>
    </trkpt>
    <trkpt lat="48.446418" lon="2.660974">
      <ele>142.7</ele>
      <time>2014-09-14T08:21:06Z</time>
    </trkpt>
    <trkpt lat="48.446315" lon="2.661017">
      <ele>142.6</ele>
      <time>2014-09-14T08:21:08Z</time>
    </trkpt>
    <trkpt lat="48.446219" lon="2.661067">
      <ele>142.5</ele>
      <time>2014-09-14T08:21:10Z</time>
    </trkpt>
    <trkpt lat="48.446118" lon="2.661138">
      <ele>142.5</ele>
      <time>2014-09-14T08:21:12Z</time>
    </trkpt>
    <trkpt lat="48.446004" lon="2.661207">
      <ele>142.6</ele>
      <time>2014-09-14T08:21:14Z</time>
    </trkpt>
    <trkpt lat="48.445894" lon="2.661289">
      <ele>142.7</ele>
      <time>2014-09-14T08:21:16Z</time>
    </trkpt>
    <trkpt lat="48.445788" lon="2.661347">
      <ele>142.7</ele>
      <time>2014-09-14T08:21:18Z</time>
    </trkpt>
    <trkpt lat="48.44558" lon="2.661474">
      <ele>142.5</ele>
      <time>2014-09-14T08:21:23Z</time>
    </trkpt>
    <trkpt lat="48.445471" lon="2.661527">
      <ele>142.3</ele>
      <time>2014-09-14T08:21:25Z</time>
    </trkpt>
    <trkpt lat="48.445343" lon="2.661608">
      <ele>142.1</ele>
      <time>2014-09-14T08:21:27Z</time>
    </trkpt>
    <trkpt lat="48.445255" lon="2.661702">
      <ele>142.0</ele>
      <time>2014-09-14T08:21:30Z</time>
    </trkpt>
    <trkpt lat="48.44518" lon="2.661785">
      <ele>142.0</ele>
      <time>2014-09-14T08:21:44Z</time>
    </trkpt>
    <trkpt lat="48.445111" lon="2.661931">
      <ele>142.3</ele>
      <time>2014-09-14T08:21:48Z</time>
    </trkpt>
    <trkpt lat="48.445061" lon="2.662078">
      <ele>142.6</ele>
      <time>2014-09-14T08:21:50Z</time>
    </trkpt>
    <trkpt lat="48.44499" lon="2.662253">
      <ele>143.1</ele>
      <time>2014-09-14T08:21:53Z</time>
    </trkpt>
    <trkpt lat="48.444942" lon="2.662374">
      <ele>143.4</ele>
      <time>2014-09-14T08:21:55Z</time>
    </trkpt>
    <trkpt lat="48.444896" lon="2.662492">
      <ele>143.7</ele>
      <time>2014-09-14T08:21:57Z</time>
    </trkpt>
    <trkpt lat="48.444834" lon="2.662651">
      <ele>143.6</ele>
      <time>2014-09-14T08:22:00Z</time>
    </trkpt>
    <trkpt lat="48.444761" lon="2.662804">
      <ele>143.3</ele>
      <time>2014-09-14T08:22:03Z</time>
    </trkpt>
    <trkpt lat="48.444707" lon="2.662924">
      <ele>143.1</ele>
      <time>2014-09-14T08:22:05Z</time>
    </trkpt>
    <trkpt lat="48.444649" lon="2.663043">
      <ele>142.9</ele>
      <time>2014-09-14T08:22:07Z</time>
    </trkpt>
    <trkpt lat="48.444572" lon="2.663214">
      <ele>142.5</ele>
      <time>2014-09-14T08:22:10Z</time>
    </trkpt>
    <trkpt lat="48.444508" lon="2.663357">
      <ele>142.2</ele>
      <time>2014-09-14T08:22:12Z</time>
    </trkpt>
    <trkpt lat="48.444447" lon="2.663481">
      <ele>142.1</ele>
      <time>2014-09-14T08:22:14Z</time>
    </trkpt>
    <trkpt lat="48.444398" lon="2.663615">
      <ele>142.1</ele>
      <time>2014-09-14T08:22:17Z</time>
    </trkpt>
    <trkpt lat="48.444397" lon="2.663758">
      <ele>142.2</ele>
      <time>2014-09-14T08:22:20Z</time>
    </trkpt>
    <trkpt lat="48.444277" lon="2.664058">
      <ele>142.2</ele>
      <time>2014-09-14T08:22:27Z</time>
    </trkpt>
    <trkpt lat="48.444221" lon="2.664205">
      <ele>142.2</ele>
      <time>2014-09-14T08:22:30Z</time>
    </trkpt>
    <trkpt lat="48.444174" lon="2.664326">
      <ele>142.4</ele>
      <time>2014-09-14T08:22:32Z</time>
    </trkpt>
    <trkpt lat="48.444118" lon="2.664459">
      <ele>142.7</ele>
      <time>2014-09-14T08:22:34Z</time>
    </trkpt>
    <trkpt lat="48.444089" lon="2.664604">
      <ele>143.0</ele>
      <time>2014-09-14T08:22:37Z</time>
    </trkpt>
    <trkpt lat="48.444063" lon="2.66476">
      <ele>143.2</ele>
      <time>2014-09-14T08:22:40Z</time>
    </trkpt>
    <trkpt lat="48.44404" lon="2.664901">
      <ele>143.5</ele>
      <time>2014-09-14T08:22:42Z</time>
    </trkpt>
    <trkpt lat="48.444024" lon="2.665072">
      <ele>143.7</ele>
      <time>2014-09-14T08:22:45Z</time>
    </trkpt>
    <trkpt lat="48.444" lon="2.665238">
      <ele>143.6</ele>
      <time>2014-09-14T08:22:48Z</time>
    </trkpt>
    <trkpt lat="48.444002" lon="2.665379">
      <ele>143.6</ele>
      <time>2014-09-14T08:22:50Z</time>
    </trkpt>
    <trkpt lat="48.44399" lon="2.665557">
      <ele>143.6</ele>
      <time>2014-09-14T08:22:53Z</time>
    </trkpt>
    <trkpt lat="48.443974" lon="2.665718">
      <ele>143.5</ele>
      <time>2014-09-14T08:22:56Z</time>
    </trkpt>
    <trkpt lat="48.443987" lon="2.665886">
      <ele>143.6</ele>
      <time>2014-09-14T08:22:58Z</time>
    </trkpt>
    <trkpt lat="48.443969" lon="2.666047">
      <ele>143.8</ele>
      <time>2014-09-14T08:23:00Z</time>
    </trkpt>
    <trkpt lat="48.443953" lon="2.666187">
      <ele>143.9</ele>
      <time>2014-09-14T08:23:02Z</time>
    </trkpt>
    <trkpt lat="48.443952" lon="2.66633">
      <ele>144.1</ele>
      <time>2014-09-14T08:23:04Z</time>
    </trkpt>
    <trkpt lat="48.443935" lon="2.666512">
      <ele>144.3</ele>
      <time>2014-09-14T08:23:07Z</time>
    </trkpt>
    <trkpt lat="48.443953" lon="2.666676">
      <ele>144.5</ele>
      <time>2014-09-14T08:23:09Z</time>
    </trkpt>
    <trkpt lat="48.443941" lon="2.666815">
      <ele>144.7</ele>
      <time>2014-09-14T08:23:11Z</time>
    </trkpt>
    <trkpt lat="48.44394" lon="2.666994">
      <ele>145.0</ele>
      <time>2014-09-14T08:23:14Z</time>
    </trkpt>
    <trkpt lat="48.443921" lon="2.667207">
      <ele>145.2</ele>
      <time>2014-09-14T08:23:17Z</time>
    </trkpt>
    <trkpt lat="48.443874" lon="2.667363">
      <ele>145.4</ele>
      <time>2014-09-14T08:23:19Z</time>
    </trkpt>
    <trkpt lat="48.443837" lon="2.667519">
      <ele>145.6</ele>
      <time>2014-09-14T08:23:21Z</time>
    </trkpt>
    <trkpt lat="48.443802" lon="2.667804">
      <ele>145.6</ele>
      <time>2014-09-14T08:23:25Z</time>
    </trkpt>
    <trkpt lat="48.443768" lon="2.668011">
      <ele>145.5</ele>
      <time>2014-09-14T08:23:28Z</time>
    </trkpt>
    <trkpt lat="48.443761" lon="2.668154">
      <ele>145.5</ele>
      <time>2014-09-14T08:23:30Z</time>
    </trkpt>
    <trkpt lat="48.443798" lon="2.66833">
      <ele>145.7</ele>
      <time>2014-09-14T08:23:33Z</time>
    </trkpt>
    <trkpt lat="48.443785" lon="2.668503">
      <ele>145.6</ele>
      <time>2014-09-14T08:23:36Z</time>
    </trkpt>
    <trkpt lat="48.443781" lon="2.668651">
      <ele>145.6</ele>
      <time>2014-09-14T08:23:39Z</time>
    </trkpt>
    <trkpt lat="48.443783" lon="2.668792">
      <ele>145.6</ele>
      <time>2014-09-14T08:23:41Z</time>
    </trkpt>
    <trkpt lat="48.443764" lon="2.668981">
      <ele>145.6</ele>
      <time>2014-09-14T08:23:44Z</time>
    </trkpt>
    <trkpt lat="48.443761" lon="2.669171">
      <ele>145.5</ele>
      <time>2014-09-14T08:23:47Z</time>
    </trkpt>
    <trkpt lat="48.443694" lon="2.669278">
      <ele>145.3</ele>
      <time>2014-09-14T08:23:51Z</time>
    </trkpt>
    <trkpt lat="48.443729" lon="2.669436">
      <ele>145.3</ele>
      <time>2014-09-14T08:24:04Z</time>
    </trkpt>
    <trkpt lat="48.44374" lon="2.669581">
      <ele>145.2</ele>
      <time>2014-09-14T08:24:07Z</time>
    </trkpt>
    <trkpt lat="48.443746" lon="2.669766">
      <ele>145.1</ele>
      <time>2014-09-14T08:24:11Z</time>
    </trkpt>
    <trkpt lat="48.443755" lon="2.669955">
      <ele>145.0</ele>
      <time>2014-09-14T08:24:14Z</time>
    </trkpt>
    <trkpt lat="48.443758" lon="2.670103">
      <ele>145.0</ele>
      <time>2014-09-14T08:24:17Z</time>
    </trkpt>
    <trkpt lat="48.443754" lon="2.670245">
      <ele>145.0</ele>
      <time>2014-09-14T08:24:20Z</time>
    </trkpt>
    <trkpt lat="48.443779" lon="2.670413">
      <ele>145.0</ele>
      <time>2014-09-14T08:24:23Z</time>
    </trkpt>
    <trkpt lat="48.443818" lon="2.670786">
      <ele>145.0</ele>
      <time>2014-09-14T08:24:29Z</time>
    </trkpt>
    <trkpt lat="48.443891" lon="2.670947">
      <ele>145.2</ele>
      <time>2014-09-14T08:24:32Z</time>
    </trkpt>
    <trkpt lat="48.443921" lon="2.671128">
      <ele>145.5</ele>
      <time>2014-09-14T08:24:35Z</time>
    </trkpt>
    <trkpt lat="48.443906" lon="2.671281">
      <ele>145.7</ele>
      <time>2014-09-14T08:24:37Z</time>
    </trkpt>
    <trkpt lat="48.443919" lon="2.671481">
      <ele>146.1</ele>
      <time>2014-09-14T08:24:40Z</time>
    </trkpt>
    <trkpt lat="48.443913" lon="2.671621">
      <ele>146.3</ele>
      <time>2014-09-14T08:24:42Z</time>
    </trkpt>
    <trkpt lat="48.443882" lon="2.671768">
      <ele>146.6</ele>
      <time>2014-09-14T08:24:45Z</time>
    </trkpt>
    <trkpt lat="48.443807" lon="2.671854">
      <ele>146.6</ele>
      <time>2014-09-14T08:24:48Z</time>
    </trkpt>
    <trkpt lat="48.443794" lon="2.672012">
      <ele>146.9</ele>
      <time>2014-09-14T08:24:52Z</time>
    </trkpt>
    <trkpt lat="48.443743" lon="2.672143">
      <ele>147.1</ele>
      <time>2014-09-14T08:24:56Z</time>
    </trkpt>
    <trkpt lat="48.443691" lon="2.672277">
      <ele>147.3</ele>
      <time>2014-09-14T08:24:59Z</time>
    </trkpt>
    <trkpt lat="48.443678" lon="2.67242">
      <ele>147.6</ele>
      <time>2014-09-14T08:25:03Z</time>
    </trkpt>
    <trkpt lat="48.443624" lon="2.67257">
      <ele>147.7</ele>
      <time>2014-09-14T08:25:06Z</time>
    </trkpt>
    <trkpt lat="48.443573" lon="2.672701">
      <ele>147.6</ele>
      <time>2014-09-14T08:25:08Z</time>
    </trkpt>
    <trkpt lat="48.443493" lon="2.672826">
      <ele>147.4</ele>
      <time>2014-09-14T08:25:11Z</time>
    </trkpt>
    <trkpt lat="48.443415" lon="2.672915">
      <ele>147.2</ele>
      <time>2014-09-14T08:25:13Z</time>
    </trkpt>
    <trkpt lat="48.443317" lon="2.673003">
      <ele>146.8</ele>
      <time>2014-09-14T08:25:16Z</time>
    </trkpt>
    <trkpt lat="48.443234" lon="2.673144">
      <ele>145.9</ele>
      <time>2014-09-14T08:25:19Z</time>
    </trkpt>
    <trkpt lat="48.44317" lon="2.673281">
      <ele>145.1</ele>
      <time>2014-09-14T08:25:21Z</time>
    </trkpt>
    <trkpt lat="48.443102" lon="2.673435">
      <ele>143.8</ele>
      <time>2014-09-14T08:25:24Z</time>
    </trkpt>
    <trkpt lat="48.442971" lon="2.673695">
      <ele>141.0</ele>
      <time>2014-09-14T08:25:29Z</time>
    </trkpt>
    <trkpt lat="48.44286" lon="2.673784">
      <ele>139.0</ele>
      <time>2014-09-14T08:25:32Z</time>
    </trkpt>
    <trkpt lat="48.442696" lon="2.673902">
      <ele>135.9</ele>
      <time>2014-09-14T08:25:35Z</time>
    </trkpt>
    <trkpt lat="48.442602" lon="2.673991">
      <ele>133.9</ele>
      <time>2014-09-14T08:25:37Z</time>
    </trkpt>
    <trkpt lat="48.44251" lon="2.674139">
      <ele>131.4</ele>
      <time>2014-09-14T08:25:40Z</time>
    </trkpt>
    <trkpt lat="48.442418" lon="2.674274">
      <ele>130.7</ele>
      <time>2014-09-14T08:25:42Z</time>
    </trkpt>
    <trkpt lat="48.442347" lon="2.674394">
      <ele>130.4</ele>
      <time>2014-09-14T08:25:43Z</time>
    </trkpt>
    <trkpt lat="48.442266" lon="2.674571">
      <ele>129.8</ele>
      <time>2014-09-14T08:25:45Z</time>
    </trkpt>
    <trkpt lat="48.442185" lon="2.674738">
      <ele>129.1</ele>
      <time>2014-09-14T08:25:47Z</time>
    </trkpt>
    <trkpt lat="48.442171" lon="2.674889">
      <ele>128.6</ele>
      <time>2014-09-14T08:25:49Z</time>
    </trkpt>
    <trkpt lat="48.44222" lon="2.675045">
      <ele>128.2</ele>
      <time>2014-09-14T08:25:51Z</time>
    </trkpt>
    <trkpt lat="48.442249" lon="2.675198">
      <ele>127.8</ele>
      <time>2014-09-14T08:25:53Z</time>
    </trkpt>
    <trkpt lat="48.442238" lon="2.675334">
      <ele>127.4</ele>
      <time>2014-09-14T08:25:55Z</time>
    </trkpt>
    <trkpt lat="48.442186" lon="2.675501">
      <ele>126.4</ele>
      <time>2014-09-14T08:25:57Z</time>
    </trkpt>
    <trkpt lat="48.442134" lon="2.675682">
      <ele>125.2</ele>
      <time>2014-09-14T08:26:00Z</time>
    </trkpt>
    <trkpt lat="48.4421" lon="2.675815">
      <ele>124.3</ele>
      <time>2014-09-14T08:26:02Z</time>
    </trkpt>
    <trkpt lat="48.442044" lon="2.675943">
      <ele>123.6</ele>
      <time>2014-09-14T08:26:04Z</time>
    </trkpt>
    <trkpt lat="48.441953" lon="2.676032">
      <ele>122.3</ele>
      <time>2014-09-14T08:26:06Z</time>
    </trkpt>
    <trkpt lat="48.441832" lon="2.676163">
      <ele>120.3</ele>
      <time>2014-09-14T08:26:09Z</time>
    </trkpt>
    <trkpt lat="48.44174" lon="2.676283">
      <ele>118.6</ele>
      <time>2014-09-14T08:26:11Z</time>
    </trkpt>
    <trkpt lat="48.441652" lon="2.676407">
      <ele>116.8</ele>
      <time>2014-09-14T08:26:13Z</time>
    </trkpt>
    <trkpt lat="48.441565" lon="2.676568">
      <ele>115.5</ele>
      <time>2014-09-14T08:26:15Z</time>
    </trkpt>
    <trkpt lat="48.441485" lon="2.676735">
      <ele>114.3</ele>
      <time>2014-09-14T08:26:17Z</time>
    </trkpt>
    <trkpt lat="48.44139" lon="2.676871">
      <ele>113.3</ele>
      <time>2014-09-14T08:26:20Z</time>
    </trkpt>
    <trkpt lat="48.441302" lon="2.67698">
      <ele>112.5</ele>
      <time>2014-09-14T08:26:23Z</time>
    </trkpt>
    <trkpt lat="48.44124" lon="2.67714">
      <ele>111.9</ele>
      <time>2014-09-14T08:26:27Z</time>
    </trkpt>
    <trkpt lat="48.441307" lon="2.677436">
      <ele>111.9</ele>
      <time>2014-09-14T08:26:38Z</time>
    </trkpt>
    <trkpt lat="48.44134" lon="2.677574">
      <ele>112.4</ele>
      <time>2014-09-14T08:26:41Z</time>
    </trkpt>
    <trkpt lat="48.441378" lon="2.677724">
      <ele>113.4</ele>
      <time>2014-09-14T08:26:45Z</time>
    </trkpt>
    <trkpt lat="48.441419" lon="2.677884">
      <ele>114.6</ele>
      <time>2014-09-14T08:26:50Z</time>
    </trkpt>
    <trkpt lat="48.441423" lon="2.678063">
      <ele>115.6</ele>
      <time>2014-09-14T08:26:54Z</time>
    </trkpt>
    <trkpt lat="48.441377" lon="2.678182">
      <ele>115.8</ele>
      <time>2014-09-14T08:26:57Z</time>
    </trkpt>
    <trkpt lat="48.441336" lon="2.678304">
      <ele>115.9</ele>
      <time>2014-09-14T08:27:01Z</time>
    </trkpt>
    <trkpt lat="48.441305" lon="2.678451">
      <ele>115.7</ele>
      <time>2014-09-14T08:27:05Z</time>
    </trkpt>
    <trkpt lat="48.441283" lon="2.678584">
      <ele>115.4</ele>
      <time>2014-09-14T08:27:09Z</time>
    </trkpt>
    <trkpt lat="48.441242" lon="2.678724">
      <ele>114.9</ele>
      <time>2014-09-14T08:27:15Z</time>
    </trkpt>
    <trkpt lat="48.441185" lon="2.678844">
      <ele>114.0</ele>
      <time>2014-09-14T08:27:18Z</time>
    </trkpt>
    <trkpt lat="48.441183" lon="2.679008">
      <ele>113.9</ele>
      <time>2014-09-14T08:27:22Z</time>
    </trkpt>
    <trkpt lat="48.441172" lon="2.679165">
      <ele>113.7</ele>
      <time>2014-09-14T08:27:26Z</time>
    </trkpt>
    <trkpt lat="48.44115" lon="2.679303">
      <ele>113.2</ele>
      <time>2014-09-14T08:27:29Z</time>
    </trkpt>
    <trkpt lat="48.441095" lon="2.679627">
      <ele>112.0</ele>
      <time>2014-09-14T08:27:35Z</time>
    </trkpt>
    <trkpt lat="48.441095" lon="2.679797">
      <ele>111.9</ele>
      <time>2014-09-14T08:27:39Z</time>
    </trkpt>
    <trkpt lat="48.441087" lon="2.679939">
      <ele>111.7</ele>
      <time>2014-09-14T08:27:42Z</time>
    </trkpt>
    <trkpt lat="48.441172" lon="2.680076">
      <ele>112.8</ele>
      <time>2014-09-14T08:27:45Z</time>
    </trkpt>
    <trkpt lat="48.44122" lon="2.680235">
      <ele>113.3</ele>
      <time>2014-09-14T08:27:49Z</time>
    </trkpt>
    <trkpt lat="48.441209" lon="2.680374">
      <ele>113.0</ele>
      <time>2014-09-14T08:27:52Z</time>
    </trkpt>
    <trkpt lat="48.44117" lon="2.680525">
      <ele>112.2</ele>
      <time>2014-09-14T08:27:55Z</time>
    </trkpt>
    <trkpt lat="48.441141" lon="2.680707">
      <ele>111.6</ele>
      <time>2014-09-14T08:27:58Z</time>
    </trkpt>
    <trkpt lat="48.441076" lon="2.680859">
      <ele>110.5</ele>
      <time>2014-09-14T08:28:02Z</time>
    </trkpt>
    <trkpt lat="48.440963" lon="2.680904">
      <ele>108.9</ele>
      <time>2014-09-14T08:28:06Z</time>
    </trkpt>
    <trkpt lat="48.440867" lon="2.680897">
      <ele>107.4</ele>
      <time>2014-09-14T08:28:10Z</time>
    </trkpt>
    <trkpt lat="48.440788" lon="2.681042">
      <ele>106.5</ele>
      <time>2014-09-14T08:28:14Z</time>
    </trkpt>
    <trkpt lat="48.440756" lon="2.681184">
      <ele>106.1</ele>
      <time>2014-09-14T08:28:17Z</time>
    </trkpt>
    <trkpt lat="48.440687" lon="2.68134">
      <ele>105.5</ele>
      <time>2014-09-14T08:28:19Z</time>
    </trkpt>
    <trkpt lat="48.440637" lon="2.681454">
      <ele>105.1</ele>
      <time>2014-09-14T08:28:21Z</time>
    </trkpt>
    <trkpt lat="48.440557" lon="2.681582">
      <ele>104.4</ele>
      <time>2014-09-14T08:28:24Z</time>
    </trkpt>
    <trkpt lat="48.440463" lon="2.681703">
      <ele>103.9</ele>
      <time>2014-09-14T08:28:27Z</time>
    </trkpt>
    <trkpt lat="48.440396" lon="2.681834">
      <ele>103.9</ele>
      <time>2014-09-14T08:28:30Z</time>
    </trkpt>
    <trkpt lat="48.440265" lon="2.682043">
      <ele>103.5</ele>
      <time>2014-09-14T08:28:42Z</time>
    </trkpt>
    <trkpt lat="48.44023" lon="2.682196">
      <ele>103.5</ele>
      <time>2014-09-14T08:28:48Z</time>
    </trkpt>
    <trkpt lat="48.44016" lon="2.682332">
      <ele>103.2</ele>
      <time>2014-09-14T08:28:52Z</time>
    </trkpt>
    <trkpt lat="48.440125" lon="2.682476">
      <ele>103.2</ele>
      <time>2014-09-14T08:28:56Z</time>
    </trkpt>
    <trkpt lat="48.440191" lon="2.682595">
      <ele>103.9</ele>
      <time>2014-09-14T08:29:01Z</time>
    </trkpt>
    <trkpt lat="48.440181" lon="2.682783">
      <ele>104.1</ele>
      <time>2014-09-14T08:29:05Z</time>
    </trkpt>
    <trkpt lat="48.440162" lon="2.682932">
      <ele>104.1</ele>
      <time>2014-09-14T08:29:08Z</time>
    </trkpt>
    <trkpt lat="48.440039" lon="2.683082">
      <ele>103.1</ele>
      <time>2014-09-14T08:29:12Z</time>
    </trkpt>
    <trkpt lat="48.43994" lon="2.683195">
      <ele>102.6</ele>
      <time>2014-09-14T08:29:15Z</time>
    </trkpt>
    <trkpt lat="48.439845" lon="2.68331">
      <ele>102.2</ele>
      <time>2014-09-14T08:29:19Z</time>
    </trkpt>
    <trkpt lat="48.439799" lon="2.68343">
      <ele>102.2</ele>
      <time>2014-09-14T08:29:22Z</time>
    </trkpt>
    <trkpt lat="48.439728" lon="2.683528">
      <ele>102.0</ele>
      <time>2014-09-14T08:29:25Z</time>
    </trkpt>
    <trkpt lat="48.439639" lon="2.683688">
      <ele>101.7</ele>
      <time>2014-09-14T08:29:28Z</time>
    </trkpt>
    <trkpt lat="48.439613" lon="2.683824">
      <ele>101.8</ele>
      <time>2014-09-14T08:29:32Z</time>
    </trkpt>
    <trkpt lat="48.439632" lon="2.684097">
      <ele>102.3</ele>
      <time>2014-09-14T08:29:40Z</time>
    </trkpt>
    <trkpt lat="48.439683" lon="2.684214">
      <ele>102.7</ele>
      <time>2014-09-14T08:29:44Z</time>
    </trkpt>
    <trkpt lat="48.439714" lon="2.684355">
      <ele>102.7</ele>
      <time>2014-09-14T08:29:49Z</time>
    </trkpt>
    <trkpt lat="48.4398" lon="2.684451">
      <ele>103.3</ele>
      <time>2014-09-14T08:29:52Z</time>
    </trkpt>
    <trkpt lat="48.439842" lon="2.684573">
      <ele>103.6</ele>
      <time>2014-09-14T08:29:55Z</time>
    </trkpt>
    <trkpt lat="48.439846" lon="2.684732">
      <ele>103.5</ele>
      <time>2014-09-14T08:29:57Z</time>
    </trkpt>
    <trkpt lat="48.439798" lon="2.684879">
      <ele>102.9</ele>
      <time>2014-09-14T08:30:00Z</time>
    </trkpt>
    <trkpt lat="48.439746" lon="2.685029">
      <ele>102.1</ele>
      <time>2014-09-14T08:30:04Z</time>
    </trkpt>
    <trkpt lat="48.439732" lon="2.685171">
      <ele>101.2</ele>
      <time>2014-09-14T08:30:08Z</time>
    </trkpt>
    <trkpt lat="48.439707" lon="2.685307">
      <ele>100.3</ele>
      <time>2014-09-14T08:30:11Z</time>
    </trkpt>
    <trkpt lat="48.439616" lon="2.685384">
      <ele>99.0</ele>
      <time>2014-09-14T08:30:17Z</time>
    </trkpt>
    <trkpt lat="48.439544" lon="2.685484">
      <ele>97.8</ele>
      <time>2014-09-14T08:30:19Z</time>
    </trkpt>
    <trkpt lat="48.439546" lon="2.685628">
      <ele>97.1</ele>
      <time>2014-09-14T08:30:24Z</time>
    </trkpt>
    <trkpt lat="48.439587" lon="2.685796">
      <ele>96.7</ele>
      <time>2014-09-14T08:30:31Z</time>
    </trkpt>
    <trkpt lat="48.439612" lon="2.685999">
      <ele>96.0</ele>
      <time>2014-09-14T08:30:34Z</time>
    </trkpt>
    <trkpt lat="48.439647" lon="2.686347">
      <ele>94.7</ele>
      <time>2014-09-14T08:30:38Z</time>
    </trkpt>
    <trkpt lat="48.439699" lon="2.686514">
      <ele>94.3</ele>
      <time>2014-09-14T08:30:40Z</time>
    </trkpt>
    <trkpt lat="48.439721" lon="2.686668">
      <ele>93.7</ele>
      <time>2014-09-14T08:30:42Z</time>
    </trkpt>
    <trkpt lat="48.439751" lon="2.686858">
      <ele>92.9</ele>
      <time>2014-09-14T08:30:44Z</time>
    </trkpt>
    <trkpt lat="48.439812" lon="2.687032">
      <ele>92.3</ele>
      <time>2014-09-14T08:30:47Z</time>
    </trkpt>
    <trkpt lat="48.43986" lon="2.687164">
      <ele>91.9</ele>
      <time>2014-09-14T08:30:51Z</time>
    </trkpt>
    <trkpt lat="48.439868" lon="2.687338">
      <ele>91.1</ele>
      <time>2014-09-14T08:31:30Z</time>
    </trkpt>
    <trkpt lat="48.439846" lon="2.68748">
      <ele>90.4</ele>
      <time>2014-09-14T08:31:33Z</time>
    </trkpt>
    <trkpt lat="48.43982" lon="2.687623">
      <ele>90.2</ele>
      <time>2014-09-14T08:31:36Z</time>
    </trkpt>
    <trkpt lat="48.439792" lon="2.687926">
      <ele>90.1</ele>
      <time>2014-09-14T08:31:42Z</time>
    </trkpt>
    <trkpt lat="48.439834" lon="2.688076">
      <ele>90.3</ele>
      <time>2014-09-14T08:31:46Z</time>
    </trkpt>
    <trkpt lat="48.439914" lon="2.688172">
      <ele>90.7</ele>
      <time>2014-09-14T08:31:49Z</time>
    </trkpt>
    <trkpt lat="48.440002" lon="2.688261">
      <ele>91.0</ele>
      <time>2014-09-14T08:31:52Z</time>
    </trkpt>
    <trkpt lat="48.440092" lon="2.688368">
      <ele>91.2</ele>
      <time>2014-09-14T08:31:56Z</time>
    </trkpt>
    <trkpt lat="48.440192" lon="2.688465">
      <ele>91.2</ele>
      <time>2014-09-14T08:32:00Z</time>
    </trkpt>
    <trkpt lat="48.440297" lon="2.688593">
      <ele>91.0</ele>
      <time>2014-09-14T08:32:03Z</time>
    </trkpt>
    <trkpt lat="48.440433" lon="2.688687">
      <ele>90.7</ele>
      <time>2014-09-14T08:32:06Z</time>
    </trkpt>
    <trkpt lat="48.440535" lon="2.688771">
      <ele>90.4</ele>
      <time>2014-09-14T08:32:09Z</time>
    </trkpt>
    <trkpt lat="48.440631" lon="2.688894">
      <ele>89.8</ele>
      <time>2014-09-14T08:32:13Z</time>
    </trkpt>
    <trkpt lat="48.440714" lon="2.689007">
      <ele>89.1</ele>
      <time>2014-09-14T08:32:15Z</time>
    </trkpt>
    <trkpt lat="48.440784" lon="2.689161">
      <ele>88.2</ele>
      <time>2014-09-14T08:32:18Z</time>
    </trkpt>
    <trkpt lat="48.440809" lon="2.689294">
      <ele>87.7</ele>
      <time>2014-09-14T08:32:21Z</time>
    </trkpt>
    <trkpt lat="48.440708" lon="2.689318">
      <ele>87.9</ele>
      <time>2014-09-14T08:32:25Z</time>
    </trkpt>
    <trkpt lat="48.440617" lon="2.689344">
      <ele>88.0</ele>
      <time>2014-09-14T08:32:29Z</time>
    </trkpt>
    <trkpt lat="48.440513" lon="2.689372">
      <ele>88.2</ele>
      <time>2014-09-14T08:32:33Z</time>
    </trkpt>
    <trkpt lat="48.440408" lon="2.689392">
      <ele>88.3</ele>
      <time>2014-09-14T08:32:36Z</time>
    </trkpt>
    <trkpt lat="48.440315" lon="2.689416">
      <ele>88.5</ele>
      <time>2014-09-14T08:32:39Z</time>
    </trkpt>
    <trkpt lat="48.440224" lon="2.689685">
      <ele>87.8</ele>
      <time>2014-09-14T08:32:46Z</time>
    </trkpt>
    <trkpt lat="48.440133" lon="2.689776">
      <ele>87.6</ele>
      <time>2014-09-14T08:32:49Z</time>
    </trkpt>
    <trkpt lat="48.440013" lon="2.689777">
      <ele>87.8</ele>
      <time>2014-09-14T08:32:53Z</time>
    </trkpt>
    <trkpt lat="48.439908" lon="2.689783">
      <ele>87.8</ele>
      <time>2014-09-14T08:32:56Z</time>
    </trkpt>
    <trkpt lat="48.439807" lon="2.689774">
      <ele>87.8</ele>
      <time>2014-09-14T08:32:59Z</time>
    </trkpt>
    <trkpt lat="48.439707" lon="2.689761">
      <ele>87.8</ele>
      <time>2014-09-14T08:33:02Z</time>
    </trkpt>
    <trkpt lat="48.439572" lon="2.689733">
      <ele>87.8</ele>
      <time>2014-09-14T08:33:06Z</time>
    </trkpt>
    <trkpt lat="48.43948" lon="2.689759">
      <ele>87.7</ele>
      <time>2014-09-14T08:33:09Z</time>
    </trkpt>
    <trkpt lat="48.439449" lon="2.689912">
      <ele>87.2</ele>
      <time>2014-09-14T08:33:13Z</time>
    </trkpt>
    <trkpt lat="48.439497" lon="2.690036">
      <ele>87.0</ele>
      <time>2014-09-14T08:33:16Z</time>
    </trkpt>
    <trkpt lat="48.439584" lon="2.690132">
      <ele>86.9</ele>
      <time>2014-09-14T08:33:19Z</time>
    </trkpt>
    <trkpt lat="48.439671" lon="2.690196">
      <ele>86.8</ele>
      <time>2014-09-14T08:33:23Z</time>
    </trkpt>
    <trkpt lat="48.439726" lon="2.69031">
      <ele>86.6</ele>
      <time>2014-09-14T08:33:27Z</time>
    </trkpt>
    <trkpt lat="48.439737" lon="2.690445">
      <ele>86.4</ele>
      <time>2014-09-14T08:33:30Z</time>
    </trkpt>
    <trkpt lat="48.439775" lon="2.690592">
      <ele>86.2</ele>
      <time>2014-09-14T08:33:33Z</time>
    </trkpt>
    <trkpt lat="48.439813" lon="2.690726">
      <ele>85.8</ele>
      <time>2014-09-14T08:33:36Z</time>
    </trkpt>
    <trkpt lat="48.439844" lon="2.690889">
      <ele>85.7</ele>
      <time>2014-09-14T08:33:39Z</time>
    </trkpt>
    <trkpt lat="48.439888" lon="2.691034">
      <ele>86.0</ele>
      <time>2014-09-14T08:33:42Z</time>
    </trkpt>
    <trkpt lat="48.440003" lon="2.691313">
      <ele>86.1</ele>
      <time>2014-09-14T08:33:47Z</time>
    </trkpt>
    <trkpt lat="48.44004" lon="2.691474">
      <ele>86.3</ele>
      <time>2014-09-14T08:33:50Z</time>
    </trkpt>
    <trkpt lat="48.440089" lon="2.69165">
      <ele>86.4</ele>
      <time>2014-09-14T08:33:53Z</time>
    </trkpt>
    <trkpt lat="48.440142" lon="2.691774">
      <ele>87.2</ele>
      <time>2014-09-14T08:33:55Z</time>
    </trkpt>
    <trkpt lat="48.440178" lon="2.691913">
      <ele>88.3</ele>
      <time>2014-09-14T08:33:57Z</time>
    </trkpt>
    <trkpt lat="48.440229" lon="2.692036">
      <ele>89.0</ele>
      <time>2014-09-14T08:33:59Z</time>
    </trkpt>
    <trkpt lat="48.440295" lon="2.692218">
      <ele>90.0</ele>
      <time>2014-09-14T08:34:02Z</time>
    </trkpt>
    <trkpt lat="48.440336" lon="2.692365">
      <ele>90.8</ele>
      <time>2014-09-14T08:34:04Z</time>
    </trkpt>
    <trkpt lat="48.440383" lon="2.692501">
      <ele>91.4</ele>
      <time>2014-09-14T08:34:06Z</time>
    </trkpt>
    <trkpt lat="48.440467" lon="2.692641">
      <ele>91.0</ele>
      <time>2014-09-14T08:34:08Z</time>
    </trkpt>
    <trkpt lat="48.440539" lon="2.692729">
      <ele>90.6</ele>
      <time>2014-09-14T08:34:10Z</time>
    </trkpt>
    <trkpt lat="48.440591" lon="2.692882">
      <ele>90.8</ele>
      <time>2014-09-14T08:34:12Z</time>
    </trkpt>
    <trkpt lat="48.440637" lon="2.693034">
      <ele>91.1</ele>
      <time>2014-09-14T08:34:14Z</time>
    </trkpt>
    <trkpt lat="48.440686" lon="2.693194">
      <ele>91.5</ele>
      <time>2014-09-14T08:34:16Z</time>
    </trkpt>
    <trkpt lat="48.440755" lon="2.693311">
      <ele>91.5</ele>
      <time>2014-09-14T08:34:18Z</time>
    </trkpt>
    <trkpt lat="48.44082" lon="2.693493">
      <ele>91.3</ele>
      <time>2014-09-14T08:34:20Z</time>
    </trkpt>
    <trkpt lat="48.440879" lon="2.693623">
      <ele>91.1</ele>
      <time>2014-09-14T08:34:22Z</time>
    </trkpt>
    <trkpt lat="48.440921" lon="2.693804">
      <ele>91.3</ele>
      <time>2014-09-14T08:34:24Z</time>
    </trkpt>
    <trkpt lat="48.440957" lon="2.693978">
      <ele>91.5</ele>
      <time>2014-09-14T08:34:26Z</time>
    </trkpt>
    <trkpt lat="48.440984" lon="2.694129">
      <ele>91.7</ele>
      <time>2014-09-14T08:34:28Z</time>
    </trkpt>
    <trkpt lat="48.44102" lon="2.694297">
      <ele>91.8</ele>
      <time>2014-09-14T08:34:30Z</time>
    </trkpt>
    <trkpt lat="48.441039" lon="2.694493">
      <ele>91.7</ele>
      <time>2014-09-14T08:34:33Z</time>
    </trkpt>
    <trkpt lat="48.440949" lon="2.694678">
      <ele>91.6</ele>
      <time>2014-09-14T08:34:35Z</time>
    </trkpt>
    <trkpt lat="48.440908" lon="2.694913">
      <ele>91.3</ele>
      <time>2014-09-14T08:34:38Z</time>
    </trkpt>
    <trkpt lat="48.440854" lon="2.695094">
      <ele>90.7</ele>
      <time>2014-09-14T08:34:41Z</time>
    </trkpt>
    <trkpt lat="48.440885" lon="2.695226">
      <ele>90.4</ele>
      <time>2014-09-14T08:34:43Z</time>
    </trkpt>
    <trkpt lat="48.440796" lon="2.695567">
      <ele>89.1</ele>
      <time>2014-09-14T08:34:48Z</time>
    </trkpt>
    <trkpt lat="48.440753" lon="2.695696">
      <ele>88.8</ele>
      <time>2014-09-14T08:34:50Z</time>
    </trkpt>
    <trkpt lat="48.440714" lon="2.69586">
      <ele>88.6</ele>
      <time>2014-09-14T08:34:53Z</time>
    </trkpt>
    <trkpt lat="48.440752" lon="2.695993">
      <ele>88.7</ele>
      <time>2014-09-14T08:34:55Z</time>
    </trkpt>
    <trkpt lat="48.440729" lon="2.696126">
      <ele>89.0</ele>
      <time>2014-09-14T08:34:57Z</time>
    </trkpt>
    <trkpt lat="48.440711" lon="2.696324">
      <ele>89.4</ele>
      <time>2014-09-14T08:35:00Z</time>
    </trkpt>
    <trkpt lat="48.440704" lon="2.696513">
      <ele>89.7</ele>
      <time>2014-09-14T08:35:03Z</time>
    </trkpt>
    <trkpt lat="48.440709" lon="2.696695">
      <ele>90.0</ele>
      <time>2014-09-14T08:35:06Z</time>
    </trkpt>
    <trkpt lat="48.4407" lon="2.696903">
      <ele>90.4</ele>
      <time>2014-09-14T08:35:09Z</time>
    </trkpt>
    <trkpt lat="48.440685" lon="2.697091">
      <ele>90.8</ele>
      <time>2014-09-14T08:35:12Z</time>
    </trkpt>
    <trkpt lat="48.440663" lon="2.697242">
      <ele>91.1</ele>
      <time>2014-09-14T08:35:15Z</time>
    </trkpt>
    <trkpt lat="48.440696" lon="2.697388">
      <ele>91.3</ele>
      <time>2014-09-14T08:35:18Z</time>
    </trkpt>
    <trkpt lat="48.440687" lon="2.697595">
      <ele>92.2</ele>
      <time>2014-09-14T08:35:22Z</time>
    </trkpt>
    <trkpt lat="48.440645" lon="2.697725">
      <ele>93.3</ele>
      <time>2014-09-14T08:35:26Z</time>
    </trkpt>
    <trkpt lat="48.440589" lon="2.697894">
      <ele>94.8</ele>
      <time>2014-09-14T08:35:29Z</time>
    </trkpt>
    <trkpt lat="48.440516" lon="2.698029">
      <ele>96.3</ele>
      <time>2014-09-14T08:35:31Z</time>
    </trkpt>
    <trkpt lat="48.440472" lon="2.698182">
      <ele>97.8</ele>
      <time>2014-09-14T08:35:33Z</time>
    </trkpt>
    <trkpt lat="48.440435" lon="2.698326">
      <ele>99.3</ele>
      <time>2014-09-14T08:35:36Z</time>
    </trkpt>
    <trkpt lat="48.440361" lon="2.698448">
      <ele>100.7</ele>
      <time>2014-09-14T08:35:40Z</time>
    </trkpt>
    <trkpt lat="48.440379" lon="2.698625">
      <ele>101.7</ele>
      <time>2014-09-14T08:35:44Z</time>
    </trkpt>
    <trkpt lat="48.440388" lon="2.698977">
      <ele>103.9</ele>
      <time>2014-09-14T08:35:50Z</time>
    </trkpt>
    <trkpt lat="48.440345" lon="2.699165">
      <ele>105.3</ele>
      <time>2014-09-14T08:35:54Z</time>
    </trkpt>
    <trkpt lat="48.440244" lon="2.699311">
      <ele>106.0</ele>
      <time>2014-09-14T08:35:56Z</time>
    </trkpt>
    <trkpt lat="48.440219" lon="2.699453">
      <ele>106.2</ele>
      <time>2014-09-14T08:35:59Z</time>
    </trkpt>
    <trkpt lat="48.440264" lon="2.69959">
      <ele>106.2</ele>
      <time>2014-09-14T08:36:04Z</time>
    </trkpt>
    <trkpt lat="48.440184" lon="2.699658">
      <ele>106.5</ele>
      <time>2014-09-14T08:36:08Z</time>
    </trkpt>
    <trkpt lat="48.440086" lon="2.699676">
      <ele>106.8</ele>
      <time>2014-09-14T08:36:12Z</time>
    </trkpt>
    <trkpt lat="48.43999" lon="2.699698">
      <ele>107.1</ele>
      <time>2014-09-14T08:36:16Z</time>
    </trkpt>
    <trkpt lat="48.439885" lon="2.699726">
      <ele>107.7</ele>
      <time>2014-09-14T08:36:20Z</time>
    </trkpt>
    <trkpt lat="48.439783" lon="2.699671">
      <ele>108.3</ele>
      <time>2014-09-14T08:36:25Z</time>
    </trkpt>
    <trkpt lat="48.439708" lon="2.699783">
      <ele>108.8</ele>
      <time>2014-09-14T08:36:30Z</time>
    </trkpt>
    <trkpt lat="48.439631" lon="2.699885">
      <ele>109.2</ele>
      <time>2014-09-14T08:36:36Z</time>
    </trkpt>
    <trkpt lat="48.439524" lon="2.699949">
      <ele>109.9</ele>
      <time>2014-09-14T08:36:45Z</time>
    </trkpt>
    <trkpt lat="48.439356" lon="2.700106">
      <ele>111.5</ele>
      <time>2014-09-14T08:37:00Z</time>
    </trkpt>
    <trkpt lat="48.439322" lon="2.700253">
      <ele>112.7</ele>
      <time>2014-09-14T08:37:03Z</time>
    </trkpt>
    <trkpt lat="48.439199" lon="2.700317">
      <ele>114.0</ele>
      <time>2014-09-14T08:37:11Z</time>
    </trkpt>
    <trkpt lat="48.439101" lon="2.700377">
      <ele>115.6</ele>
      <time>2014-09-14T08:37:17Z</time>
    </trkpt>
    <trkpt lat="48.439007" lon="2.700398">
      <ele>117.0</ele>
      <time>2014-09-14T08:37:53Z</time>
    </trkpt>
    <trkpt lat="48.43884" lon="2.700297">
      <ele>118.8</ele>
      <time>2014-09-14T08:38:00Z</time>
    </trkpt>
    <trkpt lat="48.43875" lon="2.700232">
      <ele>119.8</ele>
      <time>2014-09-14T08:38:04Z</time>
    </trkpt>
    <trkpt lat="48.438631" lon="2.700237">
      <ele>121.6</ele>
      <time>2014-09-14T08:38:22Z</time>
    </trkpt>
    <trkpt lat="48.438532" lon="2.700296">
      <ele>123.2</ele>
      <time>2014-09-14T08:38:28Z</time>
    </trkpt>
    <trkpt lat="48.438453" lon="2.700411">
      <ele>124.4</ele>
      <time>2014-09-14T08:38:33Z</time>
    </trkpt>
    <trkpt lat="48.438407" lon="2.700558">
      <ele>125.1</ele>
      <time>2014-09-14T08:39:03Z</time>
    </trkpt>
    <trkpt lat="48.438247" lon="2.700739">
      <ele>126.8</ele>
      <time>2014-09-14T08:39:15Z</time>
    </trkpt>
    <trkpt lat="48.438178" lon="2.700871">
      <ele>127.9</ele>
      <time>2014-09-14T08:39:19Z</time>
    </trkpt>
    <trkpt lat="48.438095" lon="2.700949">
      <ele>129.4</ele>
      <time>2014-09-14T08:39:24Z</time>
    </trkpt>
    <trkpt lat="48.437998" lon="2.700978">
      <ele>130.5</ele>
      <time>2014-09-14T08:39:28Z</time>
    </trkpt>
    <trkpt lat="48.437953" lon="2.701118">
      <ele>132.0</ele>
      <time>2014-09-14T08:39:32Z</time>
    </trkpt>
    <trkpt lat="48.438112" lon="2.701164">
      <ele>131.4</ele>
      <time>2014-09-14T08:39:43Z</time>
    </trkpt>
    <trkpt lat="48.438019" lon="2.70124">
      <ele>132.6</ele>
      <time>2014-09-14T08:39:50Z</time>
    </trkpt>
    <trkpt lat="48.437947" lon="2.701338">
      <ele>133.8</ele>
      <time>2014-09-14T08:39:56Z</time>
    </trkpt>
    <trkpt lat="48.43791" lon="2.701469">
      <ele>135.0</ele>
      <time>2014-09-14T08:40:04Z</time>
    </trkpt>
    <trkpt lat="48.437834" lon="2.701679">
      <ele>136.6</ele>
      <time>2014-09-14T08:40:18Z</time>
    </trkpt>
    <trkpt lat="48.437758" lon="2.701777">
      <ele>137.1</ele>
      <time>2014-09-14T08:41:12Z</time>
    </trkpt>
    <trkpt lat="48.437778" lon="2.701932">
      <ele>137.7</ele>
      <time>2014-09-14T08:41:52Z</time>
    </trkpt>
    <trkpt lat="48.437677" lon="2.701951">
      <ele>138.0</ele>
      <time>2014-09-14T08:42:10Z</time>
    </trkpt>
    <trkpt lat="48.437649" lon="2.702086">
      <ele>138.7</ele>
      <time>2014-09-14T08:43:41Z</time>
    </trkpt>
    <trkpt lat="48.437585" lon="2.702374">
      <ele>140.1</ele>
      <time>2014-09-14T08:44:00Z</time>
    </trkpt>
    <trkpt lat="48.437557" lon="2.702513">
      <ele>140.7</ele>
      <time>2014-09-14T08:44:03Z</time>
    </trkpt>
    <trkpt lat="48.437499" lon="2.702658">
      <ele>140.4</ele>
      <time>2014-09-14T08:44:08Z</time>
    </trkpt>
    <trkpt lat="48.437431" lon="2.70275">
      <ele>139.8</ele>
      <time>2014-09-14T08:44:11Z</time>
    </trkpt>
    <trkpt lat="48.437316" lon="2.702867">
      <ele>139.1</ele>
      <time>2014-09-14T08:44:16Z</time>
    </trkpt>
    <trkpt lat="48.437253" lon="2.702981">
      <ele>138.9</ele>
      <time>2014-09-14T08:44:19Z</time>
    </trkpt>
    <trkpt lat="48.437177" lon="2.703066">
      <ele>138.7</ele>
      <time>2014-09-14T08:44:26Z</time>
    </trkpt>
    <trkpt lat="48.437098" lon="2.703144">
      <ele>138.8</ele>
      <time>2014-09-14T08:44:30Z</time>
    </trkpt>
    <trkpt lat="48.437014" lon="2.70333">
      <ele>139.2</ele>
      <time>2014-09-14T08:44:43Z</time>
    </trkpt>
    <trkpt lat="48.436953" lon="2.703633">
      <ele>138.8</ele>
      <time>2014-09-14T08:44:50Z</time>
    </trkpt>
    <trkpt lat="48.43691" lon="2.703771">
      <ele>138.8</ele>
      <time>2014-09-14T08:44:53Z</time>
    </trkpt>
    <trkpt lat="48.436863" lon="2.703922">
      <ele>138.9</ele>
      <time>2014-09-14T08:44:55Z</time>
    </trkpt>
    <trkpt lat="48.436948" lon="2.704076">
      <ele>138.1</ele>
      <time>2014-09-14T08:44:57Z</time>
    </trkpt>
    <trkpt lat="48.436963" lon="2.704239">
      <ele>138.2</ele>
      <time>2014-09-14T08:45:00Z</time>
    </trkpt>
    <trkpt lat="48.436995" lon="2.704374">
      <ele>138.5</ele>
      <time>2014-09-14T08:45:02Z</time>
    </trkpt>
    <trkpt lat="48.437066" lon="2.704494">
      <ele>138.5</ele>
      <time>2014-09-14T08:45:06Z</time>
    </trkpt>
    <trkpt lat="48.437142" lon="2.704629">
      <ele>138.6</ele>
      <time>2014-09-14T08:45:09Z</time>
    </trkpt>
    <trkpt lat="48.437204" lon="2.704818">
      <ele>139.0</ele>
      <time>2014-09-14T08:45:12Z</time>
    </trkpt>
    <trkpt lat="48.437251" lon="2.704944">
      <ele>139.2</ele>
      <time>2014-09-14T08:45:14Z</time>
    </trkpt>
    <trkpt lat="48.437348" lon="2.705086">
      <ele>139.0</ele>
      <time>2014-09-14T08:45:17Z</time>
    </trkpt>
    <trkpt lat="48.437402" lon="2.705274">
      <ele>138.9</ele>
      <time>2014-09-14T08:45:20Z</time>
    </trkpt>
    <trkpt lat="48.437454" lon="2.705495">
      <ele>138.9</ele>
      <time>2014-09-14T08:45:23Z</time>
    </trkpt>
    <trkpt lat="48.437514" lon="2.705598">
      <ele>138.5</ele>
      <time>2014-09-14T08:45:25Z</time>
    </trkpt>
    <trkpt lat="48.437658" lon="2.705724">
      <ele>136.0</ele>
      <time>2014-09-14T08:45:28Z</time>
    </trkpt>
    <trkpt lat="48.437747" lon="2.705832">
      <ele>134.6</ele>
      <time>2014-09-14T08:45:32Z</time>
    </trkpt>
    <trkpt lat="48.437844" lon="2.705877">
      <ele>132.7</ele>
      <time>2014-09-14T08:45:37Z</time>
    </trkpt>
    <trkpt lat="48.437754" lon="2.705858">
      <ele>134.3</ele>
      <time>2014-09-14T08:46:03Z</time>
    </trkpt>
    <trkpt lat="48.437501" lon="2.705719">
      <ele>138.8</ele>
      <time>2014-09-14T08:46:11Z</time>
    </trkpt>
    <trkpt lat="48.437361" lon="2.705741">
      <ele>139.7</ele>
      <time>2014-09-14T08:46:15Z</time>
    </trkpt>
    <trkpt lat="48.437305" lon="2.705949">
      <ele>139.8</ele>
      <time>2014-09-14T08:46:18Z</time>
    </trkpt>
    <trkpt lat="48.437256" lon="2.706065">
      <ele>139.7</ele>
      <time>2014-09-14T08:46:20Z</time>
    </trkpt>
    <trkpt lat="48.437196" lon="2.706225">
      <ele>139.6</ele>
      <time>2014-09-14T08:46:23Z</time>
    </trkpt>
    <trkpt lat="48.437135" lon="2.70637">
      <ele>139.5</ele>
      <time>2014-09-14T08:46:26Z</time>
    </trkpt>
    <trkpt lat="48.437178" lon="2.706245">
      <ele>139.6</ele>
      <time>2014-09-14T08:46:34Z</time>
    </trkpt>
    <trkpt lat="48.437175" lon="2.706088">
      <ele>140.2</ele>
      <time>2014-09-14T08:46:38Z</time>
    </trkpt>
    <trkpt lat="48.437226" lon="2.705944">
      <ele>140.3</ele>
      <time>2014-09-14T08:46:42Z</time>
    </trkpt>
    <trkpt lat="48.437239" lon="2.705806">
      <ele>140.5</ele>
      <time>2014-09-14T08:46:45Z</time>
    </trkpt>
    <trkpt lat="48.437235" lon="2.705959">
      <ele>140.2</ele>
      <time>2014-09-14T08:46:54Z</time>
    </trkpt>
    <trkpt lat="48.437339" lon="2.70613">
      <ele>139.0</ele>
      <time>2014-09-14T08:46:59Z</time>
    </trkpt>
    <trkpt lat="48.43741" lon="2.706224">
      <ele>138.2</ele>
      <time>2014-09-14T08:47:03Z</time>
    </trkpt>
    <trkpt lat="48.437484" lon="2.70643">
      <ele>137.0</ele>
      <time>2014-09-14T08:47:09Z</time>
    </trkpt>
    <trkpt lat="48.437716" lon="2.70665">
      <ele>132.2</ele>
      <time>2014-09-14T08:47:12Z</time>
    </trkpt>
    <trkpt lat="48.437799" lon="2.706704">
      <ele>130.6</ele>
      <time>2014-09-14T08:47:14Z</time>
    </trkpt>
    <trkpt lat="48.437809" lon="2.706842">
      <ele>130.5</ele>
      <time>2014-09-14T08:47:18Z</time>
    </trkpt>
    <trkpt lat="48.437911" lon="2.706854">
      <ele>128.7</ele>
      <time>2014-09-14T08:47:23Z</time>
    </trkpt>
    <trkpt lat="48.438038" lon="2.70683">
      <ele>126.4</ele>
      <time>2014-09-14T08:47:26Z</time>
    </trkpt>
    <trkpt lat="48.438164" lon="2.706837">
      <ele>124.2</ele>
      <time>2014-09-14T08:47:31Z</time>
    </trkpt>
    <trkpt lat="48.438309" lon="2.706865">
      <ele>121.7</ele>
      <time>2014-09-14T08:48:02Z</time>
    </trkpt>
    <trkpt lat="48.438442" lon="2.706904">
      <ele>120.4</ele>
      <time>2014-09-14T08:48:09Z</time>
    </trkpt>
    <trkpt lat="48.438708" lon="2.707016">
      <ele>118.6</ele>
      <time>2014-09-14T08:48:16Z</time>
    </trkpt>
    <trkpt lat="48.438771" lon="2.707151">
      <ele>118.6</ele>
      <time>2014-09-14T08:48:19Z</time>
    </trkpt>
    <trkpt lat="48.438812" lon="2.70728">
      <ele>118.8</ele>
      <time>2014-09-14T08:48:22Z</time>
    </trkpt>
    <trkpt lat="48.438825" lon="2.707415">
      <ele>119.3</ele>
      <time>2014-09-14T08:48:27Z</time>
    </trkpt>
    <trkpt lat="48.438829" lon="2.707579">
      <ele>119.8</ele>
      <time>2014-09-14T08:48:33Z</time>
    </trkpt>
    <trkpt lat="48.438833" lon="2.707723">
      <ele>120.1</ele>
      <time>2014-09-14T08:48:36Z</time>
    </trkpt>
    <trkpt lat="48.438887" lon="2.707836">
      <ele>120.1</ele>
      <time>2014-09-14T08:48:41Z</time>
    </trkpt>
    <trkpt lat="48.438767" lon="2.707933">
      <ele>121.0</ele>
      <time>2014-09-14T08:49:00Z</time>
    </trkpt>
    <trkpt lat="48.438703" lon="2.708069">
      <ele>121.6</ele>
      <time>2014-09-14T08:49:05Z</time>
    </trkpt>
    <trkpt lat="48.438655" lon="2.708187">
      <ele>122.1</ele>
      <time>2014-09-14T08:49:08Z</time>
    </trkpt>
    <trkpt lat="48.438593" lon="2.708317">
      <ele>122.7</ele>
      <time>2014-09-14T08:49:11Z</time>
    </trkpt>
    <trkpt lat="48.438569" lon="2.708656">
      <ele>121.8</ele>
      <time>2014-09-14T08:49:19Z</time>
    </trkpt>
    <trkpt lat="48.4385" lon="2.708837">
      <ele>121.3</ele>
      <time>2014-09-14T08:49:22Z</time>
    </trkpt>
    <trkpt lat="48.438489" lon="2.708972">
      <ele>120.8</ele>
      <time>2014-09-14T08:49:24Z</time>
    </trkpt>
    <trkpt lat="48.438444" lon="2.70915">
      <ele>120.1</ele>
      <time>2014-09-14T08:49:27Z</time>
    </trkpt>
    <trkpt lat="48.438401" lon="2.709284">
      <ele>119.6</ele>
      <time>2014-09-14T08:49:29Z</time>
    </trkpt>
    <trkpt lat="48.438367" lon="2.709422">
      <ele>119.1</ele>
      <time>2014-09-14T08:49:31Z</time>
    </trkpt>
    <trkpt lat="48.438378" lon="2.709579">
      <ele>118.6</ele>
      <time>2014-09-14T08:49:33Z</time>
    </trkpt>
    <trkpt lat="48.438316" lon="2.70973">
      <ele>118.1</ele>
      <time>2014-09-14T08:49:36Z</time>
    </trkpt>
    <trkpt lat="48.438295" lon="2.70992">
      <ele>117.5</ele>
      <time>2014-09-14T08:49:38Z</time>
    </trkpt>
    <trkpt lat="48.438182" lon="2.710085">
      <ele>117.0</ele>
      <time>2014-09-14T08:49:40Z</time>
    </trkpt>
    <trkpt lat="48.438139" lon="2.710291">
      <ele>115.5</ele>
      <time>2014-09-14T08:49:42Z</time>
    </trkpt>
    <trkpt lat="48.438056" lon="2.710477">
      <ele>114.1</ele>
      <time>2014-09-14T08:49:44Z</time>
    </trkpt>
    <trkpt lat="48.438039" lon="2.710616">
      <ele>112.9</ele>
      <time>2014-09-14T08:49:45Z</time>
    </trkpt>
    <trkpt lat="48.437922" lon="2.710799">
      <ele>111.3</ele>
      <time>2014-09-14T08:49:47Z</time>
    </trkpt>
    <trkpt lat="48.437856" lon="2.710912">
      <ele>110.4</ele>
      <time>2014-09-14T08:49:48Z</time>
    </trkpt>
    <trkpt lat="48.437755" lon="2.711161">
      <ele>108.8</ele>
      <time>2014-09-14T08:49:50Z</time>
    </trkpt>
    <trkpt lat="48.437759" lon="2.71136">
      <ele>107.4</ele>
      <time>2014-09-14T08:49:52Z</time>
    </trkpt>
    <trkpt lat="48.437711" lon="2.711555">
      <ele>106.2</ele>
      <time>2014-09-14T08:49:54Z</time>
    </trkpt>
    <trkpt lat="48.437596" lon="2.711755">
      <ele>105.6</ele>
      <time>2014-09-14T08:49:55Z</time>
    </trkpt>
    <trkpt lat="48.437724" lon="2.711951">
      <ele>104.8</ele>
      <time>2014-09-14T08:49:58Z</time>
    </trkpt>
    <trkpt lat="48.437676" lon="2.712066">
      <ele>104.6</ele>
      <time>2014-09-14T08:49:59Z</time>
    </trkpt>
    <trkpt lat="48.437767" lon="2.712155">
      <ele>104.2</ele>
      <time>2014-09-14T08:50:00Z</time>
    </trkpt>
    <trkpt lat="48.437894" lon="2.712277">
      <ele>103.6</ele>
      <time>2014-09-14T08:50:01Z</time>
    </trkpt>
    <trkpt lat="48.437964" lon="2.71245">
      <ele>103.0</ele>
      <time>2014-09-14T08:50:03Z</time>
    </trkpt>
    <trkpt lat="48.437952" lon="2.712606">
      <ele>102.9</ele>
      <time>2014-09-14T08:50:05Z</time>
    </trkpt>
    <trkpt lat="48.4379" lon="2.712749">
      <ele>103.0</ele>
      <time>2014-09-14T08:50:07Z</time>
    </trkpt>
    <trkpt lat="48.437844" lon="2.712888">
      <ele>103.1</ele>
      <time>2014-09-14T08:50:09Z</time>
    </trkpt>
    <trkpt lat="48.437812" lon="2.713048">
      <ele>103.1</ele>
      <time>2014-09-14T08:50:12Z</time>
    </trkpt>
    <trkpt lat="48.437755" lon="2.713367">
      <ele>102.9</ele>
      <time>2014-09-14T08:50:17Z</time>
    </trkpt>
    <trkpt lat="48.437727" lon="2.71352">
      <ele>102.4</ele>
      <time>2014-09-14T08:50:20Z</time>
    </trkpt>
    <trkpt lat="48.437723" lon="2.713717">
      <ele>101.8</ele>
      <time>2014-09-14T08:50:23Z</time>
    </trkpt>
    <trkpt lat="48.4377" lon="2.713922">
      <ele>101.2</ele>
      <time>2014-09-14T08:50:26Z</time>
    </trkpt>
    <trkpt lat="48.437669" lon="2.714054">
      <ele>100.9</ele>
      <time>2014-09-14T08:50:28Z</time>
    </trkpt>
    <trkpt lat="48.437677" lon="2.714291">
      <ele>100.0</ele>
      <time>2014-09-14T08:50:31Z</time>
    </trkpt>
    <trkpt lat="48.437676" lon="2.714506">
      <ele>98.9</ele>
      <time>2014-09-14T08:50:34Z</time>
    </trkpt>
    <trkpt lat="48.43767" lon="2.714762">
      <ele>97.7</ele>
      <time>2014-09-14T08:50:37Z</time>
    </trkpt>
    <trkpt lat="48.437618" lon="2.714874">
      <ele>97.3</ele>
      <time>2014-09-14T08:50:39Z</time>
    </trkpt>
    <trkpt lat="48.437642" lon="2.715054">
      <ele>96.8</ele>
      <time>2014-09-14T08:50:42Z</time>
    </trkpt>
    <trkpt lat="48.437591" lon="2.715194">
      <ele>97.3</ele>
      <time>2014-09-14T08:50:46Z</time>
    </trkpt>
    <trkpt lat="48.437574" lon="2.715351">
      <ele>97.7</ele>
      <time>2014-09-14T08:50:50Z</time>
    </trkpt>
    <trkpt lat="48.437575" lon="2.715499">
      <ele>98.1</ele>
      <time>2014-09-14T08:50:53Z</time>
    </trkpt>
    <trkpt lat="48.437544" lon="2.715664">
      <ele>98.5</ele>
      <time>2014-09-14T08:50:56Z</time>
    </trkpt>
    <trkpt lat="48.437521" lon="2.715815">
      <ele>98.9</ele>
      <time>2014-09-14T08:50:58Z</time>
    </trkpt>
    <trkpt lat="48.437486" lon="2.71604">
      <ele>99.1</ele>
      <time>2014-09-14T08:51:02Z</time>
    </trkpt>
    <trkpt lat="48.437429" lon="2.716246">
      <ele>99.3</ele>
      <time>2014-09-14T08:51:05Z</time>
    </trkpt>
    <trkpt lat="48.437412" lon="2.716412">
      <ele>99.4</ele>
      <time>2014-09-14T08:51:08Z</time>
    </trkpt>
    <trkpt lat="48.437378" lon="2.716577">
      <ele>99.6</ele>
      <time>2014-09-14T08:51:10Z</time>
    </trkpt>
    <trkpt lat="48.43729" lon="2.716784">
      <ele>99.9</ele>
      <time>2014-09-14T08:51:13Z</time>
    </trkpt>
    <trkpt lat="48.437229" lon="2.717079">
      <ele>99.8</ele>
      <time>2014-09-14T08:51:18Z</time>
    </trkpt>
    <trkpt lat="48.437245" lon="2.71732">
      <ele>99.4</ele>
      <time>2014-09-14T08:51:22Z</time>
    </trkpt>
    <trkpt lat="48.437227" lon="2.71753">
      <ele>99.3</ele>
      <time>2014-09-14T08:51:25Z</time>
    </trkpt>
    <trkpt lat="48.437219" lon="2.717698">
      <ele>99.5</ele>
      <time>2014-09-14T08:51:27Z</time>
    </trkpt>
    <trkpt lat="48.4372" lon="2.717925">
      <ele>99.8</ele>
      <time>2014-09-14T08:51:30Z</time>
    </trkpt>
    <trkpt lat="48.437193" lon="2.718104">
      <ele>99.9</ele>
      <time>2014-09-14T08:51:32Z</time>
    </trkpt>
    <trkpt lat="48.437199" lon="2.718241">
      <ele>100.0</ele>
      <time>2014-09-14T08:51:35Z</time>
    </trkpt>
    <trkpt lat="48.437189" lon="2.71844">
      <ele>100.1</ele>
      <time>2014-09-14T08:51:39Z</time>
    </trkpt>
    <trkpt lat="48.437124" lon="2.718613">
      <ele>100.2</ele>
      <time>2014-09-14T08:51:42Z</time>
    </trkpt>
    <trkpt lat="48.43704" lon="2.718695">
      <ele>100.4</ele>
      <time>2014-09-14T08:51:46Z</time>
    </trkpt>
    <trkpt lat="48.436951" lon="2.718732">
      <ele>100.7</ele>
      <time>2014-09-14T08:51:51Z</time>
    </trkpt>
    <trkpt lat="48.436864" lon="2.718802">
      <ele>100.9</ele>
      <time>2014-09-14T08:51:55Z</time>
    </trkpt>
    <trkpt lat="48.43679" lon="2.718886">
      <ele>101.0</ele>
      <time>2014-09-14T08:51:59Z</time>
    </trkpt>
    <trkpt lat="48.436698" lon="2.719">
      <ele>101.1</ele>
      <time>2014-09-14T08:52:03Z</time>
    </trkpt>
    <trkpt lat="48.436607" lon="2.719059">
      <ele>101.3</ele>
      <time>2014-09-14T08:52:07Z</time>
    </trkpt>
    <trkpt lat="48.436531" lon="2.719147">
      <ele>101.5</ele>
      <time>2014-09-14T08:52:10Z</time>
    </trkpt>
    <trkpt lat="48.436497" lon="2.719383">
      <ele>101.4</ele>
      <time>2014-09-14T08:52:15Z</time>
    </trkpt>
    <trkpt lat="48.43635" lon="2.719725">
      <ele>101.7</ele>
      <time>2014-09-14T08:52:21Z</time>
    </trkpt>
    <trkpt lat="48.436273" lon="2.719813">
      <ele>102.0</ele>
      <time>2014-09-14T08:52:24Z</time>
    </trkpt>
    <trkpt lat="48.436211" lon="2.719925">
      <ele>102.2</ele>
      <time>2014-09-14T08:52:28Z</time>
    </trkpt>
    <trkpt lat="48.436158" lon="2.720044">
      <ele>102.4</ele>
      <time>2014-09-14T08:52:32Z</time>
    </trkpt>
    <trkpt lat="48.436091" lon="2.720207">
      <ele>102.8</ele>
      <time>2014-09-14T08:52:35Z</time>
    </trkpt>
    <trkpt lat="48.4361" lon="2.720359">
      <ele>102.7</ele>
      <time>2014-09-14T08:52:38Z</time>
    </trkpt>
    <trkpt lat="48.436052" lon="2.720561">
      <ele>103.0</ele>
      <time>2014-09-14T08:52:42Z</time>
    </trkpt>
    <trkpt lat="48.435992" lon="2.720698">
      <ele>103.2</ele>
      <time>2014-09-14T08:52:44Z</time>
    </trkpt>
    <trkpt lat="48.435932" lon="2.720839">
      <ele>103.5</ele>
      <time>2014-09-14T08:52:47Z</time>
    </trkpt>
    <trkpt lat="48.435897" lon="2.720982">
      <ele>103.7</ele>
      <time>2014-09-14T08:52:51Z</time>
    </trkpt>
    <trkpt lat="48.435946" lon="2.721106">
      <ele>103.6</ele>
      <time>2014-09-14T08:52:56Z</time>
    </trkpt>
    <trkpt lat="48.435922" lon="2.721253">
      <ele>103.7</ele>
      <time>2014-09-14T08:52:59Z</time>
    </trkpt>
    <trkpt lat="48.435876" lon="2.721429">
      <ele>103.9</ele>
      <time>2014-09-14T08:53:02Z</time>
    </trkpt>
    <trkpt lat="48.435896" lon="2.72158">
      <ele>103.9</ele>
      <time>2014-09-14T08:53:08Z</time>
    </trkpt>
    <trkpt lat="48.435868" lon="2.721713">
      <ele>103.9</ele>
      <time>2014-09-14T08:53:10Z</time>
    </trkpt>
    <trkpt lat="48.435811" lon="2.721826">
      <ele>104.0</ele>
      <time>2014-09-14T08:53:13Z</time>
    </trkpt>
    <trkpt lat="48.435702" lon="2.721939">
      <ele>105.0</ele>
      <time>2014-09-14T08:53:20Z</time>
    </trkpt>
    <trkpt lat="48.435528" lon="2.722106">
      <ele>106.6</ele>
      <time>2014-09-14T08:53:40Z</time>
    </trkpt>
    <trkpt lat="48.435444" lon="2.722171">
      <ele>107.3</ele>
      <time>2014-09-14T08:53:42Z</time>
    </trkpt>
    <trkpt lat="48.43538" lon="2.722272">
      <ele>107.8</ele>
      <time>2014-09-14T08:53:47Z</time>
    </trkpt>
    <trkpt lat="48.435313" lon="2.722377">
      <ele>108.2</ele>
      <time>2014-09-14T08:53:51Z</time>
    </trkpt>
    <trkpt lat="48.435259" lon="2.722486">
      <ele>108.5</ele>
      <time>2014-09-14T08:53:54Z</time>
    </trkpt>
    <trkpt lat="48.435174" lon="2.722579">
      <ele>109.3</ele>
      <time>2014-09-14T08:53:57Z</time>
    </trkpt>
    <trkpt lat="48.435076" lon="2.722698">
      <ele>110.3</ele>
      <time>2014-09-14T08:54:01Z</time>
    </trkpt>
    <trkpt lat="48.434993" lon="2.722835">
      <ele>111.1</ele>
      <time>2014-09-14T08:54:05Z</time>
    </trkpt>
    <trkpt lat="48.434996" lon="2.723013">
      <ele>111.1</ele>
      <time>2014-09-14T08:54:09Z</time>
    </trkpt>
    <trkpt lat="48.434921" lon="2.723117">
      <ele>112.6</ele>
      <time>2014-09-14T08:54:13Z</time>
    </trkpt>
    <trkpt lat="48.434881" lon="2.723246">
      <ele>113.3</ele>
      <time>2014-09-14T08:54:16Z</time>
    </trkpt>
    <trkpt lat="48.434848" lon="2.723425">
      <ele>114.0</ele>
      <time>2014-09-14T08:54:20Z</time>
    </trkpt>
    <trkpt lat="48.434752" lon="2.723742">
      <ele>116.4</ele>
      <time>2014-09-14T08:54:33Z</time>
    </trkpt>
    <trkpt lat="48.434841" lon="2.723794">
      <ele>114.7</ele>
      <time>2014-09-14T08:54:40Z</time>
    </trkpt>
    <trkpt lat="48.434777" lon="2.723931">
      <ele>116.2</ele>
      <time>2014-09-14T08:54:51Z</time>
    </trkpt>
    <trkpt lat="48.434734" lon="2.724054">
      <ele>117.2</ele>
      <time>2014-09-14T08:55:02Z</time>
    </trkpt>
    <trkpt lat="48.434816" lon="2.72414">
      <ele>115.7</ele>
      <time>2014-09-14T08:55:10Z</time>
    </trkpt>
    <trkpt lat="48.434748" lon="2.724255">
      <ele>117.5</ele>
      <time>2014-09-14T08:55:14Z</time>
    </trkpt>
    <trkpt lat="48.434694" lon="2.724434">
      <ele>119.2</ele>
      <time>2014-09-14T08:55:25Z</time>
    </trkpt>
    <trkpt lat="48.434689" lon="2.724687">
      <ele>120.1</ele>
      <time>2014-09-14T08:55:39Z</time>
    </trkpt>
    <trkpt lat="48.434668" lon="2.724831">
      <ele>121.0</ele>
      <time>2014-09-14T08:55:48Z</time>
    </trkpt>
    <trkpt lat="48.43457" lon="2.724901">
      <ele>122.9</ele>
      <time>2014-09-14T08:55:56Z</time>
    </trkpt>
    <trkpt lat="48.434484" lon="2.724959">
      <ele>124.6</ele>
      <time>2014-09-14T08:56:04Z</time>
    </trkpt>
    <trkpt lat="48.434411" lon="2.725056">
      <ele>125.9</ele>
      <time>2014-09-14T08:56:27Z</time>
    </trkpt>
    <trkpt lat="48.434339" lon="2.725332">
      <ele>126.7</ele>
      <time>2014-09-14T08:57:16Z</time>
    </trkpt>
    <trkpt lat="48.434272" lon="2.725428">
      <ele>127.5</ele>
      <time>2014-09-14T08:57:24Z</time>
    </trkpt>
    <trkpt lat="48.434301" lon="2.725577">
      <ele>126.9</ele>
      <time>2014-09-14T08:57:39Z</time>
    </trkpt>
    <trkpt lat="48.434354" lon="2.725867">
      <ele>125.9</ele>
      <time>2014-09-14T08:57:49Z</time>
    </trkpt>
    <trkpt lat="48.434417" lon="2.726002">
      <ele>124.9</ele>
      <time>2014-09-14T08:57:54Z</time>
    </trkpt>
    <trkpt lat="48.434467" lon="2.72613">
      <ele>124.0</ele>
      <time>2014-09-14T08:58:00Z</time>
    </trkpt>
    <trkpt lat="48.434519" lon="2.726246">
      <ele>123.2</ele>
      <time>2014-09-14T08:58:04Z</time>
    </trkpt>
    <trkpt lat="48.434602" lon="2.726354">
      <ele>122.0</ele>
      <time>2014-09-14T08:58:07Z</time>
    </trkpt>
    <trkpt lat="48.434663" lon="2.726457">
      <ele>121.1</ele>
      <time>2014-09-14T08:58:09Z</time>
    </trkpt>
    <trkpt lat="48.434785" lon="2.726512">
      <ele>119.7</ele>
      <time>2014-09-14T08:58:12Z</time>
    </trkpt>
    <trkpt lat="48.434873" lon="2.72657">
      <ele>118.6</ele>
      <time>2014-09-14T08:58:17Z</time>
    </trkpt>
    <trkpt lat="48.434936" lon="2.726684">
      <ele>117.6</ele>
      <time>2014-09-14T08:58:22Z</time>
    </trkpt>
    <trkpt lat="48.435071" lon="2.726798">
      <ele>116.2</ele>
      <time>2014-09-14T08:58:27Z</time>
    </trkpt>
    <trkpt lat="48.43519" lon="2.726874">
      <ele>115.1</ele>
      <time>2014-09-14T08:58:29Z</time>
    </trkpt>
    <trkpt lat="48.435291" lon="2.726973">
      <ele>114.0</ele>
      <time>2014-09-14T08:58:33Z</time>
    </trkpt>
    <trkpt lat="48.435382" lon="2.727059">
      <ele>113.1</ele>
      <time>2014-09-14T08:58:36Z</time>
    </trkpt>
    <trkpt lat="48.435477" lon="2.727112">
      <ele>112.2</ele>
      <time>2014-09-14T08:58:39Z</time>
    </trkpt>
    <trkpt lat="48.435462" lon="2.727294">
      <ele>111.8</ele>
      <time>2014-09-14T08:58:55Z</time>
    </trkpt>
    <trkpt lat="48.43537" lon="2.72756">
      <ele>111.6</ele>
      <time>2014-09-14T08:59:02Z</time>
    </trkpt>
    <trkpt lat="48.435288" lon="2.727636">
      <ele>111.9</ele>
      <time>2014-09-14T08:59:08Z</time>
    </trkpt>
    <trkpt lat="48.43533" lon="2.727783">
      <ele>110.7</ele>
      <time>2014-09-14T08:59:15Z</time>
    </trkpt>
    <trkpt lat="48.435441" lon="2.727885">
      <ele>109.2</ele>
      <time>2014-09-14T08:59:22Z</time>
    </trkpt>
    <trkpt lat="48.435513" lon="2.727985">
      <ele>108.0</ele>
      <time>2014-09-14T08:59:26Z</time>
    </trkpt>
    <trkpt lat="48.435577" lon="2.728113">
      <ele>106.7</ele>
      <time>2014-09-14T08:59:31Z</time>
    </trkpt>
    <trkpt lat="48.435613" lon="2.728277">
      <ele>105.4</ele>
      <time>2014-09-14T08:59:57Z</time>
    </trkpt>
    <trkpt lat="48.435797" lon="2.728421">
      <ele>103.2</ele>
      <time>2014-09-14T09:00:07Z</time>
    </trkpt>
    <trkpt lat="48.435929" lon="2.728502">
      <ele>103.2</ele>
      <time>2014-09-14T09:00:13Z</time>
    </trkpt>
    <trkpt lat="48.436045" lon="2.728454">
      <ele>103.8</ele>
      <time>2014-09-14T09:00:19Z</time>
    </trkpt>
    <trkpt lat="48.436127" lon="2.728539">
      <ele>104.0</ele>
      <time>2014-09-14T09:00:25Z</time>
    </trkpt>
    <trkpt lat="48.436189" lon="2.728647">
      <ele>104.0</ele>
      <time>2014-09-14T09:00:30Z</time>
    </trkpt>
    <trkpt lat="48.436278" lon="2.728688">
      <ele>104.3</ele>
      <time>2014-09-14T09:00:38Z</time>
    </trkpt>
    <trkpt lat="48.436389" lon="2.728734">
      <ele>104.5</ele>
      <time>2014-09-14T09:01:14Z</time>
    </trkpt>
    <trkpt lat="48.436611" lon="2.728786">
      <ele>105.2</ele>
      <time>2014-09-14T09:01:50Z</time>
    </trkpt>
    <trkpt lat="48.436695" lon="2.72873">
      <ele>105.2</ele>
      <time>2014-09-14T09:01:55Z</time>
    </trkpt>
    <trkpt lat="48.436756" lon="2.728607">
      <ele>104.8</ele>
      <time>2014-09-14T09:02:03Z</time>
    </trkpt>
    <trkpt lat="48.43682" lon="2.728511">
      <ele>104.2</ele>
      <time>2014-09-14T09:02:10Z</time>
    </trkpt>
    <trkpt lat="48.436817" lon="2.728337">
      <ele>104.8</ele>
      <time>2014-09-14T09:02:18Z</time>
    </trkpt>
    <trkpt lat="48.436911" lon="2.728103">
      <ele>104.3</ele>
      <time>2014-09-14T09:02:28Z</time>
    </trkpt>
    <trkpt lat="48.43694" lon="2.727921">
      <ele>104.5</ele>
      <time>2014-09-14T09:02:38Z</time>
    </trkpt>
    <trkpt lat="48.436983" lon="2.727796">
      <ele>104.5</ele>
      <time>2014-09-14T09:02:44Z</time>
    </trkpt>
    <trkpt lat="48.437015" lon="2.727659">
      <ele>104.6</ele>
      <time>2014-09-14T09:02:50Z</time>
    </trkpt>
    <trkpt lat="48.437092" lon="2.727574">
      <ele>104.1</ele>
      <time>2014-09-14T09:03:01Z</time>
    </trkpt>
    <trkpt lat="48.43708" lon="2.727411">
      <ele>104.9</ele>
      <time>2014-09-14T09:03:09Z</time>
    </trkpt>
    <trkpt lat="48.437051" lon="2.727251">
      <ele>105.9</ele>
      <time>2014-09-14T09:03:15Z</time>
    </trkpt>
    <trkpt lat="48.437064" lon="2.727106">
      <ele>106.3</ele>
      <time>2014-09-14T09:03:24Z</time>
    </trkpt>
    <trkpt lat="48.43716" lon="2.726818">
      <ele>106.8</ele>
      <time>2014-09-14T09:03:59Z</time>
    </trkpt>
    <trkpt lat="48.437232" lon="2.726735">
      <ele>106.6</ele>
      <time>2014-09-14T09:04:03Z</time>
    </trkpt>
    <trkpt lat="48.437138" lon="2.72668">
      <ele>107.5</ele>
      <time>2014-09-14T09:04:12Z</time>
    </trkpt>
    <trkpt lat="48.43713" lon="2.726495">
      <ele>107.8</ele>
      <time>2014-09-14T09:04:18Z</time>
    </trkpt>
    <trkpt lat="48.437119" lon="2.726302">
      <ele>108.1</ele>
      <time>2014-09-14T09:04:23Z</time>
    </trkpt>
    <trkpt lat="48.437149" lon="2.726075">
      <ele>108.2</ele>
      <time>2014-09-14T09:04:31Z</time>
    </trkpt>
    <trkpt lat="48.43717" lon="2.725745">
      <ele>108.3</ele>
      <time>2014-09-14T09:04:44Z</time>
    </trkpt>
    <trkpt lat="48.437261" lon="2.725653">
      <ele>108.1</ele>
      <time>2014-09-14T09:05:07Z</time>
    </trkpt>
    <trkpt lat="48.437309" lon="2.725507">
      <ele>108.0</ele>
      <time>2014-09-14T09:05:23Z</time>
    </trkpt>
    <trkpt lat="48.437409" lon="2.725491">
      <ele>108.0</ele>
      <time>2014-09-14T09:05:26Z</time>
    </trkpt>
    <trkpt lat="48.437507" lon="2.725442">
      <ele>107.9</ele>
      <time>2014-09-14T09:05:32Z</time>
    </trkpt>
    <trkpt lat="48.437603" lon="2.725147">
      <ele>107.1</ele>
      <time>2014-09-14T09:05:46Z</time>
    </trkpt>
    <trkpt lat="48.437621" lon="2.72498">
      <ele>107.1</ele>
      <time>2014-09-14T09:05:50Z</time>
    </trkpt>
    <trkpt lat="48.437682" lon="2.724876">
      <ele>106.8</ele>
      <time>2014-09-14T09:05:59Z</time>
    </trkpt>
    <trkpt lat="48.43772" lon="2.724748">
      <ele>106.6</ele>
      <time>2014-09-14T09:06:09Z</time>
    </trkpt>
    <trkpt lat="48.437726" lon="2.724576">
      <ele>106.6</ele>
      <time>2014-09-14T09:06:12Z</time>
    </trkpt>
    <trkpt lat="48.43774" lon="2.724391">
      <ele>106.7</ele>
      <time>2014-09-14T09:06:19Z</time>
    </trkpt>
    <trkpt lat="48.437722" lon="2.724225">
      <ele>106.9</ele>
      <time>2014-09-14T09:06:25Z</time>
    </trkpt>
    <trkpt lat="48.437642" lon="2.724133">
      <ele>107.3</ele>
      <time>2014-09-14T09:09:05Z</time>
    </trkpt>
    <trkpt lat="48.437497" lon="2.723922">
      <ele>108.0</ele>
      <time>2014-09-14T09:09:11Z</time>
    </trkpt>
    <trkpt lat="48.437436" lon="2.723738">
      <ele>107.6</ele>
      <time>2014-09-14T09:09:14Z</time>
    </trkpt>
    <trkpt lat="48.437365" lon="2.723624">
      <ele>107.1</ele>
      <time>2014-09-14T09:09:17Z</time>
    </trkpt>
    <trkpt lat="48.437258" lon="2.723468">
      <ele>106.4</ele>
      <time>2014-09-14T09:09:21Z</time>
    </trkpt>
    <trkpt lat="48.437117" lon="2.723373">
      <ele>105.3</ele>
      <time>2014-09-14T09:09:24Z</time>
    </trkpt>
    <trkpt lat="48.437051" lon="2.723236">
      <ele>104.9</ele>
      <time>2014-09-14T09:09:25Z</time>
    </trkpt>
    <trkpt lat="48.43695" lon="2.723173">
      <ele>104.4</ele>
      <time>2014-09-14T09:09:26Z</time>
    </trkpt>
    <trkpt lat="48.436845" lon="2.723102">
      <ele>103.9</ele>
      <time>2014-09-14T09:09:28Z</time>
    </trkpt>
    <trkpt lat="48.436761" lon="2.723043">
      <ele>103.6</ele>
      <time>2014-09-14T09:09:29Z</time>
    </trkpt>
    <trkpt lat="48.436647" lon="2.723008">
      <ele>103.2</ele>
      <time>2014-09-14T09:09:33Z</time>
    </trkpt>
    <trkpt lat="48.436559" lon="2.722979">
      <ele>103.3</ele>
      <time>2014-09-14T09:10:11Z</time>
    </trkpt>
    <trkpt lat="48.436587" lon="2.722585">
      <ele>104.5</ele>
      <time>2014-09-14T09:10:24Z</time>
    </trkpt>
    <trkpt lat="48.436595" lon="2.722323">
      <ele>104.5</ele>
      <time>2014-09-14T09:10:27Z</time>
    </trkpt>
    <trkpt lat="48.436613" lon="2.722142">
      <ele>104.1</ele>
      <time>2014-09-14T09:10:30Z</time>
    </trkpt>
    <trkpt lat="48.436651" lon="2.72196">
      <ele>103.7</ele>
      <time>2014-09-14T09:10:33Z</time>
    </trkpt>
    <trkpt lat="48.436666" lon="2.721726">
      <ele>103.1</ele>
      <time>2014-09-14T09:10:38Z</time>
    </trkpt>
    <trkpt lat="48.436706" lon="2.72154">
      <ele>102.6</ele>
      <time>2014-09-14T09:10:41Z</time>
    </trkpt>
    <trkpt lat="48.436742" lon="2.721398">
      <ele>102.2</ele>
      <time>2014-09-14T09:10:43Z</time>
    </trkpt>
    <trkpt lat="48.436794" lon="2.721238">
      <ele>101.7</ele>
      <time>2014-09-14T09:10:46Z</time>
    </trkpt>
    <trkpt lat="48.436827" lon="2.721101">
      <ele>101.2</ele>
      <time>2014-09-14T09:10:48Z</time>
    </trkpt>
    <trkpt lat="48.436797" lon="2.720968">
      <ele>100.7</ele>
      <time>2014-09-14T09:10:51Z</time>
    </trkpt>
    <trkpt lat="48.436793" lon="2.720814">
      <ele>100.1</ele>
      <time>2014-09-14T09:10:54Z</time>
    </trkpt>
    <trkpt lat="48.436855" lon="2.720665">
      <ele>100.1</ele>
      <time>2014-09-14T09:10:57Z</time>
    </trkpt>
    <trkpt lat="48.436905" lon="2.720409">
      <ele>100.0</ele>
      <time>2014-09-14T09:11:00Z</time>
    </trkpt>
    <trkpt lat="48.436948" lon="2.720196">
      <ele>99.8</ele>
      <time>2014-09-14T09:11:04Z</time>
    </trkpt>
    <trkpt lat="48.43698" lon="2.720059">
      <ele>99.7</ele>
      <time>2014-09-14T09:11:06Z</time>
    </trkpt>
    <trkpt lat="48.436997" lon="2.719893">
      <ele>99.7</ele>
      <time>2014-09-14T09:11:10Z</time>
    </trkpt>
    <trkpt lat="48.437029" lon="2.71974">
      <ele>99.7</ele>
      <time>2014-09-14T09:11:13Z</time>
    </trkpt>
    <trkpt lat="48.437074" lon="2.719433">
      <ele>99.9</ele>
      <time>2014-09-14T09:11:22Z</time>
    </trkpt>
    <trkpt lat="48.437086" lon="2.719192">
      <ele>100.0</ele>
      <time>2014-09-14T09:11:26Z</time>
    </trkpt>
    <trkpt lat="48.437107" lon="2.719007">
      <ele>100.0</ele>
      <time>2014-09-14T09:11:29Z</time>
    </trkpt>
    <trkpt lat="48.437081" lon="2.718856">
      <ele>100.2</ele>
      <time>2014-09-14T09:11:35Z</time>
    </trkpt>
    <trkpt lat="48.437132" lon="2.7187">
      <ele>100.1</ele>
      <time>2014-09-14T09:11:40Z</time>
    </trkpt>
    <trkpt lat="48.437212" lon="2.718532">
      <ele>100.0</ele>
      <time>2014-09-14T09:11:42Z</time>
    </trkpt>
    <trkpt lat="48.437275" lon="2.71843">
      <ele>99.8</ele>
      <time>2014-09-14T09:11:44Z</time>
    </trkpt>
    <trkpt lat="48.437339" lon="2.718293">
      <ele>99.5</ele>
      <time>2014-09-14T09:11:46Z</time>
    </trkpt>
    <trkpt lat="48.437461" lon="2.718089">
      <ele>98.9</ele>
      <time>2014-09-14T09:11:50Z</time>
    </trkpt>
    <trkpt lat="48.437509" lon="2.717963">
      <ele>98.5</ele>
      <time>2014-09-14T09:11:52Z</time>
    </trkpt>
    <trkpt lat="48.437615" lon="2.717822">
      <ele>98.2</ele>
      <time>2014-09-14T09:11:55Z</time>
    </trkpt>
    <trkpt lat="48.437759" lon="2.71767">
      <ele>97.8</ele>
      <time>2014-09-14T09:11:59Z</time>
    </trkpt>
    <trkpt lat="48.437865" lon="2.717582">
      <ele>97.6</ele>
      <time>2014-09-14T09:12:01Z</time>
    </trkpt>
    <trkpt lat="48.437914" lon="2.717467">
      <ele>97.6</ele>
      <time>2014-09-14T09:12:03Z</time>
    </trkpt>
    <trkpt lat="48.437983" lon="2.717315">
      <ele>97.8</ele>
      <time>2014-09-14T09:12:05Z</time>
    </trkpt>
    <trkpt lat="48.438053" lon="2.717184">
      <ele>98.0</ele>
      <time>2014-09-14T09:12:08Z</time>
    </trkpt>
    <trkpt lat="48.438105" lon="2.716971">
      <ele>98.4</ele>
      <time>2014-09-14T09:12:11Z</time>
    </trkpt>
    <trkpt lat="48.438119" lon="2.716767">
      <ele>98.8</ele>
      <time>2014-09-14T09:12:14Z</time>
    </trkpt>
    <trkpt lat="48.438246" lon="2.716422">
      <ele>98.7</ele>
      <time>2014-09-14T09:12:20Z</time>
    </trkpt>
    <trkpt lat="48.438273" lon="2.716263">
      <ele>98.6</ele>
      <time>2014-09-14T09:12:24Z</time>
    </trkpt>
    <trkpt lat="48.438304" lon="2.716047">
      <ele>98.3</ele>
      <time>2014-09-14T09:12:27Z</time>
    </trkpt>
    <trkpt lat="48.438374" lon="2.7159">
      <ele>98.0</ele>
      <time>2014-09-14T09:12:30Z</time>
    </trkpt>
    <trkpt lat="48.438404" lon="2.715744">
      <ele>97.6</ele>
      <time>2014-09-14T09:12:34Z</time>
    </trkpt>
    <trkpt lat="48.438433" lon="2.715605">
      <ele>97.1</ele>
      <time>2014-09-14T09:12:43Z</time>
    </trkpt>
    <trkpt lat="48.438538" lon="2.715507">
      <ele>96.8</ele>
      <time>2014-09-14T09:12:47Z</time>
    </trkpt>
    <trkpt lat="48.438647" lon="2.715488">
      <ele>96.7</ele>
      <time>2014-09-14T09:12:50Z</time>
    </trkpt>
    <trkpt lat="48.438752" lon="2.71547">
      <ele>96.6</ele>
      <time>2014-09-14T09:12:54Z</time>
    </trkpt>
    <trkpt lat="48.438847" lon="2.715541">
      <ele>96.8</ele>
      <time>2014-09-14T09:12:58Z</time>
    </trkpt>
    <trkpt lat="48.438958" lon="2.715512">
      <ele>96.7</ele>
      <time>2014-09-14T09:13:01Z</time>
    </trkpt>
    <trkpt lat="48.439044" lon="2.715421">
      <ele>96.5</ele>
      <time>2014-09-14T09:13:04Z</time>
    </trkpt>
    <trkpt lat="48.439098" lon="2.715299">
      <ele>96.3</ele>
      <time>2014-09-14T09:13:08Z</time>
    </trkpt>
    <trkpt lat="48.439142" lon="2.715172">
      <ele>96.2</ele>
      <time>2014-09-14T09:13:11Z</time>
    </trkpt>
    <trkpt lat="48.439201" lon="2.715058">
      <ele>95.9</ele>
      <time>2014-09-14T09:13:13Z</time>
    </trkpt>
    <trkpt lat="48.43924" lon="2.714917">
      <ele>96.5</ele>
      <time>2014-09-14T09:13:16Z</time>
    </trkpt>
    <trkpt lat="48.439348" lon="2.714634">
      <ele>98.2</ele>
      <time>2014-09-14T09:13:32Z</time>
    </trkpt>
    <trkpt lat="48.43944" lon="2.714629">
      <ele>97.6</ele>
      <time>2014-09-14T09:13:41Z</time>
    </trkpt>
    <trkpt lat="48.439339" lon="2.714651">
      <ele>98.1</ele>
      <time>2014-09-14T09:14:03Z</time>
    </trkpt>
    <trkpt lat="48.439277" lon="2.714532">
      <ele>99.6</ele>
      <time>2014-09-14T09:14:12Z</time>
    </trkpt>
    <trkpt lat="48.439263" lon="2.714385">
      <ele>101.0</ele>
      <time>2014-09-14T09:14:37Z</time>
    </trkpt>
    <trkpt lat="48.439283" lon="2.714085">
      <ele>103.2</ele>
      <time>2014-09-14T09:15:07Z</time>
    </trkpt>
    <trkpt lat="48.43918" lon="2.71408">
      <ele>104.5</ele>
      <time>2014-09-14T09:15:21Z</time>
    </trkpt>
    <trkpt lat="48.439128" lon="2.713964">
      <ele>105.2</ele>
      <time>2014-09-14T09:15:40Z</time>
    </trkpt>
    <trkpt lat="48.439068" lon="2.713698">
      <ele>106.6</ele>
      <time>2014-09-14T09:16:04Z</time>
    </trkpt>
    <trkpt lat="48.439082" lon="2.713512">
      <ele>108.0</ele>
      <time>2014-09-14T09:20:32Z</time>
    </trkpt>
    <trkpt lat="48.439149" lon="2.713229">
      <ele>110.2</ele>
      <time>2014-09-14T09:20:39Z</time>
    </trkpt>
    <trkpt lat="48.439141" lon="2.713049">
      <ele>110.8</ele>
      <time>2014-09-14T09:20:42Z</time>
    </trkpt>
    <trkpt lat="48.439095" lon="2.712786">
      <ele>111.1</ele>
      <time>2014-09-14T09:20:45Z</time>
    </trkpt>
    <trkpt lat="48.43908" lon="2.712595">
      <ele>111.6</ele>
      <time>2014-09-14T09:20:47Z</time>
    </trkpt>
    <trkpt lat="48.439088" lon="2.712443">
      <ele>112.2</ele>
      <time>2014-09-14T09:20:51Z</time>
    </trkpt>
    <trkpt lat="48.439137" lon="2.712301">
      <ele>113.3</ele>
      <time>2014-09-14T09:20:55Z</time>
    </trkpt>
    <trkpt lat="48.439122" lon="2.712141">
      <ele>113.7</ele>
      <time>2014-09-14T09:20:59Z</time>
    </trkpt>
    <trkpt lat="48.439054" lon="2.712035">
      <ele>113.1</ele>
      <time>2014-09-14T09:21:05Z</time>
    </trkpt>
    <trkpt lat="48.439024" lon="2.71189">
      <ele>113.2</ele>
      <time>2014-09-14T09:21:09Z</time>
    </trkpt>
    <trkpt lat="48.439023" lon="2.711738">
      <ele>113.7</ele>
      <time>2014-09-14T09:21:12Z</time>
    </trkpt>
    <trkpt lat="48.438961" lon="2.711599">
      <ele>113.3</ele>
      <time>2014-09-14T09:21:16Z</time>
    </trkpt>
    <trkpt lat="48.438956" lon="2.711456">
      <ele>113.8</ele>
      <time>2014-09-14T09:21:20Z</time>
    </trkpt>
    <trkpt lat="48.439003" lon="2.711332">
      <ele>114.8</ele>
      <time>2014-09-14T09:21:24Z</time>
    </trkpt>
    <trkpt lat="48.439005" lon="2.711173">
      <ele>115.4</ele>
      <time>2014-09-14T09:21:30Z</time>
    </trkpt>
    <trkpt lat="48.438947" lon="2.711298">
      <ele>114.3</ele>
      <time>2014-09-14T09:25:52Z</time>
    </trkpt>
    <trkpt lat="48.43871" lon="2.711042">
      <ele>113.0</ele>
      <time>2014-09-14T09:31:26Z</time>
    </trkpt>
    <trkpt lat="48.438576" lon="2.710828">
      <ele>113.1</ele>
      <time>2014-09-14T09:31:30Z</time>
    </trkpt>
    <trkpt lat="48.4385" lon="2.710673">
      <ele>113.4</ele>
      <time>2014-09-14T09:31:33Z</time>
    </trkpt>
    <trkpt lat="48.43839" lon="2.710617">
      <ele>113.0</ele>
      <time>2014-09-14T09:31:35Z</time>
    </trkpt>
    <trkpt lat="48.438327" lon="2.710488">
      <ele>113.5</ele>
      <time>2014-09-14T09:31:38Z</time>
    </trkpt>
    <trkpt lat="48.43829" lon="2.710358">
      <ele>114.5</ele>
      <time>2014-09-14T09:31:41Z</time>
    </trkpt>
    <trkpt lat="48.43823" lon="2.710221">
      <ele>115.8</ele>
      <time>2014-09-14T09:31:47Z</time>
    </trkpt>
    <trkpt lat="48.438257" lon="2.710073">
      <ele>116.8</ele>
      <time>2014-09-14T09:31:52Z</time>
    </trkpt>
    <trkpt lat="48.438307" lon="2.709942">
      <ele>117.3</ele>
      <time>2014-09-14T09:31:56Z</time>
    </trkpt>
    <trkpt lat="48.438365" lon="2.709808">
      <ele>117.8</ele>
      <time>2014-09-14T09:32:00Z</time>
    </trkpt>
    <trkpt lat="48.438404" lon="2.70965">
      <ele>118.4</ele>
      <time>2014-09-14T09:32:04Z</time>
    </trkpt>
    <trkpt lat="48.438444" lon="2.709492">
      <ele>119.0</ele>
      <time>2014-09-14T09:32:09Z</time>
    </trkpt>
    <trkpt lat="48.438424" lon="2.709337">
      <ele>119.5</ele>
      <time>2014-09-14T09:32:16Z</time>
    </trkpt>
    <trkpt lat="48.438466" lon="2.709183">
      <ele>120.0</ele>
      <time>2014-09-14T09:32:20Z</time>
    </trkpt>
    <trkpt lat="48.43848" lon="2.709034">
      <ele>120.5</ele>
      <time>2014-09-14T09:32:23Z</time>
    </trkpt>
    <trkpt lat="48.438494" lon="2.70871">
      <ele>121.8</ele>
      <time>2014-09-14T09:32:29Z</time>
    </trkpt>
    <trkpt lat="48.438546" lon="2.708529">
      <ele>122.3</ele>
      <time>2014-09-14T09:32:33Z</time>
    </trkpt>
    <trkpt lat="48.438569" lon="2.708379">
      <ele>122.7</ele>
      <time>2014-09-14T09:32:37Z</time>
    </trkpt>
    <trkpt lat="48.438607" lon="2.708226">
      <ele>122.4</ele>
      <time>2014-09-14T09:32:40Z</time>
    </trkpt>
    <trkpt lat="48.438655" lon="2.707999">
      <ele>121.7</ele>
      <time>2014-09-14T09:32:44Z</time>
    </trkpt>
    <trkpt lat="48.438676" lon="2.707837">
      <ele>121.2</ele>
      <time>2014-09-14T09:32:47Z</time>
    </trkpt>
    <trkpt lat="48.438686" lon="2.70769">
      <ele>120.8</ele>
      <time>2014-09-14T09:32:49Z</time>
    </trkpt>
    <trkpt lat="48.438692" lon="2.70749">
      <ele>120.2</ele>
      <time>2014-09-14T09:32:52Z</time>
    </trkpt>
    <trkpt lat="48.438731" lon="2.707358">
      <ele>119.6</ele>
      <time>2014-09-14T09:32:56Z</time>
    </trkpt>
    <trkpt lat="48.438764" lon="2.707207">
      <ele>118.9</ele>
      <time>2014-09-14T09:33:38Z</time>
    </trkpt>
    <trkpt lat="48.438905" lon="2.706852">
      <ele>116.3</ele>
      <time>2014-09-14T09:33:47Z</time>
    </trkpt>
    <trkpt lat="48.438975" lon="2.706714">
      <ele>115.1</ele>
      <time>2014-09-14T09:33:49Z</time>
    </trkpt>
    <trkpt lat="48.438993" lon="2.706562">
      <ele>114.6</ele>
      <time>2014-09-14T09:33:51Z</time>
    </trkpt>
    <trkpt lat="48.439008" lon="2.706382">
      <ele>114.4</ele>
      <time>2014-09-14T09:33:54Z</time>
    </trkpt>
    <trkpt lat="48.439011" lon="2.70621">
      <ele>114.4</ele>
      <time>2014-09-14T09:33:56Z</time>
    </trkpt>
    <trkpt lat="48.439" lon="2.706065">
      <ele>114.5</ele>
      <time>2014-09-14T09:33:59Z</time>
    </trkpt>
    <trkpt lat="48.438998" lon="2.705903">
      <ele>114.4</ele>
      <time>2014-09-14T09:34:02Z</time>
    </trkpt>
    <trkpt lat="48.439051" lon="2.705773">
      <ele>113.5</ele>
      <time>2014-09-14T09:34:06Z</time>
    </trkpt>
    <trkpt lat="48.439094" lon="2.705629">
      <ele>112.6</ele>
      <time>2014-09-14T09:34:09Z</time>
    </trkpt>
    <trkpt lat="48.439164" lon="2.705462">
      <ele>111.2</ele>
      <time>2014-09-14T09:34:13Z</time>
    </trkpt>
    <trkpt lat="48.43916" lon="2.705302">
      <ele>110.8</ele>
      <time>2014-09-14T09:34:17Z</time>
    </trkpt>
    <trkpt lat="48.439183" lon="2.705164">
      <ele>110.6</ele>
      <time>2014-09-14T09:34:21Z</time>
    </trkpt>
    <trkpt lat="48.439194" lon="2.705011">
      <ele>110.4</ele>
      <time>2014-09-14T09:34:24Z</time>
    </trkpt>
    <trkpt lat="48.439215" lon="2.704848">
      <ele>110.4</ele>
      <time>2014-09-14T09:34:27Z</time>
    </trkpt>
    <trkpt lat="48.439183" lon="2.704679">
      <ele>109.8</ele>
      <time>2014-09-14T09:34:30Z</time>
    </trkpt>
    <trkpt lat="48.439154" lon="2.704547">
      <ele>109.6</ele>
      <time>2014-09-14T09:34:32Z</time>
    </trkpt>
    <trkpt lat="48.439115" lon="2.704379">
      <ele>109.9</ele>
      <time>2014-09-14T09:34:35Z</time>
    </trkpt>
    <trkpt lat="48.439067" lon="2.704207">
      <ele>110.3</ele>
      <time>2014-09-14T09:34:38Z</time>
    </trkpt>
    <trkpt lat="48.439038" lon="2.704022">
      <ele>111.5</ele>
      <time>2014-09-14T09:34:41Z</time>
    </trkpt>
    <trkpt lat="48.439078" lon="2.703665">
      <ele>113.2</ele>
      <time>2014-09-14T09:34:47Z</time>
    </trkpt>
    <trkpt lat="48.43911" lon="2.7035">
      <ele>113.8</ele>
      <time>2014-09-14T09:34:50Z</time>
    </trkpt>
    <trkpt lat="48.439194" lon="2.703371">
      <ele>113.8</ele>
      <time>2014-09-14T09:34:53Z</time>
    </trkpt>
    <trkpt lat="48.439299" lon="2.70325">
      <ele>114.4</ele>
      <time>2014-09-14T09:34:57Z</time>
    </trkpt>
    <trkpt lat="48.439431" lon="2.703166">
      <ele>114.5</ele>
      <time>2014-09-14T09:35:00Z</time>
    </trkpt>
    <trkpt lat="48.439563" lon="2.703074">
      <ele>114.4</ele>
      <time>2014-09-14T09:35:04Z</time>
    </trkpt>
    <trkpt lat="48.439609" lon="2.702882">
      <ele>114.7</ele>
      <time>2014-09-14T09:35:07Z</time>
    </trkpt>
    <trkpt lat="48.439683" lon="2.702707">
      <ele>114.5</ele>
      <time>2014-09-14T09:35:09Z</time>
    </trkpt>
    <trkpt lat="48.439727" lon="2.702557">
      <ele>114.2</ele>
      <time>2014-09-14T09:35:11Z</time>
    </trkpt>
    <trkpt lat="48.439726" lon="2.702372">
      <ele>114.4</ele>
      <time>2014-09-14T09:35:14Z</time>
    </trkpt>
    <trkpt lat="48.43974" lon="2.702158">
      <ele>114.3</ele>
      <time>2014-09-14T09:35:17Z</time>
    </trkpt>
    <trkpt lat="48.439728" lon="2.701956">
      <ele>114.7</ele>
      <time>2014-09-14T09:35:20Z</time>
    </trkpt>
    <trkpt lat="48.439755" lon="2.701818">
      <ele>114.3</ele>
      <time>2014-09-14T09:35:21Z</time>
    </trkpt>
    <trkpt lat="48.439808" lon="2.701679">
      <ele>113.5</ele>
      <time>2014-09-14T09:35:24Z</time>
    </trkpt>
    <trkpt lat="48.439855" lon="2.701493">
      <ele>112.2</ele>
      <time>2014-09-14T09:35:26Z</time>
    </trkpt>
    <trkpt lat="48.439867" lon="2.701303">
      <ele>111.5</ele>
      <time>2014-09-14T09:35:29Z</time>
    </trkpt>
    <trkpt lat="48.439861" lon="2.701117">
      <ele>111.2</ele>
      <time>2014-09-14T09:35:32Z</time>
    </trkpt>
    <trkpt lat="48.439889" lon="2.700872">
      <ele>110.3</ele>
      <time>2014-09-14T09:35:35Z</time>
    </trkpt>
    <trkpt lat="48.439934" lon="2.700704">
      <ele>109.4</ele>
      <time>2014-09-14T09:35:37Z</time>
    </trkpt>
    <trkpt lat="48.439961" lon="2.700538">
      <ele>108.6</ele>
      <time>2014-09-14T09:35:39Z</time>
    </trkpt>
    <trkpt lat="48.439997" lon="2.700382">
      <ele>107.9</ele>
      <time>2014-09-14T09:35:41Z</time>
    </trkpt>
    <trkpt lat="48.440058" lon="2.700055">
      <ele>107.1</ele>
      <time>2014-09-14T09:35:45Z</time>
    </trkpt>
    <trkpt lat="48.440064" lon="2.699822">
      <ele>106.9</ele>
      <time>2014-09-14T09:35:48Z</time>
    </trkpt>
    <trkpt lat="48.440108" lon="2.699702">
      <ele>106.7</ele>
      <time>2014-09-14T09:35:50Z</time>
    </trkpt>
    <trkpt lat="48.440177" lon="2.699609">
      <ele>106.5</ele>
      <time>2014-09-14T09:35:51Z</time>
    </trkpt>
    <trkpt lat="48.440046" lon="2.699616">
      <ele>106.9</ele>
      <time>2014-09-14T09:36:00Z</time>
    </trkpt>
    <trkpt lat="48.439904" lon="2.699553">
      <ele>107.6</ele>
      <time>2014-09-14T09:36:03Z</time>
    </trkpt>
    <trkpt lat="48.439792" lon="2.699579">
      <ele>108.2</ele>
      <time>2014-09-14T09:36:05Z</time>
    </trkpt>
    <trkpt lat="48.439701" lon="2.699625">
      <ele>108.8</ele>
      <time>2014-09-14T09:36:08Z</time>
    </trkpt>
    <trkpt lat="48.439605" lon="2.699628">
      <ele>109.4</ele>
      <time>2014-09-14T09:36:12Z</time>
    </trkpt>
    <trkpt lat="48.439511" lon="2.699689">
      <ele>109.9</ele>
      <time>2014-09-14T09:36:20Z</time>
    </trkpt>
    <trkpt lat="48.439419" lon="2.699787">
      <ele>110.5</ele>
      <time>2014-09-14T09:36:24Z</time>
    </trkpt>
    <trkpt lat="48.439338" lon="2.699925">
      <ele>111.0</ele>
      <time>2014-09-14T09:36:38Z</time>
    </trkpt>
    <trkpt lat="48.439263" lon="2.700009">
      <ele>111.5</ele>
      <time>2014-09-14T09:36:45Z</time>
    </trkpt>
    <trkpt lat="48.439167" lon="2.700287">
      <ele>114.1</ele>
      <time>2014-09-14T09:36:59Z</time>
    </trkpt>
    <trkpt lat="48.439065" lon="2.700253">
      <ele>115.3</ele>
      <time>2014-09-14T09:37:05Z</time>
    </trkpt>
    <trkpt lat="48.438986" lon="2.700332">
      <ele>116.9</ele>
      <time>2014-09-14T09:37:10Z</time>
    </trkpt>
    <trkpt lat="48.438891" lon="2.700403">
      <ele>118.6</ele>
      <time>2014-09-14T09:37:16Z</time>
    </trkpt>
    <trkpt lat="48.438799" lon="2.700361">
      <ele>119.6</ele>
      <time>2014-09-14T09:37:21Z</time>
    </trkpt>
    <trkpt lat="48.438714" lon="2.700297">
      <ele>120.6</ele>
      <time>2014-09-14T09:37:24Z</time>
    </trkpt>
    <trkpt lat="48.438629" lon="2.700245">
      <ele>121.7</ele>
      <time>2014-09-14T09:37:35Z</time>
    </trkpt>
    <trkpt lat="48.438531" lon="2.70023">
      <ele>123.1</ele>
      <time>2014-09-14T09:37:42Z</time>
    </trkpt>
    <trkpt lat="48.438445" lon="2.70032">
      <ele>124.4</ele>
      <time>2014-09-14T09:37:52Z</time>
    </trkpt>
    <trkpt lat="48.438287" lon="2.700513">
      <ele>126.4</ele>
      <time>2014-09-14T09:38:11Z</time>
    </trkpt>
    <trkpt lat="48.438211" lon="2.700605">
      <ele>127.0</ele>
      <time>2014-09-14T09:38:25Z</time>
    </trkpt>
    <trkpt lat="48.438126" lon="2.700654">
      <ele>127.8</ele>
      <time>2014-09-14T09:38:30Z</time>
    </trkpt>
    <trkpt lat="48.438123" lon="2.700803">
      <ele>128.0</ele>
      <time>2014-09-14T09:38:37Z</time>
    </trkpt>
    <trkpt lat="48.438029" lon="2.700901">
      <ele>129.5</ele>
      <time>2014-09-14T09:38:42Z</time>
    </trkpt>
    <trkpt lat="48.437991" lon="2.701059">
      <ele>131.2</ele>
      <time>2014-09-14T09:38:51Z</time>
    </trkpt>
    <trkpt lat="48.437983" lon="2.701211">
      <ele>132.6</ele>
      <time>2014-09-14T09:39:02Z</time>
    </trkpt>
    <trkpt lat="48.43787" lon="2.701453">
      <ele>135.0</ele>
      <time>2014-09-14T09:39:19Z</time>
    </trkpt>
    <trkpt lat="48.437842" lon="2.701583">
      <ele>136.0</ele>
      <time>2014-09-14T09:39:39Z</time>
    </trkpt>
    <trkpt lat="48.437812" lon="2.701714">
      <ele>136.8</ele>
      <time>2014-09-14T09:40:04Z</time>
    </trkpt>
    <trkpt lat="48.437692" lon="2.701918">
      <ele>137.8</ele>
      <time>2014-09-14T09:40:28Z</time>
    </trkpt>
    <trkpt lat="48.437641" lon="2.702039">
      <ele>138.5</ele>
      <time>2014-09-14T09:40:52Z</time>
    </trkpt>
    <trkpt lat="48.437663" lon="2.702195">
      <ele>139.1</ele>
      <time>2014-09-14T09:41:36Z</time>
    </trkpt>
    <trkpt lat="48.437599" lon="2.702513">
      <ele>140.6</ele>
      <time>2014-09-14T09:41:47Z</time>
    </trkpt>
    <trkpt lat="48.437536" lon="2.702626">
      <ele>140.4</ele>
      <time>2014-09-14T09:41:50Z</time>
    </trkpt>
    <trkpt lat="48.437452" lon="2.702731">
      <ele>140.0</ele>
      <time>2014-09-14T09:41:53Z</time>
    </trkpt>
    <trkpt lat="48.437344" lon="2.702931">
      <ele>139.1</ele>
      <time>2014-09-14T09:41:59Z</time>
    </trkpt>
    <trkpt lat="48.437259" lon="2.703024">
      <ele>138.8</ele>
      <time>2014-09-14T09:42:03Z</time>
    </trkpt>
    <trkpt lat="48.437189" lon="2.703131">
      <ele>138.7</ele>
      <time>2014-09-14T09:42:09Z</time>
    </trkpt>
    <trkpt lat="48.437115" lon="2.703311">
      <ele>138.9</ele>
      <time>2014-09-14T09:42:16Z</time>
    </trkpt>
    <trkpt lat="48.437053" lon="2.703529">
      <ele>138.6</ele>
      <time>2014-09-14T09:42:20Z</time>
    </trkpt>
    <trkpt lat="48.436983" lon="2.70368">
      <ele>138.6</ele>
      <time>2014-09-14T09:42:24Z</time>
    </trkpt>
    <trkpt lat="48.436921" lon="2.7038">
      <ele>138.7</ele>
      <time>2014-09-14T09:42:27Z</time>
    </trkpt>
    <trkpt lat="48.436866" lon="2.703948">
      <ele>138.8</ele>
      <time>2014-09-14T09:42:30Z</time>
    </trkpt>
    <trkpt lat="48.436907" lon="2.704134">
      <ele>138.3</ele>
      <time>2014-09-14T09:42:33Z</time>
    </trkpt>
    <trkpt lat="48.43701" lon="2.704311">
      <ele>138.1</ele>
      <time>2014-09-14T09:42:36Z</time>
    </trkpt>
    <trkpt lat="48.437077" lon="2.704469">
      <ele>138.3</ele>
      <time>2014-09-14T09:42:38Z</time>
    </trkpt>
    <trkpt lat="48.437201" lon="2.704769">
      <ele>138.8</ele>
      <time>2014-09-14T09:42:44Z</time>
    </trkpt>
    <trkpt lat="48.437266" lon="2.704935">
      <ele>139.1</ele>
      <time>2014-09-14T09:42:47Z</time>
    </trkpt>
    <trkpt lat="48.437308" lon="2.705071">
      <ele>139.2</ele>
      <time>2014-09-14T09:42:49Z</time>
    </trkpt>
    <trkpt lat="48.437349" lon="2.70522">
      <ele>139.2</ele>
      <time>2014-09-14T09:42:51Z</time>
    </trkpt>
    <trkpt lat="48.437406" lon="2.705383">
      <ele>139.0</ele>
      <time>2014-09-14T09:42:54Z</time>
    </trkpt>
    <trkpt lat="48.437469" lon="2.705555">
      <ele>138.9</ele>
      <time>2014-09-14T09:42:58Z</time>
    </trkpt>
    <trkpt lat="48.437548" lon="2.705684">
      <ele>138.0</ele>
      <time>2014-09-14T09:43:01Z</time>
    </trkpt>
    <trkpt lat="48.437655" lon="2.705805">
      <ele>136.2</ele>
      <time>2014-09-14T09:43:06Z</time>
    </trkpt>
    <trkpt lat="48.437747" lon="2.705893">
      <ele>134.3</ele>
      <time>2014-09-14T09:43:09Z</time>
    </trkpt>
    <trkpt lat="48.437832" lon="2.705968">
      <ele>132.5</ele>
      <time>2014-09-14T09:43:22Z</time>
    </trkpt>
    <trkpt lat="48.437774" lon="2.705835">
      <ele>134.1</ele>
      <time>2014-09-14T09:43:50Z</time>
    </trkpt>
    <trkpt lat="48.437606" lon="2.705715">
      <ele>137.0</ele>
      <time>2014-09-14T09:43:57Z</time>
    </trkpt>
    <trkpt lat="48.437506" lon="2.705726">
      <ele>138.8</ele>
      <time>2014-09-14T09:44:01Z</time>
    </trkpt>
    <trkpt lat="48.437369" lon="2.705725">
      <ele>139.7</ele>
      <time>2014-09-14T09:44:05Z</time>
    </trkpt>
    <trkpt lat="48.437253" lon="2.705819">
      <ele>140.5</ele>
      <time>2014-09-14T09:44:08Z</time>
    </trkpt>
    <trkpt lat="48.4372" lon="2.70595">
      <ele>140.4</ele>
      <time>2014-09-14T09:44:11Z</time>
    </trkpt>
    <trkpt lat="48.43722" lon="2.706087">
      <ele>139.9</ele>
      <time>2014-09-14T09:44:15Z</time>
    </trkpt>
    <trkpt lat="48.437173" lon="2.706263">
      <ele>139.6</ele>
      <time>2014-09-14T09:44:20Z</time>
    </trkpt>
    <trkpt lat="48.437112" lon="2.706368">
      <ele>139.7</ele>
      <time>2014-09-14T09:44:27Z</time>
    </trkpt>
    <trkpt lat="48.437089" lon="2.706527">
      <ele>139.4</ele>
      <time>2014-09-14T09:44:33Z</time>
    </trkpt>
    <trkpt lat="48.437036" lon="2.706661">
      <ele>139.4</ele>
      <time>2014-09-14T09:44:35Z</time>
    </trkpt>
    <trkpt lat="48.437043" lon="2.706812">
      <ele>139.3</ele>
      <time>2014-09-14T09:44:37Z</time>
    </trkpt>
    <trkpt lat="48.437009" lon="2.706992">
      <ele>139.5</ele>
      <time>2014-09-14T09:44:40Z</time>
    </trkpt>
    <trkpt lat="48.436983" lon="2.707135">
      <ele>139.7</ele>
      <time>2014-09-14T09:44:43Z</time>
    </trkpt>
    <trkpt lat="48.437019" lon="2.707305">
      <ele>139.5</ele>
      <time>2014-09-14T09:44:46Z</time>
    </trkpt>
    <trkpt lat="48.437104" lon="2.70739">
      <ele>138.9</ele>
      <time>2014-09-14T09:44:48Z</time>
    </trkpt>
    <trkpt lat="48.437267" lon="2.707433">
      <ele>137.7</ele>
      <time>2014-09-14T09:44:52Z</time>
    </trkpt>
    <trkpt lat="48.437518" lon="2.707598">
      <ele>135.7</ele>
      <time>2014-09-14T09:44:59Z</time>
    </trkpt>
    <trkpt lat="48.437605" lon="2.707682">
      <ele>134.3</ele>
      <time>2014-09-14T09:45:02Z</time>
    </trkpt>
    <trkpt lat="48.437688" lon="2.707765">
      <ele>133.0</ele>
      <time>2014-09-14T09:45:04Z</time>
    </trkpt>
    <trkpt lat="48.437741" lon="2.707901">
      <ele>132.2</ele>
      <time>2014-09-14T09:45:07Z</time>
    </trkpt>
    <trkpt lat="48.437779" lon="2.708076">
      <ele>131.8</ele>
      <time>2014-09-14T09:45:10Z</time>
    </trkpt>
    <trkpt lat="48.437748" lon="2.708245">
      <ele>132.4</ele>
      <time>2014-09-14T09:45:13Z</time>
    </trkpt>
    <trkpt lat="48.437667" lon="2.708308">
      <ele>133.6</ele>
      <time>2014-09-14T09:45:15Z</time>
    </trkpt>
    <trkpt lat="48.437557" lon="2.708316">
      <ele>135.2</ele>
      <time>2014-09-14T09:45:17Z</time>
    </trkpt>
    <trkpt lat="48.4374" lon="2.708329">
      <ele>136.7</ele>
      <time>2014-09-14T09:45:20Z</time>
    </trkpt>
    <trkpt lat="48.437284" lon="2.708284">
      <ele>137.6</ele>
      <time>2014-09-14T09:45:22Z</time>
    </trkpt>
    <trkpt lat="48.437188" lon="2.708271">
      <ele>138.2</ele>
      <time>2014-09-14T09:45:24Z</time>
    </trkpt>
    <trkpt lat="48.437013" lon="2.70838">
      <ele>139.1</ele>
      <time>2014-09-14T09:45:28Z</time>
    </trkpt>
    <trkpt lat="48.436898" lon="2.708537">
      <ele>138.7</ele>
      <time>2014-09-14T09:45:31Z</time>
    </trkpt>
    <trkpt lat="48.436818" lon="2.708631">
      <ele>138.5</ele>
      <time>2014-09-14T09:45:33Z</time>
    </trkpt>
    <trkpt lat="48.436771" lon="2.708763">
      <ele>137.7</ele>
      <time>2014-09-14T09:45:36Z</time>
    </trkpt>
    <trkpt lat="48.436692" lon="2.708971">
      <ele>136.5</ele>
      <time>2014-09-14T09:45:37Z</time>
    </trkpt>
    <trkpt lat="48.436627" lon="2.709085">
      <ele>135.7</ele>
      <time>2014-09-14T09:45:40Z</time>
    </trkpt>
    <trkpt lat="48.436529" lon="2.709256">
      <ele>134.3</ele>
      <time>2014-09-14T09:45:42Z</time>
    </trkpt>
    <trkpt lat="48.436462" lon="2.709357">
      <ele>133.4</ele>
      <time>2014-09-14T09:45:43Z</time>
    </trkpt>
    <trkpt lat="48.436388" lon="2.709502">
      <ele>132.3</ele>
      <time>2014-09-14T09:45:45Z</time>
    </trkpt>
    <trkpt lat="48.4363" lon="2.709651">
      <ele>131.2</ele>
      <time>2014-09-14T09:45:47Z</time>
    </trkpt>
    <trkpt lat="48.436209" lon="2.709824">
      <ele>130.2</ele>
      <time>2014-09-14T09:45:49Z</time>
    </trkpt>
    <trkpt lat="48.436138" lon="2.70991">
      <ele>129.9</ele>
      <time>2014-09-14T09:45:50Z</time>
    </trkpt>
    <trkpt lat="48.436053" lon="2.710062">
      <ele>129.0</ele>
      <time>2014-09-14T09:45:52Z</time>
    </trkpt>
    <trkpt lat="48.435904" lon="2.71041">
      <ele>126.6</ele>
      <time>2014-09-14T09:45:57Z</time>
    </trkpt>
    <trkpt lat="48.435837" lon="2.710502">
      <ele>126.2</ele>
      <time>2014-09-14T09:45:59Z</time>
    </trkpt>
    <trkpt lat="48.435722" lon="2.710594">
      <ele>124.8</ele>
      <time>2014-09-14T09:46:01Z</time>
    </trkpt>
    <trkpt lat="48.435568" lon="2.710658">
      <ele>123.7</ele>
      <time>2014-09-14T09:46:04Z</time>
    </trkpt>
    <trkpt lat="48.435468" lon="2.710691">
      <ele>123.1</ele>
      <time>2014-09-14T09:46:06Z</time>
    </trkpt>
    <trkpt lat="48.43534" lon="2.710795">
      <ele>122.0</ele>
      <time>2014-09-14T09:46:08Z</time>
    </trkpt>
    <trkpt lat="48.435174" lon="2.710854">
      <ele>121.3</ele>
      <time>2014-09-14T09:46:10Z</time>
    </trkpt>
    <trkpt lat="48.435045" lon="2.710819">
      <ele>121.2</ele>
      <time>2014-09-14T09:46:12Z</time>
    </trkpt>
    <trkpt lat="48.434944" lon="2.71074">
      <ele>121.7</ele>
      <time>2014-09-14T09:46:14Z</time>
    </trkpt>
    <trkpt lat="48.434878" lon="2.710641">
      <ele>122.5</ele>
      <time>2014-09-14T09:46:16Z</time>
    </trkpt>
    <trkpt lat="48.434795" lon="2.710564">
      <ele>123.2</ele>
      <time>2014-09-14T09:46:19Z</time>
    </trkpt>
    <trkpt lat="48.434748" lon="2.710434">
      <ele>123.8</ele>
      <time>2014-09-14T09:46:22Z</time>
    </trkpt>
    <trkpt lat="48.434733" lon="2.710299">
      <ele>124.2</ele>
      <time>2014-09-14T09:48:16Z</time>
    </trkpt>
    <trkpt lat="48.434692" lon="2.70996">
      <ele>125.2</ele>
      <time>2014-09-14T09:48:22Z</time>
    </trkpt>
    <trkpt lat="48.434713" lon="2.709714">
      <ele>125.7</ele>
      <time>2014-09-14T09:48:27Z</time>
    </trkpt>
    <trkpt lat="48.434671" lon="2.709577">
      <ele>126.2</ele>
      <time>2014-09-14T09:48:29Z</time>
    </trkpt>
    <trkpt lat="48.434645" lon="2.709415">
      <ele>126.7</ele>
      <time>2014-09-14T09:48:32Z</time>
    </trkpt>
    <trkpt lat="48.434622" lon="2.709227">
      <ele>127.2</ele>
      <time>2014-09-14T09:48:35Z</time>
    </trkpt>
    <trkpt lat="48.434607" lon="2.709046">
      <ele>127.7</ele>
      <time>2014-09-14T09:48:38Z</time>
    </trkpt>
    <trkpt lat="48.434624" lon="2.708898">
      <ele>128.0</ele>
      <time>2014-09-14T09:48:41Z</time>
    </trkpt>
    <trkpt lat="48.434607" lon="2.708722">
      <ele>128.5</ele>
      <time>2014-09-14T09:48:45Z</time>
    </trkpt>
    <trkpt lat="48.434578" lon="2.708593">
      <ele>128.9</ele>
      <time>2014-09-14T09:48:48Z</time>
    </trkpt>
    <trkpt lat="48.434539" lon="2.708449">
      <ele>129.5</ele>
      <time>2014-09-14T09:48:52Z</time>
    </trkpt>
    <trkpt lat="48.43451" lon="2.70832">
      <ele>130.0</ele>
      <time>2014-09-14T09:48:55Z</time>
    </trkpt>
    <trkpt lat="48.434467" lon="2.708181">
      <ele>130.4</ele>
      <time>2014-09-14T09:48:58Z</time>
    </trkpt>
    <trkpt lat="48.434457" lon="2.708029">
      <ele>130.8</ele>
      <time>2014-09-14T09:49:02Z</time>
    </trkpt>
    <trkpt lat="48.434461" lon="2.707882">
      <ele>131.0</ele>
      <time>2014-09-14T09:49:06Z</time>
    </trkpt>
    <trkpt lat="48.434476" lon="2.707746">
      <ele>131.1</ele>
      <time>2014-09-14T09:49:12Z</time>
    </trkpt>
    <trkpt lat="48.434438" lon="2.707579">
      <ele>131.6</ele>
      <time>2014-09-14T09:49:18Z</time>
    </trkpt>
    <trkpt lat="48.434419" lon="2.707282">
      <ele>132.0</ele>
      <time>2014-09-14T09:49:30Z</time>
    </trkpt>
    <trkpt lat="48.43436" lon="2.707144">
      <ele>132.4</ele>
      <time>2014-09-14T09:49:38Z</time>
    </trkpt>
    <trkpt lat="48.434317" lon="2.706969">
      <ele>132.6</ele>
      <time>2014-09-14T09:49:42Z</time>
    </trkpt>
    <trkpt lat="48.434336" lon="2.706833">
      <ele>132.7</ele>
      <time>2014-09-14T09:49:47Z</time>
    </trkpt>
    <trkpt lat="48.434354" lon="2.706695">
      <ele>132.8</ele>
      <time>2014-09-14T09:49:53Z</time>
    </trkpt>
    <trkpt lat="48.434317" lon="2.70657">
      <ele>133.1</ele>
      <time>2014-09-14T09:49:59Z</time>
    </trkpt>
    <trkpt lat="48.43424" lon="2.706464">
      <ele>133.6</ele>
      <time>2014-09-14T09:50:10Z</time>
    </trkpt>
    <trkpt lat="48.434158" lon="2.706394">
      <ele>134.0</ele>
      <time>2014-09-14T09:50:19Z</time>
    </trkpt>
    <trkpt lat="48.434044" lon="2.706183">
      <ele>135.2</ele>
      <time>2014-09-14T09:50:30Z</time>
    </trkpt>
    <trkpt lat="48.434006" lon="2.706033">
      <ele>136.0</ele>
      <time>2014-09-14T09:50:39Z</time>
    </trkpt>
    <trkpt lat="48.43394" lon="2.705926">
      <ele>136.7</ele>
      <time>2014-09-14T09:50:45Z</time>
    </trkpt>
    <trkpt lat="48.43385" lon="2.705895">
      <ele>137.2</ele>
      <time>2014-09-14T09:50:52Z</time>
    </trkpt>
    <trkpt lat="48.433724" lon="2.70588">
      <ele>137.9</ele>
      <time>2014-09-14T09:50:57Z</time>
    </trkpt>
    <trkpt lat="48.433605" lon="2.705883">
      <ele>138.4</ele>
      <time>2014-09-14T09:51:04Z</time>
    </trkpt>
    <trkpt lat="48.433483" lon="2.705957">
      <ele>138.6</ele>
      <time>2014-09-14T09:51:10Z</time>
    </trkpt>
    <trkpt lat="48.433398" lon="2.706029">
      <ele>138.6</ele>
      <time>2014-09-14T09:51:12Z</time>
    </trkpt>
    <trkpt lat="48.433304" lon="2.706068">
      <ele>138.7</ele>
      <time>2014-09-14T09:51:15Z</time>
    </trkpt>
    <trkpt lat="48.433184" lon="2.706088">
      <ele>139.0</ele>
      <time>2014-09-14T09:51:19Z</time>
    </trkpt>
    <trkpt lat="48.432965" lon="2.706104">
      <ele>139.7</ele>
      <time>2014-09-14T09:51:28Z</time>
    </trkpt>
    <trkpt lat="48.432834" lon="2.706111">
      <ele>140.1</ele>
      <time>2014-09-14T09:51:32Z</time>
    </trkpt>
    <trkpt lat="48.432729" lon="2.706102">
      <ele>140.6</ele>
      <time>2014-09-14T09:51:35Z</time>
    </trkpt>
    <trkpt lat="48.432603" lon="2.706131">
      <ele>140.8</ele>
      <time>2014-09-14T09:51:39Z</time>
    </trkpt>
    <trkpt lat="48.432508" lon="2.706133">
      <ele>141.2</ele>
      <time>2014-09-14T09:51:42Z</time>
    </trkpt>
    <trkpt lat="48.432383" lon="2.706151">
      <ele>141.4</ele>
      <time>2014-09-14T09:51:48Z</time>
    </trkpt>
    <trkpt lat="48.432306" lon="2.706234">
      <ele>141.2</ele>
      <time>2014-09-14T09:51:52Z</time>
    </trkpt>
    <trkpt lat="48.43225" lon="2.706354">
      <ele>140.7</ele>
      <time>2014-09-14T09:51:55Z</time>
    </trkpt>
    <trkpt lat="48.432187" lon="2.706456">
      <ele>140.3</ele>
      <time>2014-09-14T09:51:59Z</time>
    </trkpt>
    <trkpt lat="48.4321" lon="2.706516">
      <ele>140.3</ele>
      <time>2014-09-14T09:52:01Z</time>
    </trkpt>
    <trkpt lat="48.431974" lon="2.706531">
      <ele>140.6</ele>
      <time>2014-09-14T09:52:04Z</time>
    </trkpt>
    <trkpt lat="48.431856" lon="2.706567">
      <ele>140.8</ele>
      <time>2014-09-14T09:52:07Z</time>
    </trkpt>
    <trkpt lat="48.431765" lon="2.706606">
      <ele>140.9</ele>
      <time>2014-09-14T09:52:09Z</time>
    </trkpt>
    <trkpt lat="48.431656" lon="2.706686">
      <ele>141.0</ele>
      <time>2014-09-14T09:52:12Z</time>
    </trkpt>
    <trkpt lat="48.431547" lon="2.706735">
      <ele>141.3</ele>
      <time>2014-09-14T09:52:14Z</time>
    </trkpt>
    <trkpt lat="48.431472" lon="2.706852">
      <ele>141.2</ele>
      <time>2014-09-14T09:52:19Z</time>
    </trkpt>
    <trkpt lat="48.431356" lon="2.706885">
      <ele>141.5</ele>
      <time>2014-09-14T09:52:22Z</time>
    </trkpt>
    <trkpt lat="48.431073" lon="2.706953">
      <ele>142.2</ele>
      <time>2014-09-14T09:52:28Z</time>
    </trkpt>
    <trkpt lat="48.430974" lon="2.706886">
      <ele>142.7</ele>
      <time>2014-09-14T09:52:39Z</time>
    </trkpt>
    <trkpt lat="48.43088" lon="2.706864">
      <ele>143.1</ele>
      <time>2014-09-14T09:52:41Z</time>
    </trkpt>
    <trkpt lat="48.430767" lon="2.706839">
      <ele>143.5</ele>
      <time>2014-09-14T09:52:46Z</time>
    </trkpt>
    <trkpt lat="48.430666" lon="2.706779">
      <ele>143.9</ele>
      <time>2014-09-14T09:52:49Z</time>
    </trkpt>
    <trkpt lat="48.430566" lon="2.706734">
      <ele>144.2</ele>
      <time>2014-09-14T09:52:51Z</time>
    </trkpt>
    <trkpt lat="48.430465" lon="2.706719">
      <ele>144.3</ele>
      <time>2014-09-14T09:52:53Z</time>
    </trkpt>
    <trkpt lat="48.430353" lon="2.706824">
      <ele>144.3</ele>
      <time>2014-09-14T09:52:56Z</time>
    </trkpt>
    <trkpt lat="48.430249" lon="2.706894">
      <ele>144.5</ele>
      <time>2014-09-14T09:52:59Z</time>
    </trkpt>
    <trkpt lat="48.430147" lon="2.706956">
      <ele>144.6</ele>
      <time>2014-09-14T09:53:02Z</time>
    </trkpt>
    <trkpt lat="48.430083" lon="2.707071">
      <ele>144.8</ele>
      <time>2014-09-14T09:53:05Z</time>
    </trkpt>
    <trkpt lat="48.429976" lon="2.707169">
      <ele>145.2</ele>
      <time>2014-09-14T09:53:08Z</time>
    </trkpt>
    <trkpt lat="48.429888" lon="2.707213">
      <ele>145.8</ele>
      <time>2014-09-14T09:53:10Z</time>
    </trkpt>
    <trkpt lat="48.429792" lon="2.707296">
      <ele>146.4</ele>
      <time>2014-09-14T09:53:13Z</time>
    </trkpt>
    <trkpt lat="48.429683" lon="2.707363">
      <ele>147.2</ele>
      <time>2014-09-14T09:53:15Z</time>
    </trkpt>
    <trkpt lat="48.429571" lon="2.707408">
      <ele>148.0</ele>
      <time>2014-09-14T09:53:18Z</time>
    </trkpt>
    <trkpt lat="48.429457" lon="2.707428">
      <ele>148.9</ele>
      <time>2014-09-14T09:53:21Z</time>
    </trkpt>
    <trkpt lat="48.429349" lon="2.707471">
      <ele>149.7</ele>
      <time>2014-09-14T09:53:24Z</time>
    </trkpt>
    <trkpt lat="48.429051" lon="2.707495">
      <ele>151.1</ele>
      <time>2014-09-14T09:53:32Z</time>
    </trkpt>
    <trkpt lat="48.428952" lon="2.707473">
      <ele>151.2</ele>
      <time>2014-09-14T09:53:35Z</time>
    </trkpt>
    <trkpt lat="48.42886" lon="2.707504">
      <ele>151.4</ele>
      <time>2014-09-14T09:53:38Z</time>
    </trkpt>
    <trkpt lat="48.428749" lon="2.707556">
      <ele>151.4</ele>
      <time>2014-09-14T09:53:42Z</time>
    </trkpt>
    <trkpt lat="48.428639" lon="2.707606">
      <ele>151.5</ele>
      <time>2014-09-14T09:53:45Z</time>
    </trkpt>
    <trkpt lat="48.428551" lon="2.707581">
      <ele>151.6</ele>
      <time>2014-09-14T09:53:48Z</time>
    </trkpt>
    <trkpt lat="48.428425" lon="2.707626">
      <ele>151.7</ele>
      <time>2014-09-14T09:53:53Z</time>
    </trkpt>
    <trkpt lat="48.428288" lon="2.707659">
      <ele>151.8</ele>
      <time>2014-09-14T09:53:56Z</time>
    </trkpt>
    <trkpt lat="48.428182" lon="2.707613">
      <ele>151.9</ele>
      <time>2014-09-14T09:54:01Z</time>
    </trkpt>
    <trkpt lat="48.428085" lon="2.707627">
      <ele>151.9</ele>
      <time>2014-09-14T09:54:05Z</time>
    </trkpt>
    <trkpt lat="48.42798" lon="2.707642">
      <ele>152.0</ele>
      <time>2014-09-14T09:54:10Z</time>
    </trkpt>
    <trkpt lat="48.427872" lon="2.707645">
      <ele>152.0</ele>
      <time>2014-09-14T09:54:13Z</time>
    </trkpt>
    <trkpt lat="48.427757" lon="2.707645">
      <ele>152.1</ele>
      <time>2014-09-14T09:54:16Z</time>
    </trkpt>
    <trkpt lat="48.42765" lon="2.707622">
      <ele>152.1</ele>
      <time>2014-09-14T09:54:19Z</time>
    </trkpt>
    <trkpt lat="48.427535" lon="2.707625">
      <ele>152.1</ele>
      <time>2014-09-14T09:54:24Z</time>
    </trkpt>
    <trkpt lat="48.427433" lon="2.707627">
      <ele>152.0</ele>
      <time>2014-09-14T09:54:27Z</time>
    </trkpt>
    <trkpt lat="48.427203" lon="2.707497">
      <ele>151.3</ele>
      <time>2014-09-14T09:54:33Z</time>
    </trkpt>
    <trkpt lat="48.427111" lon="2.707587">
      <ele>151.1</ele>
      <time>2014-09-14T09:54:36Z</time>
    </trkpt>
    <trkpt lat="48.427019" lon="2.707642">
      <ele>150.9</ele>
      <time>2014-09-14T09:54:39Z</time>
    </trkpt>
    <trkpt lat="48.426916" lon="2.707644">
      <ele>150.7</ele>
      <time>2014-09-14T09:54:42Z</time>
    </trkpt>
    <trkpt lat="48.426797" lon="2.707662">
      <ele>150.3</ele>
      <time>2014-09-14T09:54:45Z</time>
    </trkpt>
    <trkpt lat="48.426702" lon="2.707683">
      <ele>150.1</ele>
      <time>2014-09-14T09:54:47Z</time>
    </trkpt>
    <trkpt lat="48.426516" lon="2.707742">
      <ele>149.4</ele>
      <time>2014-09-14T09:54:50Z</time>
    </trkpt>
    <trkpt lat="48.426386" lon="2.707811">
      <ele>149.0</ele>
      <time>2014-09-14T09:54:54Z</time>
    </trkpt>
    <trkpt lat="48.426295" lon="2.707857">
      <ele>148.8</ele>
      <time>2014-09-14T09:54:56Z</time>
    </trkpt>
    <trkpt lat="48.42618" lon="2.70788">
      <ele>148.5</ele>
      <time>2014-09-14T09:54:58Z</time>
    </trkpt>
    <trkpt lat="48.426073" lon="2.707895">
      <ele>148.2</ele>
      <time>2014-09-14T09:55:00Z</time>
    </trkpt>
    <trkpt lat="48.425944" lon="2.707944">
      <ele>147.9</ele>
      <time>2014-09-14T09:55:03Z</time>
    </trkpt>
    <trkpt lat="48.425845" lon="2.707989">
      <ele>147.8</ele>
      <time>2014-09-14T09:55:05Z</time>
    </trkpt>
    <trkpt lat="48.425743" lon="2.708042">
      <ele>147.1</ele>
      <time>2014-09-14T09:55:07Z</time>
    </trkpt>
    <trkpt lat="48.425694" lon="2.7082">
      <ele>147.1</ele>
      <time>2014-09-14T09:55:11Z</time>
    </trkpt>
    <trkpt lat="48.425646" lon="2.708393">
      <ele>147.1</ele>
      <time>2014-09-14T09:55:14Z</time>
    </trkpt>
    <trkpt lat="48.425559" lon="2.708514">
      <ele>146.5</ele>
      <time>2014-09-14T09:55:16Z</time>
    </trkpt>
    <trkpt lat="48.425493" lon="2.708689">
      <ele>146.3</ele>
      <time>2014-09-14T09:55:21Z</time>
    </trkpt>
    <trkpt lat="48.425415" lon="2.70878">
      <ele>145.8</ele>
      <time>2014-09-14T09:55:24Z</time>
    </trkpt>
    <trkpt lat="48.425326" lon="2.708934">
      <ele>145.6</ele>
      <time>2014-09-14T09:55:27Z</time>
    </trkpt>
    <trkpt lat="48.425235" lon="2.709186">
      <ele>145.8</ele>
      <time>2014-09-14T09:55:39Z</time>
    </trkpt>
    <trkpt lat="48.425114" lon="2.70918">
      <ele>144.9</ele>
      <time>2014-09-14T09:56:56Z</time>
    </trkpt>
    <trkpt lat="48.424991" lon="2.708925">
      <ele>142.8</ele>
      <time>2014-09-14T09:57:02Z</time>
    </trkpt>
    <trkpt lat="48.424877" lon="2.708803">
      <ele>141.9</ele>
      <time>2014-09-14T09:57:07Z</time>
    </trkpt>
    <trkpt lat="48.424777" lon="2.708727">
      <ele>141.4</ele>
      <time>2014-09-14T09:57:11Z</time>
    </trkpt>
    <trkpt lat="48.424677" lon="2.708639">
      <ele>140.9</ele>
      <time>2014-09-14T09:57:14Z</time>
    </trkpt>
    <trkpt lat="48.424587" lon="2.708534">
      <ele>140.5</ele>
      <time>2014-09-14T09:57:17Z</time>
    </trkpt>
    <trkpt lat="48.424487" lon="2.708431">
      <ele>140.2</ele>
      <time>2014-09-14T09:57:20Z</time>
    </trkpt>
    <trkpt lat="48.424378" lon="2.708329">
      <ele>140.0</ele>
      <time>2014-09-14T09:57:23Z</time>
    </trkpt>
    <trkpt lat="48.42428" lon="2.708237">
      <ele>140.4</ele>
      <time>2014-09-14T09:57:26Z</time>
    </trkpt>
    <trkpt lat="48.424198" lon="2.708145">
      <ele>140.9</ele>
      <time>2014-09-14T09:57:30Z</time>
    </trkpt>
    <trkpt lat="48.42422" lon="2.708303">
      <ele>140.1</ele>
      <time>2014-09-14T09:57:37Z</time>
    </trkpt>
    <trkpt lat="48.424256" lon="2.708478">
      <ele>140.1</ele>
      <time>2014-09-14T09:57:43Z</time>
    </trkpt>
    <trkpt lat="48.424218" lon="2.708622">
      <ele>140.1</ele>
      <time>2014-09-14T09:57:46Z</time>
    </trkpt>
    <trkpt lat="48.424165" lon="2.708746">
      <ele>140.0</ele>
      <time>2014-09-14T09:57:49Z</time>
    </trkpt>
    <trkpt lat="48.424105" lon="2.708883">
      <ele>140.4</ele>
      <time>2014-09-14T09:57:53Z</time>
    </trkpt>
    <trkpt lat="48.424022" lon="2.708969">
      <ele>140.8</ele>
      <time>2014-09-14T09:57:56Z</time>
    </trkpt>
    <trkpt lat="48.423814" lon="2.709118">
      <ele>141.8</ele>
      <time>2014-09-14T09:58:02Z</time>
    </trkpt>
    <trkpt lat="48.423723" lon="2.709172">
      <ele>142.1</ele>
      <time>2014-09-14T09:58:04Z</time>
    </trkpt>
    <trkpt lat="48.423622" lon="2.709231">
      <ele>142.3</ele>
      <time>2014-09-14T09:58:07Z</time>
    </trkpt>
    <trkpt lat="48.423519" lon="2.70928">
      <ele>142.4</ele>
      <time>2014-09-14T09:58:09Z</time>
    </trkpt>
    <trkpt lat="48.423398" lon="2.709312">
      <ele>142.5</ele>
      <time>2014-09-14T09:58:12Z</time>
    </trkpt>
    <trkpt lat="48.423289" lon="2.709249">
      <ele>143.1</ele>
      <time>2014-09-14T09:58:14Z</time>
    </trkpt>
    <trkpt lat="48.423197" lon="2.709199">
      <ele>143.5</ele>
      <time>2014-09-14T09:58:16Z</time>
    </trkpt>
    <trkpt lat="48.423114" lon="2.709116">
      <ele>143.9</ele>
      <time>2014-09-14T09:58:18Z</time>
    </trkpt>
    <trkpt lat="48.423025" lon="2.709038">
      <ele>144.2</ele>
      <time>2014-09-14T09:58:20Z</time>
    </trkpt>
    <trkpt lat="48.422967" lon="2.708932">
      <ele>144.5</ele>
      <time>2014-09-14T09:58:22Z</time>
    </trkpt>
    <trkpt lat="48.422868" lon="2.708858">
      <ele>144.8</ele>
      <time>2014-09-14T09:58:24Z</time>
    </trkpt>
    <trkpt lat="48.422779" lon="2.708817">
      <ele>144.9</ele>
      <time>2014-09-14T09:58:26Z</time>
    </trkpt>
    <trkpt lat="48.42268" lon="2.708779">
      <ele>145.0</ele>
      <time>2014-09-14T09:58:29Z</time>
    </trkpt>
    <trkpt lat="48.422597" lon="2.708724">
      <ele>145.2</ele>
      <time>2014-09-14T09:58:32Z</time>
    </trkpt>
    <trkpt lat="48.422483" lon="2.708638">
      <ele>145.3</ele>
      <time>2014-09-14T09:58:35Z</time>
    </trkpt>
    <trkpt lat="48.422384" lon="2.708496">
      <ele>144.4</ele>
      <time>2014-09-14T09:58:38Z</time>
    </trkpt>
    <trkpt lat="48.422303" lon="2.708425">
      <ele>143.6</ele>
      <time>2014-09-14T09:58:41Z</time>
    </trkpt>
    <trkpt lat="48.422178" lon="2.708455">
      <ele>141.5</ele>
      <time>2014-09-14T09:58:46Z</time>
    </trkpt>
    <trkpt lat="48.422042" lon="2.708476">
      <ele>139.2</ele>
      <time>2014-09-14T09:58:49Z</time>
    </trkpt>
    <trkpt lat="48.42195" lon="2.708499">
      <ele>137.6</ele>
      <time>2014-09-14T09:58:51Z</time>
    </trkpt>
    <trkpt lat="48.421828" lon="2.708501">
      <ele>135.7</ele>
      <time>2014-09-14T09:58:53Z</time>
    </trkpt>
    <trkpt lat="48.421718" lon="2.708503">
      <ele>134.0</ele>
      <time>2014-09-14T09:58:55Z</time>
    </trkpt>
    <trkpt lat="48.421628" lon="2.708402">
      <ele>133.4</ele>
      <time>2014-09-14T09:58:58Z</time>
    </trkpt>
    <trkpt lat="48.421422" lon="2.708338">
      <ele>129.4</ele>
      <time>2014-09-14T09:59:04Z</time>
    </trkpt>
    <trkpt lat="48.421315" lon="2.708381">
      <ele>126.6</ele>
      <time>2014-09-14T09:59:07Z</time>
    </trkpt>
    <trkpt lat="48.421206" lon="2.708431">
      <ele>123.9</ele>
      <time>2014-09-14T09:59:11Z</time>
    </trkpt>
    <trkpt lat="48.421083" lon="2.708323">
      <ele>121.8</ele>
      <time>2014-09-14T09:59:15Z</time>
    </trkpt>
    <trkpt lat="48.421006" lon="2.708199">
      <ele>121.0</ele>
      <time>2014-09-14T09:59:17Z</time>
    </trkpt>
    <trkpt lat="48.420919" lon="2.708046">
      <ele>120.3</ele>
      <time>2014-09-14T09:59:19Z</time>
    </trkpt>
    <trkpt lat="48.420857" lon="2.707909">
      <ele>120.1</ele>
      <time>2014-09-14T09:59:22Z</time>
    </trkpt>
    <trkpt lat="48.420767" lon="2.707867">
      <ele>119.0</ele>
      <time>2014-09-14T09:59:25Z</time>
    </trkpt>
    <trkpt lat="48.420659" lon="2.707842">
      <ele>117.8</ele>
      <time>2014-09-14T09:59:28Z</time>
    </trkpt>
    <trkpt lat="48.420551" lon="2.707886">
      <ele>116.0</ele>
      <time>2014-09-14T09:59:32Z</time>
    </trkpt>
    <trkpt lat="48.420439" lon="2.707924">
      <ele>114.2</ele>
      <time>2014-09-14T09:59:35Z</time>
    </trkpt>
    <trkpt lat="48.420338" lon="2.707944">
      <ele>112.7</ele>
      <time>2014-09-14T09:59:37Z</time>
    </trkpt>
    <trkpt lat="48.420243" lon="2.707975">
      <ele>111.2</ele>
      <time>2014-09-14T09:59:40Z</time>
    </trkpt>
    <trkpt lat="48.420119" lon="2.707986">
      <ele>109.5</ele>
      <time>2014-09-14T09:59:45Z</time>
    </trkpt>
    <trkpt lat="48.420026" lon="2.708073">
      <ele>107.5</ele>
      <time>2014-09-14T09:59:49Z</time>
    </trkpt>
    <trkpt lat="48.419934" lon="2.708076">
      <ele>106.9</ele>
      <time>2014-09-14T09:59:53Z</time>
    </trkpt>
    <trkpt lat="48.419841" lon="2.707992">
      <ele>107.2</ele>
      <time>2014-09-14T09:59:56Z</time>
    </trkpt>
    <trkpt lat="48.419749" lon="2.707899">
      <ele>107.4</ele>
      <time>2014-09-14T09:59:59Z</time>
    </trkpt>
    <trkpt lat="48.419559" lon="2.707693">
      <ele>107.7</ele>
      <time>2014-09-14T10:00:05Z</time>
    </trkpt>
    <trkpt lat="48.419522" lon="2.707548">
      <ele>108.3</ele>
      <time>2014-09-14T10:00:09Z</time>
    </trkpt>
    <trkpt lat="48.4195" lon="2.707371">
      <ele>108.7</ele>
      <time>2014-09-14T10:00:13Z</time>
    </trkpt>
    <trkpt lat="48.419482" lon="2.707207">
      <ele>109.0</ele>
      <time>2014-09-14T10:00:17Z</time>
    </trkpt>
    <trkpt lat="48.419452" lon="2.707053">
      <ele>109.1</ele>
      <time>2014-09-14T10:00:22Z</time>
    </trkpt>
    <trkpt lat="48.420144" lon="2.702156">
      <ele>110.0</ele>
      <time>2014-09-14T10:02:10Z</time>
    </trkpt>
    <trkpt lat="48.420144" lon="2.702162">
      <ele>110.1</ele>
      <time>2014-09-14T10:02:36Z</time>
    </trkpt>
    <trkpt lat="48.4202" lon="2.702018">
      <ele>110.1</ele>
      <time>2014-09-14T10:02:39Z</time>
    </trkpt>
    <trkpt lat="48.420228" lon="2.701869">
      <ele>109.9</ele>
      <time>2014-09-14T10:02:42Z</time>
    </trkpt>
    <trkpt lat="48.420245" lon="2.701735">
      <ele>109.6</ele>
      <time>2014-09-14T10:02:44Z</time>
    </trkpt>
    <trkpt lat="48.42024" lon="2.701595">
      <ele>109.1</ele>
      <time>2014-09-14T10:02:46Z</time>
    </trkpt>
    <trkpt lat="48.420234" lon="2.701444">
      <ele>108.6</ele>
      <time>2014-09-14T10:02:49Z</time>
    </trkpt>
    <trkpt lat="48.420266" lon="2.70126">
      <ele>108.3</ele>
      <time>2014-09-14T10:02:52Z</time>
    </trkpt>
    <trkpt lat="48.420286" lon="2.701099">
      <ele>107.9</ele>
      <time>2014-09-14T10:02:55Z</time>
    </trkpt>
    <trkpt lat="48.420327" lon="2.70093">
      <ele>107.7</ele>
      <time>2014-09-14T10:02:58Z</time>
    </trkpt>
    <trkpt lat="48.420388" lon="2.700765">
      <ele>107.8</ele>
      <time>2014-09-14T10:03:01Z</time>
    </trkpt>
    <trkpt lat="48.420422" lon="2.700619">
      <ele>107.9</ele>
      <time>2014-09-14T10:03:03Z</time>
    </trkpt>
    <trkpt lat="48.420449" lon="2.700448">
      <ele>107.9</ele>
      <time>2014-09-14T10:03:06Z</time>
    </trkpt>
    <trkpt lat="48.420457" lon="2.700311">
      <ele>107.9</ele>
      <time>2014-09-14T10:03:09Z</time>
    </trkpt>
    <trkpt lat="48.420526" lon="2.700114">
      <ele>108.0</ele>
      <time>2014-09-14T10:03:12Z</time>
    </trkpt>
    <trkpt lat="48.420611" lon="2.699787">
      <ele>107.6</ele>
      <time>2014-09-14T10:03:17Z</time>
    </trkpt>
    <trkpt lat="48.420608" lon="2.699618">
      <ele>107.1</ele>
      <time>2014-09-14T10:03:20Z</time>
    </trkpt>
    <trkpt lat="48.420639" lon="2.699454">
      <ele>106.6</ele>
      <time>2014-09-14T10:03:22Z</time>
    </trkpt>
    <trkpt lat="48.420688" lon="2.69932">
      <ele>106.3</ele>
      <time>2014-09-14T10:03:24Z</time>
    </trkpt>
    <trkpt lat="48.420712" lon="2.699168">
      <ele>105.9</ele>
      <time>2014-09-14T10:03:27Z</time>
    </trkpt>
    <trkpt lat="48.420756" lon="2.699013">
      <ele>105.9</ele>
      <time>2014-09-14T10:03:30Z</time>
    </trkpt>
    <trkpt lat="48.420778" lon="2.698856">
      <ele>105.9</ele>
      <time>2014-09-14T10:03:33Z</time>
    </trkpt>
    <trkpt lat="48.42079" lon="2.698709">
      <ele>105.9</ele>
      <time>2014-09-14T10:03:36Z</time>
    </trkpt>
    <trkpt lat="48.420804" lon="2.69857">
      <ele>105.9</ele>
      <time>2014-09-14T10:03:39Z</time>
    </trkpt>
    <trkpt lat="48.420865" lon="2.698445">
      <ele>106.3</ele>
      <time>2014-09-14T10:03:42Z</time>
    </trkpt>
    <trkpt lat="48.420891" lon="2.698285">
      <ele>106.7</ele>
      <time>2014-09-14T10:03:46Z</time>
    </trkpt>
    <trkpt lat="48.420918" lon="2.698149">
      <ele>107.2</ele>
      <time>2014-09-14T10:03:49Z</time>
    </trkpt>
    <trkpt lat="48.420968" lon="2.697989">
      <ele>108.0</ele>
      <time>2014-09-14T10:03:52Z</time>
    </trkpt>
    <trkpt lat="48.420986" lon="2.697834">
      <ele>108.4</ele>
      <time>2014-09-14T10:03:55Z</time>
    </trkpt>
    <trkpt lat="48.421005" lon="2.697661">
      <ele>108.9</ele>
      <time>2014-09-14T10:03:57Z</time>
    </trkpt>
    <trkpt lat="48.42105" lon="2.697497">
      <ele>109.6</ele>
      <time>2014-09-14T10:03:59Z</time>
    </trkpt>
    <trkpt lat="48.421079" lon="2.697332">
      <ele>109.3</ele>
      <time>2014-09-14T10:04:02Z</time>
    </trkpt>
    <trkpt lat="48.421099" lon="2.697158">
      <ele>109.0</ele>
      <time>2014-09-14T10:04:05Z</time>
    </trkpt>
    <trkpt lat="48.421134" lon="2.697019">
      <ele>108.8</ele>
      <time>2014-09-14T10:04:08Z</time>
    </trkpt>
    <trkpt lat="48.421176" lon="2.696844">
      <ele>108.6</ele>
      <time>2014-09-14T10:04:11Z</time>
    </trkpt>
    <trkpt lat="48.42121" lon="2.696705">
      <ele>108.4</ele>
      <time>2014-09-14T10:04:13Z</time>
    </trkpt>
    <trkpt lat="48.421279" lon="2.696377">
      <ele>108.1</ele>
      <time>2014-09-14T10:04:18Z</time>
    </trkpt>
    <trkpt lat="48.421295" lon="2.696243">
      <ele>108.0</ele>
      <time>2014-09-14T10:04:20Z</time>
    </trkpt>
    <trkpt lat="48.421319" lon="2.696109">
      <ele>107.9</ele>
      <time>2014-09-14T10:04:22Z</time>
    </trkpt>
    <trkpt lat="48.421374" lon="2.695923">
      <ele>107.8</ele>
      <time>2014-09-14T10:04:25Z</time>
    </trkpt>
    <trkpt lat="48.421401" lon="2.695788">
      <ele>107.7</ele>
      <time>2014-09-14T10:04:27Z</time>
    </trkpt>
    <trkpt lat="48.421414" lon="2.695616">
      <ele>107.5</ele>
      <time>2014-09-14T10:04:30Z</time>
    </trkpt>
    <trkpt lat="48.42141" lon="2.695467">
      <ele>107.3</ele>
      <time>2014-09-14T10:04:32Z</time>
    </trkpt>
    <trkpt lat="48.421375" lon="2.695291">
      <ele>106.9</ele>
      <time>2014-09-14T10:04:35Z</time>
    </trkpt>
    <trkpt lat="48.421324" lon="2.695112">
      <ele>106.5</ele>
      <time>2014-09-14T10:04:38Z</time>
    </trkpt>
    <trkpt lat="48.421278" lon="2.694953">
      <ele>106.3</ele>
      <time>2014-09-14T10:04:41Z</time>
    </trkpt>
    <trkpt lat="48.421189" lon="2.694837">
      <ele>106.1</ele>
      <time>2014-09-14T10:04:44Z</time>
    </trkpt>
    <trkpt lat="48.421128" lon="2.694697">
      <ele>106.0</ele>
      <time>2014-09-14T10:04:47Z</time>
    </trkpt>
    <trkpt lat="48.421066" lon="2.694545">
      <ele>106.0</ele>
      <time>2014-09-14T10:04:50Z</time>
    </trkpt>
    <trkpt lat="48.421032" lon="2.694415">
      <ele>106.0</ele>
      <time>2014-09-14T10:04:52Z</time>
    </trkpt>
    <trkpt lat="48.420974" lon="2.694294">
      <ele>105.8</ele>
      <time>2014-09-14T10:04:54Z</time>
    </trkpt>
    <trkpt lat="48.420935" lon="2.694154">
      <ele>105.8</ele>
      <time>2014-09-14T10:04:56Z</time>
    </trkpt>
    <trkpt lat="48.420866" lon="2.694036">
      <ele>105.6</ele>
      <time>2014-09-14T10:04:58Z</time>
    </trkpt>
    <trkpt lat="48.420806" lon="2.693916">
      <ele>105.5</ele>
      <time>2014-09-14T10:05:00Z</time>
    </trkpt>
    <trkpt lat="48.420728" lon="2.693793">
      <ele>105.7</ele>
      <time>2014-09-14T10:05:03Z</time>
    </trkpt>
    <trkpt lat="48.420669" lon="2.693689">
      <ele>105.9</ele>
      <time>2014-09-14T10:05:05Z</time>
    </trkpt>
    <trkpt lat="48.42063" lon="2.693515">
      <ele>106.4</ele>
      <time>2014-09-14T10:05:08Z</time>
    </trkpt>
    <trkpt lat="48.420586" lon="2.693381">
      <ele>106.8</ele>
      <time>2014-09-14T10:05:10Z</time>
    </trkpt>
    <trkpt lat="48.420536" lon="2.693213">
      <ele>107.0</ele>
      <time>2014-09-14T10:05:13Z</time>
    </trkpt>
    <trkpt lat="48.420515" lon="2.693068">
      <ele>107.0</ele>
      <time>2014-09-14T10:05:16Z</time>
    </trkpt>
    <trkpt lat="48.420481" lon="2.692739">
      <ele>107.0</ele>
      <time>2014-09-14T10:05:23Z</time>
    </trkpt>
    <trkpt lat="48.420561" lon="2.692667">
      <ele>107.0</ele>
      <time>2014-09-14T10:05:27Z</time>
    </trkpt>
    <trkpt lat="48.420646" lon="2.692597">
      <ele>107.0</ele>
      <time>2014-09-14T10:05:32Z</time>
    </trkpt>
    <trkpt lat="48.420722" lon="2.692512">
      <ele>107.0</ele>
      <time>2014-09-14T10:05:40Z</time>
    </trkpt>
    <trkpt lat="48.420815" lon="2.692537">
      <ele>107.0</ele>
      <time>2014-09-14T10:05:49Z</time>
    </trkpt>
    <trkpt lat="48.420913" lon="2.692509">
      <ele>108.1</ele>
      <time>2014-09-14T10:05:56Z</time>
    </trkpt>
    <trkpt lat="48.42098" lon="2.692418">
      <ele>109.0</ele>
      <time>2014-09-14T10:06:08Z</time>
    </trkpt>
    <trkpt lat="48.420983" lon="2.692282">
      <ele>108.9</ele>
      <time>2014-09-14T10:06:19Z</time>
    </trkpt>
    <trkpt lat="48.421142" lon="2.692137">
      <ele>110.5</ele>
      <time>2014-09-14T10:07:01Z</time>
    </trkpt>
    <trkpt lat="48.421206" lon="2.692031">
      <ele>110.9</ele>
      <time>2014-09-14T10:07:15Z</time>
    </trkpt>
    <trkpt lat="48.421292" lon="2.69198">
      <ele>111.5</ele>
      <time>2014-09-14T10:07:42Z</time>
    </trkpt>
    <trkpt lat="48.421399" lon="2.691904">
      <ele>112.2</ele>
      <time>2014-09-14T10:08:21Z</time>
    </trkpt>
    <trkpt lat="48.42151" lon="2.691982">
      <ele>113.7</ele>
      <time>2014-09-14T10:08:25Z</time>
    </trkpt>
    <trkpt lat="48.421603" lon="2.691914">
      <ele>114.2</ele>
      <time>2014-09-14T10:08:30Z</time>
    </trkpt>
    <trkpt lat="48.421595" lon="2.691746">
      <ele>113.0</ele>
      <time>2014-09-14T10:08:35Z</time>
    </trkpt>
    <trkpt lat="48.421609" lon="2.6916">
      <ele>112.4</ele>
      <time>2014-09-14T10:08:40Z</time>
    </trkpt>
    <trkpt lat="48.421626" lon="2.691443">
      <ele>112.2</ele>
      <time>2014-09-14T10:08:44Z</time>
    </trkpt>
    <trkpt lat="48.421684" lon="2.691127">
      <ele>111.9</ele>
      <time>2014-09-14T10:08:52Z</time>
    </trkpt>
    <trkpt lat="48.421756" lon="2.691004">
      <ele>112.4</ele>
      <time>2014-09-14T10:08:56Z</time>
    </trkpt>
    <trkpt lat="48.421829" lon="2.690889">
      <ele>112.9</ele>
      <time>2014-09-14T10:08:59Z</time>
    </trkpt>
    <trkpt lat="48.421925" lon="2.690843">
      <ele>113.8</ele>
      <time>2014-09-14T10:09:03Z</time>
    </trkpt>
    <trkpt lat="48.422023" lon="2.690856">
      <ele>114.9</ele>
      <time>2014-09-14T10:09:27Z</time>
    </trkpt>
    <trkpt lat="48.422106" lon="2.690762">
      <ele>115.9</ele>
      <time>2014-09-14T10:09:32Z</time>
    </trkpt>
    <trkpt lat="48.422161" lon="2.690874">
      <ele>116.4</ele>
      <time>2014-09-14T10:09:42Z</time>
    </trkpt>
    <trkpt lat="48.422217" lon="2.691001">
      <ele>117.2</ele>
      <time>2014-09-14T10:09:47Z</time>
    </trkpt>
    <trkpt lat="48.422308" lon="2.691249">
      <ele>118.5</ele>
      <time>2014-09-14T10:09:58Z</time>
    </trkpt>
    <trkpt lat="48.422334" lon="2.691386">
      <ele>119.0</ele>
      <time>2014-09-14T10:10:04Z</time>
    </trkpt>
    <trkpt lat="48.42234" lon="2.69153">
      <ele>119.3</ele>
      <time>2014-09-14T10:10:13Z</time>
    </trkpt>
    <trkpt lat="48.42236" lon="2.691666">
      <ele>119.7</ele>
      <time>2014-09-14T10:10:43Z</time>
    </trkpt>
    <trkpt lat="48.42232" lon="2.691812">
      <ele>120.7</ele>
      <time>2014-09-14T10:10:56Z</time>
    </trkpt>
    <trkpt lat="48.422276" lon="2.692084">
      <ele>123.0</ele>
      <time>2014-09-14T10:11:14Z</time>
    </trkpt>
    <trkpt lat="48.42233" lon="2.692193">
      <ele>124.7</ele>
      <time>2014-09-14T10:11:25Z</time>
    </trkpt>
    <trkpt lat="48.422402" lon="2.692308">
      <ele>126.7</ele>
      <time>2014-09-14T10:11:45Z</time>
    </trkpt>
    <trkpt lat="48.422476" lon="2.692402">
      <ele>128.6</ele>
      <time>2014-09-14T10:12:02Z</time>
    </trkpt>
    <trkpt lat="48.422669" lon="2.692483">
      <ele>131.3</ele>
      <time>2014-09-14T10:12:45Z</time>
    </trkpt>
    <trkpt lat="48.422755" lon="2.692536">
      <ele>132.3</ele>
      <time>2014-09-14T10:13:01Z</time>
    </trkpt>
    <trkpt lat="48.422817" lon="2.692637">
      <ele>133.2</ele>
      <time>2014-09-14T10:13:22Z</time>
    </trkpt>
    <trkpt lat="48.422859" lon="2.692908">
      <ele>134.7</ele>
      <time>2014-09-14T10:13:57Z</time>
    </trkpt>
    <trkpt lat="48.422953" lon="2.692929">
      <ele>135.6</ele>
      <time>2014-09-14T10:14:14Z</time>
    </trkpt>
    <trkpt lat="48.423035" lon="2.692986">
      <ele>136.6</ele>
      <time>2014-09-14T10:15:00Z</time>
    </trkpt>
    <trkpt lat="48.423174" lon="2.69315">
      <ele>138.6</ele>
      <time>2014-09-14T10:15:17Z</time>
    </trkpt>
    <trkpt lat="48.423323" lon="2.693236">
      <ele>140.4</ele>
      <time>2014-09-14T10:15:21Z</time>
    </trkpt>
    <trkpt lat="48.42346" lon="2.693307">
      <ele>140.9</ele>
      <time>2014-09-14T10:15:26Z</time>
    </trkpt>
    <trkpt lat="48.423559" lon="2.693377">
      <ele>141.0</ele>
      <time>2014-09-14T10:15:31Z</time>
    </trkpt>
    <trkpt lat="48.423672" lon="2.693509">
      <ele>141.1</ele>
      <time>2014-09-14T10:15:34Z</time>
    </trkpt>
    <trkpt lat="48.423791" lon="2.69353">
      <ele>141.1</ele>
      <time>2014-09-14T10:15:38Z</time>
    </trkpt>
    <trkpt lat="48.423889" lon="2.693619">
      <ele>141.2</ele>
      <time>2014-09-14T10:15:42Z</time>
    </trkpt>
    <trkpt lat="48.423971" lon="2.69368">
      <ele>141.3</ele>
      <time>2014-09-14T10:15:44Z</time>
    </trkpt>
    <trkpt lat="48.42408" lon="2.693781">
      <ele>141.5</ele>
      <time>2014-09-14T10:15:47Z</time>
    </trkpt>
    <trkpt lat="48.424175" lon="2.693829">
      <ele>141.6</ele>
      <time>2014-09-14T10:15:50Z</time>
    </trkpt>
    <trkpt lat="48.424252" lon="2.693932">
      <ele>142.0</ele>
      <time>2014-09-14T10:15:54Z</time>
    </trkpt>
    <trkpt lat="48.424369" lon="2.694026">
      <ele>142.4</ele>
      <time>2014-09-14T10:15:58Z</time>
    </trkpt>
    <trkpt lat="48.424539" lon="2.694064">
      <ele>142.9</ele>
      <time>2014-09-14T10:16:03Z</time>
    </trkpt>
    <trkpt lat="48.424737" lon="2.694178">
      <ele>143.4</ele>
      <time>2014-09-14T10:16:13Z</time>
    </trkpt>
    <trkpt lat="48.424872" lon="2.694127">
      <ele>143.7</ele>
      <time>2014-09-14T10:16:21Z</time>
    </trkpt>
    <trkpt lat="48.424956" lon="2.694076">
      <ele>144.0</ele>
      <time>2014-09-14T10:16:24Z</time>
    </trkpt>
    <trkpt lat="48.42506" lon="2.694061">
      <ele>144.4</ele>
      <time>2014-09-14T10:16:29Z</time>
    </trkpt>
    <trkpt lat="48.425165" lon="2.69404">
      <ele>144.9</ele>
      <time>2014-09-14T10:16:33Z</time>
    </trkpt>
    <trkpt lat="48.425264" lon="2.693993">
      <ele>145.4</ele>
      <time>2014-09-14T10:16:38Z</time>
    </trkpt>
    <trkpt lat="48.425187" lon="2.693876">
      <ele>145.2</ele>
      <time>2014-09-14T10:16:42Z</time>
    </trkpt>
    <trkpt lat="48.425275" lon="2.693924">
      <ele>145.5</ele>
      <time>2014-09-14T10:20:28Z</time>
    </trkpt>
    <trkpt lat="48.42604" lon="2.676938">
      <ele>148.4</ele>
      <time>2014-09-14T10:29:05Z</time>
    </trkpt>
    <trkpt lat="48.426141" lon="2.67669">
      <ele>147.3</ele>
      <time>2014-09-14T10:29:14Z</time>
    </trkpt>
    <trkpt lat="48.426151" lon="2.676537">
      <ele>147.2</ele>
      <time>2014-09-14T10:29:17Z</time>
    </trkpt>
    <trkpt lat="48.426109" lon="2.676348">
      <ele>147.8</ele>
      <time>2014-09-14T10:29:22Z</time>
    </trkpt>
    <trkpt lat="48.426171" lon="2.676088">
      <ele>147.1</ele>
      <time>2014-09-14T10:29:25Z</time>
    </trkpt>
    <trkpt lat="48.426155" lon="2.675897">
      <ele>147.4</ele>
      <time>2014-09-14T10:29:30Z</time>
    </trkpt>
    <trkpt lat="48.426137" lon="2.675645">
      <ele>148.2</ele>
      <time>2014-09-14T10:29:34Z</time>
    </trkpt>
    <trkpt lat="48.426191" lon="2.675533">
      <ele>147.8</ele>
      <time>2014-09-14T10:29:36Z</time>
    </trkpt>
    <trkpt lat="48.426244" lon="2.675349">
      <ele>147.8</ele>
      <time>2014-09-14T10:29:39Z</time>
    </trkpt>
    <trkpt lat="48.4263" lon="2.675133">
      <ele>148.0</ele>
      <time>2014-09-14T10:29:42Z</time>
    </trkpt>
    <trkpt lat="48.426339" lon="2.675002">
      <ele>148.1</ele>
      <time>2014-09-14T10:29:44Z</time>
    </trkpt>
    <trkpt lat="48.426408" lon="2.674796">
      <ele>147.8</ele>
      <time>2014-09-14T10:29:47Z</time>
    </trkpt>
    <trkpt lat="48.426486" lon="2.674576">
      <ele>147.7</ele>
      <time>2014-09-14T10:29:50Z</time>
    </trkpt>
    <trkpt lat="48.42654" lon="2.67443">
      <ele>147.7</ele>
      <time>2014-09-14T10:29:52Z</time>
    </trkpt>
    <trkpt lat="48.426588" lon="2.674251">
      <ele>148.0</ele>
      <time>2014-09-14T10:29:55Z</time>
    </trkpt>
    <trkpt lat="48.426652" lon="2.674079">
      <ele>147.9</ele>
      <time>2014-09-14T10:29:58Z</time>
    </trkpt>
    <trkpt lat="48.426673" lon="2.67391">
      <ele>147.6</ele>
      <time>2014-09-14T10:30:01Z</time>
    </trkpt>
    <trkpt lat="48.426695" lon="2.673769">
      <ele>147.0</ele>
      <time>2014-09-14T10:30:03Z</time>
    </trkpt>
    <trkpt lat="48.426712" lon="2.67362">
      <ele>146.6</ele>
      <time>2014-09-14T10:30:05Z</time>
    </trkpt>
    <trkpt lat="48.426681" lon="2.673296">
      <ele>146.9</ele>
      <time>2014-09-14T10:30:11Z</time>
    </trkpt>
    <trkpt lat="48.426702" lon="2.673147">
      <ele>147.2</ele>
      <time>2014-09-14T10:30:13Z</time>
    </trkpt>
    <trkpt lat="48.426702" lon="2.672976">
      <ele>147.8</ele>
      <time>2014-09-14T10:30:15Z</time>
    </trkpt>
    <trkpt lat="48.426755" lon="2.672807">
      <ele>147.7</ele>
      <time>2014-09-14T10:30:19Z</time>
    </trkpt>
    <trkpt lat="48.426716" lon="2.672684">
      <ele>148.7</ele>
      <time>2014-09-14T10:30:21Z</time>
    </trkpt>
    <trkpt lat="48.426784" lon="2.6725">
      <ele>148.5</ele>
      <time>2014-09-14T10:30:23Z</time>
    </trkpt>
    <trkpt lat="48.426804" lon="2.672292">
      <ele>148.3</ele>
      <time>2014-09-14T10:30:26Z</time>
    </trkpt>
    <trkpt lat="48.42683" lon="2.67216">
      <ele>148.0</ele>
      <time>2014-09-14T10:30:28Z</time>
    </trkpt>
    <trkpt lat="48.426854" lon="2.671997">
      <ele>147.8</ele>
      <time>2014-09-14T10:30:30Z</time>
    </trkpt>
    <trkpt lat="48.426895" lon="2.671828">
      <ele>147.4</ele>
      <time>2014-09-14T10:30:33Z</time>
    </trkpt>
    <trkpt lat="48.426919" lon="2.671607">
      <ele>147.3</ele>
      <time>2014-09-14T10:30:37Z</time>
    </trkpt>
    <trkpt lat="48.426942" lon="2.67138">
      <ele>147.1</ele>
      <time>2014-09-14T10:30:41Z</time>
    </trkpt>
    <trkpt lat="48.42698" lon="2.671175">
      <ele>146.8</ele>
      <time>2014-09-14T10:30:44Z</time>
    </trkpt>
    <trkpt lat="48.427056" lon="2.67098">
      <ele>146.2</ele>
      <time>2014-09-14T10:30:46Z</time>
    </trkpt>
    <trkpt lat="48.427142" lon="2.670654">
      <ele>145.7</ele>
      <time>2014-09-14T10:30:52Z</time>
    </trkpt>
    <trkpt lat="48.42721" lon="2.670431">
      <ele>145.4</ele>
      <time>2014-09-14T10:30:55Z</time>
    </trkpt>
    <trkpt lat="48.427222" lon="2.670263">
      <ele>145.6</ele>
      <time>2014-09-14T10:30:57Z</time>
    </trkpt>
    <trkpt lat="48.427233" lon="2.670065">
      <ele>145.8</ele>
      <time>2014-09-14T10:31:00Z</time>
    </trkpt>
    <trkpt lat="48.427243" lon="2.669917">
      <ele>145.7</ele>
      <time>2014-09-14T10:31:02Z</time>
    </trkpt>
    <trkpt lat="48.427253" lon="2.669759">
      <ele>145.3</ele>
      <time>2014-09-14T10:31:04Z</time>
    </trkpt>
    <trkpt lat="48.427307" lon="2.669619">
      <ele>144.6</ele>
      <time>2014-09-14T10:31:06Z</time>
    </trkpt>
    <trkpt lat="48.427377" lon="2.669245">
      <ele>143.2</ele>
      <time>2014-09-14T10:31:11Z</time>
    </trkpt>
    <trkpt lat="48.427401" lon="2.669073">
      <ele>142.8</ele>
      <time>2014-09-14T10:31:14Z</time>
    </trkpt>
    <trkpt lat="48.427444" lon="2.668951">
      <ele>142.5</ele>
      <time>2014-09-14T10:31:16Z</time>
    </trkpt>
    <trkpt lat="48.427505" lon="2.668793">
      <ele>141.9</ele>
      <time>2014-09-14T10:31:18Z</time>
    </trkpt>
    <trkpt lat="48.427562" lon="2.668555">
      <ele>141.4</ele>
      <time>2014-09-14T10:31:21Z</time>
    </trkpt>
    <trkpt lat="48.42759" lon="2.668317">
      <ele>141.4</ele>
      <time>2014-09-14T10:31:25Z</time>
    </trkpt>
    <trkpt lat="48.427643" lon="2.668152">
      <ele>141.3</ele>
      <time>2014-09-14T10:31:27Z</time>
    </trkpt>
    <trkpt lat="48.427758" lon="2.667958">
      <ele>141.0</ele>
      <time>2014-09-14T10:31:29Z</time>
    </trkpt>
    <trkpt lat="48.427821" lon="2.667757">
      <ele>141.2</ele>
      <time>2014-09-14T10:31:32Z</time>
    </trkpt>
    <trkpt lat="48.427856" lon="2.667578">
      <ele>141.5</ele>
      <time>2014-09-14T10:31:35Z</time>
    </trkpt>
    <trkpt lat="48.427874" lon="2.667423">
      <ele>141.7</ele>
      <time>2014-09-14T10:31:37Z</time>
    </trkpt>
    <trkpt lat="48.427927" lon="2.667276">
      <ele>141.6</ele>
      <time>2014-09-14T10:31:39Z</time>
    </trkpt>
    <trkpt lat="48.42797" lon="2.667144">
      <ele>141.6</ele>
      <time>2014-09-14T10:31:41Z</time>
    </trkpt>
    <trkpt lat="48.428015" lon="2.666903">
      <ele>141.8</ele>
      <time>2014-09-14T10:31:44Z</time>
    </trkpt>
    <trkpt lat="48.42808" lon="2.666732">
      <ele>141.9</ele>
      <time>2014-09-14T10:31:46Z</time>
    </trkpt>
    <trkpt lat="48.428137" lon="2.666584">
      <ele>142.0</ele>
      <time>2014-09-14T10:31:48Z</time>
    </trkpt>
    <trkpt lat="48.428193" lon="2.666471">
      <ele>142.1</ele>
      <time>2014-09-14T10:31:50Z</time>
    </trkpt>
    <trkpt lat="48.428287" lon="2.666455">
      <ele>142.2</ele>
      <time>2014-09-14T10:31:53Z</time>
    </trkpt>
    <trkpt lat="48.428419" lon="2.666476">
      <ele>142.5</ele>
      <time>2014-09-14T10:31:56Z</time>
    </trkpt>
    <trkpt lat="48.428536" lon="2.666456">
      <ele>142.8</ele>
      <time>2014-09-14T10:31:59Z</time>
    </trkpt>
    <trkpt lat="48.42867" lon="2.666582">
      <ele>143.0</ele>
      <time>2014-09-14T10:32:04Z</time>
    </trkpt>
    <trkpt lat="48.428771" lon="2.666744">
      <ele>142.8</ele>
      <time>2014-09-14T10:32:07Z</time>
    </trkpt>
    <trkpt lat="48.428937" lon="2.667008">
      <ele>142.3</ele>
      <time>2014-09-14T10:32:13Z</time>
    </trkpt>
    <trkpt lat="48.429011" lon="2.667124">
      <ele>142.1</ele>
      <time>2014-09-14T10:32:15Z</time>
    </trkpt>
    <trkpt lat="48.429083" lon="2.667378">
      <ele>141.3</ele>
      <time>2014-09-14T10:32:19Z</time>
    </trkpt>
    <trkpt lat="48.429179" lon="2.667552">
      <ele>140.6</ele>
      <time>2014-09-14T10:32:24Z</time>
    </trkpt>
    <trkpt lat="48.429246" lon="2.667666">
      <ele>139.6</ele>
      <time>2014-09-14T10:32:28Z</time>
    </trkpt>
    <trkpt lat="48.429351" lon="2.667691">
      <ele>139.1</ele>
      <time>2014-09-14T10:32:33Z</time>
    </trkpt>
    <trkpt lat="48.42943" lon="2.66783">
      <ele>137.7</ele>
      <time>2014-09-14T10:32:36Z</time>
    </trkpt>
    <trkpt lat="48.429535" lon="2.667854">
      <ele>137.2</ele>
      <time>2014-09-14T10:32:39Z</time>
    </trkpt>
    <trkpt lat="48.429685" lon="2.667817">
      <ele>137.0</ele>
      <time>2014-09-14T10:32:43Z</time>
    </trkpt>
    <trkpt lat="48.429754" lon="2.667912">
      <ele>135.9</ele>
      <time>2014-09-14T10:32:45Z</time>
    </trkpt>
    <trkpt lat="48.429846" lon="2.667992">
      <ele>134.9</ele>
      <time>2014-09-14T10:32:50Z</time>
    </trkpt>
    <trkpt lat="48.429899" lon="2.668114">
      <ele>133.5</ele>
      <time>2014-09-14T10:33:07Z</time>
    </trkpt>
    <trkpt lat="48.429961" lon="2.667866">
      <ele>135.6</ele>
      <time>2014-09-14T10:33:40Z</time>
    </trkpt>
    <trkpt lat="48.429986" lon="2.667713">
      <ele>137.0</ele>
      <time>2014-09-14T10:33:52Z</time>
    </trkpt>
    <trkpt lat="48.430019" lon="2.667582">
      <ele>138.0</ele>
      <time>2014-09-14T10:33:56Z</time>
    </trkpt>
    <trkpt lat="48.429978" lon="2.66745">
      <ele>139.3</ele>
      <time>2014-09-14T10:34:03Z</time>
    </trkpt>
    <trkpt lat="48.429932" lon="2.667323">
      <ele>140.2</ele>
      <time>2014-09-14T10:34:11Z</time>
    </trkpt>
    <trkpt lat="48.429979" lon="2.667049">
      <ele>141.7</ele>
      <time>2014-09-14T10:34:28Z</time>
    </trkpt>
    <trkpt lat="48.430137" lon="2.666805">
      <ele>142.1</ele>
      <time>2014-09-14T10:34:30Z</time>
    </trkpt>
    <trkpt lat="48.430222" lon="2.666651">
      <ele>142.5</ele>
      <time>2014-09-14T10:34:33Z</time>
    </trkpt>
    <trkpt lat="48.430291" lon="2.666473">
      <ele>143.1</ele>
      <time>2014-09-14T10:34:37Z</time>
    </trkpt>
    <trkpt lat="48.430357" lon="2.666363">
      <ele>143.5</ele>
      <time>2014-09-14T10:34:41Z</time>
    </trkpt>
    <trkpt lat="48.430419" lon="2.666233">
      <ele>144.1</ele>
      <time>2014-09-14T10:34:45Z</time>
    </trkpt>
    <trkpt lat="48.430514" lon="2.666113">
      <ele>144.8</ele>
      <time>2014-09-14T10:34:49Z</time>
    </trkpt>
    <trkpt lat="48.430593" lon="2.666014">
      <ele>145.4</ele>
      <time>2014-09-14T10:34:52Z</time>
    </trkpt>
    <trkpt lat="48.430664" lon="2.665905">
      <ele>146.3</ele>
      <time>2014-09-14T10:34:56Z</time>
    </trkpt>
    <trkpt lat="48.430738" lon="2.665784">
      <ele>147.1</ele>
      <time>2014-09-14T10:35:01Z</time>
    </trkpt>
    <trkpt lat="48.430821" lon="2.665711">
      <ele>147.2</ele>
      <time>2014-09-14T10:35:05Z</time>
    </trkpt>
    <trkpt lat="48.430891" lon="2.665607">
      <ele>147.2</ele>
      <time>2014-09-14T10:35:09Z</time>
    </trkpt>
    <trkpt lat="48.430989" lon="2.665561">
      <ele>147.1</ele>
      <time>2014-09-14T10:35:13Z</time>
    </trkpt>
    <trkpt lat="48.431213" lon="2.665589">
      <ele>146.8</ele>
      <time>2014-09-14T10:35:19Z</time>
    </trkpt>
    <trkpt lat="48.431336" lon="2.665598">
      <ele>146.6</ele>
      <time>2014-09-14T10:35:23Z</time>
    </trkpt>
    <trkpt lat="48.431433" lon="2.665618">
      <ele>146.4</ele>
      <time>2014-09-14T10:35:25Z</time>
    </trkpt>
    <trkpt lat="48.431567" lon="2.665618">
      <ele>146.2</ele>
      <time>2014-09-14T10:35:29Z</time>
    </trkpt>
    <trkpt lat="48.431683" lon="2.66554">
      <ele>146.5</ele>
      <time>2014-09-14T10:35:33Z</time>
    </trkpt>
    <trkpt lat="48.431809" lon="2.665659">
      <ele>146.4</ele>
      <time>2014-09-14T10:35:39Z</time>
    </trkpt>
    <trkpt lat="48.431915" lon="2.665675">
      <ele>146.8</ele>
      <time>2014-09-14T10:35:43Z</time>
    </trkpt>
    <trkpt lat="48.432019" lon="2.665697">
      <ele>147.1</ele>
      <time>2014-09-14T10:35:47Z</time>
    </trkpt>
    <trkpt lat="48.432118" lon="2.665734">
      <ele>147.4</ele>
      <time>2014-09-14T10:35:49Z</time>
    </trkpt>
    <trkpt lat="48.432233" lon="2.665752">
      <ele>147.9</ele>
      <time>2014-09-14T10:35:53Z</time>
    </trkpt>
    <trkpt lat="48.432328" lon="2.665743">
      <ele>148.3</ele>
      <time>2014-09-14T10:35:55Z</time>
    </trkpt>
    <trkpt lat="48.432448" lon="2.665709">
      <ele>148.9</ele>
      <time>2014-09-14T10:35:58Z</time>
    </trkpt>
    <trkpt lat="48.432556" lon="2.665745">
      <ele>149.1</ele>
      <time>2014-09-14T10:36:00Z</time>
    </trkpt>
    <trkpt lat="48.432647" lon="2.665761">
      <ele>149.1</ele>
      <time>2014-09-14T10:36:03Z</time>
    </trkpt>
    <trkpt lat="48.432746" lon="2.665792">
      <ele>149.1</ele>
      <time>2014-09-14T10:36:05Z</time>
    </trkpt>
    <trkpt lat="48.432865" lon="2.665855">
      <ele>148.9</ele>
      <time>2014-09-14T10:36:08Z</time>
    </trkpt>
    <trkpt lat="48.432998" lon="2.665925">
      <ele>148.6</ele>
      <time>2014-09-14T10:36:11Z</time>
    </trkpt>
    <trkpt lat="48.433143" lon="2.665929">
      <ele>148.6</ele>
      <time>2014-09-14T10:36:13Z</time>
    </trkpt>
    <trkpt lat="48.433347" lon="2.666005">
      <ele>148.4</ele>
      <time>2014-09-14T10:36:29Z</time>
    </trkpt>
    <trkpt lat="48.433562" lon="2.666036">
      <ele>148.3</ele>
      <time>2014-09-14T10:36:32Z</time>
    </trkpt>
    <trkpt lat="48.433664" lon="2.666037">
      <ele>148.4</ele>
      <time>2014-09-14T10:36:34Z</time>
    </trkpt>
    <trkpt lat="48.433776" lon="2.666059">
      <ele>148.3</ele>
      <time>2014-09-14T10:36:36Z</time>
    </trkpt>
    <trkpt lat="48.433974" lon="2.666125">
      <ele>148.2</ele>
      <time>2014-09-14T10:36:40Z</time>
    </trkpt>
    <trkpt lat="48.434092" lon="2.66617">
      <ele>148.2</ele>
      <time>2014-09-14T10:36:42Z</time>
    </trkpt>
    <trkpt lat="48.434185" lon="2.666192">
      <ele>148.1</ele>
      <time>2014-09-14T10:36:44Z</time>
    </trkpt>
    <trkpt lat="48.434278" lon="2.666201">
      <ele>147.8</ele>
      <time>2014-09-14T10:36:46Z</time>
    </trkpt>
    <trkpt lat="48.434372" lon="2.666216">
      <ele>147.6</ele>
      <time>2014-09-14T10:36:48Z</time>
    </trkpt>
    <trkpt lat="48.434501" lon="2.666245">
      <ele>147.2</ele>
      <time>2014-09-14T10:36:50Z</time>
    </trkpt>
    <trkpt lat="48.434629" lon="2.666255">
      <ele>146.9</ele>
      <time>2014-09-14T10:36:53Z</time>
    </trkpt>
    <trkpt lat="48.434745" lon="2.666292">
      <ele>146.6</ele>
      <time>2014-09-14T10:36:55Z</time>
    </trkpt>
    <trkpt lat="48.434858" lon="2.666319">
      <ele>146.3</ele>
      <time>2014-09-14T10:36:58Z</time>
    </trkpt>
    <trkpt lat="48.434955" lon="2.666327">
      <ele>146.1</ele>
      <time>2014-09-14T10:37:09Z</time>
    </trkpt>
    <trkpt lat="48.43506" lon="2.666379">
      <ele>145.8</ele>
      <time>2014-09-14T10:37:19Z</time>
    </trkpt>
    <trkpt lat="48.435349" lon="2.666409">
      <ele>144.6</ele>
      <time>2014-09-14T10:37:26Z</time>
    </trkpt>
    <trkpt lat="48.435437" lon="2.666515">
      <ele>144.1</ele>
      <time>2014-09-14T10:37:28Z</time>
    </trkpt>
    <trkpt lat="48.435518" lon="2.666586">
      <ele>143.6</ele>
      <time>2014-09-14T10:37:29Z</time>
    </trkpt>
    <trkpt lat="48.435596" lon="2.666685">
      <ele>142.9</ele>
      <time>2014-09-14T10:37:32Z</time>
    </trkpt>
    <trkpt lat="48.435683" lon="2.666733">
      <ele>141.9</ele>
      <time>2014-09-14T10:37:35Z</time>
    </trkpt>
    <trkpt lat="48.435796" lon="2.666811">
      <ele>140.3</ele>
      <time>2014-09-14T10:37:38Z</time>
    </trkpt>
    <trkpt lat="48.435881" lon="2.666886">
      <ele>139.2</ele>
      <time>2014-09-14T10:37:40Z</time>
    </trkpt>
    <trkpt lat="48.435937" lon="2.66701">
      <ele>137.7</ele>
      <time>2014-09-14T10:37:42Z</time>
    </trkpt>
    <trkpt lat="48.43604" lon="2.667037">
      <ele>137.6</ele>
      <time>2014-09-14T10:37:45Z</time>
    </trkpt>
    <trkpt lat="48.436122" lon="2.667142">
      <ele>136.5</ele>
      <time>2014-09-14T10:37:48Z</time>
    </trkpt>
    <trkpt lat="48.436224" lon="2.667176">
      <ele>136.3</ele>
      <time>2014-09-14T10:37:51Z</time>
    </trkpt>
    <trkpt lat="48.436326" lon="2.667185">
      <ele>136.5</ele>
      <time>2014-09-14T10:37:53Z</time>
    </trkpt>
    <trkpt lat="48.436429" lon="2.667183">
      <ele>136.8</ele>
      <time>2014-09-14T10:37:56Z</time>
    </trkpt>
    <trkpt lat="48.436543" lon="2.667147">
      <ele>137.5</ele>
      <time>2014-09-14T10:37:59Z</time>
    </trkpt>
    <trkpt lat="48.436653" lon="2.667122">
      <ele>138.0</ele>
      <time>2014-09-14T10:38:03Z</time>
    </trkpt>
    <trkpt lat="48.436743" lon="2.667111">
      <ele>138.8</ele>
      <time>2014-09-14T10:38:06Z</time>
    </trkpt>
    <trkpt lat="48.436845" lon="2.667092">
      <ele>139.7</ele>
      <time>2014-09-14T10:38:09Z</time>
    </trkpt>
    <trkpt lat="48.436941" lon="2.667084">
      <ele>140.5</ele>
      <time>2014-09-14T10:38:12Z</time>
    </trkpt>
    <trkpt lat="48.437035" lon="2.667082">
      <ele>141.2</ele>
      <time>2014-09-14T10:38:15Z</time>
    </trkpt>
    <trkpt lat="48.437146" lon="2.667093">
      <ele>141.9</ele>
      <time>2014-09-14T10:38:19Z</time>
    </trkpt>
    <trkpt lat="48.437241" lon="2.667111">
      <ele>142.4</ele>
      <time>2014-09-14T10:38:22Z</time>
    </trkpt>
    <trkpt lat="48.437474" lon="2.6672">
      <ele>143.6</ele>
      <time>2014-09-14T10:38:27Z</time>
    </trkpt>
    <trkpt lat="48.437601" lon="2.667252">
      <ele>143.7</ele>
      <time>2014-09-14T10:38:30Z</time>
    </trkpt>
    <trkpt lat="48.437714" lon="2.66731">
      <ele>143.5</ele>
      <time>2014-09-14T10:38:33Z</time>
    </trkpt>
    <trkpt lat="48.437831" lon="2.667365">
      <ele>143.5</ele>
      <time>2014-09-14T10:38:36Z</time>
    </trkpt>
    <trkpt lat="48.437972" lon="2.667391">
      <ele>143.6</ele>
      <time>2014-09-14T10:38:39Z</time>
    </trkpt>
    <trkpt lat="48.438083" lon="2.667426">
      <ele>143.7</ele>
      <time>2014-09-14T10:38:42Z</time>
    </trkpt>
    <trkpt lat="48.438192" lon="2.667521">
      <ele>143.5</ele>
      <time>2014-09-14T10:38:46Z</time>
    </trkpt>
    <trkpt lat="48.438277" lon="2.667584">
      <ele>143.2</ele>
      <time>2014-09-14T10:38:47Z</time>
    </trkpt>
    <trkpt lat="48.438392" lon="2.667649">
      <ele>143.0</ele>
      <time>2014-09-14T10:38:49Z</time>
    </trkpt>
    <trkpt lat="48.43849" lon="2.66772">
      <ele>142.8</ele>
      <time>2014-09-14T10:38:51Z</time>
    </trkpt>
    <trkpt lat="48.438602" lon="2.667762">
      <ele>142.7</ele>
      <time>2014-09-14T10:38:53Z</time>
    </trkpt>
    <trkpt lat="48.438743" lon="2.667826">
      <ele>142.7</ele>
      <time>2014-09-14T10:38:55Z</time>
    </trkpt>
    <trkpt lat="48.438887" lon="2.667856">
      <ele>143.0</ele>
      <time>2014-09-14T10:38:59Z</time>
    </trkpt>
    <trkpt lat="48.439002" lon="2.66788">
      <ele>143.2</ele>
      <time>2014-09-14T10:39:01Z</time>
    </trkpt>
    <trkpt lat="48.43918" lon="2.667906">
      <ele>143.6</ele>
      <time>2014-09-14T10:39:04Z</time>
    </trkpt>
    <trkpt lat="48.439296" lon="2.667953">
      <ele>143.6</ele>
      <time>2014-09-14T10:39:09Z</time>
    </trkpt>
    <trkpt lat="48.439391" lon="2.66795">
      <ele>143.8</ele>
      <time>2014-09-14T10:39:12Z</time>
    </trkpt>
    <trkpt lat="48.439478" lon="2.667883">
      <ele>144.2</ele>
      <time>2014-09-14T10:39:15Z</time>
    </trkpt>
    <trkpt lat="48.43963" lon="2.667832">
      <ele>144.6</ele>
      <time>2014-09-14T10:39:20Z</time>
    </trkpt>
    <trkpt lat="48.439755" lon="2.667883">
      <ele>144.7</ele>
      <time>2014-09-14T10:39:24Z</time>
    </trkpt>
    <trkpt lat="48.439961" lon="2.66793">
      <ele>144.9</ele>
      <time>2014-09-14T10:39:30Z</time>
    </trkpt>
    <trkpt lat="48.440102" lon="2.668001">
      <ele>144.7</ele>
      <time>2014-09-14T10:39:33Z</time>
    </trkpt>
    <trkpt lat="48.440226" lon="2.668095">
      <ele>144.5</ele>
      <time>2014-09-14T10:39:36Z</time>
    </trkpt>
    <trkpt lat="48.440343" lon="2.668155">
      <ele>144.3</ele>
      <time>2014-09-14T10:39:39Z</time>
    </trkpt>
    <trkpt lat="48.440454" lon="2.668226">
      <ele>144.2</ele>
      <time>2014-09-14T10:39:43Z</time>
    </trkpt>
    <trkpt lat="48.440551" lon="2.668255">
      <ele>144.1</ele>
      <time>2014-09-14T10:39:45Z</time>
    </trkpt>
    <trkpt lat="48.440632" lon="2.668336">
      <ele>144.0</ele>
      <time>2014-09-14T10:39:47Z</time>
    </trkpt>
    <trkpt lat="48.440759" lon="2.668379">
      <ele>143.9</ele>
      <time>2014-09-14T10:39:51Z</time>
    </trkpt>
    <trkpt lat="48.440863" lon="2.668396">
      <ele>143.7</ele>
      <time>2014-09-14T10:39:54Z</time>
    </trkpt>
    <trkpt lat="48.440983" lon="2.66846">
      <ele>143.2</ele>
      <time>2014-09-14T10:39:56Z</time>
    </trkpt>
    <trkpt lat="48.441071" lon="2.668507">
      <ele>142.8</ele>
      <time>2014-09-14T10:39:58Z</time>
    </trkpt>
    <trkpt lat="48.44121" lon="2.668616">
      <ele>142.1</ele>
      <time>2014-09-14T10:40:02Z</time>
    </trkpt>
    <trkpt lat="48.441352" lon="2.668732">
      <ele>141.5</ele>
      <time>2014-09-14T10:40:04Z</time>
    </trkpt>
    <trkpt lat="48.441456" lon="2.668819">
      <ele>141.0</ele>
      <time>2014-09-14T10:40:08Z</time>
    </trkpt>
    <trkpt lat="48.441621" lon="2.668924">
      <ele>140.4</ele>
      <time>2014-09-14T10:40:12Z</time>
    </trkpt>
    <trkpt lat="48.441746" lon="2.668957">
      <ele>140.4</ele>
      <time>2014-09-14T10:40:15Z</time>
    </trkpt>
    <trkpt lat="48.441857" lon="2.668987">
      <ele>140.6</ele>
      <time>2014-09-14T10:40:19Z</time>
    </trkpt>
    <trkpt lat="48.441952" lon="2.669073">
      <ele>140.7</ele>
      <time>2014-09-14T10:40:23Z</time>
    </trkpt>
    <trkpt lat="48.442019" lon="2.669173">
      <ele>140.8</ele>
      <time>2014-09-14T10:40:26Z</time>
    </trkpt>
    <trkpt lat="48.442251" lon="2.669312">
      <ele>141.4</ele>
      <time>2014-09-14T10:40:35Z</time>
    </trkpt>
    <trkpt lat="48.442348" lon="2.669391">
      <ele>141.8</ele>
      <time>2014-09-14T10:40:40Z</time>
    </trkpt>
    <trkpt lat="48.44244" lon="2.66942">
      <ele>142.1</ele>
      <time>2014-09-14T10:40:44Z</time>
    </trkpt>
    <trkpt lat="48.442588" lon="2.669434">
      <ele>142.5</ele>
      <time>2014-09-14T10:40:48Z</time>
    </trkpt>
    <trkpt lat="48.442687" lon="2.669421">
      <ele>142.8</ele>
      <time>2014-09-14T10:40:50Z</time>
    </trkpt>
    <trkpt lat="48.442817" lon="2.669342">
      <ele>143.0</ele>
      <time>2014-09-14T10:40:52Z</time>
    </trkpt>
    <trkpt lat="48.442961" lon="2.669333">
      <ele>143.3</ele>
      <time>2014-09-14T10:40:55Z</time>
    </trkpt>
    <trkpt lat="48.443058" lon="2.669433">
      <ele>143.7</ele>
      <time>2014-09-14T10:40:58Z</time>
    </trkpt>
    <trkpt lat="48.443148" lon="2.669465">
      <ele>143.9</ele>
      <time>2014-09-14T10:41:02Z</time>
    </trkpt>
    <trkpt lat="48.443294" lon="2.669555">
      <ele>144.4</ele>
      <time>2014-09-14T10:41:07Z</time>
    </trkpt>
    <trkpt lat="48.443402" lon="2.669553">
      <ele>144.6</ele>
      <time>2014-09-14T10:41:10Z</time>
    </trkpt>
    <trkpt lat="48.443562" lon="2.669608">
      <ele>144.9</ele>
      <time>2014-09-14T10:41:14Z</time>
    </trkpt>
    <trkpt lat="48.443646" lon="2.669684">
      <ele>145.0</ele>
      <time>2014-09-14T10:41:17Z</time>
    </trkpt>
    <trkpt lat="48.443753" lon="2.669733">
      <ele>145.2</ele>
      <time>2014-09-14T10:41:21Z</time>
    </trkpt>
    <trkpt lat="48.443852" lon="2.669785">
      <ele>145.2</ele>
      <time>2014-09-14T10:41:29Z</time>
    </trkpt>
    <trkpt lat="48.443799" lon="2.669492">
      <ele>145.4</ele>
      <time>2014-09-14T10:41:48Z</time>
    </trkpt>
    <trkpt lat="48.443869" lon="2.669283">
      <ele>145.8</ele>
      <time>2014-09-14T10:41:54Z</time>
    </trkpt>
    <trkpt lat="48.443947" lon="2.669126">
      <ele>146.2</ele>
      <time>2014-09-14T10:41:58Z</time>
    </trkpt>
    <trkpt lat="48.444027" lon="2.669011">
      <ele>146.5</ele>
      <time>2014-09-14T10:42:01Z</time>
    </trkpt>
    <trkpt lat="48.444094" lon="2.668903">
      <ele>146.7</ele>
      <time>2014-09-14T10:42:04Z</time>
    </trkpt>
    <trkpt lat="48.444198" lon="2.66876">
      <ele>147.1</ele>
      <time>2014-09-14T10:42:06Z</time>
    </trkpt>
    <trkpt lat="48.444287" lon="2.66867">
      <ele>147.3</ele>
      <time>2014-09-14T10:42:08Z</time>
    </trkpt>
    <trkpt lat="48.444379" lon="2.668592">
      <ele>147.5</ele>
      <time>2014-09-14T10:42:10Z</time>
    </trkpt>
    <trkpt lat="48.444479" lon="2.668498">
      <ele>147.7</ele>
      <time>2014-09-14T10:42:12Z</time>
    </trkpt>
    <trkpt lat="48.444563" lon="2.668388">
      <ele>148.0</ele>
      <time>2014-09-14T10:42:14Z</time>
    </trkpt>
    <trkpt lat="48.444635" lon="2.668297">
      <ele>148.1</ele>
      <time>2014-09-14T10:42:16Z</time>
    </trkpt>
    <trkpt lat="48.44473" lon="2.668215">
      <ele>148.2</ele>
      <time>2014-09-14T10:42:18Z</time>
    </trkpt>
    <trkpt lat="48.444805" lon="2.668094">
      <ele>148.2</ele>
      <time>2014-09-14T10:42:20Z</time>
    </trkpt>
    <trkpt lat="48.444877" lon="2.66801">
      <ele>148.3</ele>
      <time>2014-09-14T10:42:22Z</time>
    </trkpt>
    <trkpt lat="48.444973" lon="2.667867">
      <ele>148.4</ele>
      <time>2014-09-14T10:42:25Z</time>
    </trkpt>
    <trkpt lat="48.445045" lon="2.667772">
      <ele>148.3</ele>
      <time>2014-09-14T10:42:27Z</time>
    </trkpt>
    <trkpt lat="48.445159" lon="2.66767">
      <ele>148.2</ele>
      <time>2014-09-14T10:42:30Z</time>
    </trkpt>
    <trkpt lat="48.445344" lon="2.667467">
      <ele>148.0</ele>
      <time>2014-09-14T10:42:34Z</time>
    </trkpt>
    <trkpt lat="48.445439" lon="2.667364">
      <ele>147.8</ele>
      <time>2014-09-14T10:42:36Z</time>
    </trkpt>
    <trkpt lat="48.445539" lon="2.667223">
      <ele>147.7</ele>
      <time>2014-09-14T10:42:39Z</time>
    </trkpt>
    <trkpt lat="48.445632" lon="2.667151">
      <ele>147.6</ele>
      <time>2014-09-14T10:42:41Z</time>
    </trkpt>
    <trkpt lat="48.445703" lon="2.667055">
      <ele>147.5</ele>
      <time>2014-09-14T10:42:43Z</time>
    </trkpt>
    <trkpt lat="48.445793" lon="2.666959">
      <ele>147.4</ele>
      <time>2014-09-14T10:42:45Z</time>
    </trkpt>
    <trkpt lat="48.445864" lon="2.666858">
      <ele>147.2</ele>
      <time>2014-09-14T10:42:47Z</time>
    </trkpt>
    <trkpt lat="48.445936" lon="2.666769">
      <ele>147.1</ele>
      <time>2014-09-14T10:42:49Z</time>
    </trkpt>
    <trkpt lat="48.446012" lon="2.666683">
      <ele>147.0</ele>
      <time>2014-09-14T10:42:51Z</time>
    </trkpt>
    <trkpt lat="48.446094" lon="2.66658">
      <ele>147.0</ele>
      <time>2014-09-14T10:42:53Z</time>
    </trkpt>
    <trkpt lat="48.446185" lon="2.66648">
      <ele>147.0</ele>
      <time>2014-09-14T10:42:55Z</time>
    </trkpt>
    <trkpt lat="48.446247" lon="2.666373">
      <ele>147.0</ele>
      <time>2014-09-14T10:42:57Z</time>
    </trkpt>
    <trkpt lat="48.446321" lon="2.666276">
      <ele>147.0</ele>
      <time>2014-09-14T10:42:59Z</time>
    </trkpt>
    <trkpt lat="48.446395" lon="2.666191">
      <ele>147.0</ele>
      <time>2014-09-14T10:43:01Z</time>
    </trkpt>
    <trkpt lat="48.446475" lon="2.666097">
      <ele>147.0</ele>
      <time>2014-09-14T10:43:03Z</time>
    </trkpt>
    <trkpt lat="48.446559" lon="2.666006">
      <ele>147.0</ele>
      <time>2014-09-14T10:43:05Z</time>
    </trkpt>
    <trkpt lat="48.446695" lon="2.665833">
      <ele>147.0</ele>
      <time>2014-09-14T10:43:09Z</time>
    </trkpt>
    <trkpt lat="48.446791" lon="2.6657">
      <ele>147.0</ele>
      <time>2014-09-14T10:43:12Z</time>
    </trkpt>
    <trkpt lat="48.446904" lon="2.665574">
      <ele>147.0</ele>
      <time>2014-09-14T10:43:15Z</time>
    </trkpt>
    <trkpt lat="48.447021" lon="2.665425">
      <ele>146.9</ele>
      <time>2014-09-14T10:43:18Z</time>
    </trkpt>
    <trkpt lat="48.447094" lon="2.665325">
      <ele>146.9</ele>
      <time>2014-09-14T10:43:20Z</time>
    </trkpt>
    <trkpt lat="48.447197" lon="2.665196">
      <ele>146.9</ele>
      <time>2014-09-14T10:43:23Z</time>
    </trkpt>
    <trkpt lat="48.447349" lon="2.665032">
      <ele>146.9</ele>
      <time>2014-09-14T10:43:27Z</time>
    </trkpt>
    <trkpt lat="48.447442" lon="2.664883">
      <ele>146.9</ele>
      <time>2014-09-14T10:43:30Z</time>
    </trkpt>
    <trkpt lat="48.447522" lon="2.664788">
      <ele>146.9</ele>
      <time>2014-09-14T10:43:32Z</time>
    </trkpt>
    <trkpt lat="48.447711" lon="2.664598">
      <ele>146.1</ele>
      <time>2014-09-14T10:43:36Z</time>
    </trkpt>
    <trkpt lat="48.447762" lon="2.664485">
      <ele>145.7</ele>
      <time>2014-09-14T10:43:38Z</time>
    </trkpt>
    <trkpt lat="48.447863" lon="2.664384">
      <ele>145.0</ele>
      <time>2014-09-14T10:43:41Z</time>
    </trkpt>
    <trkpt lat="48.447948" lon="2.664317">
      <ele>144.3</ele>
      <time>2014-09-14T10:43:44Z</time>
    </trkpt>
    <trkpt lat="48.448079" lon="2.664388">
      <ele>143.8</ele>
      <time>2014-09-14T10:43:47Z</time>
    </trkpt>
    <trkpt lat="48.44816" lon="2.664485">
      <ele>143.8</ele>
      <time>2014-09-14T10:43:50Z</time>
    </trkpt>
    <trkpt lat="48.448257" lon="2.664544">
      <ele>143.6</ele>
      <time>2014-09-14T10:43:52Z</time>
    </trkpt>
    <trkpt lat="48.448389" lon="2.664677">
      <ele>143.8</ele>
      <time>2014-09-14T10:43:55Z</time>
    </trkpt>
    <trkpt lat="48.448503" lon="2.664825">
      <ele>144.2</ele>
      <time>2014-09-14T10:43:58Z</time>
    </trkpt>
    <trkpt lat="48.448613" lon="2.664901">
      <ele>144.1</ele>
      <time>2014-09-14T10:44:01Z</time>
    </trkpt>
    <trkpt lat="48.448692" lon="2.664967">
      <ele>144.1</ele>
      <time>2014-09-14T10:44:02Z</time>
    </trkpt>
    <trkpt lat="48.448774" lon="2.665028">
      <ele>144.0</ele>
      <time>2014-09-14T10:44:04Z</time>
    </trkpt>
    <trkpt lat="48.448866" lon="2.665102">
      <ele>143.8</ele>
      <time>2014-09-14T10:44:06Z</time>
    </trkpt>
    <trkpt lat="48.448977" lon="2.665221">
      <ele>143.7</ele>
      <time>2014-09-14T10:44:09Z</time>
    </trkpt>
    <trkpt lat="48.44907" lon="2.665306">
      <ele>143.6</ele>
      <time>2014-09-14T10:44:11Z</time>
    </trkpt>
    <trkpt lat="48.449151" lon="2.665405">
      <ele>143.5</ele>
      <time>2014-09-14T10:44:13Z</time>
    </trkpt>
    <trkpt lat="48.449221" lon="2.665506">
      <ele>143.9</ele>
      <time>2014-09-14T10:44:16Z</time>
    </trkpt>
    <trkpt lat="48.449302" lon="2.665632">
      <ele>144.4</ele>
      <time>2014-09-14T10:44:18Z</time>
    </trkpt>
    <trkpt lat="48.449428" lon="2.665702">
      <ele>144.7</ele>
      <time>2014-09-14T10:44:20Z</time>
    </trkpt>
    <trkpt lat="48.449538" lon="2.665796">
      <ele>144.9</ele>
      <time>2014-09-14T10:44:22Z</time>
    </trkpt>
    <trkpt lat="48.449632" lon="2.665925">
      <ele>145.4</ele>
      <time>2014-09-14T10:44:25Z</time>
    </trkpt>
    <trkpt lat="48.449735" lon="2.666022">
      <ele>145.9</ele>
      <time>2014-09-14T10:44:28Z</time>
    </trkpt>
    <trkpt lat="48.449823" lon="2.666098">
      <ele>146.3</ele>
      <time>2014-09-14T10:44:31Z</time>
    </trkpt>
    <trkpt lat="48.449945" lon="2.666226">
      <ele>146.9</ele>
      <time>2014-09-14T10:44:35Z</time>
    </trkpt>
    <trkpt lat="48.45016" lon="2.666139">
      <ele>145.4</ele>
      <time>2014-09-14T10:44:43Z</time>
    </trkpt>
    <trkpt lat="48.450208" lon="2.665954">
      <ele>144.3</ele>
      <time>2014-09-14T10:44:46Z</time>
    </trkpt>
    <trkpt lat="48.450243" lon="2.665826">
      <ele>143.5</ele>
      <time>2014-09-14T10:44:48Z</time>
    </trkpt>
    <trkpt lat="48.450284" lon="2.665653">
      <ele>143.4</ele>
      <time>2014-09-14T10:44:51Z</time>
    </trkpt>
    <trkpt lat="48.45034" lon="2.665477">
      <ele>143.3</ele>
      <time>2014-09-14T10:44:54Z</time>
    </trkpt>
    <trkpt lat="48.450388" lon="2.66531">
      <ele>143.3</ele>
      <time>2014-09-14T10:44:57Z</time>
    </trkpt>
    <trkpt lat="48.45041" lon="2.665176">
      <ele>143.3</ele>
      <time>2014-09-14T10:44:59Z</time>
    </trkpt>
    <trkpt lat="48.450477" lon="2.664949">
      <ele>143.4</ele>
      <time>2014-09-14T10:45:03Z</time>
    </trkpt>
    <trkpt lat="48.450528" lon="2.664822">
      <ele>143.4</ele>
      <time>2014-09-14T10:45:05Z</time>
    </trkpt>
    <trkpt lat="48.450606" lon="2.664617">
      <ele>143.4</ele>
      <time>2014-09-14T10:45:08Z</time>
    </trkpt>
    <trkpt lat="48.450659" lon="2.664449">
      <ele>143.4</ele>
      <time>2014-09-14T10:45:11Z</time>
    </trkpt>
    <trkpt lat="48.450714" lon="2.664283">
      <ele>143.4</ele>
      <time>2014-09-14T10:45:13Z</time>
    </trkpt>
    <trkpt lat="48.450748" lon="2.664128">
      <ele>143.4</ele>
      <time>2014-09-14T10:45:15Z</time>
    </trkpt>
    <trkpt lat="48.450816" lon="2.664014">
      <ele>143.1</ele>
      <time>2014-09-14T10:45:17Z</time>
    </trkpt>
    <trkpt lat="48.450886" lon="2.663826">
      <ele>142.6</ele>
      <time>2014-09-14T10:45:20Z</time>
    </trkpt>
    <trkpt lat="48.450916" lon="2.663675">
      <ele>142.3</ele>
      <time>2014-09-14T10:45:22Z</time>
    </trkpt>
    <trkpt lat="48.450946" lon="2.663461">
      <ele>142.1</ele>
      <time>2014-09-14T10:45:25Z</time>
    </trkpt>
    <trkpt lat="48.450934" lon="2.663282">
      <ele>142.2</ele>
      <time>2014-09-14T10:45:27Z</time>
    </trkpt>
    <trkpt lat="48.450949" lon="2.663087">
      <ele>142.4</ele>
      <time>2014-09-14T10:45:29Z</time>
    </trkpt>
    <trkpt lat="48.450989" lon="2.662949">
      <ele>142.3</ele>
      <time>2014-09-14T10:45:31Z</time>
    </trkpt>
    <trkpt lat="48.451071" lon="2.662757">
      <ele>142.1</ele>
      <time>2014-09-14T10:45:33Z</time>
    </trkpt>
    <trkpt lat="48.451134" lon="2.662552">
      <ele>142.1</ele>
      <time>2014-09-14T10:45:37Z</time>
    </trkpt>
    <trkpt lat="48.45124" lon="2.662141">
      <ele>142.9</ele>
      <time>2014-09-14T10:45:42Z</time>
    </trkpt>
    <trkpt lat="48.451272" lon="2.662011">
      <ele>143.1</ele>
      <time>2014-09-14T10:45:44Z</time>
    </trkpt>
    <trkpt lat="48.451323" lon="2.661873">
      <ele>143.3</ele>
      <time>2014-09-14T10:45:46Z</time>
    </trkpt>
    <trkpt lat="48.451357" lon="2.661688">
      <ele>143.8</ele>
      <time>2014-09-14T10:45:49Z</time>
    </trkpt>
    <trkpt lat="48.451399" lon="2.661545">
      <ele>144.0</ele>
      <time>2014-09-14T10:45:51Z</time>
    </trkpt>
    <trkpt lat="48.451441" lon="2.66142">
      <ele>144.1</ele>
      <time>2014-09-14T10:45:53Z</time>
    </trkpt>
    <trkpt lat="48.451498" lon="2.661278">
      <ele>144.2</ele>
      <time>2014-09-14T10:45:55Z</time>
    </trkpt>
    <trkpt lat="48.451516" lon="2.661133">
      <ele>144.6</ele>
      <time>2014-09-14T10:45:58Z</time>
    </trkpt>
    <trkpt lat="48.451585" lon="2.660948">
      <ele>144.9</ele>
      <time>2014-09-14T10:46:01Z</time>
    </trkpt>
    <trkpt lat="48.451664" lon="2.660692">
      <ele>145.3</ele>
      <time>2014-09-14T10:46:04Z</time>
    </trkpt>
    <trkpt lat="48.451724" lon="2.660541">
      <ele>145.2</ele>
      <time>2014-09-14T10:46:06Z</time>
    </trkpt>
    <trkpt lat="48.45174" lon="2.660368">
      <ele>145.5</ele>
      <time>2014-09-14T10:46:09Z</time>
    </trkpt>
    <trkpt lat="48.451828" lon="2.660215">
      <ele>145.0</ele>
      <time>2014-09-14T10:46:11Z</time>
    </trkpt>
    <trkpt lat="48.451865" lon="2.660033">
      <ele>145.0</ele>
      <time>2014-09-14T10:46:14Z</time>
    </trkpt>
    <trkpt lat="48.451884" lon="2.65986">
      <ele>145.1</ele>
      <time>2014-09-14T10:46:17Z</time>
    </trkpt>
    <trkpt lat="48.451955" lon="2.659719">
      <ele>144.7</ele>
      <time>2014-09-14T10:46:19Z</time>
    </trkpt>
    <trkpt lat="48.45204" lon="2.65953">
      <ele>144.2</ele>
      <time>2014-09-14T10:46:21Z</time>
    </trkpt>
    <trkpt lat="48.452117" lon="2.659458">
      <ele>143.7</ele>
      <time>2014-09-14T10:46:23Z</time>
    </trkpt>
    <trkpt lat="48.452209" lon="2.659434">
      <ele>142.9</ele>
      <time>2014-09-14T10:46:25Z</time>
    </trkpt>
    <trkpt lat="48.452306" lon="2.65949">
      <ele>141.9</ele>
      <time>2014-09-14T10:46:27Z</time>
    </trkpt>
    <trkpt lat="48.452448" lon="2.659512">
      <ele>140.6</ele>
      <time>2014-09-14T10:46:30Z</time>
    </trkpt>
    <trkpt lat="48.452616" lon="2.659515">
      <ele>139.8</ele>
      <time>2014-09-14T10:46:32Z</time>
    </trkpt>
    <trkpt lat="48.45273" lon="2.659546">
      <ele>139.4</ele>
      <time>2014-09-14T10:46:33Z</time>
    </trkpt>
    <trkpt lat="48.452823" lon="2.65959">
      <ele>139.0</ele>
      <time>2014-09-14T10:46:36Z</time>
    </trkpt>
    <trkpt lat="48.452948" lon="2.659566">
      <ele>138.7</ele>
      <time>2014-09-14T10:46:38Z</time>
    </trkpt>
    <trkpt lat="48.453188" lon="2.659628">
      <ele>138.0</ele>
      <time>2014-09-14T10:46:43Z</time>
    </trkpt>
    <trkpt lat="48.453299" lon="2.659705">
      <ele>137.7</ele>
      <time>2014-09-14T10:46:45Z</time>
    </trkpt>
    <trkpt lat="48.453449" lon="2.659689">
      <ele>137.6</ele>
      <time>2014-09-14T10:46:47Z</time>
    </trkpt>
    <trkpt lat="48.453558" lon="2.659698">
      <ele>137.6</ele>
      <time>2014-09-14T10:46:48Z</time>
    </trkpt>
    <trkpt lat="48.453667" lon="2.659706">
      <ele>137.6</ele>
      <time>2014-09-14T10:46:51Z</time>
    </trkpt>
    <trkpt lat="48.453789" lon="2.659695">
      <ele>137.6</ele>
      <time>2014-09-14T10:46:53Z</time>
    </trkpt>
    <trkpt lat="48.45397" lon="2.659721">
      <ele>137.7</ele>
      <time>2014-09-14T10:46:56Z</time>
    </trkpt>
    <trkpt lat="48.454082" lon="2.659732">
      <ele>137.7</ele>
      <time>2014-09-14T10:46:58Z</time>
    </trkpt>
    <trkpt lat="48.45422" lon="2.659747">
      <ele>137.6</ele>
      <time>2014-09-14T10:47:00Z</time>
    </trkpt>
    <trkpt lat="48.454387" lon="2.65978">
      <ele>137.3</ele>
      <time>2014-09-14T10:47:02Z</time>
    </trkpt>
    <trkpt lat="48.454513" lon="2.65979">
      <ele>137.0</ele>
      <time>2014-09-14T10:47:04Z</time>
    </trkpt>
    <trkpt lat="48.454617" lon="2.659865">
      <ele>136.8</ele>
      <time>2014-09-14T10:47:06Z</time>
    </trkpt>
    <trkpt lat="48.454714" lon="2.659889">
      <ele>136.6</ele>
      <time>2014-09-14T10:47:08Z</time>
    </trkpt>
    <trkpt lat="48.45485" lon="2.659904">
      <ele>136.3</ele>
      <time>2014-09-14T10:47:10Z</time>
    </trkpt>
    <trkpt lat="48.454966" lon="2.659924">
      <ele>136.1</ele>
      <time>2014-09-14T10:47:12Z</time>
    </trkpt>
    <trkpt lat="48.455081" lon="2.659909">
      <ele>135.8</ele>
      <time>2014-09-14T10:47:14Z</time>
    </trkpt>
    <trkpt lat="48.455265" lon="2.659966">
      <ele>135.4</ele>
      <time>2014-09-14T10:47:17Z</time>
    </trkpt>
    <trkpt lat="48.455453" lon="2.660013">
      <ele>134.9</ele>
      <time>2014-09-14T10:47:20Z</time>
    </trkpt>
    <trkpt lat="48.455597" lon="2.660028">
      <ele>134.5</ele>
      <time>2014-09-14T10:47:22Z</time>
    </trkpt>
    <trkpt lat="48.455712" lon="2.660047">
      <ele>134.2</ele>
      <time>2014-09-14T10:47:24Z</time>
    </trkpt>
    <trkpt lat="48.455821" lon="2.660047">
      <ele>134.0</ele>
      <time>2014-09-14T10:47:26Z</time>
    </trkpt>
    <trkpt lat="48.455913" lon="2.660055">
      <ele>133.6</ele>
      <time>2014-09-14T10:47:27Z</time>
    </trkpt>
    <trkpt lat="48.456109" lon="2.660105">
      <ele>132.8</ele>
      <time>2014-09-14T10:47:30Z</time>
    </trkpt>
    <trkpt lat="48.456237" lon="2.660049">
      <ele>132.4</ele>
      <time>2014-09-14T10:47:33Z</time>
    </trkpt>
    <trkpt lat="48.45629" lon="2.659899">
      <ele>132.4</ele>
      <time>2014-09-14T10:47:36Z</time>
    </trkpt>
    <trkpt lat="48.456347" lon="2.659716">
      <ele>132.2</ele>
      <time>2014-09-14T10:47:39Z</time>
    </trkpt>
    <trkpt lat="48.456433" lon="2.659285">
      <ele>132.2</ele>
      <time>2014-09-14T10:47:44Z</time>
    </trkpt>
    <trkpt lat="48.45649" lon="2.659078">
      <ele>132.0</ele>
      <time>2014-09-14T10:47:46Z</time>
    </trkpt>
    <trkpt lat="48.456525" lon="2.65893">
      <ele>131.7</ele>
      <time>2014-09-14T10:47:48Z</time>
    </trkpt>
    <trkpt lat="48.45657" lon="2.65877">
      <ele>131.2</ele>
      <time>2014-09-14T10:47:50Z</time>
    </trkpt>
    <trkpt lat="48.4566" lon="2.658626">
      <ele>130.8</ele>
      <time>2014-09-14T10:47:51Z</time>
    </trkpt>
    <trkpt lat="48.456677" lon="2.658419">
      <ele>130.1</ele>
      <time>2014-09-14T10:47:53Z</time>
    </trkpt>
    <trkpt lat="48.456762" lon="2.658191">
      <ele>129.6</ele>
      <time>2014-09-14T10:47:56Z</time>
    </trkpt>
    <trkpt lat="48.456835" lon="2.658032">
      <ele>129.4</ele>
      <time>2014-09-14T10:47:58Z</time>
    </trkpt>
    <trkpt lat="48.456917" lon="2.657896">
      <ele>129.3</ele>
      <time>2014-09-14T10:48:00Z</time>
    </trkpt>
    <trkpt lat="48.457045" lon="2.657788">
      <ele>129.1</ele>
      <time>2014-09-14T10:48:02Z</time>
    </trkpt>
    <trkpt lat="48.457145" lon="2.657751">
      <ele>128.9</ele>
      <time>2014-09-14T10:48:04Z</time>
    </trkpt>
    <trkpt lat="48.457317" lon="2.657643">
      <ele>128.8</ele>
      <time>2014-09-14T10:48:07Z</time>
    </trkpt>
    <trkpt lat="48.457429" lon="2.657597">
      <ele>128.8</ele>
      <time>2014-09-14T10:48:10Z</time>
    </trkpt>
    <trkpt lat="48.457487" lon="2.657735">
      <ele>128.2</ele>
      <time>2014-09-14T10:48:13Z</time>
    </trkpt>
    <trkpt lat="48.457503" lon="2.657891">
      <ele>127.6</ele>
      <time>2014-09-14T10:48:15Z</time>
    </trkpt>
    <trkpt lat="48.457604" lon="2.658016">
      <ele>126.8</ele>
      <time>2014-09-14T10:48:18Z</time>
    </trkpt>
    <trkpt lat="48.457717" lon="2.658052">
      <ele>126.3</ele>
      <time>2014-09-14T10:48:21Z</time>
    </trkpt>
    <trkpt lat="48.457913" lon="2.658153">
      <ele>125.1</ele>
      <time>2014-09-14T10:48:25Z</time>
    </trkpt>
    <trkpt lat="48.458002" lon="2.658261">
      <ele>124.1</ele>
      <time>2014-09-14T10:48:27Z</time>
    </trkpt>
    <trkpt lat="48.45808" lon="2.658471">
      <ele>121.7</ele>
      <time>2014-09-14T10:48:29Z</time>
    </trkpt>
    <trkpt lat="48.458155" lon="2.6587">
      <ele>118.7</ele>
      <time>2014-09-14T10:48:31Z</time>
    </trkpt>
    <trkpt lat="48.458304" lon="2.658879">
      <ele>115.7</ele>
      <time>2014-09-14T10:48:34Z</time>
    </trkpt>
    <trkpt lat="48.458393" lon="2.659104">
      <ele>112.0</ele>
      <time>2014-09-14T10:48:36Z</time>
    </trkpt>
    <trkpt lat="48.458457" lon="2.659249">
      <ele>109.9</ele>
      <time>2014-09-14T10:48:37Z</time>
    </trkpt>
    <trkpt lat="48.458487" lon="2.659393">
      <ele>108.5</ele>
      <time>2014-09-14T10:48:39Z</time>
    </trkpt>
    <trkpt lat="48.458612" lon="2.659681">
      <ele>105.4</ele>
      <time>2014-09-14T10:48:43Z</time>
    </trkpt>
    <trkpt lat="48.458615" lon="2.659847">
      <ele>104.3</ele>
      <time>2014-09-14T10:48:45Z</time>
    </trkpt>
    <trkpt lat="48.458614" lon="2.660042">
      <ele>103.2</ele>
      <time>2014-09-14T10:48:47Z</time>
    </trkpt>
    <trkpt lat="48.458615" lon="2.660187">
      <ele>102.9</ele>
      <time>2014-09-14T10:48:48Z</time>
    </trkpt>
    <trkpt lat="48.458647" lon="2.660497">
      <ele>102.1</ele>
      <time>2014-09-14T10:48:51Z</time>
    </trkpt>
    <trkpt lat="48.458785" lon="2.660604">
      <ele>101.2</ele>
      <time>2014-09-14T10:48:54Z</time>
    </trkpt>
    <trkpt lat="48.458868" lon="2.660698">
      <ele>100.7</ele>
      <time>2014-09-14T10:48:56Z</time>
    </trkpt>
    <trkpt lat="48.45897" lon="2.660809">
      <ele>100.0</ele>
      <time>2014-09-14T10:48:59Z</time>
    </trkpt>
    <trkpt lat="48.459041" lon="2.660936">
      <ele>99.8</ele>
      <time>2014-09-14T10:49:01Z</time>
    </trkpt>
    <trkpt lat="48.459143" lon="2.661059">
      <ele>99.6</ele>
      <time>2014-09-14T10:49:04Z</time>
    </trkpt>
    <trkpt lat="48.459242" lon="2.661099">
      <ele>99.9</ele>
      <time>2014-09-14T10:49:07Z</time>
    </trkpt>
    <trkpt lat="48.459351" lon="2.661153">
      <ele>100.4</ele>
      <time>2014-09-14T10:49:09Z</time>
    </trkpt>
    <trkpt lat="48.459449" lon="2.661211">
      <ele>100.8</ele>
      <time>2014-09-14T10:49:11Z</time>
    </trkpt>
    <trkpt lat="48.459537" lon="2.661273">
      <ele>101.1</ele>
      <time>2014-09-14T10:49:13Z</time>
    </trkpt>
    <trkpt lat="48.459648" lon="2.661321">
      <ele>101.5</ele>
      <time>2014-09-14T10:49:15Z</time>
    </trkpt>
    <trkpt lat="48.459774" lon="2.661337">
      <ele>101.8</ele>
      <time>2014-09-14T10:49:18Z</time>
    </trkpt>
    <trkpt lat="48.459889" lon="2.661369">
      <ele>102.1</ele>
      <time>2014-09-14T10:49:20Z</time>
    </trkpt>
    <trkpt lat="48.46002" lon="2.661341">
      <ele>102.5</ele>
      <time>2014-09-14T10:49:23Z</time>
    </trkpt>
    <trkpt lat="48.460113" lon="2.661316">
      <ele>103.1</ele>
      <time>2014-09-14T10:49:25Z</time>
    </trkpt>
    <trkpt lat="48.460254" lon="2.661254">
      <ele>103.9</ele>
      <time>2014-09-14T10:49:27Z</time>
    </trkpt>
    <trkpt lat="48.460362" lon="2.661193">
      <ele>104.4</ele>
      <time>2014-09-14T10:49:29Z</time>
    </trkpt>
    <trkpt lat="48.460496" lon="2.661024">
      <ele>105.0</ele>
      <time>2014-09-14T10:49:32Z</time>
    </trkpt>
    <trkpt lat="48.460571" lon="2.660888">
      <ele>105.1</ele>
      <time>2014-09-14T10:49:34Z</time>
    </trkpt>
    <trkpt lat="48.46064" lon="2.660791">
      <ele>105.4</ele>
      <time>2014-09-14T10:49:36Z</time>
    </trkpt>
    <trkpt lat="48.460746" lon="2.660685">
      <ele>105.9</ele>
      <time>2014-09-14T10:49:39Z</time>
    </trkpt>
    <trkpt lat="48.460835" lon="2.660562">
      <ele>106.3</ele>
      <time>2014-09-14T10:49:42Z</time>
    </trkpt>
    <trkpt lat="48.46102" lon="2.660476">
      <ele>105.2</ele>
      <time>2014-09-14T10:49:50Z</time>
    </trkpt>
    <trkpt lat="48.461099" lon="2.660368">
      <ele>104.8</ele>
      <time>2014-09-14T10:49:53Z</time>
    </trkpt>
    <trkpt lat="48.461224" lon="2.660326">
      <ele>104.0</ele>
      <time>2014-09-14T10:49:57Z</time>
    </trkpt>
    <trkpt lat="48.461315" lon="2.660384">
      <ele>103.3</ele>
      <time>2014-09-14T10:50:00Z</time>
    </trkpt>
    <trkpt lat="48.461439" lon="2.660389">
      <ele>102.5</ele>
      <time>2014-09-14T10:50:03Z</time>
    </trkpt>
    <trkpt lat="48.461555" lon="2.66043">
      <ele>101.7</ele>
      <time>2014-09-14T10:50:05Z</time>
    </trkpt>
    <trkpt lat="48.461663" lon="2.660392">
      <ele>101.0</ele>
      <time>2014-09-14T10:50:07Z</time>
    </trkpt>
    <trkpt lat="48.461776" lon="2.660402">
      <ele>100.8</ele>
      <time>2014-09-14T10:50:09Z</time>
    </trkpt>
    <trkpt lat="48.461909" lon="2.660359">
      <ele>100.6</ele>
      <time>2014-09-14T10:50:11Z</time>
    </trkpt>
    <trkpt lat="48.461998" lon="2.660328">
      <ele>100.4</ele>
      <time>2014-09-14T10:50:13Z</time>
    </trkpt>
    <trkpt lat="48.462121" lon="2.660315">
      <ele>100.2</ele>
      <time>2014-09-14T10:50:16Z</time>
    </trkpt>
    <trkpt lat="48.46223" lon="2.660222">
      <ele>100.1</ele>
      <time>2014-09-14T10:50:18Z</time>
    </trkpt>
    <trkpt lat="48.462351" lon="2.660138">
      <ele>100.0</ele>
      <time>2014-09-14T10:50:20Z</time>
    </trkpt>
    <trkpt lat="48.462439" lon="2.660074">
      <ele>100.0</ele>
      <time>2014-09-14T10:50:22Z</time>
    </trkpt>
    <trkpt lat="48.462545" lon="2.660035">
      <ele>100.1</ele>
      <time>2014-09-14T10:50:23Z</time>
    </trkpt>
    <trkpt lat="48.462651" lon="2.659961">
      <ele>100.3</ele>
      <time>2014-09-14T10:50:25Z</time>
    </trkpt>
    <trkpt lat="48.462805" lon="2.659854">
      <ele>100.6</ele>
      <time>2014-09-14T10:50:28Z</time>
    </trkpt>
    <trkpt lat="48.462893" lon="2.659773">
      <ele>100.8</ele>
      <time>2014-09-14T10:50:30Z</time>
    </trkpt>
    <trkpt lat="48.463043" lon="2.659633">
      <ele>101.1</ele>
      <time>2014-09-14T10:50:33Z</time>
    </trkpt>
    <trkpt lat="48.46316" lon="2.65954">
      <ele>101.5</ele>
      <time>2014-09-14T10:50:35Z</time>
    </trkpt>
    <trkpt lat="48.463258" lon="2.659443">
      <ele>101.8</ele>
      <time>2014-09-14T10:50:37Z</time>
    </trkpt>
    <trkpt lat="48.463355" lon="2.659331">
      <ele>102.0</ele>
      <time>2014-09-14T10:50:39Z</time>
    </trkpt>
    <trkpt lat="48.463476" lon="2.659204">
      <ele>101.8</ele>
      <time>2014-09-14T10:50:41Z</time>
    </trkpt>
    <trkpt lat="48.463572" lon="2.65912">
      <ele>101.7</ele>
      <time>2014-09-14T10:50:43Z</time>
    </trkpt>
    <trkpt lat="48.463781" lon="2.658984">
      <ele>101.4</ele>
      <time>2014-09-14T10:50:47Z</time>
    </trkpt>
    <trkpt lat="48.46389" lon="2.658873">
      <ele>101.2</ele>
      <time>2014-09-14T10:50:49Z</time>
    </trkpt>
    <trkpt lat="48.464005" lon="2.658814">
      <ele>101.1</ele>
      <time>2014-09-14T10:50:51Z</time>
    </trkpt>
    <trkpt lat="48.464107" lon="2.658751">
      <ele>101.0</ele>
      <time>2014-09-14T10:50:53Z</time>
    </trkpt>
    <trkpt lat="48.464229" lon="2.658669">
      <ele>100.9</ele>
      <time>2014-09-14T10:50:55Z</time>
    </trkpt>
    <trkpt lat="48.464375" lon="2.658518">
      <ele>100.7</ele>
      <time>2014-09-14T10:50:58Z</time>
    </trkpt>
    <trkpt lat="48.464493" lon="2.658504">
      <ele>100.5</ele>
      <time>2014-09-14T10:51:00Z</time>
    </trkpt>
    <trkpt lat="48.464583" lon="2.658433">
      <ele>100.4</ele>
      <time>2014-09-14T10:51:02Z</time>
    </trkpt>
    <trkpt lat="48.464723" lon="2.658402">
      <ele>100.3</ele>
      <time>2014-09-14T10:51:05Z</time>
    </trkpt>
    <trkpt lat="48.46495" lon="2.65842">
      <ele>100.0</ele>
      <time>2014-09-14T10:51:09Z</time>
    </trkpt>
    <trkpt lat="48.465073" lon="2.658417">
      <ele>99.7</ele>
      <time>2014-09-14T10:51:11Z</time>
    </trkpt>
    <trkpt lat="48.46528" lon="2.658377">
      <ele>99.3</ele>
      <time>2014-09-14T10:51:14Z</time>
    </trkpt>
    <trkpt lat="48.465398" lon="2.658325">
      <ele>99.1</ele>
      <time>2014-09-14T10:51:16Z</time>
    </trkpt>
    <trkpt lat="48.465518" lon="2.658373">
      <ele>98.7</ele>
      <time>2014-09-14T10:51:19Z</time>
    </trkpt>
    <trkpt lat="48.465631" lon="2.658408">
      <ele>98.5</ele>
      <time>2014-09-14T10:51:22Z</time>
    </trkpt>
    <trkpt lat="48.465718" lon="2.658343">
      <ele>98.3</ele>
      <time>2014-09-14T10:51:24Z</time>
    </trkpt>
    <trkpt lat="48.465852" lon="2.658321">
      <ele>98.0</ele>
      <time>2014-09-14T10:51:27Z</time>
    </trkpt>
    <trkpt lat="48.46595" lon="2.658302">
      <ele>98.1</ele>
      <time>2014-09-14T10:51:28Z</time>
    </trkpt>
    <trkpt lat="48.466112" lon="2.658244">
      <ele>98.1</ele>
      <time>2014-09-14T10:51:31Z</time>
    </trkpt>
    <trkpt lat="48.466264" lon="2.65824">
      <ele>98.1</ele>
      <time>2014-09-14T10:51:34Z</time>
    </trkpt>
    <trkpt lat="48.466365" lon="2.658271">
      <ele>98.1</ele>
      <time>2014-09-14T10:51:37Z</time>
    </trkpt>
    <trkpt lat="48.466507" lon="2.65826">
      <ele>98.0</ele>
      <time>2014-09-14T10:51:39Z</time>
    </trkpt>
    <trkpt lat="48.466597" lon="2.658285">
      <ele>98.0</ele>
      <time>2014-09-14T10:51:41Z</time>
    </trkpt>
    <trkpt lat="48.466713" lon="2.65833">
      <ele>97.9</ele>
      <time>2014-09-14T10:51:44Z</time>
    </trkpt>
    <trkpt lat="48.466968" lon="2.658418">
      <ele>97.2</ele>
      <time>2014-09-14T10:51:50Z</time>
    </trkpt>
    <trkpt lat="48.467151" lon="2.65841">
      <ele>96.8</ele>
      <time>2014-09-14T10:51:53Z</time>
    </trkpt>
    <trkpt lat="48.467279" lon="2.658444">
      <ele>96.5</ele>
      <time>2014-09-14T10:51:56Z</time>
    </trkpt>
    <trkpt lat="48.467394" lon="2.658462">
      <ele>96.2</ele>
      <time>2014-09-14T10:51:58Z</time>
    </trkpt>
    <trkpt lat="48.46749" lon="2.658455">
      <ele>96.0</ele>
      <time>2014-09-14T10:52:00Z</time>
    </trkpt>
    <trkpt lat="48.467624" lon="2.658489">
      <ele>95.7</ele>
      <time>2014-09-14T10:52:03Z</time>
    </trkpt>
    <trkpt lat="48.467716" lon="2.658508">
      <ele>95.5</ele>
      <time>2014-09-14T10:52:05Z</time>
    </trkpt>
    <trkpt lat="48.467879" lon="2.658507">
      <ele>95.2</ele>
      <time>2014-09-14T10:52:08Z</time>
    </trkpt>
    <trkpt lat="48.468029" lon="2.658546">
      <ele>94.9</ele>
      <time>2014-09-14T10:52:11Z</time>
    </trkpt>
    <trkpt lat="48.468169" lon="2.658567">
      <ele>94.6</ele>
      <time>2014-09-14T10:52:13Z</time>
    </trkpt>
    <trkpt lat="48.46829" lon="2.658628">
      <ele>94.4</ele>
      <time>2014-09-14T10:52:16Z</time>
    </trkpt>
    <trkpt lat="48.468402" lon="2.658672">
      <ele>94.3</ele>
      <time>2014-09-14T10:52:18Z</time>
    </trkpt>
    <trkpt lat="48.468521" lon="2.65868">
      <ele>94.2</ele>
      <time>2014-09-14T10:52:21Z</time>
    </trkpt>
    <trkpt lat="48.468781" lon="2.658662">
      <ele>93.9</ele>
      <time>2014-09-14T10:52:24Z</time>
    </trkpt>
    <trkpt lat="48.468889" lon="2.658658">
      <ele>93.7</ele>
      <time>2014-09-14T10:52:27Z</time>
    </trkpt>
    <trkpt lat="48.469016" lon="2.658652">
      <ele>93.6</ele>
      <time>2014-09-14T10:52:30Z</time>
    </trkpt>
    <trkpt lat="48.469164" lon="2.658668">
      <ele>93.4</ele>
      <time>2014-09-14T10:52:33Z</time>
    </trkpt>
    <trkpt lat="48.469315" lon="2.658662">
      <ele>92.8</ele>
      <time>2014-09-14T10:52:35Z</time>
    </trkpt>
    <trkpt lat="48.46942" lon="2.658659">
      <ele>92.4</ele>
      <time>2014-09-14T10:52:36Z</time>
    </trkpt>
    <trkpt lat="48.469562" lon="2.658671">
      <ele>91.9</ele>
      <time>2014-09-14T10:52:38Z</time>
    </trkpt>
    <trkpt lat="48.469684" lon="2.658668">
      <ele>91.4</ele>
      <time>2014-09-14T10:52:40Z</time>
    </trkpt>
    <trkpt lat="48.469782" lon="2.658671">
      <ele>91.0</ele>
      <time>2014-09-14T10:52:42Z</time>
    </trkpt>
    <trkpt lat="48.469894" lon="2.658704">
      <ele>90.7</ele>
      <time>2014-09-14T10:52:44Z</time>
    </trkpt>
    <trkpt lat="48.470081" lon="2.658738">
      <ele>90.2</ele>
      <time>2014-09-14T10:52:48Z</time>
    </trkpt>
    <trkpt lat="48.470293" lon="2.658761">
      <ele>89.5</ele>
      <time>2014-09-14T10:52:52Z</time>
    </trkpt>
    <trkpt lat="48.470384" lon="2.658799">
      <ele>89.4</ele>
      <time>2014-09-14T10:52:54Z</time>
    </trkpt>
    <trkpt lat="48.470503" lon="2.658762">
      <ele>88.8</ele>
      <time>2014-09-14T10:52:56Z</time>
    </trkpt>
    <trkpt lat="48.470613" lon="2.658741">
      <ele>88.2</ele>
      <time>2014-09-14T10:52:58Z</time>
    </trkpt>
    <trkpt lat="48.470722" lon="2.658743">
      <ele>87.8</ele>
      <time>2014-09-14T10:53:00Z</time>
    </trkpt>
    <trkpt lat="48.470862" lon="2.658774">
      <ele>87.5</ele>
      <time>2014-09-14T10:53:02Z</time>
    </trkpt>
    <trkpt lat="48.470981" lon="2.658762">
      <ele>86.7</ele>
      <time>2014-09-14T10:53:04Z</time>
    </trkpt>
    <trkpt lat="48.471075" lon="2.658746">
      <ele>86.0</ele>
      <time>2014-09-14T10:53:06Z</time>
    </trkpt>
    <trkpt lat="48.471167" lon="2.65875">
      <ele>85.5</ele>
      <time>2014-09-14T10:53:08Z</time>
    </trkpt>
    <trkpt lat="48.471291" lon="2.658589">
      <ele>84.0</ele>
      <time>2014-09-14T10:53:11Z</time>
    </trkpt>
    <trkpt lat="48.471423" lon="2.658513">
      <ele>83.2</ele>
      <time>2014-09-14T10:53:14Z</time>
    </trkpt>
    <trkpt lat="48.471517" lon="2.65845">
      <ele>82.7</ele>
      <time>2014-09-14T10:53:16Z</time>
    </trkpt>
    <trkpt lat="48.471613" lon="2.658363">
      <ele>82.2</ele>
      <time>2014-09-14T10:53:18Z</time>
    </trkpt>
    <trkpt lat="48.471749" lon="2.658249">
      <ele>82.2</ele>
      <time>2014-09-14T10:53:20Z</time>
    </trkpt>
    <trkpt lat="48.471868" lon="2.658157">
      <ele>82.4</ele>
      <time>2014-09-14T10:53:22Z</time>
    </trkpt>
    <trkpt lat="48.471966" lon="2.658108">
      <ele>82.6</ele>
      <time>2014-09-14T10:53:24Z</time>
    </trkpt>
    <trkpt lat="48.472068" lon="2.657997">
      <ele>82.8</ele>
      <time>2014-09-14T10:53:26Z</time>
    </trkpt>
    <trkpt lat="48.472206" lon="2.657903">
      <ele>83.0</ele>
      <time>2014-09-14T10:53:29Z</time>
    </trkpt>
    <trkpt lat="48.472311" lon="2.657858">
      <ele>83.1</ele>
      <time>2014-09-14T10:53:31Z</time>
    </trkpt>
    <trkpt lat="48.472397" lon="2.657783">
      <ele>83.2</ele>
      <time>2014-09-14T10:53:33Z</time>
    </trkpt>
    <trkpt lat="48.472505" lon="2.65765">
      <ele>83.2</ele>
      <time>2014-09-14T10:53:36Z</time>
    </trkpt>
    <trkpt lat="48.47259" lon="2.657573">
      <ele>83.3</ele>
      <time>2014-09-14T10:53:38Z</time>
    </trkpt>
    <trkpt lat="48.472693" lon="2.657502">
      <ele>83.5</ele>
      <time>2014-09-14T10:53:40Z</time>
    </trkpt>
    <trkpt lat="48.472788" lon="2.657421">
      <ele>83.6</ele>
      <time>2014-09-14T10:53:42Z</time>
    </trkpt>
    <trkpt lat="48.472913" lon="2.657283">
      <ele>83.7</ele>
      <time>2014-09-14T10:53:45Z</time>
    </trkpt>
    <trkpt lat="48.47305" lon="2.657159">
      <ele>83.9</ele>
      <time>2014-09-14T10:53:48Z</time>
    </trkpt>
    <trkpt lat="48.473205" lon="2.657075">
      <ele>84.2</ele>
      <time>2014-09-14T10:53:51Z</time>
    </trkpt>
    <trkpt lat="48.473385" lon="2.656818">
      <ele>84.5</ele>
      <time>2014-09-14T10:53:56Z</time>
    </trkpt>
    <trkpt lat="48.47348" lon="2.656745">
      <ele>84.9</ele>
      <time>2014-09-14T10:53:58Z</time>
    </trkpt>
    <trkpt lat="48.473612" lon="2.656688">
      <ele>85.7</ele>
      <time>2014-09-14T10:54:00Z</time>
    </trkpt>
    <trkpt lat="48.47371" lon="2.656608">
      <ele>86.3</ele>
      <time>2014-09-14T10:54:01Z</time>
    </trkpt>
    <trkpt lat="48.47384" lon="2.656596">
      <ele>87.1</ele>
      <time>2014-09-14T10:54:05Z</time>
    </trkpt>
    <trkpt lat="48.473991" lon="2.656433">
      <ele>88.1</ele>
      <time>2014-09-14T10:54:08Z</time>
    </trkpt>
    <trkpt lat="48.474102" lon="2.656342">
      <ele>88.9</ele>
      <time>2014-09-14T10:54:10Z</time>
    </trkpt>
    <trkpt lat="48.474196" lon="2.656252">
      <ele>89.6</ele>
      <time>2014-09-14T10:54:13Z</time>
    </trkpt>
    <trkpt lat="48.47433" lon="2.656054">
      <ele>90.0</ele>
      <time>2014-09-14T10:54:17Z</time>
    </trkpt>
    <trkpt lat="48.474418" lon="2.655977">
      <ele>90.2</ele>
      <time>2014-09-14T10:54:19Z</time>
    </trkpt>
    <trkpt lat="48.47453" lon="2.655922">
      <ele>90.4</ele>
      <time>2014-09-14T10:54:21Z</time>
    </trkpt>
    <trkpt lat="48.474627" lon="2.655858">
      <ele>90.5</ele>
      <time>2014-09-14T10:54:23Z</time>
    </trkpt>
    <trkpt lat="48.474787" lon="2.655787">
      <ele>90.6</ele>
      <time>2014-09-14T10:54:26Z</time>
    </trkpt>
    <trkpt lat="48.474944" lon="2.655676">
      <ele>90.5</ele>
      <time>2014-09-14T10:54:30Z</time>
    </trkpt>
    <trkpt lat="48.475057" lon="2.655557">
      <ele>90.4</ele>
      <time>2014-09-14T10:54:33Z</time>
    </trkpt>
    <trkpt lat="48.475135" lon="2.655469">
      <ele>90.4</ele>
      <time>2014-09-14T10:54:35Z</time>
    </trkpt>
    <trkpt lat="48.475226" lon="2.655392">
      <ele>90.4</ele>
      <time>2014-09-14T10:54:37Z</time>
    </trkpt>
    <trkpt lat="48.475337" lon="2.655318">
      <ele>90.4</ele>
      <time>2014-09-14T10:54:39Z</time>
    </trkpt>
    <trkpt lat="48.47541" lon="2.655211">
      <ele>90.4</ele>
      <time>2014-09-14T10:54:42Z</time>
    </trkpt>
    <trkpt lat="48.475486" lon="2.655121">
      <ele>90.4</ele>
      <time>2014-09-14T10:54:44Z</time>
    </trkpt>
    <trkpt lat="48.475572" lon="2.655057">
      <ele>90.5</ele>
      <time>2014-09-14T10:54:46Z</time>
    </trkpt>
    <trkpt lat="48.475699" lon="2.654933">
      <ele>90.5</ele>
      <time>2014-09-14T10:54:49Z</time>
    </trkpt>
    <trkpt lat="48.475838" lon="2.654846">
      <ele>90.6</ele>
      <time>2014-09-14T10:54:52Z</time>
    </trkpt>
    <trkpt lat="48.476088" lon="2.654667">
      <ele>90.6</ele>
      <time>2014-09-14T10:54:57Z</time>
    </trkpt>
    <trkpt lat="48.476181" lon="2.654598">
      <ele>90.7</ele>
      <time>2014-09-14T10:54:59Z</time>
    </trkpt>
    <trkpt lat="48.476327" lon="2.654493">
      <ele>90.7</ele>
      <time>2014-09-14T10:55:01Z</time>
    </trkpt>
    <trkpt lat="48.476432" lon="2.654383">
      <ele>90.8</ele>
      <time>2014-09-14T10:55:04Z</time>
    </trkpt>
    <trkpt lat="48.476554" lon="2.654253">
      <ele>90.8</ele>
      <time>2014-09-14T10:55:07Z</time>
    </trkpt>
    <trkpt lat="48.476694" lon="2.654191">
      <ele>91.1</ele>
      <time>2014-09-14T10:55:10Z</time>
    </trkpt>
    <trkpt lat="48.4768" lon="2.654137">
      <ele>91.1</ele>
      <time>2014-09-14T10:55:12Z</time>
    </trkpt>
    <trkpt lat="48.476887" lon="2.654073">
      <ele>91.1</ele>
      <time>2014-09-14T10:55:14Z</time>
    </trkpt>
    <trkpt lat="48.477013" lon="2.653955">
      <ele>91.2</ele>
      <time>2014-09-14T10:55:17Z</time>
    </trkpt>
    <trkpt lat="48.477104" lon="2.653811">
      <ele>91.3</ele>
      <time>2014-09-14T10:55:20Z</time>
    </trkpt>
    <trkpt lat="48.47724" lon="2.653697">
      <ele>91.7</ele>
      <time>2014-09-14T10:55:23Z</time>
    </trkpt>
    <trkpt lat="48.47734" lon="2.653595">
      <ele>92.1</ele>
      <time>2014-09-14T10:55:26Z</time>
    </trkpt>
    <trkpt lat="48.477481" lon="2.653469">
      <ele>92.8</ele>
      <time>2014-09-14T10:55:29Z</time>
    </trkpt>
    <trkpt lat="48.477605" lon="2.653329">
      <ele>93.1</ele>
      <time>2014-09-14T10:55:32Z</time>
    </trkpt>
    <trkpt lat="48.477679" lon="2.65325">
      <ele>93.1</ele>
      <time>2014-09-14T10:55:34Z</time>
    </trkpt>
    <trkpt lat="48.477838" lon="2.653119">
      <ele>92.9</ele>
      <time>2014-09-14T10:55:38Z</time>
    </trkpt>
    <trkpt lat="48.477975" lon="2.653017">
      <ele>92.8</ele>
      <time>2014-09-14T10:55:40Z</time>
    </trkpt>
    <trkpt lat="48.478091" lon="2.652896">
      <ele>92.4</ele>
      <time>2014-09-14T10:55:43Z</time>
    </trkpt>
    <trkpt lat="48.478204" lon="2.652793">
      <ele>92.1</ele>
      <time>2014-09-14T10:55:46Z</time>
    </trkpt>
    <trkpt lat="48.478269" lon="2.65268">
      <ele>91.7</ele>
      <time>2014-09-14T10:55:48Z</time>
    </trkpt>
    <trkpt lat="48.478405" lon="2.652567">
      <ele>91.1</ele>
      <time>2014-09-14T10:55:50Z</time>
    </trkpt>
    <trkpt lat="48.478499" lon="2.652525">
      <ele>90.9</ele>
      <time>2014-09-14T10:55:53Z</time>
    </trkpt>
    <trkpt lat="48.478702" lon="2.652319">
      <ele>90.4</ele>
      <time>2014-09-14T10:56:00Z</time>
    </trkpt>
    <trkpt lat="48.478807" lon="2.652307">
      <ele>90.4</ele>
      <time>2014-09-14T10:56:05Z</time>
    </trkpt>
    <trkpt lat="48.478921" lon="2.652246">
      <ele>90.3</ele>
      <time>2014-09-14T10:56:10Z</time>
    </trkpt>
    <trkpt lat="48.479017" lon="2.652188">
      <ele>90.4</ele>
      <time>2014-09-14T10:56:13Z</time>
    </trkpt>
    <trkpt lat="48.479144" lon="2.652109">
      <ele>90.5</ele>
      <time>2014-09-14T10:56:17Z</time>
    </trkpt>
    <trkpt lat="48.479232" lon="2.651937">
      <ele>90.9</ele>
      <time>2014-09-14T10:56:21Z</time>
    </trkpt>
    <trkpt lat="48.479345" lon="2.65187">
      <ele>91.3</ele>
      <time>2014-09-14T10:56:24Z</time>
    </trkpt>
    <trkpt lat="48.479444" lon="2.651813">
      <ele>91.7</ele>
      <time>2014-09-14T10:56:27Z</time>
    </trkpt>
    <trkpt lat="48.479559" lon="2.651725">
      <ele>92.3</ele>
      <time>2014-09-14T10:56:30Z</time>
    </trkpt>
    <trkpt lat="48.47969" lon="2.651587">
      <ele>92.9</ele>
      <time>2014-09-14T10:56:33Z</time>
    </trkpt>
    <trkpt lat="48.479783" lon="2.651507">
      <ele>93.2</ele>
      <time>2014-09-14T10:56:36Z</time>
    </trkpt>
    <trkpt lat="48.47988" lon="2.651435">
      <ele>93.6</ele>
      <time>2014-09-14T10:56:38Z</time>
    </trkpt>
    <trkpt lat="48.479968" lon="2.651357">
      <ele>93.9</ele>
      <time>2014-09-14T10:56:41Z</time>
    </trkpt>
    <trkpt lat="48.480059" lon="2.651267">
      <ele>94.1</ele>
      <time>2014-09-14T10:56:44Z</time>
    </trkpt>
    <trkpt lat="48.480153" lon="2.651189">
      <ele>94.4</ele>
      <time>2014-09-14T10:56:47Z</time>
    </trkpt>
    <trkpt lat="48.480236" lon="2.651118">
      <ele>94.6</ele>
      <time>2014-09-14T10:56:50Z</time>
    </trkpt>
    <trkpt lat="48.480341" lon="2.651005">
      <ele>94.8</ele>
      <time>2014-09-14T10:56:53Z</time>
    </trkpt>
    <trkpt lat="48.480556" lon="2.650811">
      <ele>95.3</ele>
      <time>2014-09-14T10:57:00Z</time>
    </trkpt>
    <trkpt lat="48.480636" lon="2.650717">
      <ele>95.4</ele>
      <time>2014-09-14T10:57:03Z</time>
    </trkpt>
    <trkpt lat="48.480719" lon="2.650649">
      <ele>95.5</ele>
      <time>2014-09-14T10:57:05Z</time>
    </trkpt>
    <trkpt lat="48.480785" lon="2.650542">
      <ele>95.6</ele>
      <time>2014-09-14T10:57:08Z</time>
    </trkpt>
    <trkpt lat="48.480879" lon="2.650492">
      <ele>95.9</ele>
      <time>2014-09-14T10:57:12Z</time>
    </trkpt>
    <trkpt lat="48.480975" lon="2.650408">
      <ele>96.3</ele>
      <time>2014-09-14T10:57:15Z</time>
    </trkpt>
    <trkpt lat="48.48106" lon="2.65034">
      <ele>96.8</ele>
      <time>2014-09-14T10:57:18Z</time>
    </trkpt>
    <trkpt lat="48.481151" lon="2.650303">
      <ele>97.3</ele>
      <time>2014-09-14T10:57:22Z</time>
    </trkpt>
    <trkpt lat="48.481242" lon="2.650212">
      <ele>97.7</ele>
      <time>2014-09-14T10:57:26Z</time>
    </trkpt>
    <trkpt lat="48.481338" lon="2.650162">
      <ele>98.2</ele>
      <time>2014-09-14T10:57:30Z</time>
    </trkpt>
    <trkpt lat="48.481422" lon="2.650074">
      <ele>98.6</ele>
      <time>2014-09-14T10:57:35Z</time>
    </trkpt>
    <trkpt lat="48.481531" lon="2.649951">
      <ele>99.3</ele>
      <time>2014-09-14T10:57:38Z</time>
    </trkpt>
    <trkpt lat="48.481618" lon="2.649863">
      <ele>100.0</ele>
      <time>2014-09-14T10:57:41Z</time>
    </trkpt>
    <trkpt lat="48.481741" lon="2.649745">
      <ele>101.0</ele>
      <time>2014-09-14T10:57:45Z</time>
    </trkpt>
    <trkpt lat="48.481822" lon="2.649629">
      <ele>101.7</ele>
      <time>2014-09-14T10:57:50Z</time>
    </trkpt>
    <trkpt lat="48.481974" lon="2.649567">
      <ele>102.5</ele>
      <time>2014-09-14T10:57:55Z</time>
    </trkpt>
    <trkpt lat="48.482158" lon="2.649448">
      <ele>103.5</ele>
      <time>2014-09-14T10:58:01Z</time>
    </trkpt>
    <trkpt lat="48.482311" lon="2.649352">
      <ele>104.2</ele>
      <time>2014-09-14T10:58:06Z</time>
    </trkpt>
    <trkpt lat="48.482392" lon="2.649252">
      <ele>104.6</ele>
      <time>2014-09-14T10:58:09Z</time>
    </trkpt>
    <trkpt lat="48.482509" lon="2.649163">
      <ele>105.0</ele>
      <time>2014-09-14T10:58:12Z</time>
    </trkpt>
    <trkpt lat="48.482607" lon="2.649066">
      <ele>104.6</ele>
      <time>2014-09-14T10:58:15Z</time>
    </trkpt>
    <trkpt lat="48.482695" lon="2.648985">
      <ele>104.2</ele>
      <time>2014-09-14T10:58:18Z</time>
    </trkpt>
    <trkpt lat="48.482796" lon="2.648922">
      <ele>103.8</ele>
      <time>2014-09-14T10:58:21Z</time>
    </trkpt>
    <trkpt lat="48.48288" lon="2.648853">
      <ele>103.4</ele>
      <time>2014-09-14T10:58:23Z</time>
    </trkpt>
    <trkpt lat="48.483001" lon="2.648772">
      <ele>102.8</ele>
      <time>2014-09-14T10:58:26Z</time>
    </trkpt>
    <trkpt lat="48.483081" lon="2.648698">
      <ele>102.4</ele>
      <time>2014-09-14T10:58:28Z</time>
    </trkpt>
    <trkpt lat="48.483157" lon="2.64862">
      <ele>102.0</ele>
      <time>2014-09-14T10:58:30Z</time>
    </trkpt>
    <trkpt lat="48.483256" lon="2.64854">
      <ele>101.4</ele>
      <time>2014-09-14T10:58:33Z</time>
    </trkpt>
    <trkpt lat="48.483377" lon="2.648445">
      <ele>100.8</ele>
      <time>2014-09-14T10:58:36Z</time>
    </trkpt>
    <trkpt lat="48.483506" lon="2.648351">
      <ele>100.2</ele>
      <time>2014-09-14T10:58:39Z</time>
    </trkpt>
    <trkpt lat="48.483631" lon="2.648288">
      <ele>99.5</ele>
      <time>2014-09-14T10:58:42Z</time>
    </trkpt>
    <trkpt lat="48.483738" lon="2.648172">
      <ele>99.0</ele>
      <time>2014-09-14T10:58:45Z</time>
    </trkpt>
    <trkpt lat="48.483845" lon="2.648051">
      <ele>98.4</ele>
      <time>2014-09-14T10:58:48Z</time>
    </trkpt>
    <trkpt lat="48.483943" lon="2.647968">
      <ele>98.0</ele>
      <time>2014-09-14T10:58:50Z</time>
    </trkpt>
    <trkpt lat="48.48404" lon="2.647884">
      <ele>97.5</ele>
      <time>2014-09-14T10:58:52Z</time>
    </trkpt>
    <trkpt lat="48.484125" lon="2.647822">
      <ele>97.2</ele>
      <time>2014-09-14T10:58:54Z</time>
    </trkpt>
    <trkpt lat="48.484225" lon="2.64772">
      <ele>97.0</ele>
      <time>2014-09-14T10:58:56Z</time>
    </trkpt>
    <trkpt lat="48.484409" lon="2.64755">
      <ele>97.0</ele>
      <time>2014-09-14T10:59:01Z</time>
    </trkpt>
    <trkpt lat="48.484529" lon="2.647453">
      <ele>97.1</ele>
      <time>2014-09-14T10:59:04Z</time>
    </trkpt>
    <trkpt lat="48.484658" lon="2.647342">
      <ele>97.3</ele>
      <time>2014-09-14T10:59:07Z</time>
    </trkpt>
    <trkpt lat="48.484755" lon="2.647271">
      <ele>97.5</ele>
      <time>2014-09-14T10:59:09Z</time>
    </trkpt>
    <trkpt lat="48.484842" lon="2.647197">
      <ele>97.7</ele>
      <time>2014-09-14T10:59:11Z</time>
    </trkpt>
    <trkpt lat="48.484924" lon="2.647119">
      <ele>97.9</ele>
      <time>2014-09-14T10:59:13Z</time>
    </trkpt>
    <trkpt lat="48.485028" lon="2.647015">
      <ele>98.1</ele>
      <time>2014-09-14T10:59:16Z</time>
    </trkpt>
    <trkpt lat="48.485124" lon="2.646921">
      <ele>98.0</ele>
      <time>2014-09-14T10:59:18Z</time>
    </trkpt>
    <trkpt lat="48.485209" lon="2.646849">
      <ele>97.9</ele>
      <time>2014-09-14T10:59:20Z</time>
    </trkpt>
    <trkpt lat="48.485318" lon="2.646777">
      <ele>97.6</ele>
      <time>2014-09-14T10:59:22Z</time>
    </trkpt>
    <trkpt lat="48.485432" lon="2.646695">
      <ele>97.4</ele>
      <time>2014-09-14T10:59:24Z</time>
    </trkpt>
    <trkpt lat="48.485544" lon="2.646633">
      <ele>97.0</ele>
      <time>2014-09-14T10:59:26Z</time>
    </trkpt>
    <trkpt lat="48.485634" lon="2.646539">
      <ele>96.7</ele>
      <time>2014-09-14T10:59:28Z</time>
    </trkpt>
    <trkpt lat="48.485754" lon="2.646458">
      <ele>96.3</ele>
      <time>2014-09-14T10:59:30Z</time>
    </trkpt>
    <trkpt lat="48.485903" lon="2.646364">
      <ele>95.7</ele>
      <time>2014-09-14T10:59:32Z</time>
    </trkpt>
    <trkpt lat="48.486033" lon="2.646249">
      <ele>95.0</ele>
      <time>2014-09-14T10:59:34Z</time>
    </trkpt>
    <trkpt lat="48.486166" lon="2.646121">
      <ele>94.3</ele>
      <time>2014-09-14T10:59:36Z</time>
    </trkpt>
    <trkpt lat="48.486222" lon="2.646005">
      <ele>93.9</ele>
      <time>2014-09-14T10:59:37Z</time>
    </trkpt>
    <trkpt lat="48.486337" lon="2.645895">
      <ele>93.1</ele>
      <time>2014-09-14T10:59:39Z</time>
    </trkpt>
    <trkpt lat="48.486462" lon="2.645803">
      <ele>92.3</ele>
      <time>2014-09-14T10:59:41Z</time>
    </trkpt>
    <trkpt lat="48.486561" lon="2.645725">
      <ele>91.9</ele>
      <time>2014-09-14T10:59:43Z</time>
    </trkpt>
    <trkpt lat="48.486643" lon="2.645658">
      <ele>91.6</ele>
      <time>2014-09-14T10:59:44Z</time>
    </trkpt>
    <trkpt lat="48.486747" lon="2.645566">
      <ele>92.0</ele>
      <time>2014-09-14T10:59:46Z</time>
    </trkpt>
    <trkpt lat="48.486914" lon="2.645406">
      <ele>92.9</ele>
      <time>2014-09-14T10:59:49Z</time>
    </trkpt>
    <trkpt lat="48.487034" lon="2.645265">
      <ele>93.5</ele>
      <time>2014-09-14T10:59:51Z</time>
    </trkpt>
    <trkpt lat="48.487138" lon="2.645213">
      <ele>93.9</ele>
      <time>2014-09-14T10:59:53Z</time>
    </trkpt>
    <trkpt lat="48.487253" lon="2.645148">
      <ele>94.3</ele>
      <time>2014-09-14T10:59:55Z</time>
    </trkpt>
    <trkpt lat="48.487398" lon="2.645027">
      <ele>94.7</ele>
      <time>2014-09-14T10:59:58Z</time>
    </trkpt>
    <trkpt lat="48.487597" lon="2.644863">
      <ele>95.0</ele>
      <time>2014-09-14T11:00:03Z</time>
    </trkpt>
    <trkpt lat="48.487733" lon="2.644702">
      <ele>95.2</ele>
      <time>2014-09-14T11:00:07Z</time>
    </trkpt>
    <trkpt lat="48.487831" lon="2.644603">
      <ele>95.4</ele>
      <time>2014-09-14T11:00:10Z</time>
    </trkpt>
    <trkpt lat="48.487919" lon="2.64453">
      <ele>95.6</ele>
      <time>2014-09-14T11:00:12Z</time>
    </trkpt>
    <trkpt lat="48.488016" lon="2.644458">
      <ele>95.8</ele>
      <time>2014-09-14T11:00:15Z</time>
    </trkpt>
    <trkpt lat="48.488149" lon="2.644345">
      <ele>96.2</ele>
      <time>2014-09-14T11:00:18Z</time>
    </trkpt>
    <trkpt lat="48.488241" lon="2.644291">
      <ele>96.5</ele>
      <time>2014-09-14T11:00:21Z</time>
    </trkpt>
    <trkpt lat="48.48832" lon="2.644215">
      <ele>96.9</ele>
      <time>2014-09-14T11:00:23Z</time>
    </trkpt>
    <trkpt lat="48.488394" lon="2.644132">
      <ele>97.0</ele>
      <time>2014-09-14T11:00:25Z</time>
    </trkpt>
    <trkpt lat="48.488502" lon="2.644011">
      <ele>97.2</ele>
      <time>2014-09-14T11:00:28Z</time>
    </trkpt>
    <trkpt lat="48.488601" lon="2.643976">
      <ele>97.2</ele>
      <time>2014-09-14T11:00:31Z</time>
    </trkpt>
    <trkpt lat="48.488695" lon="2.643897">
      <ele>97.3</ele>
      <time>2014-09-14T11:00:34Z</time>
    </trkpt>
    <trkpt lat="48.488789" lon="2.64385">
      <ele>97.4</ele>
      <time>2014-09-14T11:00:37Z</time>
    </trkpt>
    <trkpt lat="48.488889" lon="2.643797">
      <ele>97.4</ele>
      <time>2014-09-14T11:00:39Z</time>
    </trkpt>
    <trkpt lat="48.489014" lon="2.643736">
      <ele>97.5</ele>
      <time>2014-09-14T11:00:42Z</time>
    </trkpt>
    <trkpt lat="48.489128" lon="2.643737">
      <ele>97.5</ele>
      <time>2014-09-14T11:00:45Z</time>
    </trkpt>
    <trkpt lat="48.48923" lon="2.64367">
      <ele>97.9</ele>
      <time>2014-09-14T11:00:48Z</time>
    </trkpt>
    <trkpt lat="48.489314" lon="2.643596">
      <ele>98.4</ele>
      <time>2014-09-14T11:00:51Z</time>
    </trkpt>
    <trkpt lat="48.48941" lon="2.643554">
      <ele>98.9</ele>
      <time>2014-09-14T11:00:54Z</time>
    </trkpt>
    <trkpt lat="48.489556" lon="2.643523">
      <ele>99.6</ele>
      <time>2014-09-14T11:00:57Z</time>
    </trkpt>
    <trkpt lat="48.489653" lon="2.643448">
      <ele>100.2</ele>
      <time>2014-09-14T11:00:59Z</time>
    </trkpt>
    <trkpt lat="48.489859" lon="2.643205">
      <ele>101.2</ele>
      <time>2014-09-14T11:01:05Z</time>
    </trkpt>
    <trkpt lat="48.489936" lon="2.643133">
      <ele>101.5</ele>
      <time>2014-09-14T11:01:07Z</time>
    </trkpt>
    <trkpt lat="48.490034" lon="2.643001">
      <ele>101.6</ele>
      <time>2014-09-14T11:01:10Z</time>
    </trkpt>
    <trkpt lat="48.490122" lon="2.64295">
      <ele>101.6</ele>
      <time>2014-09-14T11:01:12Z</time>
    </trkpt>
    <trkpt lat="48.490197" lon="2.642861">
      <ele>101.6</ele>
      <time>2014-09-14T11:01:14Z</time>
    </trkpt>
    <trkpt lat="48.490276" lon="2.642766">
      <ele>101.5</ele>
      <time>2014-09-14T11:01:16Z</time>
    </trkpt>
    <trkpt lat="48.490358" lon="2.642671">
      <ele>101.5</ele>
      <time>2014-09-14T11:01:18Z</time>
    </trkpt>
    <trkpt lat="48.490468" lon="2.642553">
      <ele>101.6</ele>
      <time>2014-09-14T11:01:21Z</time>
    </trkpt>
    <trkpt lat="48.490628" lon="2.642362">
      <ele>101.5</ele>
      <time>2014-09-14T11:01:24Z</time>
    </trkpt>
    <trkpt lat="48.490711" lon="2.642245">
      <ele>101.5</ele>
      <time>2014-09-14T11:01:26Z</time>
    </trkpt>
    <trkpt lat="48.490783" lon="2.642161">
      <ele>101.5</ele>
      <time>2014-09-14T11:01:28Z</time>
    </trkpt>
    <trkpt lat="48.490918" lon="2.641988">
      <ele>101.3</ele>
      <time>2014-09-14T11:01:31Z</time>
    </trkpt>
    <trkpt lat="48.491044" lon="2.64183">
      <ele>101.1</ele>
      <time>2014-09-14T11:01:34Z</time>
    </trkpt>
    <trkpt lat="48.491167" lon="2.641708">
      <ele>101.0</ele>
      <time>2014-09-14T11:01:36Z</time>
    </trkpt>
    <trkpt lat="48.491222" lon="2.641595">
      <ele>101.0</ele>
      <time>2014-09-14T11:01:39Z</time>
    </trkpt>
    <trkpt lat="48.491304" lon="2.641486">
      <ele>101.1</ele>
      <time>2014-09-14T11:01:41Z</time>
    </trkpt>
    <trkpt lat="48.491382" lon="2.6414">
      <ele>101.2</ele>
      <time>2014-09-14T11:01:43Z</time>
    </trkpt>
    <trkpt lat="48.491531" lon="2.641213">
      <ele>101.5</ele>
      <time>2014-09-14T11:01:46Z</time>
    </trkpt>
    <trkpt lat="48.491616" lon="2.641026">
      <ele>101.7</ele>
      <time>2014-09-14T11:01:48Z</time>
    </trkpt>
    <trkpt lat="48.491736" lon="2.640925">
      <ele>101.8</ele>
      <time>2014-09-14T11:01:50Z</time>
    </trkpt>
    <trkpt lat="48.491873" lon="2.640753">
      <ele>101.7</ele>
      <time>2014-09-14T11:01:53Z</time>
    </trkpt>
    <trkpt lat="48.491947" lon="2.640664">
      <ele>101.6</ele>
      <time>2014-09-14T11:01:55Z</time>
    </trkpt>
    <trkpt lat="48.492029" lon="2.640524">
      <ele>101.4</ele>
      <time>2014-09-14T11:01:57Z</time>
    </trkpt>
    <trkpt lat="48.492152" lon="2.640397">
      <ele>101.1</ele>
      <time>2014-09-14T11:02:00Z</time>
    </trkpt>
    <trkpt lat="48.492343" lon="2.640148">
      <ele>100.5</ele>
      <time>2014-09-14T11:02:04Z</time>
    </trkpt>
    <trkpt lat="48.492444" lon="2.640042">
      <ele>100.2</ele>
      <time>2014-09-14T11:02:06Z</time>
    </trkpt>
    <trkpt lat="48.492541" lon="2.639928">
      <ele>99.9</ele>
      <time>2014-09-14T11:02:08Z</time>
    </trkpt>
    <trkpt lat="48.492623" lon="2.639808">
      <ele>99.8</ele>
      <time>2014-09-14T11:02:10Z</time>
    </trkpt>
    <trkpt lat="48.492707" lon="2.639719">
      <ele>99.6</ele>
      <time>2014-09-14T11:02:12Z</time>
    </trkpt>
    <trkpt lat="48.492778" lon="2.639628">
      <ele>99.4</ele>
      <time>2014-09-14T11:02:14Z</time>
    </trkpt>
    <trkpt lat="48.492891" lon="2.639535">
      <ele>99.2</ele>
      <time>2014-09-14T11:02:17Z</time>
    </trkpt>
    <trkpt lat="48.492988" lon="2.639438">
      <ele>98.9</ele>
      <time>2014-09-14T11:02:20Z</time>
    </trkpt>
    <trkpt lat="48.493072" lon="2.639318">
      <ele>98.8</ele>
      <time>2014-09-14T11:02:22Z</time>
    </trkpt>
    <trkpt lat="48.493169" lon="2.639194">
      <ele>98.6</ele>
      <time>2014-09-14T11:02:24Z</time>
    </trkpt>
    <trkpt lat="48.493283" lon="2.638979">
      <ele>98.2</ele>
      <time>2014-09-14T11:02:27Z</time>
    </trkpt>
    <trkpt lat="48.493349" lon="2.638868">
      <ele>98.0</ele>
      <time>2014-09-14T11:02:29Z</time>
    </trkpt>
    <trkpt lat="48.493482" lon="2.638737">
      <ele>97.6</ele>
      <time>2014-09-14T11:02:32Z</time>
    </trkpt>
    <trkpt lat="48.493598" lon="2.63864">
      <ele>97.2</ele>
      <time>2014-09-14T11:02:35Z</time>
    </trkpt>
    <trkpt lat="48.49368" lon="2.63852">
      <ele>97.1</ele>
      <time>2014-09-14T11:02:37Z</time>
    </trkpt>
    <trkpt lat="48.493761" lon="2.638401">
      <ele>96.9</ele>
      <time>2014-09-14T11:02:39Z</time>
    </trkpt>
    <trkpt lat="48.493841" lon="2.63829">
      <ele>96.6</ele>
      <time>2014-09-14T11:02:41Z</time>
    </trkpt>
    <trkpt lat="48.493924" lon="2.638184">
      <ele>96.1</ele>
      <time>2014-09-14T11:02:43Z</time>
    </trkpt>
    <trkpt lat="48.494064" lon="2.638009">
      <ele>95.4</ele>
      <time>2014-09-14T11:02:46Z</time>
    </trkpt>
    <trkpt lat="48.494208" lon="2.637841">
      <ele>94.7</ele>
      <time>2014-09-14T11:02:49Z</time>
    </trkpt>
    <trkpt lat="48.494304" lon="2.637716">
      <ele>94.3</ele>
      <time>2014-09-14T11:02:51Z</time>
    </trkpt>
    <trkpt lat="48.494416" lon="2.637581">
      <ele>93.8</ele>
      <time>2014-09-14T11:02:53Z</time>
    </trkpt>
    <trkpt lat="48.494514" lon="2.637461">
      <ele>93.6</ele>
      <time>2014-09-14T11:02:55Z</time>
    </trkpt>
    <trkpt lat="48.494609" lon="2.637326">
      <ele>93.6</ele>
      <time>2014-09-14T11:02:57Z</time>
    </trkpt>
    <trkpt lat="48.494749" lon="2.637159">
      <ele>93.6</ele>
      <time>2014-09-14T11:02:59Z</time>
    </trkpt>
    <trkpt lat="48.494986" lon="2.636856">
      <ele>93.8</ele>
      <time>2014-09-14T11:03:05Z</time>
    </trkpt>
    <trkpt lat="48.495093" lon="2.636733">
      <ele>93.8</ele>
      <time>2014-09-14T11:03:07Z</time>
    </trkpt>
    <trkpt lat="48.495188" lon="2.6366">
      <ele>93.6</ele>
      <time>2014-09-14T11:03:09Z</time>
    </trkpt>
    <trkpt lat="48.495294" lon="2.636474">
      <ele>93.2</ele>
      <time>2014-09-14T11:03:11Z</time>
    </trkpt>
    <trkpt lat="48.495446" lon="2.636285">
      <ele>92.5</ele>
      <time>2014-09-14T11:03:14Z</time>
    </trkpt>
    <trkpt lat="48.495533" lon="2.636182">
      <ele>92.2</ele>
      <time>2014-09-14T11:03:16Z</time>
    </trkpt>
    <trkpt lat="48.495695" lon="2.636002">
      <ele>91.6</ele>
      <time>2014-09-14T11:03:19Z</time>
    </trkpt>
    <trkpt lat="48.495802" lon="2.635904">
      <ele>91.2</ele>
      <time>2014-09-14T11:03:21Z</time>
    </trkpt>
    <trkpt lat="48.495906" lon="2.635802">
      <ele>91.3</ele>
      <time>2014-09-14T11:03:23Z</time>
    </trkpt>
    <trkpt lat="48.496003" lon="2.635718">
      <ele>91.8</ele>
      <time>2014-09-14T11:03:25Z</time>
    </trkpt>
    <trkpt lat="48.496074" lon="2.635574">
      <ele>92.0</ele>
      <time>2014-09-14T11:03:27Z</time>
    </trkpt>
    <trkpt lat="48.496161" lon="2.635493">
      <ele>92.3</ele>
      <time>2014-09-14T11:03:29Z</time>
    </trkpt>
    <trkpt lat="48.496278" lon="2.635398">
      <ele>92.6</ele>
      <time>2014-09-14T11:03:32Z</time>
    </trkpt>
    <trkpt lat="48.496434" lon="2.63524">
      <ele>92.9</ele>
      <time>2014-09-14T11:03:36Z</time>
    </trkpt>
    <trkpt lat="48.496532" lon="2.635141">
      <ele>93.0</ele>
      <time>2014-09-14T11:03:38Z</time>
    </trkpt>
  </trkseg>
</trk>
</gpx>
